<?xml version='1.0' encoding='UTF-8'?><gpx version="1.1" creator="JPX - https://github.com/jenetics/jpx" xmlns="http://www.topografix.com/GPX/1/1"><trk><trkseg><trkpt lat="46.0273972" lon="11.9128707"><ele>286.0</ele><time>2026-04-15T10:09:45.536Z</time></trkpt><trkpt lat="46.0274075" lon="11.9127586"><ele>286.0</ele><time>2026-04-15T10:09:49.537Z</time></trkpt><trkpt lat="46.0274009" lon="11.9126566"><ele>286.0</ele><time>2026-04-15T10:09:52.539Z</time></trkpt><trkpt lat="46.0274522" lon="11.9125958"><ele>286.0</ele><time>2026-04-15T10:09:56.539Z</time></trkpt><trkpt lat="46.0275309" lon="11.9125838"><ele>286.0</ele><time>2026-04-15T10:09:59.538Z</time></trkpt><trkpt lat="46.0276193" lon="11.9125709"><ele>286.0</ele><time>2026-04-15T10:10:02.539Z</time></trkpt><trkpt lat="46.0277092" lon="11.9125686"><ele>286.16666666666663</ele><time>2026-04-15T10:10:05.539Z</time></trkpt><trkpt lat="46.0278024" lon="11.9125663"><ele>286.3333333333333</ele><time>2026-04-15T10:10:08.538Z</time></trkpt><trkpt lat="46.0278891" lon="11.9125641"><ele>286.5</ele><time>2026-04-15T10:10:11.539Z</time></trkpt><trkpt lat="46.0279796" lon="11.9125618"><ele>286.6666666666667</ele><time>2026-04-15T10:10:14.538Z</time></trkpt><trkpt lat="46.0280449" lon="11.9125593"><ele>286.83333333333337</ele><time>2026-04-15T10:10:16.538Z</time></trkpt><trkpt lat="46.0281357" lon="11.9125548"><ele>287.0</ele><time>2026-04-15T10:10:19.538Z</time></trkpt><trkpt lat="46.0282028" lon="11.9125514"><ele>287.0</ele><time>2026-04-15T10:10:21.539Z</time></trkpt><trkpt lat="46.0282753" lon="11.9125478"><ele>287.0</ele><time>2026-04-15T10:10:23.539Z</time></trkpt><trkpt lat="46.0283468" lon="11.9125442"><ele>287.0</ele><time>2026-04-15T10:10:25.538Z</time></trkpt><trkpt lat="46.0284374" lon="11.9125397"><ele>287.0</ele><time>2026-04-15T10:10:28.54Z</time></trkpt><trkpt lat="46.0285059" lon="11.9125362"><ele>287.0</ele><time>2026-04-15T10:10:30.538Z</time></trkpt><trkpt lat="46.028572" lon="11.9125174"><ele>287.0</ele><time>2026-04-15T10:10:32.538Z</time></trkpt><trkpt lat="46.0286338" lon="11.9124927"><ele>287.0</ele><time>2026-04-15T10:10:34.536Z</time></trkpt><trkpt lat="46.0287191" lon="11.9124648"><ele>287.0</ele><time>2026-04-15T10:10:37.538Z</time></trkpt><trkpt lat="46.0287248" lon="11.9123376"><ele>287.0</ele><time>2026-04-15T10:10:40.539Z</time></trkpt><trkpt lat="46.0287093" lon="11.9122372"><ele>287.0</ele><time>2026-04-15T10:10:42.54Z</time></trkpt><trkpt lat="46.0287023" lon="11.9121316"><ele>287.0</ele><time>2026-04-15T10:10:44.54Z</time></trkpt><trkpt lat="46.028688" lon="11.9120261"><ele>287.0</ele><time>2026-04-15T10:10:46.539Z</time></trkpt><trkpt lat="46.0286703" lon="11.9119224"><ele>287.0</ele><time>2026-04-15T10:10:48.537Z</time></trkpt><trkpt lat="46.0286559" lon="11.9118208"><ele>287.0</ele><time>2026-04-15T10:10:50.535Z</time></trkpt><trkpt lat="46.0286437" lon="11.9117139"><ele>287.0</ele><time>2026-04-15T10:10:52.536Z</time></trkpt><trkpt lat="46.0286335" lon="11.9116122"><ele>287.0</ele><time>2026-04-15T10:10:54.537Z</time></trkpt><trkpt lat="46.0286231" lon="11.911507"><ele>287.0</ele><time>2026-04-15T10:10:56.539Z</time></trkpt><trkpt lat="46.0286102" lon="11.9114004"><ele>287.0</ele><time>2026-04-15T10:10:58.539Z</time></trkpt><trkpt lat="46.0285997" lon="11.9112955"><ele>287.0</ele><time>2026-04-15T10:11:00.54Z</time></trkpt><trkpt lat="46.028592" lon="11.9111902"><ele>287.0</ele><time>2026-04-15T10:11:02.54Z</time></trkpt><trkpt lat="46.0285819" lon="11.9110788"><ele>287.0</ele><time>2026-04-15T10:11:04.539Z</time></trkpt><trkpt lat="46.0285766" lon="11.9109654"><ele>287.0</ele><time>2026-04-15T10:11:06.538Z</time></trkpt><trkpt lat="46.0285701" lon="11.9108443"><ele>287.0</ele><time>2026-04-15T10:11:08.54Z</time></trkpt><trkpt lat="46.0285683" lon="11.9107278"><ele>287.0</ele><time>2026-04-15T10:11:10.538Z</time></trkpt><trkpt lat="46.0285609" lon="11.9106106"><ele>287.0</ele><time>2026-04-15T10:11:12.54Z</time></trkpt><trkpt lat="46.028555" lon="11.910495"><ele>287.0</ele><time>2026-04-15T10:11:14.539Z</time></trkpt><trkpt lat="46.0285479" lon="11.9103854"><ele>287.0</ele><time>2026-04-15T10:11:16.537Z</time></trkpt><trkpt lat="46.0285477" lon="11.9102742"><ele>287.0</ele><time>2026-04-15T10:11:18.539Z</time></trkpt><trkpt lat="46.0285492" lon="11.9101631"><ele>287.0</ele><time>2026-04-15T10:11:20.538Z</time></trkpt><trkpt lat="46.0285451" lon="11.9100521"><ele>287.0</ele><time>2026-04-15T10:11:22.539Z</time></trkpt><trkpt lat="46.0285389" lon="11.9099416"><ele>287.0</ele><time>2026-04-15T10:11:24.538Z</time></trkpt><trkpt lat="46.0285289" lon="11.9098314"><ele>287.0</ele><time>2026-04-15T10:11:26.539Z</time></trkpt><trkpt lat="46.0285149" lon="11.909727"><ele>286.83333333333337</ele><time>2026-04-15T10:11:28.539Z</time></trkpt><trkpt lat="46.0285068" lon="11.9096214"><ele>286.6666666666667</ele><time>2026-04-15T10:11:30.539Z</time></trkpt><trkpt lat="46.028496" lon="11.9095133"><ele>286.5</ele><time>2026-04-15T10:11:32.537Z</time></trkpt><trkpt lat="46.0284837" lon="11.9094072"><ele>286.3333333333333</ele><time>2026-04-15T10:11:34.538Z</time></trkpt><trkpt lat="46.0284713" lon="11.9093046"><ele>286.16666666666663</ele><time>2026-04-15T10:11:36.539Z</time></trkpt><trkpt lat="46.0284586" lon="11.9091963"><ele>286.0</ele><time>2026-04-15T10:11:38.539Z</time></trkpt><trkpt lat="46.0284446" lon="11.909085"><ele>286.0</ele><time>2026-04-15T10:11:40.537Z</time></trkpt><trkpt lat="46.0284353" lon="11.9089707"><ele>286.0</ele><time>2026-04-15T10:11:42.539Z</time></trkpt><trkpt lat="46.0284266" lon="11.9088552"><ele>286.0</ele><time>2026-04-15T10:11:44.54Z</time></trkpt><trkpt lat="46.0284151" lon="11.9087428"><ele>286.0</ele><time>2026-04-15T10:11:46.537Z</time></trkpt><trkpt lat="46.0284019" lon="11.9086365"><ele>286.0</ele><time>2026-04-15T10:11:48.537Z</time></trkpt><trkpt lat="46.0283811" lon="11.9085292"><ele>286.0</ele><time>2026-04-15T10:11:50.539Z</time></trkpt><trkpt lat="46.0283584" lon="11.9084201"><ele>286.16666666666663</ele><time>2026-04-15T10:11:52.537Z</time></trkpt><trkpt lat="46.0283355" lon="11.9083068"><ele>286.3333333333333</ele><time>2026-04-15T10:11:54.54Z</time></trkpt><trkpt lat="46.0283101" lon="11.9081938"><ele>286.5</ele><time>2026-04-15T10:11:56.538Z</time></trkpt><trkpt lat="46.0282864" lon="11.9080856"><ele>286.6666666666667</ele><time>2026-04-15T10:11:58.538Z</time></trkpt><trkpt lat="46.0282737" lon="11.9079738"><ele>286.83333333333337</ele><time>2026-04-15T10:12:00.54Z</time></trkpt><trkpt lat="46.0282776" lon="11.9078632"><ele>287.0</ele><time>2026-04-15T10:12:02.54Z</time></trkpt><trkpt lat="46.0282759" lon="11.907762"><ele>286.0</ele><time>2026-04-15T10:12:04.537Z</time></trkpt><trkpt lat="46.0282384" lon="11.9076885"><ele>285.0</ele><time>2026-04-15T10:12:06.54Z</time></trkpt><trkpt lat="46.0281667" lon="11.9076941"><ele>284.0</ele><time>2026-04-15T10:12:08.54Z</time></trkpt><trkpt lat="46.0280832" lon="11.907728"><ele>283.0</ele><time>2026-04-15T10:12:10.539Z</time></trkpt><trkpt lat="46.0279954" lon="11.9077619"><ele>282.0</ele><time>2026-04-15T10:12:12.536Z</time></trkpt><trkpt lat="46.0279105" lon="11.9077876"><ele>281.0</ele><time>2026-04-15T10:12:14.539Z</time></trkpt><trkpt lat="46.0278242" lon="11.9077924"><ele>281.0</ele><time>2026-04-15T10:12:16.538Z</time></trkpt><trkpt lat="46.0277378" lon="11.907789"><ele>281.0</ele><time>2026-04-15T10:12:18.539Z</time></trkpt><trkpt lat="46.0276528" lon="11.9077721"><ele>281.0</ele><time>2026-04-15T10:12:20.537Z</time></trkpt><trkpt lat="46.027569" lon="11.9077496"><ele>281.0</ele><time>2026-04-15T10:12:22.538Z</time></trkpt><trkpt lat="46.0274824" lon="11.9077247"><ele>281.0</ele><time>2026-04-15T10:12:24.539Z</time></trkpt><trkpt lat="46.027398" lon="11.9077202"><ele>281.0</ele><time>2026-04-15T10:12:26.539Z</time></trkpt><trkpt lat="46.0273152" lon="11.9077165"><ele>280.83333333333337</ele><time>2026-04-15T10:12:28.538Z</time></trkpt><trkpt lat="46.0272325" lon="11.9077141"><ele>280.6666666666667</ele><time>2026-04-15T10:12:30.536Z</time></trkpt><trkpt lat="46.0271523" lon="11.9077202"><ele>280.5</ele><time>2026-04-15T10:12:32.539Z</time></trkpt><trkpt lat="46.0270773" lon="11.9077414"><ele>280.3333333333333</ele><time>2026-04-15T10:12:34.539Z</time></trkpt><trkpt lat="46.0269986" lon="11.9077662"><ele>280.16666666666663</ele><time>2026-04-15T10:12:36.54Z</time></trkpt><trkpt lat="46.0269137" lon="11.9077975"><ele>280.0</ele><time>2026-04-15T10:12:38.54Z</time></trkpt><trkpt lat="46.0268277" lon="11.9078307"><ele>280.0</ele><time>2026-04-15T10:12:40.538Z</time></trkpt><trkpt lat="46.026743" lon="11.9078757"><ele>280.0</ele><time>2026-04-15T10:12:42.538Z</time></trkpt><trkpt lat="46.0266559" lon="11.9079266"><ele>280.0</ele><time>2026-04-15T10:12:44.536Z</time></trkpt><trkpt lat="46.0265697" lon="11.9079708"><ele>280.0</ele><time>2026-04-15T10:12:46.538Z</time></trkpt><trkpt lat="46.0264843" lon="11.9080134"><ele>280.0</ele><time>2026-04-15T10:12:48.537Z</time></trkpt><trkpt lat="46.0264007" lon="11.9080552"><ele>280.0</ele><time>2026-04-15T10:12:50.539Z</time></trkpt><trkpt lat="46.026315" lon="11.9080946"><ele>280.0</ele><time>2026-04-15T10:12:52.537Z</time></trkpt><trkpt lat="46.0262333" lon="11.9081188"><ele>280.0</ele><time>2026-04-15T10:12:54.537Z</time></trkpt><trkpt lat="46.0261472" lon="11.9081406"><ele>280.0</ele><time>2026-04-15T10:12:56.539Z</time></trkpt><trkpt lat="46.0260573" lon="11.9081599"><ele>280.0</ele><time>2026-04-15T10:12:58.539Z</time></trkpt><trkpt lat="46.0259686" lon="11.9081653"><ele>280.0</ele><time>2026-04-15T10:13:00.537Z</time></trkpt><trkpt lat="46.0258749" lon="11.9081691"><ele>279.8333333333333</ele><time>2026-04-15T10:13:02.538Z</time></trkpt><trkpt lat="46.025788" lon="11.9081578"><ele>279.66666666666663</ele><time>2026-04-15T10:13:04.539Z</time></trkpt><trkpt lat="46.025702" lon="11.9081498"><ele>279.5</ele><time>2026-04-15T10:13:06.538Z</time></trkpt><trkpt lat="46.0256189" lon="11.9081503"><ele>279.3333333333333</ele><time>2026-04-15T10:13:08.539Z</time></trkpt><trkpt lat="46.0255389" lon="11.9081484"><ele>279.1666666666667</ele><time>2026-04-15T10:13:10.538Z</time></trkpt><trkpt lat="46.0254857" lon="11.9080913"><ele>279.0</ele><time>2026-04-15T10:13:12.539Z</time></trkpt><trkpt lat="46.0254716" lon="11.9079883"><ele>279.0</ele><time>2026-04-15T10:13:14.537Z</time></trkpt><trkpt lat="46.0254709" lon="11.9078795"><ele>279.0</ele><time>2026-04-15T10:13:16.535Z</time></trkpt><trkpt lat="46.0254883" lon="11.9077699"><ele>279.0</ele><time>2026-04-15T10:13:18.539Z</time></trkpt><trkpt lat="46.0255143" lon="11.9076547"><ele>279.0</ele><time>2026-04-15T10:13:20.538Z</time></trkpt><trkpt lat="46.025542" lon="11.9075336"><ele>279.0</ele><time>2026-04-15T10:13:22.537Z</time></trkpt><trkpt lat="46.0255709" lon="11.9074115"><ele>279.0</ele><time>2026-04-15T10:13:24.537Z</time></trkpt><trkpt lat="46.0255962" lon="11.9072899"><ele>279.1666666666667</ele><time>2026-04-15T10:13:26.538Z</time></trkpt><trkpt lat="46.0256135" lon="11.9071689"><ele>279.3333333333333</ele><time>2026-04-15T10:13:28.538Z</time></trkpt><trkpt lat="46.0256283" lon="11.9070482"><ele>279.5</ele><time>2026-04-15T10:13:30.538Z</time></trkpt><trkpt lat="46.02564" lon="11.9069278"><ele>279.66666666666663</ele><time>2026-04-15T10:13:32.539Z</time></trkpt><trkpt lat="46.025648" lon="11.9068072"><ele>279.8333333333333</ele><time>2026-04-15T10:13:34.539Z</time></trkpt><trkpt lat="46.0256447" lon="11.9066858"><ele>280.0</ele><time>2026-04-15T10:13:36.539Z</time></trkpt><trkpt lat="46.0256317" lon="11.9065624"><ele>280.0</ele><time>2026-04-15T10:13:38.539Z</time></trkpt><trkpt lat="46.025618" lon="11.9064439"><ele>280.0</ele><time>2026-04-15T10:13:40.537Z</time></trkpt><trkpt lat="46.025604" lon="11.9063234"><ele>280.0</ele><time>2026-04-15T10:13:42.539Z</time></trkpt><trkpt lat="46.0255924" lon="11.9062016"><ele>280.0</ele><time>2026-04-15T10:13:44.539Z</time></trkpt><trkpt lat="46.0255792" lon="11.9060797"><ele>280.0</ele><time>2026-04-15T10:13:46.539Z</time></trkpt><trkpt lat="46.0255652" lon="11.9059572"><ele>280.0</ele><time>2026-04-15T10:13:48.538Z</time></trkpt><trkpt lat="46.0255512" lon="11.9058336"><ele>280.66666666666663</ele><time>2026-04-15T10:13:50.539Z</time></trkpt><trkpt lat="46.0255354" lon="11.90571"><ele>281.3333333333333</ele><time>2026-04-15T10:13:52.538Z</time></trkpt><trkpt lat="46.0255219" lon="11.9055849"><ele>282.0</ele><time>2026-04-15T10:13:54.538Z</time></trkpt><trkpt lat="46.0255018" lon="11.905465"><ele>282.6666666666667</ele><time>2026-04-15T10:13:56.539Z</time></trkpt><trkpt lat="46.0254837" lon="11.9053502"><ele>283.33333333333337</ele><time>2026-04-15T10:13:58.539Z</time></trkpt><trkpt lat="46.0254697" lon="11.9052351"><ele>284.0</ele><time>2026-04-15T10:14:00.536Z</time></trkpt><trkpt lat="46.02546" lon="11.9051163"><ele>284.1666666666667</ele><time>2026-04-15T10:14:02.539Z</time></trkpt><trkpt lat="46.0254498" lon="11.9049955"><ele>284.33333333333337</ele><time>2026-04-15T10:14:04.538Z</time></trkpt><trkpt lat="46.0254397" lon="11.904879"><ele>284.5</ele><time>2026-04-15T10:14:06.537Z</time></trkpt><trkpt lat="46.0254296" lon="11.9047652"><ele>284.6666666666667</ele><time>2026-04-15T10:14:08.539Z</time></trkpt><trkpt lat="46.0254229" lon="11.9046545"><ele>284.8333333333333</ele><time>2026-04-15T10:14:10.539Z</time></trkpt><trkpt lat="46.0254336" lon="11.9045474"><ele>285.0</ele><time>2026-04-15T10:14:12.539Z</time></trkpt><trkpt lat="46.0254369" lon="11.9044467"><ele>285.0</ele><time>2026-04-15T10:14:14.538Z</time></trkpt><trkpt lat="46.0253941" lon="11.9043695"><ele>285.0</ele><time>2026-04-15T10:14:16.538Z</time></trkpt><trkpt lat="46.0253279" lon="11.9043369"><ele>285.0</ele><time>2026-04-15T10:14:18.538Z</time></trkpt><trkpt lat="46.0252497" lon="11.9043336"><ele>285.0</ele><time>2026-04-15T10:14:20.538Z</time></trkpt><trkpt lat="46.0251647" lon="11.9043505"><ele>285.0</ele><time>2026-04-15T10:14:22.537Z</time></trkpt><trkpt lat="46.0250819" lon="11.9043774"><ele>285.0</ele><time>2026-04-15T10:14:24.538Z</time></trkpt><trkpt lat="46.0249977" lon="11.9044035"><ele>284.6666666666667</ele><time>2026-04-15T10:14:26.538Z</time></trkpt><trkpt lat="46.024915" lon="11.9044337"><ele>284.3333333333333</ele><time>2026-04-15T10:14:28.539Z</time></trkpt><trkpt lat="46.0248321" lon="11.9044561"><ele>284.0</ele><time>2026-04-15T10:14:30.539Z</time></trkpt><trkpt lat="46.0247479" lon="11.904478"><ele>283.66666666666663</ele><time>2026-04-15T10:14:32.539Z</time></trkpt><trkpt lat="46.0246611" lon="11.9045052"><ele>283.3333333333333</ele><time>2026-04-15T10:14:34.539Z</time></trkpt><trkpt lat="46.0245765" lon="11.9045262"><ele>283.0</ele><time>2026-04-15T10:14:36.538Z</time></trkpt><trkpt lat="46.0244924" lon="11.9045521"><ele>283.0</ele><time>2026-04-15T10:14:38.536Z</time></trkpt><trkpt lat="46.0244081" lon="11.9045766"><ele>283.0</ele><time>2026-04-15T10:14:40.538Z</time></trkpt><trkpt lat="46.0243221" lon="11.9046036"><ele>283.0</ele><time>2026-04-15T10:14:42.537Z</time></trkpt><trkpt lat="46.0242336" lon="11.9046325"><ele>283.0</ele><time>2026-04-15T10:14:44.538Z</time></trkpt><trkpt lat="46.0241472" lon="11.9046614"><ele>283.0</ele><time>2026-04-15T10:14:46.539Z</time></trkpt><trkpt lat="46.0240618" lon="11.9046896"><ele>283.0</ele><time>2026-04-15T10:14:48.539Z</time></trkpt><trkpt lat="46.0239759" lon="11.9047166"><ele>282.3333333333333</ele><time>2026-04-15T10:14:50.538Z</time></trkpt><trkpt lat="46.0238908" lon="11.9047442"><ele>281.66666666666663</ele><time>2026-04-15T10:14:52.538Z</time></trkpt><trkpt lat="46.0238079" lon="11.9047688"><ele>281.0</ele><time>2026-04-15T10:14:54.539Z</time></trkpt><trkpt lat="46.0237288" lon="11.9047946"><ele>280.3333333333333</ele><time>2026-04-15T10:14:56.537Z</time></trkpt><trkpt lat="46.0236498" lon="11.9048145"><ele>279.6666666666667</ele><time>2026-04-15T10:14:58.535Z</time></trkpt><trkpt lat="46.0235755" lon="11.9048328"><ele>279.0</ele><time>2026-04-15T10:15:00.538Z</time></trkpt><trkpt lat="46.0234929" lon="11.9048561"><ele>279.0</ele><time>2026-04-15T10:15:02.537Z</time></trkpt><trkpt lat="46.0234152" lon="11.9048806"><ele>279.0</ele><time>2026-04-15T10:15:04.536Z</time></trkpt><trkpt lat="46.0233342" lon="11.9049046"><ele>279.0</ele><time>2026-04-15T10:15:06.537Z</time></trkpt><trkpt lat="46.0232522" lon="11.9049324"><ele>279.0</ele><time>2026-04-15T10:15:08.539Z</time></trkpt><trkpt lat="46.0231621" lon="11.9049614"><ele>279.0</ele><time>2026-04-15T10:15:10.539Z</time></trkpt><trkpt lat="46.0230764" lon="11.9049848"><ele>279.0</ele><time>2026-04-15T10:15:12.537Z</time></trkpt><trkpt lat="46.0229981" lon="11.9050072"><ele>279.0</ele><time>2026-04-15T10:15:14.539Z</time></trkpt><trkpt lat="46.0229137" lon="11.9050296"><ele>279.0</ele><time>2026-04-15T10:15:16.538Z</time></trkpt><trkpt lat="46.0228301" lon="11.9050377"><ele>279.0</ele><time>2026-04-15T10:15:18.537Z</time></trkpt><trkpt lat="46.0227458" lon="11.9050168"><ele>279.0</ele><time>2026-04-15T10:15:20.539Z</time></trkpt><trkpt lat="46.0226659" lon="11.9049671"><ele>279.0</ele><time>2026-04-15T10:15:22.537Z</time></trkpt><trkpt lat="46.0225852" lon="11.9049157"><ele>279.0</ele><time>2026-04-15T10:15:24.536Z</time></trkpt><trkpt lat="46.0225109" lon="11.904869"><ele>278.1666666666667</ele><time>2026-04-15T10:15:26.539Z</time></trkpt><trkpt lat="46.0224256" lon="11.9048656"><ele>277.3333333333333</ele><time>2026-04-15T10:15:28.537Z</time></trkpt><trkpt lat="46.0223424" lon="11.9048929"><ele>276.5</ele><time>2026-04-15T10:15:30.537Z</time></trkpt><trkpt lat="46.0222572" lon="11.9049192"><ele>275.66666666666663</ele><time>2026-04-15T10:15:32.539Z</time></trkpt><trkpt lat="46.0221726" lon="11.9049386"><ele>274.8333333333333</ele><time>2026-04-15T10:15:34.539Z</time></trkpt><trkpt lat="46.0220823" lon="11.9049611"><ele>274.0</ele><time>2026-04-15T10:15:36.537Z</time></trkpt><trkpt lat="46.0219924" lon="11.9049834"><ele>274.0</ele><time>2026-04-15T10:15:38.539Z</time></trkpt><trkpt lat="46.0219076" lon="11.9050047"><ele>274.0</ele><time>2026-04-15T10:15:40.539Z</time></trkpt><trkpt lat="46.021819" lon="11.9050327"><ele>274.0</ele><time>2026-04-15T10:15:42.538Z</time></trkpt><trkpt lat="46.0217279" lon="11.9050391"><ele>274.0</ele><time>2026-04-15T10:15:44.539Z</time></trkpt><trkpt lat="46.0216476" lon="11.9050127"><ele>274.0</ele><time>2026-04-15T10:15:46.538Z</time></trkpt><trkpt lat="46.0215774" lon="11.9049547"><ele>274.0</ele><time>2026-04-15T10:15:48.537Z</time></trkpt><trkpt lat="46.0215331" lon="11.9048652"><ele>273.8333333333333</ele><time>2026-04-15T10:15:50.537Z</time></trkpt><trkpt lat="46.0215232" lon="11.9047499"><ele>273.66666666666663</ele><time>2026-04-15T10:15:52.537Z</time></trkpt><trkpt lat="46.021525" lon="11.9046373"><ele>273.5</ele><time>2026-04-15T10:15:54.538Z</time></trkpt><trkpt lat="46.0215266" lon="11.9045182"><ele>273.3333333333333</ele><time>2026-04-15T10:15:56.538Z</time></trkpt><trkpt lat="46.0215252" lon="11.904394"><ele>273.1666666666667</ele><time>2026-04-15T10:15:58.54Z</time></trkpt><trkpt lat="46.0215162" lon="11.9042735"><ele>273.0</ele><time>2026-04-15T10:16:00.54Z</time></trkpt><trkpt lat="46.0215108" lon="11.904156"><ele>272.8333333333333</ele><time>2026-04-15T10:16:02.539Z</time></trkpt><trkpt lat="46.0215107" lon="11.9040435"><ele>272.6666666666667</ele><time>2026-04-15T10:16:04.538Z</time></trkpt><trkpt lat="46.0215059" lon="11.9039341"><ele>272.5</ele><time>2026-04-15T10:16:06.538Z</time></trkpt><trkpt lat="46.0214986" lon="11.9038261"><ele>272.33333333333337</ele><time>2026-04-15T10:16:08.539Z</time></trkpt><trkpt lat="46.021492" lon="11.9037139"><ele>272.1666666666667</ele><time>2026-04-15T10:16:10.538Z</time></trkpt><trkpt lat="46.0214899" lon="11.9036125"><ele>272.0</ele><time>2026-04-15T10:16:12.539Z</time></trkpt><trkpt lat="46.0214796" lon="11.9034981"><ele>272.0</ele><time>2026-04-15T10:16:15.539Z</time></trkpt><trkpt lat="46.0214744" lon="11.9033992"><ele>272.0</ele><time>2026-04-15T10:16:18.537Z</time></trkpt><trkpt lat="46.0214624" lon="11.9032946"><ele>272.0</ele><time>2026-04-15T10:16:22.538Z</time></trkpt><trkpt lat="46.0213979" lon="11.9032921"><ele>272.0</ele><time>2026-04-15T10:16:28.54Z</time></trkpt><trkpt lat="46.0213224" lon="11.9033404"><ele>272.0</ele><time>2026-04-15T10:16:31.54Z</time></trkpt><trkpt lat="46.0212474" lon="11.9033928"><ele>272.0</ele><time>2026-04-15T10:16:34.538Z</time></trkpt><trkpt lat="46.0211683" lon="11.903434"><ele>272.0</ele><time>2026-04-15T10:16:37.541Z</time></trkpt><trkpt lat="46.0210863" lon="11.9034831"><ele>272.0</ele><time>2026-04-15T10:16:40.539Z</time></trkpt><trkpt lat="46.021005" lon="11.9035309"><ele>272.0</ele><time>2026-04-15T10:16:43.537Z</time></trkpt><trkpt lat="46.020921" lon="11.9035695"><ele>272.0</ele><time>2026-04-15T10:16:46.534Z</time></trkpt><trkpt lat="46.0208366" lon="11.9036048"><ele>272.0</ele><time>2026-04-15T10:16:49.539Z</time></trkpt><trkpt lat="46.0207504" lon="11.9036331"><ele>272.0</ele><time>2026-04-15T10:16:52.535Z</time></trkpt><trkpt lat="46.0206883" lon="11.9036506"><ele>272.2857142857143</ele><time>2026-04-15T10:16:54.537Z</time></trkpt><trkpt lat="46.0206255" lon="11.9036719"><ele>272.57142857142856</ele><time>2026-04-15T10:16:56.541Z</time></trkpt><trkpt lat="46.0205639" lon="11.9036994"><ele>272.8571428571429</ele><time>2026-04-15T10:16:58.54Z</time></trkpt><trkpt lat="46.0204995" lon="11.9037266"><ele>273.1428571428571</ele><time>2026-04-15T10:17:00.538Z</time></trkpt><trkpt lat="46.0204334" lon="11.9037397"><ele>273.42857142857144</ele><time>2026-04-15T10:17:02.54Z</time></trkpt><trkpt lat="46.0203649" lon="11.9037509"><ele>273.7142857142857</ele><time>2026-04-15T10:17:04.539Z</time></trkpt><trkpt lat="46.0202985" lon="11.903766"><ele>274.0</ele><time>2026-04-15T10:17:06.537Z</time></trkpt><trkpt lat="46.0202343" lon="11.9037702"><ele>274.0</ele><time>2026-04-15T10:17:08.537Z</time></trkpt><trkpt lat="46.0201407" lon="11.9037851"><ele>274.0</ele><time>2026-04-15T10:17:11.539Z</time></trkpt><trkpt lat="46.0200477" lon="11.9038074"><ele>274.0</ele><time>2026-04-15T10:17:14.54Z</time></trkpt><trkpt lat="46.0199555" lon="11.9038113"><ele>274.0</ele><time>2026-04-15T10:17:17.539Z</time></trkpt><trkpt lat="46.0198875" lon="11.9038241"><ele>274.0</ele><time>2026-04-15T10:17:19.536Z</time></trkpt><trkpt lat="46.019816" lon="11.9038349"><ele>274.0</ele><time>2026-04-15T10:17:21.539Z</time></trkpt><trkpt lat="46.0197509" lon="11.9038456"><ele>274.00000000000006</ele><time>2026-04-15T10:17:23.537Z</time></trkpt><trkpt lat="46.0196874" lon="11.9038606"><ele>274.0</ele><time>2026-04-15T10:17:25.537Z</time></trkpt><trkpt lat="46.0195956" lon="11.9038721"><ele>274.0</ele><time>2026-04-15T10:17:28.54Z</time></trkpt><trkpt lat="46.0195313" lon="11.9038844"><ele>274.0</ele><time>2026-04-15T10:17:30.54Z</time></trkpt><trkpt lat="46.0194674" lon="11.903897"><ele>274.0</ele><time>2026-04-15T10:17:32.536Z</time></trkpt><trkpt lat="46.0193732" lon="11.9039046"><ele>274.00000000000006</ele><time>2026-04-15T10:17:35.539Z</time></trkpt><trkpt lat="46.0193072" lon="11.9039122"><ele>274.0</ele><time>2026-04-15T10:17:37.538Z</time></trkpt><trkpt lat="46.0192421" lon="11.9039169"><ele>273.3333333333333</ele><time>2026-04-15T10:17:39.539Z</time></trkpt><trkpt lat="46.019148" lon="11.9039327"><ele>272.66666666666663</ele><time>2026-04-15T10:17:42.539Z</time></trkpt><trkpt lat="46.0190548" lon="11.9039498"><ele>272.0</ele><time>2026-04-15T10:17:45.537Z</time></trkpt><trkpt lat="46.0189905" lon="11.9039595"><ele>271.3333333333333</ele><time>2026-04-15T10:17:47.536Z</time></trkpt><trkpt lat="46.018894" lon="11.9039691"><ele>270.6666666666667</ele><time>2026-04-15T10:17:50.537Z</time></trkpt><trkpt lat="46.0188256" lon="11.9039777"><ele>270.0</ele><time>2026-04-15T10:17:52.538Z</time></trkpt><trkpt lat="46.0187586" lon="11.9039833"><ele>270.0</ele><time>2026-04-15T10:17:54.535Z</time></trkpt><trkpt lat="46.0186935" lon="11.9039889"><ele>270.0</ele><time>2026-04-15T10:17:56.54Z</time></trkpt><trkpt lat="46.0186297" lon="11.9039986"><ele>270.0</ele><time>2026-04-15T10:17:58.539Z</time></trkpt><trkpt lat="46.0185643" lon="11.9040064"><ele>270.0</ele><time>2026-04-15T10:18:00.538Z</time></trkpt><trkpt lat="46.0185004" lon="11.9040071"><ele>270.0</ele><time>2026-04-15T10:18:02.539Z</time></trkpt><trkpt lat="46.0184096" lon="11.9040114"><ele>270.0</ele><time>2026-04-15T10:18:05.538Z</time></trkpt><trkpt lat="46.0183189" lon="11.9040197"><ele>270.0</ele><time>2026-04-15T10:18:08.538Z</time></trkpt><trkpt lat="46.0182293" lon="11.9040249"><ele>270.1666666666667</ele><time>2026-04-15T10:18:11.54Z</time></trkpt><trkpt lat="46.0181443" lon="11.9040268"><ele>270.3333333333333</ele><time>2026-04-15T10:18:14.537Z</time></trkpt><trkpt lat="46.0180682" lon="11.9040385"><ele>270.5</ele><time>2026-04-15T10:18:17.536Z</time></trkpt><trkpt lat="46.0179917" lon="11.90405"><ele>270.66666666666663</ele><time>2026-04-15T10:18:20.538Z</time></trkpt><trkpt lat="46.0179233" lon="11.9040532"><ele>270.8333333333333</ele><time>2026-04-15T10:18:23.539Z</time></trkpt><trkpt lat="46.0180101" lon="11.9040503"><ele>271.0</ele><time>2026-04-15T10:18:31.537Z</time></trkpt><trkpt lat="46.0180897" lon="11.9040324"><ele>271.0</ele><time>2026-04-15T10:18:34.535Z</time></trkpt><trkpt lat="46.018171" lon="11.9040213"><ele>271.0</ele><time>2026-04-15T10:18:37.538Z</time></trkpt><trkpt lat="46.0182606" lon="11.9040107"><ele>271.0</ele><time>2026-04-15T10:18:40.536Z</time></trkpt><trkpt lat="46.0183529" lon="11.9039999"><ele>271.0</ele><time>2026-04-15T10:18:43.536Z</time></trkpt><trkpt lat="46.0184459" lon="11.9039945"><ele>271.0</ele><time>2026-04-15T10:18:46.537Z</time></trkpt><trkpt lat="46.0185091" lon="11.9039915"><ele>271.0</ele><time>2026-04-15T10:18:48.538Z</time></trkpt><trkpt lat="46.0185745" lon="11.9039854"><ele>270.8333333333333</ele><time>2026-04-15T10:18:50.539Z</time></trkpt><trkpt lat="46.0186416" lon="11.9039822"><ele>270.66666666666663</ele><time>2026-04-15T10:18:52.537Z</time></trkpt><trkpt lat="46.0187116" lon="11.9039771"><ele>270.5</ele><time>2026-04-15T10:18:54.535Z</time></trkpt><trkpt lat="46.0188489" lon="11.9039754"><ele>270.3333333333333</ele><time>2026-04-15T10:18:58.537Z</time></trkpt><trkpt lat="46.0189152" lon="11.9039671"><ele>270.1666666666667</ele><time>2026-04-15T10:19:00.539Z</time></trkpt><trkpt lat="46.0189834" lon="11.9039619"><ele>270.0</ele><time>2026-04-15T10:19:02.538Z</time></trkpt><trkpt lat="46.0190538" lon="11.9039556"><ele>270.0</ele><time>2026-04-15T10:19:04.536Z</time></trkpt><trkpt lat="46.0191242" lon="11.9039494"><ele>270.0</ele><time>2026-04-15T10:19:06.539Z</time></trkpt><trkpt lat="46.0191965" lon="11.90394"><ele>270.0</ele><time>2026-04-15T10:19:08.537Z</time></trkpt><trkpt lat="46.0192728" lon="11.9039318"><ele>270.0</ele><time>2026-04-15T10:19:10.538Z</time></trkpt><trkpt lat="46.0193472" lon="11.9039226"><ele>270.0</ele><time>2026-04-15T10:19:12.534Z</time></trkpt><trkpt lat="46.0194212" lon="11.9039099"><ele>270.0</ele><time>2026-04-15T10:19:14.535Z</time></trkpt><trkpt lat="46.0194954" lon="11.9038988"><ele>270.0</ele><time>2026-04-15T10:19:16.535Z</time></trkpt><trkpt lat="46.0195626" lon="11.9038903"><ele>270.6666666666667</ele><time>2026-04-15T10:19:18.539Z</time></trkpt><trkpt lat="46.0196306" lon="11.9038806"><ele>271.3333333333333</ele><time>2026-04-15T10:19:20.537Z</time></trkpt><trkpt lat="46.0196966" lon="11.9038687"><ele>272.0</ele><time>2026-04-15T10:19:22.539Z</time></trkpt><trkpt lat="46.0197633" lon="11.9038541"><ele>272.66666666666663</ele><time>2026-04-15T10:19:24.537Z</time></trkpt><trkpt lat="46.0198341" lon="11.9038346"><ele>273.3333333333333</ele><time>2026-04-15T10:19:26.54Z</time></trkpt><trkpt lat="46.019906" lon="11.9038257"><ele>274.0</ele><time>2026-04-15T10:19:28.536Z</time></trkpt><trkpt lat="46.0200588" lon="11.9038222"><ele>274.00000000000006</ele><time>2026-04-15T10:19:33.537Z</time></trkpt><trkpt lat="46.0201518" lon="11.9038034"><ele>274.0</ele><time>2026-04-15T10:19:36.538Z</time></trkpt><trkpt lat="46.0202164" lon="11.9037866"><ele>274.0</ele><time>2026-04-15T10:19:38.537Z</time></trkpt><trkpt lat="46.0202794" lon="11.9037643"><ele>274.0</ele><time>2026-04-15T10:19:40.537Z</time></trkpt><trkpt lat="46.0203479" lon="11.9037507"><ele>274.0</ele><time>2026-04-15T10:19:42.537Z</time></trkpt><trkpt lat="46.0204168" lon="11.9037435"><ele>274.00000000000006</ele><time>2026-04-15T10:19:44.539Z</time></trkpt><trkpt lat="46.0204895" lon="11.9037203"><ele>274.0</ele><time>2026-04-15T10:19:46.538Z</time></trkpt><trkpt lat="46.020559" lon="11.9036976"><ele>274.00000000000006</ele><time>2026-04-15T10:19:48.537Z</time></trkpt><trkpt lat="46.0206308" lon="11.9036764"><ele>274.0</ele><time>2026-04-15T10:19:50.537Z</time></trkpt><trkpt lat="46.0207054" lon="11.9036576"><ele>274.0</ele><time>2026-04-15T10:19:52.536Z</time></trkpt><trkpt lat="46.0207756" lon="11.9036343"><ele>274.0</ele><time>2026-04-15T10:19:54.535Z</time></trkpt><trkpt lat="46.0208427" lon="11.9036043"><ele>274.0</ele><time>2026-04-15T10:19:56.537Z</time></trkpt><trkpt lat="46.0209065" lon="11.9035719"><ele>274.00000000000006</ele><time>2026-04-15T10:19:58.539Z</time></trkpt><trkpt lat="46.0209696" lon="11.903537"><ele>274.0</ele><time>2026-04-15T10:20:00.539Z</time></trkpt><trkpt lat="46.0210338" lon="11.9035018"><ele>273.66666666666663</ele><time>2026-04-15T10:20:02.539Z</time></trkpt><trkpt lat="46.0210972" lon="11.9034756"><ele>273.3333333333333</ele><time>2026-04-15T10:20:04.539Z</time></trkpt><trkpt lat="46.0211615" lon="11.9034443"><ele>273.0</ele><time>2026-04-15T10:20:06.539Z</time></trkpt><trkpt lat="46.0212297" lon="11.9034271"><ele>272.6666666666667</ele><time>2026-04-15T10:20:08.538Z</time></trkpt><trkpt lat="46.0213192" lon="11.9034186"><ele>272.33333333333337</ele><time>2026-04-15T10:20:11.539Z</time></trkpt><trkpt lat="46.0213946" lon="11.9034301"><ele>272.0</ele><time>2026-04-15T10:20:14.539Z</time></trkpt><trkpt lat="46.0214255" lon="11.9035399"><ele>272.0</ele><time>2026-04-15T10:20:18.537Z</time></trkpt><trkpt lat="46.0214224" lon="11.9036562"><ele>272.0</ele><time>2026-04-15T10:20:21.538Z</time></trkpt><trkpt lat="46.021429" lon="11.9037893"><ele>272.0</ele><time>2026-04-15T10:20:24.537Z</time></trkpt><trkpt lat="46.0214263" lon="11.903911"><ele>272.0</ele><time>2026-04-15T10:20:27.539Z</time></trkpt><trkpt lat="46.0213997" lon="11.9038187"><ele>272.0</ele><time>2026-04-15T10:20:36.537Z</time></trkpt><trkpt lat="46.0214462" lon="11.9037279"><ele>272.0</ele><time>2026-04-15T10:20:42.537Z</time></trkpt><trkpt lat="46.0214423" lon="11.9036311"><ele>272.0</ele><time>2026-04-15T10:20:45.539Z</time></trkpt><trkpt lat="46.0214398" lon="11.9035178"><ele>272.0</ele><time>2026-04-15T10:20:48.538Z</time></trkpt><trkpt lat="46.0214852" lon="11.9034039"><ele>272.0</ele><time>2026-04-15T10:20:51.539Z</time></trkpt><trkpt lat="46.0215278" lon="11.9033155"><ele>272.0</ele><time>2026-04-15T10:20:53.537Z</time></trkpt><trkpt lat="46.0215816" lon="11.903238"><ele>272.0</ele><time>2026-04-15T10:20:55.535Z</time></trkpt><trkpt lat="46.0216385" lon="11.903171"><ele>272.0</ele><time>2026-04-15T10:20:57.537Z</time></trkpt><trkpt lat="46.0216903" lon="11.9031067"><ele>272.6666666666667</ele><time>2026-04-15T10:20:59.536Z</time></trkpt><trkpt lat="46.0217434" lon="11.9030466"><ele>273.33333333333337</ele><time>2026-04-15T10:21:01.537Z</time></trkpt><trkpt lat="46.0218011" lon="11.9030096"><ele>274.0</ele><time>2026-04-15T10:21:03.539Z</time></trkpt><trkpt lat="46.0218846" lon="11.9029593"><ele>274.6666666666667</ele><time>2026-04-15T10:21:06.538Z</time></trkpt><trkpt lat="46.0219579" lon="11.9029182"><ele>275.3333333333333</ele><time>2026-04-15T10:21:09.539Z</time></trkpt><trkpt lat="46.0219562" lon="11.9028121"><ele>276.0</ele><time>2026-04-15T10:21:13.539Z</time></trkpt><trkpt lat="46.0219342" lon="11.9027002"><ele>275.6666666666667</ele><time>2026-04-15T10:21:16.539Z</time></trkpt><trkpt lat="46.0219068" lon="11.9025774"><ele>275.3333333333333</ele><time>2026-04-15T10:21:19.535Z</time></trkpt><trkpt lat="46.0218848" lon="11.9024524"><ele>275.0</ele><time>2026-04-15T10:21:22.537Z</time></trkpt><trkpt lat="46.0219532" lon="11.9023826"><ele>274.66666666666663</ele><time>2026-04-15T10:21:25.537Z</time></trkpt><trkpt lat="46.0220239" lon="11.9023471"><ele>274.3333333333333</ele><time>2026-04-15T10:21:27.539Z</time></trkpt><trkpt lat="46.0220934" lon="11.9023"><ele>274.0</ele><time>2026-04-15T10:21:29.539Z</time></trkpt><trkpt lat="46.0221571" lon="11.9022527"><ele>274.00000000000006</ele><time>2026-04-15T10:21:31.539Z</time></trkpt><trkpt lat="46.0222184" lon="11.9022102"><ele>274.0</ele><time>2026-04-15T10:21:33.537Z</time></trkpt><trkpt lat="46.0222786" lon="11.9021599"><ele>274.0</ele><time>2026-04-15T10:21:35.538Z</time></trkpt><trkpt lat="46.0223372" lon="11.9021093"><ele>274.0</ele><time>2026-04-15T10:21:37.539Z</time></trkpt><trkpt lat="46.0223976" lon="11.902056"><ele>274.0</ele><time>2026-04-15T10:21:39.539Z</time></trkpt><trkpt lat="46.0224603" lon="11.9020032"><ele>274.00000000000006</ele><time>2026-04-15T10:21:41.537Z</time></trkpt><trkpt lat="46.0225201" lon="11.9019398"><ele>274.0</ele><time>2026-04-15T10:21:43.537Z</time></trkpt><trkpt lat="46.0225816" lon="11.9018769"><ele>274.5</ele><time>2026-04-15T10:21:45.536Z</time></trkpt><trkpt lat="46.0226428" lon="11.9018134"><ele>275.0</ele><time>2026-04-15T10:21:47.537Z</time></trkpt><trkpt lat="46.022706" lon="11.9017496"><ele>275.5</ele><time>2026-04-15T10:21:49.536Z</time></trkpt><trkpt lat="46.0227675" lon="11.901681"><ele>276.0</ele><time>2026-04-15T10:21:51.535Z</time></trkpt><trkpt lat="46.0228278" lon="11.9016088"><ele>276.5</ele><time>2026-04-15T10:21:53.539Z</time></trkpt><trkpt lat="46.0228896" lon="11.9015431"><ele>277.0</ele><time>2026-04-15T10:21:55.537Z</time></trkpt><trkpt lat="46.0229533" lon="11.9014799"><ele>277.16666666666663</ele><time>2026-04-15T10:21:57.536Z</time></trkpt><trkpt lat="46.0230163" lon="11.9014106"><ele>277.3333333333333</ele><time>2026-04-15T10:21:59.538Z</time></trkpt><trkpt lat="46.023074" lon="11.9013395"><ele>277.5</ele><time>2026-04-15T10:22:01.538Z</time></trkpt><trkpt lat="46.0231376" lon="11.9012761"><ele>277.6666666666667</ele><time>2026-04-15T10:22:03.541Z</time></trkpt><trkpt lat="46.0231999" lon="11.9012135"><ele>277.83333333333337</ele><time>2026-04-15T10:22:05.539Z</time></trkpt><trkpt lat="46.0232629" lon="11.9011551"><ele>278.0</ele><time>2026-04-15T10:22:07.539Z</time></trkpt><trkpt lat="46.0233281" lon="11.9010999"><ele>278.1428571428571</ele><time>2026-04-15T10:22:09.541Z</time></trkpt><trkpt lat="46.0233924" lon="11.9010498"><ele>278.2857142857143</ele><time>2026-04-15T10:22:11.537Z</time></trkpt><trkpt lat="46.0234552" lon="11.9010041"><ele>278.42857142857144</ele><time>2026-04-15T10:22:13.541Z</time></trkpt><trkpt lat="46.0235209" lon="11.9009629"><ele>278.57142857142856</ele><time>2026-04-15T10:22:15.538Z</time></trkpt><trkpt lat="46.023588" lon="11.9009151"><ele>278.7142857142857</ele><time>2026-04-15T10:22:17.536Z</time></trkpt><trkpt lat="46.0236589" lon="11.9008706"><ele>278.85714285714283</ele><time>2026-04-15T10:22:19.538Z</time></trkpt><trkpt lat="46.0237332" lon="11.9008344"><ele>279.0</ele><time>2026-04-15T10:22:21.536Z</time></trkpt><trkpt lat="46.0238047" lon="11.9008028"><ele>279.0</ele><time>2026-04-15T10:22:23.54Z</time></trkpt><trkpt lat="46.0238757" lon="11.9007743"><ele>279.0</ele><time>2026-04-15T10:22:25.54Z</time></trkpt><trkpt lat="46.0239473" lon="11.9007382"><ele>279.0</ele><time>2026-04-15T10:22:27.536Z</time></trkpt><trkpt lat="46.0240184" lon="11.9006982"><ele>279.0</ele><time>2026-04-15T10:22:29.539Z</time></trkpt><trkpt lat="46.0240907" lon="11.9006543"><ele>279.0</ele><time>2026-04-15T10:22:31.538Z</time></trkpt><trkpt lat="46.024168" lon="11.9006219"><ele>279.0</ele><time>2026-04-15T10:22:33.54Z</time></trkpt><trkpt lat="46.0242416" lon="11.9005991"><ele>279.5</ele><time>2026-04-15T10:22:35.538Z</time></trkpt><trkpt lat="46.0243157" lon="11.9005665"><ele>280.0</ele><time>2026-04-15T10:22:37.538Z</time></trkpt><trkpt lat="46.024387" lon="11.9005255"><ele>280.5</ele><time>2026-04-15T10:22:39.54Z</time></trkpt><trkpt lat="46.0244603" lon="11.9004886"><ele>281.0</ele><time>2026-04-15T10:22:41.536Z</time></trkpt><trkpt lat="46.0245311" lon="11.9004548"><ele>281.5</ele><time>2026-04-15T10:22:43.539Z</time></trkpt><trkpt lat="46.0245935" lon="11.9004138"><ele>282.0</ele><time>2026-04-15T10:22:45.538Z</time></trkpt><trkpt lat="46.0246727" lon="11.9003658"><ele>282.0</ele><time>2026-04-15T10:22:48.539Z</time></trkpt><trkpt lat="46.0247325" lon="11.9003297"><ele>282.0</ele><time>2026-04-15T10:22:51.536Z</time></trkpt><trkpt lat="46.0248066" lon="11.9003025"><ele>282.0</ele><time>2026-04-15T10:22:55.539Z</time></trkpt><trkpt lat="46.0248909" lon="11.9002771"><ele>282.0</ele><time>2026-04-15T10:22:58.54Z</time></trkpt><trkpt lat="46.0249537" lon="11.9002428"><ele>282.0</ele><time>2026-04-15T10:23:00.538Z</time></trkpt><trkpt lat="46.0250141" lon="11.9002157"><ele>282.0</ele><time>2026-04-15T10:23:02.54Z</time></trkpt><trkpt lat="46.0250765" lon="11.9001858"><ele>282.0</ele><time>2026-04-15T10:23:04.539Z</time></trkpt><trkpt lat="46.0251401" lon="11.9001582"><ele>282.2857142857143</ele><time>2026-04-15T10:23:06.539Z</time></trkpt><trkpt lat="46.0252022" lon="11.9001254"><ele>282.57142857142856</ele><time>2026-04-15T10:23:08.537Z</time></trkpt><trkpt lat="46.0252662" lon="11.9000884"><ele>282.85714285714283</ele><time>2026-04-15T10:23:10.536Z</time></trkpt><trkpt lat="46.0253329" lon="11.900057"><ele>283.1428571428571</ele><time>2026-04-15T10:23:12.537Z</time></trkpt><trkpt lat="46.0253971" lon="11.9000257"><ele>283.4285714285714</ele><time>2026-04-15T10:23:14.54Z</time></trkpt><trkpt lat="46.0254587" lon="11.8999988"><ele>283.7142857142857</ele><time>2026-04-15T10:23:16.54Z</time></trkpt><trkpt lat="46.0255194" lon="11.8999726"><ele>284.0</ele><time>2026-04-15T10:23:18.539Z</time></trkpt><trkpt lat="46.0255812" lon="11.8999533"><ele>284.0</ele><time>2026-04-15T10:23:20.538Z</time></trkpt><trkpt lat="46.0256472" lon="11.8999273"><ele>284.0</ele><time>2026-04-15T10:23:22.538Z</time></trkpt><trkpt lat="46.0257143" lon="11.8998969"><ele>284.0</ele><time>2026-04-15T10:23:24.539Z</time></trkpt><trkpt lat="46.0257856" lon="11.8998619"><ele>284.0</ele><time>2026-04-15T10:23:26.538Z</time></trkpt><trkpt lat="46.0258595" lon="11.8998279"><ele>284.0</ele><time>2026-04-15T10:23:28.536Z</time></trkpt><trkpt lat="46.0259357" lon="11.8997913"><ele>284.0</ele><time>2026-04-15T10:23:30.536Z</time></trkpt><trkpt lat="46.0260116" lon="11.8997548"><ele>284.0</ele><time>2026-04-15T10:23:32.538Z</time></trkpt><trkpt lat="46.0260829" lon="11.8997193"><ele>284.0</ele><time>2026-04-15T10:23:34.54Z</time></trkpt><trkpt lat="46.0261542" lon="11.8996801"><ele>284.0</ele><time>2026-04-15T10:23:36.538Z</time></trkpt><trkpt lat="46.0262268" lon="11.899642"><ele>284.0</ele><time>2026-04-15T10:23:38.537Z</time></trkpt><trkpt lat="46.0263027" lon="11.899609"><ele>284.0</ele><time>2026-04-15T10:23:40.539Z</time></trkpt><trkpt lat="46.0263753" lon="11.8995729"><ele>284.0</ele><time>2026-04-15T10:23:42.539Z</time></trkpt><trkpt lat="46.0264499" lon="11.8995397"><ele>284.0</ele><time>2026-04-15T10:23:44.539Z</time></trkpt><trkpt lat="46.0265217" lon="11.8995055"><ele>284.0</ele><time>2026-04-15T10:23:46.539Z</time></trkpt><trkpt lat="46.0265932" lon="11.8994699"><ele>284.0</ele><time>2026-04-15T10:23:48.539Z</time></trkpt><trkpt lat="46.0266666" lon="11.8994343"><ele>284.0</ele><time>2026-04-15T10:23:50.539Z</time></trkpt><trkpt lat="46.0267391" lon="11.899395"><ele>284.0</ele><time>2026-04-15T10:23:52.538Z</time></trkpt><trkpt lat="46.0268094" lon="11.8993523"><ele>284.0</ele><time>2026-04-15T10:23:54.54Z</time></trkpt><trkpt lat="46.0268729" lon="11.8992899"><ele>284.5</ele><time>2026-04-15T10:23:56.539Z</time></trkpt><trkpt lat="46.0269336" lon="11.899216"><ele>285.0</ele><time>2026-04-15T10:23:58.539Z</time></trkpt><trkpt lat="46.0269894" lon="11.899141"><ele>285.5</ele><time>2026-04-15T10:24:00.537Z</time></trkpt><trkpt lat="46.027048" lon="11.8990651"><ele>286.0</ele><time>2026-04-15T10:24:02.538Z</time></trkpt><trkpt lat="46.0271067" lon="11.8989828"><ele>286.5</ele><time>2026-04-15T10:24:04.538Z</time></trkpt><trkpt lat="46.0271631" lon="11.8988986"><ele>287.0</ele><time>2026-04-15T10:24:06.537Z</time></trkpt><trkpt lat="46.0272218" lon="11.8988098"><ele>287.0</ele><time>2026-04-15T10:24:08.54Z</time></trkpt><trkpt lat="46.0272781" lon="11.8987212"><ele>287.0</ele><time>2026-04-15T10:24:10.54Z</time></trkpt><trkpt lat="46.0273214" lon="11.8986235"><ele>287.0</ele><time>2026-04-15T10:24:12.538Z</time></trkpt><trkpt lat="46.027346" lon="11.8985127"><ele>287.0</ele><time>2026-04-15T10:24:14.537Z</time></trkpt><trkpt lat="46.0273528" lon="11.8983962"><ele>287.0</ele><time>2026-04-15T10:24:16.537Z</time></trkpt><trkpt lat="46.0273539" lon="11.8982808"><ele>287.0</ele><time>2026-04-15T10:24:18.538Z</time></trkpt><trkpt lat="46.0273471" lon="11.8981665"><ele>287.1666666666667</ele><time>2026-04-15T10:24:20.538Z</time></trkpt><trkpt lat="46.0273345" lon="11.8980524"><ele>287.33333333333337</ele><time>2026-04-15T10:24:22.536Z</time></trkpt><trkpt lat="46.027318" lon="11.8979306"><ele>287.5</ele><time>2026-04-15T10:24:24.535Z</time></trkpt><trkpt lat="46.0273075" lon="11.8978078"><ele>287.6666666666667</ele><time>2026-04-15T10:24:26.539Z</time></trkpt><trkpt lat="46.027302" lon="11.8976914"><ele>287.8333333333333</ele><time>2026-04-15T10:24:28.537Z</time></trkpt><trkpt lat="46.0272954" lon="11.8975728"><ele>288.0</ele><time>2026-04-15T10:24:30.537Z</time></trkpt><trkpt lat="46.0272865" lon="11.8974567"><ele>288.3333333333333</ele><time>2026-04-15T10:24:32.538Z</time></trkpt><trkpt lat="46.0273052" lon="11.8973573"><ele>288.6666666666667</ele><time>2026-04-15T10:24:34.539Z</time></trkpt><trkpt lat="46.0273574" lon="11.8972894"><ele>289.0</ele><time>2026-04-15T10:24:36.536Z</time></trkpt><trkpt lat="46.0274274" lon="11.897245"><ele>289.33333333333337</ele><time>2026-04-15T10:24:38.537Z</time></trkpt><trkpt lat="46.0274987" lon="11.8972046"><ele>289.6666666666667</ele><time>2026-04-15T10:24:40.536Z</time></trkpt><trkpt lat="46.0275713" lon="11.8971661"><ele>290.0</ele><time>2026-04-15T10:24:42.538Z</time></trkpt><trkpt lat="46.0276429" lon="11.8971236"><ele>290.1666666666667</ele><time>2026-04-15T10:24:44.538Z</time></trkpt><trkpt lat="46.0277135" lon="11.8970649"><ele>290.33333333333337</ele><time>2026-04-15T10:24:46.537Z</time></trkpt><trkpt lat="46.0277781" lon="11.8969998"><ele>290.5</ele><time>2026-04-15T10:24:48.537Z</time></trkpt><trkpt lat="46.0278399" lon="11.8969318"><ele>290.6666666666667</ele><time>2026-04-15T10:24:50.538Z</time></trkpt><trkpt lat="46.027893" lon="11.8968483"><ele>290.8333333333333</ele><time>2026-04-15T10:24:52.539Z</time></trkpt><trkpt lat="46.0279338" lon="11.896751"><ele>291.0</ele><time>2026-04-15T10:24:54.539Z</time></trkpt><trkpt lat="46.0279671" lon="11.8966427"><ele>291.0</ele><time>2026-04-15T10:24:56.538Z</time></trkpt><trkpt lat="46.0280006" lon="11.8965294"><ele>291.0</ele><time>2026-04-15T10:24:58.537Z</time></trkpt><trkpt lat="46.0280355" lon="11.8964122"><ele>291.0</ele><time>2026-04-15T10:25:00.536Z</time></trkpt><trkpt lat="46.0280723" lon="11.8962958"><ele>291.0</ele><time>2026-04-15T10:25:02.538Z</time></trkpt><trkpt lat="46.0281084" lon="11.8961844"><ele>291.0</ele><time>2026-04-15T10:25:04.538Z</time></trkpt><trkpt lat="46.0281365" lon="11.8960795"><ele>291.0</ele><time>2026-04-15T10:25:06.539Z</time></trkpt><trkpt lat="46.0281665" lon="11.8959749"><ele>291.1666666666667</ele><time>2026-04-15T10:25:08.536Z</time></trkpt><trkpt lat="46.0281991" lon="11.8958606"><ele>291.3333333333333</ele><time>2026-04-15T10:25:10.539Z</time></trkpt><trkpt lat="46.0282153" lon="11.8957549"><ele>291.5</ele><time>2026-04-15T10:25:12.538Z</time></trkpt><trkpt lat="46.0282347" lon="11.8956599"><ele>291.66666666666663</ele><time>2026-04-15T10:25:14.539Z</time></trkpt><trkpt lat="46.0282908" lon="11.8955823"><ele>291.8333333333333</ele><time>2026-04-15T10:25:16.538Z</time></trkpt><trkpt lat="46.0283521" lon="11.895512"><ele>292.0</ele><time>2026-04-15T10:25:18.535Z</time></trkpt><trkpt lat="46.0284149" lon="11.8954364"><ele>292.8333333333333</ele><time>2026-04-15T10:25:20.537Z</time></trkpt><trkpt lat="46.028474" lon="11.8953554"><ele>293.66666666666663</ele><time>2026-04-15T10:25:22.538Z</time></trkpt><trkpt lat="46.0285314" lon="11.8952737"><ele>294.5</ele><time>2026-04-15T10:25:24.537Z</time></trkpt><trkpt lat="46.0285821" lon="11.8951909"><ele>295.3333333333333</ele><time>2026-04-15T10:25:26.536Z</time></trkpt><trkpt lat="46.0286163" lon="11.895092"><ele>296.1666666666667</ele><time>2026-04-15T10:25:28.537Z</time></trkpt><trkpt lat="46.0286298" lon="11.8949664"><ele>297.0</ele><time>2026-04-15T10:25:30.54Z</time></trkpt><trkpt lat="46.0286118" lon="11.8948499"><ele>297.0</ele><time>2026-04-15T10:25:32.539Z</time></trkpt><trkpt lat="46.0285819" lon="11.894747"><ele>297.0</ele><time>2026-04-15T10:25:34.539Z</time></trkpt><trkpt lat="46.0285535" lon="11.8946493"><ele>297.0</ele><time>2026-04-15T10:25:36.539Z</time></trkpt><trkpt lat="46.0285225" lon="11.8945488"><ele>297.0</ele><time>2026-04-15T10:25:38.539Z</time></trkpt><trkpt lat="46.0284932" lon="11.8944439"><ele>297.0</ele><time>2026-04-15T10:25:40.539Z</time></trkpt><trkpt lat="46.028462" lon="11.894337"><ele>297.0</ele><time>2026-04-15T10:25:42.538Z</time></trkpt><trkpt lat="46.0284407" lon="11.8942336"><ele>297.0</ele><time>2026-04-15T10:25:44.537Z</time></trkpt><trkpt lat="46.0284177" lon="11.8941289"><ele>297.0</ele><time>2026-04-15T10:25:46.538Z</time></trkpt><trkpt lat="46.0283973" lon="11.8940292"><ele>297.0</ele><time>2026-04-15T10:25:48.537Z</time></trkpt><trkpt lat="46.0283824" lon="11.8939093"><ele>297.0</ele><time>2026-04-15T10:25:51.536Z</time></trkpt><trkpt lat="46.0283667" lon="11.8938186"><ele>297.0</ele><time>2026-04-15T10:25:56.539Z</time></trkpt><trkpt lat="46.0282841" lon="11.8938155"><ele>297.0</ele><time>2026-04-15T10:26:01.537Z</time></trkpt><trkpt lat="46.0282209" lon="11.8938584"><ele>296.8333333333333</ele><time>2026-04-15T10:26:03.539Z</time></trkpt><trkpt lat="46.0281386" lon="11.8939171"><ele>296.6666666666667</ele><time>2026-04-15T10:26:05.537Z</time></trkpt><trkpt lat="46.0280519" lon="11.8939762"><ele>296.5</ele><time>2026-04-15T10:26:07.538Z</time></trkpt><trkpt lat="46.027982" lon="11.8939807"><ele>296.33333333333337</ele><time>2026-04-15T10:26:09.538Z</time></trkpt><trkpt lat="46.0279508" lon="11.8939006"><ele>296.1666666666667</ele><time>2026-04-15T10:26:11.536Z</time></trkpt><trkpt lat="46.0279467" lon="11.89379"><ele>296.0</ele><time>2026-04-15T10:26:13.539Z</time></trkpt><trkpt lat="46.027945" lon="11.8936719"><ele>296.0</ele><time>2026-04-15T10:26:15.538Z</time></trkpt><trkpt lat="46.0279438" lon="11.8935485"><ele>296.0</ele><time>2026-04-15T10:26:17.538Z</time></trkpt><trkpt lat="46.0279373" lon="11.8934235"><ele>296.0</ele><time>2026-04-15T10:26:19.538Z</time></trkpt><trkpt lat="46.0279284" lon="11.8932967"><ele>296.0</ele><time>2026-04-15T10:26:21.538Z</time></trkpt><trkpt lat="46.027922" lon="11.8931666"><ele>296.0</ele><time>2026-04-15T10:26:23.539Z</time></trkpt><trkpt lat="46.0279142" lon="11.8930327"><ele>296.0</ele><time>2026-04-15T10:26:25.538Z</time></trkpt><trkpt lat="46.0279049" lon="11.8929053"><ele>295.40000000000003</ele><time>2026-04-15T10:26:27.537Z</time></trkpt><trkpt lat="46.0278958" lon="11.8927761"><ele>294.8</ele><time>2026-04-15T10:26:29.537Z</time></trkpt><trkpt lat="46.0278862" lon="11.8926461"><ele>294.20000000000005</ele><time>2026-04-15T10:26:31.538Z</time></trkpt><trkpt lat="46.0278734" lon="11.8925119"><ele>293.6</ele><time>2026-04-15T10:26:33.536Z</time></trkpt><trkpt lat="46.027868" lon="11.8923753"><ele>293.0</ele><time>2026-04-15T10:26:35.537Z</time></trkpt><trkpt lat="46.0278694" lon="11.8922335"><ele>293.0</ele><time>2026-04-15T10:26:37.537Z</time></trkpt><trkpt lat="46.0278667" lon="11.8920914"><ele>293.0</ele><time>2026-04-15T10:26:39.539Z</time></trkpt><trkpt lat="46.0278573" lon="11.8919457"><ele>293.0</ele><time>2026-04-15T10:26:41.539Z</time></trkpt><trkpt lat="46.0278502" lon="11.8917988"><ele>293.0</ele><time>2026-04-15T10:26:43.537Z</time></trkpt><trkpt lat="46.0278424" lon="11.891651"><ele>293.0</ele><time>2026-04-15T10:26:45.539Z</time></trkpt><trkpt lat="46.027837" lon="11.8915071"><ele>293.6</ele><time>2026-04-15T10:26:47.538Z</time></trkpt><trkpt lat="46.0278315" lon="11.8913684"><ele>294.20000000000005</ele><time>2026-04-15T10:26:49.538Z</time></trkpt><trkpt lat="46.0278241" lon="11.8912348"><ele>294.8</ele><time>2026-04-15T10:26:51.536Z</time></trkpt><trkpt lat="46.0278187" lon="11.8911006"><ele>295.40000000000003</ele><time>2026-04-15T10:26:53.537Z</time></trkpt><trkpt lat="46.0278114" lon="11.890969"><ele>296.0</ele><time>2026-04-15T10:26:55.538Z</time></trkpt><trkpt lat="46.0278042" lon="11.890837"><ele>296.5</ele><time>2026-04-15T10:26:57.535Z</time></trkpt><trkpt lat="46.0277977" lon="11.890708"><ele>297.0</ele><time>2026-04-15T10:26:59.538Z</time></trkpt><trkpt lat="46.0277935" lon="11.8905772"><ele>297.5</ele><time>2026-04-15T10:27:01.54Z</time></trkpt><trkpt lat="46.027787" lon="11.8904502"><ele>298.0</ele><time>2026-04-15T10:27:03.537Z</time></trkpt><trkpt lat="46.0277828" lon="11.8903213"><ele>298.5</ele><time>2026-04-15T10:27:05.539Z</time></trkpt><trkpt lat="46.0277755" lon="11.8901919"><ele>299.0</ele><time>2026-04-15T10:27:07.539Z</time></trkpt><trkpt lat="46.0277712" lon="11.8900651"><ele>299.6666666666667</ele><time>2026-04-15T10:27:09.537Z</time></trkpt><trkpt lat="46.0277682" lon="11.8899349"><ele>300.33333333333337</ele><time>2026-04-15T10:27:11.538Z</time></trkpt><trkpt lat="46.0277616" lon="11.8898044"><ele>301.0</ele><time>2026-04-15T10:27:13.535Z</time></trkpt><trkpt lat="46.02775" lon="11.8896824"><ele>301.6666666666667</ele><time>2026-04-15T10:27:15.536Z</time></trkpt><trkpt lat="46.0277357" lon="11.889561"><ele>302.3333333333333</ele><time>2026-04-15T10:27:17.536Z</time></trkpt><trkpt lat="46.0277175" lon="11.8894367"><ele>303.0</ele><time>2026-04-15T10:27:19.536Z</time></trkpt><trkpt lat="46.0276917" lon="11.889316"><ele>303.8333333333333</ele><time>2026-04-15T10:27:21.534Z</time></trkpt><trkpt lat="46.0276618" lon="11.8892119"><ele>304.6666666666667</ele><time>2026-04-15T10:27:23.539Z</time></trkpt><trkpt lat="46.0276277" lon="11.8891191"><ele>305.5</ele><time>2026-04-15T10:27:25.537Z</time></trkpt><trkpt lat="46.0275921" lon="11.8890221"><ele>306.33333333333337</ele><time>2026-04-15T10:27:27.538Z</time></trkpt><trkpt lat="46.0275586" lon="11.8889299"><ele>307.1666666666667</ele><time>2026-04-15T10:27:29.536Z</time></trkpt><trkpt lat="46.0275334" lon="11.888824"><ele>308.0</ele><time>2026-04-15T10:27:31.536Z</time></trkpt><trkpt lat="46.0275045" lon="11.8887214"><ele>308.42857142857144</ele><time>2026-04-15T10:27:33.54Z</time></trkpt><trkpt lat="46.027472" lon="11.8886269"><ele>308.8571428571429</ele><time>2026-04-15T10:27:35.535Z</time></trkpt><trkpt lat="46.027443" lon="11.8885276"><ele>309.2857142857143</ele><time>2026-04-15T10:27:37.538Z</time></trkpt><trkpt lat="46.0274146" lon="11.8884313"><ele>309.7142857142857</ele><time>2026-04-15T10:27:39.538Z</time></trkpt><trkpt lat="46.0273892" lon="11.8883331"><ele>310.14285714285717</ele><time>2026-04-15T10:27:41.538Z</time></trkpt><trkpt lat="46.0273658" lon="11.8882443"><ele>310.57142857142856</ele><time>2026-04-15T10:27:43.54Z</time></trkpt><trkpt lat="46.0273412" lon="11.8881428"><ele>311.0</ele><time>2026-04-15T10:27:46.539Z</time></trkpt><trkpt lat="46.0273136" lon="11.8880488"><ele>311.0</ele><time>2026-04-15T10:27:49.539Z</time></trkpt><trkpt lat="46.0272791" lon="11.8879535"><ele>311.0</ele><time>2026-04-15T10:27:52.536Z</time></trkpt><trkpt lat="46.027242" lon="11.8878564"><ele>311.0</ele><time>2026-04-15T10:27:55.537Z</time></trkpt><trkpt lat="46.0272229" lon="11.8877584"><ele>311.0</ele><time>2026-04-15T10:27:57.54Z</time></trkpt><trkpt lat="46.0272024" lon="11.8876589"><ele>311.0</ele><time>2026-04-15T10:27:59.538Z</time></trkpt><trkpt lat="46.0271976" lon="11.8875597"><ele>311.0</ele><time>2026-04-15T10:28:01.54Z</time></trkpt><trkpt lat="46.0271878" lon="11.8874529"><ele>311.0</ele><time>2026-04-15T10:28:03.538Z</time></trkpt><trkpt lat="46.0271931" lon="11.8873347"><ele>312.33333333333337</ele><time>2026-04-15T10:28:05.538Z</time></trkpt><trkpt lat="46.0272066" lon="11.8872216"><ele>313.6666666666667</ele><time>2026-04-15T10:28:07.538Z</time></trkpt><trkpt lat="46.0272095" lon="11.8870996"><ele>315.0</ele><time>2026-04-15T10:28:09.536Z</time></trkpt><trkpt lat="46.0272129" lon="11.8869901"><ele>316.3333333333333</ele><time>2026-04-15T10:28:11.537Z</time></trkpt><trkpt lat="46.027209" lon="11.8868799"><ele>317.66666666666663</ele><time>2026-04-15T10:28:13.538Z</time></trkpt><trkpt lat="46.0271994" lon="11.8867651"><ele>319.0</ele><time>2026-04-15T10:28:15.539Z</time></trkpt><trkpt lat="46.0271877" lon="11.8866533"><ele>319.3333333333333</ele><time>2026-04-15T10:28:17.54Z</time></trkpt><trkpt lat="46.0271615" lon="11.8865295"><ele>319.66666666666663</ele><time>2026-04-15T10:28:19.54Z</time></trkpt><trkpt lat="46.0271425" lon="11.8864146"><ele>320.0</ele><time>2026-04-15T10:28:21.54Z</time></trkpt><trkpt lat="46.0271304" lon="11.8863037"><ele>320.3333333333333</ele><time>2026-04-15T10:28:23.539Z</time></trkpt><trkpt lat="46.0271183" lon="11.8861873"><ele>320.6666666666667</ele><time>2026-04-15T10:28:25.539Z</time></trkpt><trkpt lat="46.0271046" lon="11.8860618"><ele>321.0</ele><time>2026-04-15T10:28:27.537Z</time></trkpt><trkpt lat="46.0271016" lon="11.8859453"><ele>321.4285714285714</ele><time>2026-04-15T10:28:29.54Z</time></trkpt><trkpt lat="46.0270919" lon="11.8858504"><ele>321.85714285714283</ele><time>2026-04-15T10:28:31.538Z</time></trkpt><trkpt lat="46.0270841" lon="11.8857515"><ele>322.2857142857143</ele><time>2026-04-15T10:28:33.539Z</time></trkpt><trkpt lat="46.0270738" lon="11.8856618"><ele>322.71428571428567</ele><time>2026-04-15T10:28:35.54Z</time></trkpt><trkpt lat="46.0270537" lon="11.8855296"><ele>323.1428571428571</ele><time>2026-04-15T10:28:38.54Z</time></trkpt><trkpt lat="46.0270391" lon="11.8854339"><ele>323.57142857142856</ele><time>2026-04-15T10:28:40.539Z</time></trkpt><trkpt lat="46.0270169" lon="11.8853438"><ele>324.0</ele><time>2026-04-15T10:28:42.539Z</time></trkpt><trkpt lat="46.0269968" lon="11.8852536"><ele>324.0</ele><time>2026-04-15T10:28:44.538Z</time></trkpt><trkpt lat="46.0269748" lon="11.8851632"><ele>324.0</ele><time>2026-04-15T10:28:46.539Z</time></trkpt><trkpt lat="46.0269407" lon="11.8850379"><ele>324.0</ele><time>2026-04-15T10:28:49.537Z</time></trkpt><trkpt lat="46.0269143" lon="11.8849121"><ele>324.0</ele><time>2026-04-15T10:28:52.537Z</time></trkpt><trkpt lat="46.0269022" lon="11.8847939"><ele>324.0</ele><time>2026-04-15T10:28:55.539Z</time></trkpt><trkpt lat="46.0269272" lon="11.8846985"><ele>324.0</ele><time>2026-04-15T10:28:58.538Z</time></trkpt><trkpt lat="46.0269825" lon="11.8846059"><ele>324.42857142857144</ele><time>2026-04-15T10:29:01.538Z</time></trkpt><trkpt lat="46.027036" lon="11.8845456"><ele>324.85714285714283</ele><time>2026-04-15T10:29:03.537Z</time></trkpt><trkpt lat="46.0270853" lon="11.8844882"><ele>325.2857142857143</ele><time>2026-04-15T10:29:05.537Z</time></trkpt><trkpt lat="46.027153" lon="11.8844688"><ele>325.7142857142857</ele><time>2026-04-15T10:29:07.54Z</time></trkpt><trkpt lat="46.0272234" lon="11.8844605"><ele>326.14285714285717</ele><time>2026-04-15T10:29:09.54Z</time></trkpt><trkpt lat="46.0272905" lon="11.8844424"><ele>326.57142857142856</ele><time>2026-04-15T10:29:11.539Z</time></trkpt><trkpt lat="46.0273846" lon="11.884432"><ele>327.0</ele><time>2026-04-15T10:29:14.539Z</time></trkpt><trkpt lat="46.0274528" lon="11.8844185"><ele>327.0</ele><time>2026-04-15T10:29:16.539Z</time></trkpt><trkpt lat="46.0275247" lon="11.8844052"><ele>327.0</ele><time>2026-04-15T10:29:18.537Z</time></trkpt><trkpt lat="46.0276014" lon="11.8844015"><ele>327.0</ele><time>2026-04-15T10:29:20.54Z</time></trkpt><trkpt lat="46.0276856" lon="11.884402"><ele>327.0</ele><time>2026-04-15T10:29:22.537Z</time></trkpt><trkpt lat="46.0277744" lon="11.8844015"><ele>327.0</ele><time>2026-04-15T10:29:24.538Z</time></trkpt><trkpt lat="46.0278689" lon="11.8844072"><ele>327.0</ele><time>2026-04-15T10:29:26.537Z</time></trkpt><trkpt lat="46.0279666" lon="11.8844149"><ele>327.0</ele><time>2026-04-15T10:29:28.537Z</time></trkpt><trkpt lat="46.0280613" lon="11.8844177"><ele>327.0</ele><time>2026-04-15T10:29:30.536Z</time></trkpt><trkpt lat="46.0281493" lon="11.8844136"><ele>327.0</ele><time>2026-04-15T10:29:32.535Z</time></trkpt><trkpt lat="46.0282187" lon="11.884373"><ele>327.0</ele><time>2026-04-15T10:29:34.536Z</time></trkpt><trkpt lat="46.0282537" lon="11.8842834"><ele>327.0</ele><time>2026-04-15T10:29:36.538Z</time></trkpt><trkpt lat="46.0282617" lon="11.8841683"><ele>327.0</ele><time>2026-04-15T10:29:38.539Z</time></trkpt><trkpt lat="46.0282736" lon="11.8840494"><ele>326.6666666666667</ele><time>2026-04-15T10:29:40.539Z</time></trkpt><trkpt lat="46.0282862" lon="11.8839267"><ele>326.3333333333333</ele><time>2026-04-15T10:29:42.54Z</time></trkpt><trkpt lat="46.0283086" lon="11.8838078"><ele>326.0</ele><time>2026-04-15T10:29:44.538Z</time></trkpt><trkpt lat="46.028342" lon="11.8837068"><ele>325.66666666666663</ele><time>2026-04-15T10:29:46.538Z</time></trkpt><trkpt lat="46.0284031" lon="11.8836346"><ele>325.3333333333333</ele><time>2026-04-15T10:29:48.539Z</time></trkpt><trkpt lat="46.0284731" lon="11.8835948"><ele>325.0</ele><time>2026-04-15T10:29:50.54Z</time></trkpt><trkpt lat="46.0286416" lon="11.8835851"><ele>325.3333333333333</ele><time>2026-04-15T10:29:55.539Z</time></trkpt><trkpt lat="46.0287054" lon="11.8835376"><ele>325.66666666666663</ele><time>2026-04-15T10:29:57.54Z</time></trkpt><trkpt lat="46.0287694" lon="11.8834657"><ele>326.0</ele><time>2026-04-15T10:29:59.538Z</time></trkpt><trkpt lat="46.0288354" lon="11.8833886"><ele>326.3333333333333</ele><time>2026-04-15T10:30:01.539Z</time></trkpt><trkpt lat="46.0289042" lon="11.8833155"><ele>326.6666666666667</ele><time>2026-04-15T10:30:03.536Z</time></trkpt><trkpt lat="46.0289777" lon="11.8832587"><ele>327.0</ele><time>2026-04-15T10:30:05.536Z</time></trkpt><trkpt lat="46.0290539" lon="11.8832136"><ele>327.0</ele><time>2026-04-15T10:30:07.538Z</time></trkpt><trkpt lat="46.0291262" lon="11.8831656"><ele>327.0</ele><time>2026-04-15T10:30:09.537Z</time></trkpt><trkpt lat="46.0291893" lon="11.8831166"><ele>327.0</ele><time>2026-04-15T10:30:11.537Z</time></trkpt><trkpt lat="46.0292594" lon="11.8830559"><ele>327.0</ele><time>2026-04-15T10:30:14.538Z</time></trkpt><trkpt lat="46.0293419" lon="11.8830077"><ele>327.0</ele><time>2026-04-15T10:30:17.537Z</time></trkpt><trkpt lat="46.0294144" lon="11.8829902"><ele>327.0</ele><time>2026-04-15T10:30:20.54Z</time></trkpt><trkpt lat="46.0294874" lon="11.882969"><ele>327.8333333333333</ele><time>2026-04-15T10:30:23.539Z</time></trkpt><trkpt lat="46.029568" lon="11.8829384"><ele>328.6666666666667</ele><time>2026-04-15T10:30:26.539Z</time></trkpt><trkpt lat="46.0296299" lon="11.8829064"><ele>329.5</ele><time>2026-04-15T10:30:28.538Z</time></trkpt><trkpt lat="46.0297001" lon="11.8828599"><ele>330.33333333333337</ele><time>2026-04-15T10:30:30.539Z</time></trkpt><trkpt lat="46.0297689" lon="11.8828009"><ele>331.1666666666667</ele><time>2026-04-15T10:30:32.539Z</time></trkpt><trkpt lat="46.0298373" lon="11.8827313"><ele>332.0</ele><time>2026-04-15T10:30:34.538Z</time></trkpt><trkpt lat="46.0299052" lon="11.8826643"><ele>332.1666666666667</ele><time>2026-04-15T10:30:36.539Z</time></trkpt><trkpt lat="46.0299736" lon="11.882595"><ele>332.33333333333337</ele><time>2026-04-15T10:30:38.538Z</time></trkpt><trkpt lat="46.0300392" lon="11.8825282"><ele>332.5</ele><time>2026-04-15T10:30:40.536Z</time></trkpt><trkpt lat="46.030104" lon="11.8824582"><ele>332.6666666666667</ele><time>2026-04-15T10:30:42.539Z</time></trkpt><trkpt lat="46.0301732" lon="11.8823908"><ele>332.8333333333333</ele><time>2026-04-15T10:30:44.537Z</time></trkpt><trkpt lat="46.0302389" lon="11.8823247"><ele>333.0</ele><time>2026-04-15T10:30:46.538Z</time></trkpt><trkpt lat="46.0303056" lon="11.882253"><ele>333.5</ele><time>2026-04-15T10:30:48.537Z</time></trkpt><trkpt lat="46.0303724" lon="11.8821827"><ele>334.0</ele><time>2026-04-15T10:30:50.539Z</time></trkpt><trkpt lat="46.0304409" lon="11.8821175"><ele>334.5</ele><time>2026-04-15T10:30:52.539Z</time></trkpt><trkpt lat="46.0305085" lon="11.8820539"><ele>335.0</ele><time>2026-04-15T10:30:54.539Z</time></trkpt><trkpt lat="46.0305755" lon="11.8819908"><ele>335.5</ele><time>2026-04-15T10:30:56.538Z</time></trkpt><trkpt lat="46.030634" lon="11.8819269"><ele>336.0</ele><time>2026-04-15T10:30:58.538Z</time></trkpt><trkpt lat="46.0306797" lon="11.8818593"><ele>336.5</ele><time>2026-04-15T10:31:00.538Z</time></trkpt><trkpt lat="46.0307151" lon="11.881762"><ele>337.0</ele><time>2026-04-15T10:31:03.537Z</time></trkpt><trkpt lat="46.0307733" lon="11.8817074"><ele>337.5</ele><time>2026-04-15T10:31:06.539Z</time></trkpt><trkpt lat="46.0308542" lon="11.8816912"><ele>338.0</ele><time>2026-04-15T10:31:09.536Z</time></trkpt><trkpt lat="46.0309159" lon="11.8816576"><ele>338.5</ele><time>2026-04-15T10:31:11.538Z</time></trkpt><trkpt lat="46.0309711" lon="11.8815554"><ele>339.0</ele><time>2026-04-15T10:31:14.536Z</time></trkpt><trkpt lat="46.030948" lon="11.8814388"><ele>339.0</ele><time>2026-04-15T10:31:17.539Z</time></trkpt><trkpt lat="46.0308563" lon="11.8814369"><ele>339.0</ele><time>2026-04-15T10:31:20.538Z</time></trkpt><trkpt lat="46.0307895" lon="11.8814726"><ele>339.0</ele><time>2026-04-15T10:31:22.537Z</time></trkpt><trkpt lat="46.0307081" lon="11.8815045"><ele>339.0</ele><time>2026-04-15T10:31:25.539Z</time></trkpt><trkpt lat="46.0306421" lon="11.8814926"><ele>339.0</ele><time>2026-04-15T10:31:28.537Z</time></trkpt><trkpt lat="46.0305723" lon="11.8814153"><ele>339.0</ele><time>2026-04-15T10:31:31.539Z</time></trkpt><trkpt lat="46.0305625" lon="11.8812875"><ele>339.0</ele><time>2026-04-15T10:31:34.539Z</time></trkpt><trkpt lat="46.0305726" lon="11.881191"><ele>339.0</ele><time>2026-04-15T10:31:36.537Z</time></trkpt><trkpt lat="46.0305824" lon="11.8810934"><ele>339.0</ele><time>2026-04-15T10:31:38.538Z</time></trkpt><trkpt lat="46.0305901" lon="11.8809958"><ele>339.0</ele><time>2026-04-15T10:31:40.536Z</time></trkpt><trkpt lat="46.0305989" lon="11.8808924"><ele>339.0</ele><time>2026-04-15T10:31:42.536Z</time></trkpt><trkpt lat="46.0306099" lon="11.8807964"><ele>339.0</ele><time>2026-04-15T10:31:44.537Z</time></trkpt><trkpt lat="46.0306236" lon="11.8807037"><ele>339.0</ele><time>2026-04-15T10:31:46.538Z</time></trkpt><trkpt lat="46.0306658" lon="11.8806266"><ele>340.5</ele><time>2026-04-15T10:31:48.537Z</time></trkpt><trkpt lat="46.0307342" lon="11.8805842"><ele>342.0</ele><time>2026-04-15T10:31:50.539Z</time></trkpt><trkpt lat="46.0308095" lon="11.8805484"><ele>343.5</ele><time>2026-04-15T10:31:52.539Z</time></trkpt><trkpt lat="46.0308878" lon="11.8805073"><ele>345.0</ele><time>2026-04-15T10:31:54.539Z</time></trkpt><trkpt lat="46.030964" lon="11.8804651"><ele>346.5</ele><time>2026-04-15T10:31:56.538Z</time></trkpt><trkpt lat="46.0310368" lon="11.8804169"><ele>348.0</ele><time>2026-04-15T10:31:58.539Z</time></trkpt><trkpt lat="46.0311138" lon="11.880373"><ele>348.1666666666667</ele><time>2026-04-15T10:32:00.537Z</time></trkpt><trkpt lat="46.031197" lon="11.8803365"><ele>348.3333333333333</ele><time>2026-04-15T10:32:02.537Z</time></trkpt><trkpt lat="46.0312776" lon="11.8802932"><ele>348.5</ele><time>2026-04-15T10:32:04.536Z</time></trkpt><trkpt lat="46.0313601" lon="11.8802601"><ele>348.66666666666663</ele><time>2026-04-15T10:32:06.539Z</time></trkpt><trkpt lat="46.0314445" lon="11.8802353"><ele>348.8333333333333</ele><time>2026-04-15T10:32:08.537Z</time></trkpt><trkpt lat="46.0315271" lon="11.8802212"><ele>349.0</ele><time>2026-04-15T10:32:10.538Z</time></trkpt><trkpt lat="46.0316121" lon="11.8802102"><ele>348.66666666666663</ele><time>2026-04-15T10:32:12.537Z</time></trkpt><trkpt lat="46.0316951" lon="11.8802019"><ele>348.3333333333333</ele><time>2026-04-15T10:32:14.539Z</time></trkpt><trkpt lat="46.031768" lon="11.8801948"><ele>348.0</ele><time>2026-04-15T10:32:16.539Z</time></trkpt><trkpt lat="46.0318375" lon="11.8801344"><ele>347.6666666666667</ele><time>2026-04-15T10:32:19.536Z</time></trkpt><trkpt lat="46.0318129" lon="11.8800346"><ele>347.33333333333337</ele><time>2026-04-15T10:32:22.535Z</time></trkpt><trkpt lat="46.0317363" lon="11.8799604"><ele>347.0</ele><time>2026-04-15T10:32:25.537Z</time></trkpt><trkpt lat="46.0316655" lon="11.8798733"><ele>348.14285714285717</ele><time>2026-04-15T10:32:28.537Z</time></trkpt><trkpt lat="46.0316147" lon="11.8798165"><ele>349.2857142857143</ele><time>2026-04-15T10:32:30.537Z</time></trkpt><trkpt lat="46.0315616" lon="11.8797588"><ele>350.42857142857144</ele><time>2026-04-15T10:32:32.536Z</time></trkpt><trkpt lat="46.0315058" lon="11.8797083"><ele>351.57142857142856</ele><time>2026-04-15T10:32:34.534Z</time></trkpt><trkpt lat="46.0314502" lon="11.8796609"><ele>352.7142857142857</ele><time>2026-04-15T10:32:36.54Z</time></trkpt><trkpt lat="46.031393" lon="11.8796052"><ele>353.85714285714283</ele><time>2026-04-15T10:32:38.54Z</time></trkpt><trkpt lat="46.0313334" lon="11.8795465"><ele>355.0</ele><time>2026-04-15T10:32:40.539Z</time></trkpt><trkpt lat="46.0312764" lon="11.8794813"><ele>355.0</ele><time>2026-04-15T10:32:42.541Z</time></trkpt><trkpt lat="46.0312232" lon="11.8794183"><ele>355.0</ele><time>2026-04-15T10:32:44.538Z</time></trkpt><trkpt lat="46.031174" lon="11.8793563"><ele>355.0</ele><time>2026-04-15T10:32:46.536Z</time></trkpt><trkpt lat="46.0311101" lon="11.8793401"><ele>355.0</ele><time>2026-04-15T10:32:48.537Z</time></trkpt><trkpt lat="46.0310518" lon="11.8793884"><ele>355.0</ele><time>2026-04-15T10:32:50.538Z</time></trkpt><trkpt lat="46.0310218" lon="11.8794805"><ele>355.0</ele><time>2026-04-15T10:32:52.539Z</time></trkpt><trkpt lat="46.0310096" lon="11.8795829"><ele>355.0</ele><time>2026-04-15T10:32:54.536Z</time></trkpt><trkpt lat="46.0310027" lon="11.8796804"><ele>355.0</ele><time>2026-04-15T10:32:56.539Z</time></trkpt><trkpt lat="46.0310072" lon="11.8797763"><ele>355.0</ele><time>2026-04-15T10:32:58.537Z</time></trkpt><trkpt lat="46.0310294" lon="11.8798989"><ele>355.0</ele><time>2026-04-15T10:33:01.537Z</time></trkpt><trkpt lat="46.0310102" lon="11.8799908"><ele>355.0</ele><time>2026-04-15T10:33:04.539Z</time></trkpt><trkpt lat="46.0309455" lon="11.8799815"><ele>355.0</ele><time>2026-04-15T10:33:07.537Z</time></trkpt><trkpt lat="46.0309408" lon="11.8798588"><ele>355.0</ele><time>2026-04-15T10:33:10.536Z</time></trkpt><trkpt lat="46.0309672" lon="11.8797645"><ele>355.0</ele><time>2026-04-15T10:33:12.537Z</time></trkpt><trkpt lat="46.030988" lon="11.8796572"><ele>355.0</ele><time>2026-04-15T10:33:14.538Z</time></trkpt><trkpt lat="46.0310097" lon="11.8795439"><ele>355.0</ele><time>2026-04-15T10:33:16.537Z</time></trkpt><trkpt lat="46.0310289" lon="11.8794291"><ele>355.0</ele><time>2026-04-15T10:33:18.537Z</time></trkpt><trkpt lat="46.0310528" lon="11.8793363"><ele>355.0</ele><time>2026-04-15T10:33:20.537Z</time></trkpt><trkpt lat="46.0310857" lon="11.8792212"><ele>355.0</ele><time>2026-04-15T10:34:37.538Z</time></trkpt><trkpt lat="46.0310173" lon="11.8791586"><ele>355.0</ele><time>2026-04-15T10:34:41.54Z</time></trkpt><trkpt lat="46.0309507" lon="11.8791016"><ele>354.66666666666663</ele><time>2026-04-15T10:34:44.538Z</time></trkpt><trkpt lat="46.0308563" lon="11.8790728"><ele>354.3333333333333</ele><time>2026-04-15T10:34:47.537Z</time></trkpt><trkpt lat="46.0307886" lon="11.879064"><ele>354.0</ele><time>2026-04-15T10:34:49.539Z</time></trkpt><trkpt lat="46.0307147" lon="11.8790601"><ele>353.6666666666667</ele><time>2026-04-15T10:34:51.536Z</time></trkpt><trkpt lat="46.0306395" lon="11.8790573"><ele>353.33333333333337</ele><time>2026-04-15T10:34:53.538Z</time></trkpt><trkpt lat="46.0305651" lon="11.8790609"><ele>353.0</ele><time>2026-04-15T10:34:55.536Z</time></trkpt><trkpt lat="46.0304901" lon="11.8790595"><ele>353.0</ele><time>2026-04-15T10:34:57.538Z</time></trkpt><trkpt lat="46.0304119" lon="11.8790671"><ele>353.0</ele><time>2026-04-15T10:34:59.537Z</time></trkpt><trkpt lat="46.0303377" lon="11.8790672"><ele>353.0</ele><time>2026-04-15T10:35:01.54Z</time></trkpt><trkpt lat="46.0302618" lon="11.8790579"><ele>353.0</ele><time>2026-04-15T10:35:03.539Z</time></trkpt><trkpt lat="46.0301849" lon="11.8790455"><ele>353.0</ele><time>2026-04-15T10:35:05.538Z</time></trkpt><trkpt lat="46.0300998" lon="11.8790431"><ele>353.0</ele><time>2026-04-15T10:35:07.538Z</time></trkpt><trkpt lat="46.0300131" lon="11.8790369"><ele>352.1666666666667</ele><time>2026-04-15T10:35:09.537Z</time></trkpt><trkpt lat="46.0299318" lon="11.8790265"><ele>351.33333333333337</ele><time>2026-04-15T10:35:11.538Z</time></trkpt><trkpt lat="46.0298522" lon="11.8790226"><ele>350.5</ele><time>2026-04-15T10:35:13.538Z</time></trkpt><trkpt lat="46.0297753" lon="11.8790278"><ele>349.6666666666667</ele><time>2026-04-15T10:35:15.537Z</time></trkpt><trkpt lat="46.0297015" lon="11.8790438"><ele>348.8333333333333</ele><time>2026-04-15T10:35:17.536Z</time></trkpt><trkpt lat="46.0296251" lon="11.8790668"><ele>348.0</ele><time>2026-04-15T10:35:19.538Z</time></trkpt><trkpt lat="46.0295454" lon="11.8790802"><ele>348.0</ele><time>2026-04-15T10:35:21.535Z</time></trkpt><trkpt lat="46.0294646" lon="11.879079"><ele>348.0</ele><time>2026-04-15T10:35:23.539Z</time></trkpt><trkpt lat="46.0293842" lon="11.8790651"><ele>348.0</ele><time>2026-04-15T10:35:25.537Z</time></trkpt><trkpt lat="46.0293038" lon="11.8790415"><ele>348.0</ele><time>2026-04-15T10:35:27.539Z</time></trkpt><trkpt lat="46.0292205" lon="11.8790127"><ele>348.0</ele><time>2026-04-15T10:35:29.537Z</time></trkpt><trkpt lat="46.0291311" lon="11.8789747"><ele>348.0</ele><time>2026-04-15T10:35:31.535Z</time></trkpt><trkpt lat="46.0290445" lon="11.8789424"><ele>347.7142857142857</ele><time>2026-04-15T10:35:33.539Z</time></trkpt><trkpt lat="46.0289637" lon="11.8789245"><ele>347.42857142857144</ele><time>2026-04-15T10:35:35.538Z</time></trkpt><trkpt lat="46.0288914" lon="11.8789536"><ele>347.1428571428571</ele><time>2026-04-15T10:35:37.538Z</time></trkpt><trkpt lat="46.0288267" lon="11.8789981"><ele>346.8571428571429</ele><time>2026-04-15T10:35:39.539Z</time></trkpt><trkpt lat="46.0287637" lon="11.8790225"><ele>346.5714285714286</ele><time>2026-04-15T10:35:41.538Z</time></trkpt><trkpt lat="46.0287016" lon="11.8790534"><ele>346.2857142857143</ele><time>2026-04-15T10:35:43.535Z</time></trkpt><trkpt lat="46.0286408" lon="11.8790874"><ele>346.0</ele><time>2026-04-15T10:35:45.539Z</time></trkpt><trkpt lat="46.0285776" lon="11.8791208"><ele>346.0</ele><time>2026-04-15T10:35:47.539Z</time></trkpt><trkpt lat="46.0285105" lon="11.8791647"><ele>346.0</ele><time>2026-04-15T10:35:49.539Z</time></trkpt><trkpt lat="46.0284415" lon="11.8791921"><ele>346.0</ele><time>2026-04-15T10:35:51.535Z</time></trkpt><trkpt lat="46.028371" lon="11.8791966"><ele>346.0</ele><time>2026-04-15T10:35:53.539Z</time></trkpt><trkpt lat="46.0282988" lon="11.8792078"><ele>346.0</ele><time>2026-04-15T10:35:55.537Z</time></trkpt><trkpt lat="46.0282263" lon="11.8792136"><ele>346.0</ele><time>2026-04-15T10:35:57.535Z</time></trkpt><trkpt lat="46.0281487" lon="11.8792127"><ele>346.0</ele><time>2026-04-15T10:35:59.537Z</time></trkpt><trkpt lat="46.028067" lon="11.8791985"><ele>345.0</ele><time>2026-04-15T10:36:01.536Z</time></trkpt><trkpt lat="46.0279827" lon="11.8791817"><ele>344.0</ele><time>2026-04-15T10:36:03.538Z</time></trkpt><trkpt lat="46.0278952" lon="11.8791657"><ele>343.0</ele><time>2026-04-15T10:36:05.538Z</time></trkpt><trkpt lat="46.0278051" lon="11.87913"><ele>342.0</ele><time>2026-04-15T10:36:07.539Z</time></trkpt><trkpt lat="46.0277174" lon="11.8790976"><ele>341.0</ele><time>2026-04-15T10:36:09.536Z</time></trkpt><trkpt lat="46.027633" lon="11.8790668"><ele>340.0</ele><time>2026-04-15T10:36:11.539Z</time></trkpt><trkpt lat="46.0275531" lon="11.8790453"><ele>339.16666666666663</ele><time>2026-04-15T10:36:13.538Z</time></trkpt><trkpt lat="46.0274764" lon="11.8790419"><ele>338.3333333333333</ele><time>2026-04-15T10:36:15.537Z</time></trkpt><trkpt lat="46.0274018" lon="11.8790579"><ele>337.5</ele><time>2026-04-15T10:36:17.539Z</time></trkpt><trkpt lat="46.0273413" lon="11.8791154"><ele>336.6666666666667</ele><time>2026-04-15T10:36:19.539Z</time></trkpt><trkpt lat="46.0272977" lon="11.8792157"><ele>335.83333333333337</ele><time>2026-04-15T10:36:21.539Z</time></trkpt><trkpt lat="46.0272745" lon="11.8793307"><ele>335.0</ele><time>2026-04-15T10:36:23.539Z</time></trkpt><trkpt lat="46.0272603" lon="11.8794477"><ele>334.33333333333337</ele><time>2026-04-15T10:36:25.538Z</time></trkpt><trkpt lat="46.0272537" lon="11.8795713"><ele>333.6666666666667</ele><time>2026-04-15T10:36:27.539Z</time></trkpt><trkpt lat="46.0272399" lon="11.8796739"><ele>333.0</ele><time>2026-04-15T10:36:29.536Z</time></trkpt><trkpt lat="46.0271597" lon="11.8797237"><ele>332.3333333333333</ele><time>2026-04-15T10:36:32.537Z</time></trkpt><trkpt lat="46.0271044" lon="11.8796396"><ele>331.66666666666663</ele><time>2026-04-15T10:36:34.537Z</time></trkpt><trkpt lat="46.0270426" lon="11.8795537"><ele>331.0</ele><time>2026-04-15T10:36:36.538Z</time></trkpt><trkpt lat="46.0269894" lon="11.8794506"><ele>331.0</ele><time>2026-04-15T10:36:38.539Z</time></trkpt><trkpt lat="46.0269569" lon="11.8793201"><ele>331.0</ele><time>2026-04-15T10:36:40.539Z</time></trkpt><trkpt lat="46.0269314" lon="11.8791893"><ele>331.0</ele><time>2026-04-15T10:36:42.537Z</time></trkpt><trkpt lat="46.0269043" lon="11.8790662"><ele>331.0</ele><time>2026-04-15T10:36:44.539Z</time></trkpt><trkpt lat="46.0268856" lon="11.8789467"><ele>331.0</ele><time>2026-04-15T10:36:46.539Z</time></trkpt><trkpt lat="46.0268716" lon="11.8788296"><ele>331.0</ele><time>2026-04-15T10:36:48.537Z</time></trkpt><trkpt lat="46.0268673" lon="11.8787119"><ele>331.66666666666663</ele><time>2026-04-15T10:36:50.538Z</time></trkpt><trkpt lat="46.0268774" lon="11.8785984"><ele>332.3333333333333</ele><time>2026-04-15T10:36:52.539Z</time></trkpt><trkpt lat="46.0269077" lon="11.8784968"><ele>333.0</ele><time>2026-04-15T10:36:54.539Z</time></trkpt><trkpt lat="46.026944" lon="11.8784089"><ele>333.6666666666667</ele><time>2026-04-15T10:36:56.539Z</time></trkpt><trkpt lat="46.0269867" lon="11.878326"><ele>334.33333333333337</ele><time>2026-04-15T10:36:58.538Z</time></trkpt><trkpt lat="46.0270395" lon="11.8782391"><ele>335.0</ele><time>2026-04-15T10:37:00.539Z</time></trkpt><trkpt lat="46.0270981" lon="11.8781513"><ele>335.6</ele><time>2026-04-15T10:37:02.539Z</time></trkpt><trkpt lat="46.0271667" lon="11.8780677"><ele>336.2</ele><time>2026-04-15T10:37:04.539Z</time></trkpt><trkpt lat="46.0272509" lon="11.8779896"><ele>336.79999999999995</ele><time>2026-04-15T10:37:06.539Z</time></trkpt><trkpt lat="46.0273471" lon="11.8779156"><ele>337.4</ele><time>2026-04-15T10:37:08.536Z</time></trkpt><trkpt lat="46.02744" lon="11.87784"><ele>338.0</ele><time>2026-04-15T10:37:10.537Z</time></trkpt><trkpt lat="46.0275298" lon="11.8777568"><ele>338.79999999999995</ele><time>2026-04-15T10:37:12.539Z</time></trkpt><trkpt lat="46.0276121" lon="11.8776587"><ele>339.6</ele><time>2026-04-15T10:37:14.538Z</time></trkpt><trkpt lat="46.0276729" lon="11.8775337"><ele>340.4</ele><time>2026-04-15T10:37:16.537Z</time></trkpt><trkpt lat="46.0277203" lon="11.8774098"><ele>341.20000000000005</ele><time>2026-04-15T10:37:18.536Z</time></trkpt><trkpt lat="46.0277493" lon="11.8772782"><ele>342.0</ele><time>2026-04-15T10:37:20.539Z</time></trkpt><trkpt lat="46.0277629" lon="11.8771338"><ele>339.8</ele><time>2026-04-15T10:37:22.539Z</time></trkpt><trkpt lat="46.0277799" lon="11.8769826"><ele>337.6</ele><time>2026-04-15T10:37:24.539Z</time></trkpt><trkpt lat="46.0278106" lon="11.8768434"><ele>335.40000000000003</ele><time>2026-04-15T10:37:26.539Z</time></trkpt><trkpt lat="46.0278573" lon="11.8766976"><ele>333.20000000000005</ele><time>2026-04-15T10:37:28.539Z</time></trkpt><trkpt lat="46.0279101" lon="11.8765652"><ele>331.0</ele><time>2026-04-15T10:37:30.539Z</time></trkpt><trkpt lat="46.0279715" lon="11.8764607"><ele>330.0</ele><time>2026-04-15T10:37:32.539Z</time></trkpt><trkpt lat="46.0280589" lon="11.8763767"><ele>329.0</ele><time>2026-04-15T10:37:34.537Z</time></trkpt><trkpt lat="46.028154" lon="11.8763011"><ele>328.0</ele><time>2026-04-15T10:37:36.538Z</time></trkpt><trkpt lat="46.0282447" lon="11.8762392"><ele>327.0</ele><time>2026-04-15T10:37:38.539Z</time></trkpt><trkpt lat="46.0283398" lon="11.8761844"><ele>326.0</ele><time>2026-04-15T10:37:40.539Z</time></trkpt><trkpt lat="46.0284276" lon="11.8761115"><ele>326.0</ele><time>2026-04-15T10:37:42.539Z</time></trkpt><trkpt lat="46.0285064" lon="11.8760141"><ele>326.0</ele><time>2026-04-15T10:37:44.539Z</time></trkpt><trkpt lat="46.0285777" lon="11.8759081"><ele>326.0</ele><time>2026-04-15T10:37:46.535Z</time></trkpt><trkpt lat="46.0286415" lon="11.8757909"><ele>326.0</ele><time>2026-04-15T10:37:48.538Z</time></trkpt><trkpt lat="46.0286827" lon="11.8756585"><ele>326.0</ele><time>2026-04-15T10:37:50.537Z</time></trkpt><trkpt lat="46.0286888" lon="11.8755187"><ele>324.8</ele><time>2026-04-15T10:37:52.536Z</time></trkpt><trkpt lat="46.0286776" lon="11.8753904"><ele>323.6</ele><time>2026-04-15T10:37:54.536Z</time></trkpt><trkpt lat="46.028656" lon="11.8752601"><ele>322.4</ele><time>2026-04-15T10:37:56.535Z</time></trkpt><trkpt lat="46.0286321" lon="11.8751397"><ele>321.2</ele><time>2026-04-15T10:37:58.537Z</time></trkpt><trkpt lat="46.0286" lon="11.8750202"><ele>320.0</ele><time>2026-04-15T10:38:00.537Z</time></trkpt><trkpt lat="46.0285762" lon="11.8748927"><ele>320.0</ele><time>2026-04-15T10:38:02.538Z</time></trkpt><trkpt lat="46.0285729" lon="11.8747597"><ele>320.0</ele><time>2026-04-15T10:38:04.538Z</time></trkpt><trkpt lat="46.0285942" lon="11.8746355"><ele>320.0</ele><time>2026-04-15T10:38:06.535Z</time></trkpt><trkpt lat="46.0286168" lon="11.8745355"><ele>320.0</ele><time>2026-04-15T10:38:08.537Z</time></trkpt><trkpt lat="46.0286403" lon="11.8744249"><ele>320.0</ele><time>2026-04-15T10:38:11.537Z</time></trkpt><trkpt lat="46.0286556" lon="11.8743076"><ele>320.0</ele><time>2026-04-15T10:38:15.537Z</time></trkpt><trkpt lat="46.0286819" lon="11.8742128"><ele>321.2857142857143</ele><time>2026-04-15T10:38:18.538Z</time></trkpt><trkpt lat="46.0287054" lon="11.8741115"><ele>322.57142857142856</ele><time>2026-04-15T10:38:21.537Z</time></trkpt><trkpt lat="46.0287439" lon="11.8740244"><ele>323.8571428571429</ele><time>2026-04-15T10:38:24.537Z</time></trkpt><trkpt lat="46.0287692" lon="11.8739344"><ele>325.1428571428571</ele><time>2026-04-15T10:38:27.537Z</time></trkpt><trkpt lat="46.0287921" lon="11.8738469"><ele>326.42857142857144</ele><time>2026-04-15T10:38:30.537Z</time></trkpt><trkpt lat="46.0288234" lon="11.8737596"><ele>327.7142857142857</ele><time>2026-04-15T10:38:33.537Z</time></trkpt><trkpt lat="46.0288498" lon="11.8736522"><ele>329.0</ele><time>2026-04-15T10:38:37.538Z</time></trkpt><trkpt lat="46.0287893" lon="11.8735899"><ele>329.0</ele><time>2026-04-15T10:38:41.538Z</time></trkpt><trkpt lat="46.028724" lon="11.8736293"><ele>329.0</ele><time>2026-04-15T10:38:45.538Z</time></trkpt><trkpt lat="46.028669" lon="11.873698"><ele>329.0</ele><time>2026-04-15T10:38:48.539Z</time></trkpt><trkpt lat="46.0286115" lon="11.8737734"><ele>329.0</ele><time>2026-04-15T10:38:51.537Z</time></trkpt><trkpt lat="46.0285563" lon="11.8738479"><ele>329.0</ele><time>2026-04-15T10:38:54.539Z</time></trkpt><trkpt lat="46.0284857" lon="11.8739301"><ele>329.0</ele><time>2026-04-15T10:38:57.537Z</time></trkpt><trkpt lat="46.0284106" lon="11.8739993"><ele>329.0</ele><time>2026-04-15T10:39:00.538Z</time></trkpt><trkpt lat="46.0283553" lon="11.8740527"><ele>329.0</ele><time>2026-04-15T10:39:02.534Z</time></trkpt><trkpt lat="46.0283084" lon="11.8741211"><ele>329.0</ele><time>2026-04-15T10:39:04.538Z</time></trkpt><trkpt lat="46.0282566" lon="11.8742019"><ele>329.0</ele><time>2026-04-15T10:39:06.534Z</time></trkpt><trkpt lat="46.0282104" lon="11.8742827"><ele>329.0</ele><time>2026-04-15T10:39:08.536Z</time></trkpt><trkpt lat="46.0281724" lon="11.8743614"><ele>329.0</ele><time>2026-04-15T10:39:10.538Z</time></trkpt><trkpt lat="46.0281179" lon="11.8744605"><ele>329.0</ele><time>2026-04-15T10:39:13.537Z</time></trkpt><trkpt lat="46.0280632" lon="11.8745451"><ele>327.0</ele><time>2026-04-15T10:39:16.539Z</time></trkpt><trkpt lat="46.0280121" lon="11.874616"><ele>325.0</ele><time>2026-04-15T10:39:20.538Z</time></trkpt><trkpt lat="46.0279505" lon="11.8746656"><ele>323.0</ele><time>2026-04-15T10:39:23.54Z</time></trkpt><trkpt lat="46.0278672" lon="11.8747319"><ele>321.0</ele><time>2026-04-15T10:39:26.54Z</time></trkpt><trkpt lat="46.0277946" lon="11.8747838"><ele>319.0</ele><time>2026-04-15T10:39:28.536Z</time></trkpt><trkpt lat="46.0277079" lon="11.8748337"><ele>317.0</ele><time>2026-04-15T10:39:30.537Z</time></trkpt><trkpt lat="46.0276178" lon="11.8748816"><ele>317.0</ele><time>2026-04-15T10:39:32.539Z</time></trkpt><trkpt lat="46.0275246" lon="11.8749234"><ele>317.0</ele><time>2026-04-15T10:39:34.54Z</time></trkpt><trkpt lat="46.0274357" lon="11.8749706"><ele>317.0</ele><time>2026-04-15T10:39:36.539Z</time></trkpt><trkpt lat="46.0273578" lon="11.875016"><ele>317.0</ele><time>2026-04-15T10:39:38.537Z</time></trkpt><trkpt lat="46.0272755" lon="11.8750399"><ele>317.0</ele><time>2026-04-15T10:39:40.538Z</time></trkpt><trkpt lat="46.027178" lon="11.8750462"><ele>315.75</ele><time>2026-04-15T10:39:42.539Z</time></trkpt><trkpt lat="46.0270762" lon="11.8750409"><ele>314.5</ele><time>2026-04-15T10:39:44.54Z</time></trkpt><trkpt lat="46.0269678" lon="11.8750256"><ele>313.25</ele><time>2026-04-15T10:39:46.538Z</time></trkpt><trkpt lat="46.0268531" lon="11.8750047"><ele>312.0</ele><time>2026-04-15T10:39:48.538Z</time></trkpt><trkpt lat="46.0267303" lon="11.8749807"><ele>311.0</ele><time>2026-04-15T10:39:50.539Z</time></trkpt><trkpt lat="46.026607" lon="11.8749627"><ele>310.0</ele><time>2026-04-15T10:39:52.538Z</time></trkpt><trkpt lat="46.026487" lon="11.8749554"><ele>309.0</ele><time>2026-04-15T10:39:54.54Z</time></trkpt><trkpt lat="46.0263675" lon="11.8749432"><ele>308.0</ele><time>2026-04-15T10:39:56.537Z</time></trkpt><trkpt lat="46.0262585" lon="11.8749155"><ele>308.0</ele><time>2026-04-15T10:39:58.539Z</time></trkpt><trkpt lat="46.0261586" lon="11.8748749"><ele>308.0</ele><time>2026-04-15T10:40:00.539Z</time></trkpt><trkpt lat="46.0260671" lon="11.874837"><ele>308.0</ele><time>2026-04-15T10:40:02.539Z</time></trkpt><trkpt lat="46.0259717" lon="11.8748276"><ele>308.0</ele><time>2026-04-15T10:40:04.538Z</time></trkpt><trkpt lat="46.0258691" lon="11.8748128"><ele>308.0</ele><time>2026-04-15T10:40:06.539Z</time></trkpt><trkpt lat="46.025766" lon="11.8747513"><ele>309.0</ele><time>2026-04-15T10:40:08.538Z</time></trkpt><trkpt lat="46.0256707" lon="11.8746557"><ele>310.0</ele><time>2026-04-15T10:40:10.538Z</time></trkpt><trkpt lat="46.0255714" lon="11.874569"><ele>311.0</ele><time>2026-04-15T10:40:12.539Z</time></trkpt><trkpt lat="46.0254743" lon="11.8745013"><ele>312.0</ele><time>2026-04-15T10:40:14.536Z</time></trkpt><trkpt lat="46.0253755" lon="11.8744409"><ele>313.0</ele><time>2026-04-15T10:40:16.537Z</time></trkpt><trkpt lat="46.0252907" lon="11.8743562"><ele>311.2</ele><time>2026-04-15T10:40:18.54Z</time></trkpt><trkpt lat="46.0252283" lon="11.8742431"><ele>309.4</ele><time>2026-04-15T10:40:20.539Z</time></trkpt><trkpt lat="46.0251618" lon="11.8741281"><ele>307.59999999999997</ele><time>2026-04-15T10:40:22.537Z</time></trkpt><trkpt lat="46.025071" lon="11.8740448"><ele>305.8</ele><time>2026-04-15T10:40:24.539Z</time></trkpt><trkpt lat="46.0249758" lon="11.8739819"><ele>304.0</ele><time>2026-04-15T10:40:26.539Z</time></trkpt><trkpt lat="46.0248909" lon="11.8739254"><ele>304.66666666666663</ele><time>2026-04-15T10:40:28.539Z</time></trkpt><trkpt lat="46.0248223" lon="11.8738483"><ele>305.3333333333333</ele><time>2026-04-15T10:40:30.538Z</time></trkpt><trkpt lat="46.0247795" lon="11.8737497"><ele>306.0</ele><time>2026-04-15T10:40:32.54Z</time></trkpt><trkpt lat="46.0247427" lon="11.8736443"><ele>306.6666666666667</ele><time>2026-04-15T10:40:34.536Z</time></trkpt><trkpt lat="46.0247023" lon="11.8735409"><ele>307.33333333333337</ele><time>2026-04-15T10:40:36.538Z</time></trkpt><trkpt lat="46.02466" lon="11.8734439"><ele>308.0</ele><time>2026-04-15T10:40:38.538Z</time></trkpt><trkpt lat="46.0246037" lon="11.873359"><ele>308.0</ele><time>2026-04-15T10:40:40.537Z</time></trkpt><trkpt lat="46.0245317" lon="11.8732893"><ele>308.0</ele><time>2026-04-15T10:40:42.538Z</time></trkpt><trkpt lat="46.0244542" lon="11.873222"><ele>308.0</ele><time>2026-04-15T10:40:44.539Z</time></trkpt><trkpt lat="46.024381" lon="11.8731361"><ele>308.0</ele><time>2026-04-15T10:40:46.539Z</time></trkpt><trkpt lat="46.0243108" lon="11.8730386"><ele>308.0</ele><time>2026-04-15T10:40:48.537Z</time></trkpt><trkpt lat="46.0242336" lon="11.8729338"><ele>308.0</ele><time>2026-04-15T10:40:50.54Z</time></trkpt><trkpt lat="46.0241586" lon="11.8728258"><ele>308.0</ele><time>2026-04-15T10:40:52.537Z</time></trkpt><trkpt lat="46.0240832" lon="11.8727283"><ele>308.0</ele><time>2026-04-15T10:40:54.539Z</time></trkpt><trkpt lat="46.0240013" lon="11.8726643"><ele>308.0</ele><time>2026-04-15T10:40:56.539Z</time></trkpt><trkpt lat="46.0239169" lon="11.8726384"><ele>308.0</ele><time>2026-04-15T10:40:58.539Z</time></trkpt><trkpt lat="46.023828" lon="11.8726323"><ele>308.0</ele><time>2026-04-15T10:41:00.54Z</time></trkpt><trkpt lat="46.0237382" lon="11.8726385"><ele>308.0</ele><time>2026-04-15T10:41:02.539Z</time></trkpt><trkpt lat="46.02364" lon="11.8726574"><ele>308.0</ele><time>2026-04-15T10:41:04.539Z</time></trkpt><trkpt lat="46.0235457" lon="11.8726727"><ele>308.0</ele><time>2026-04-15T10:41:06.539Z</time></trkpt><trkpt lat="46.0234487" lon="11.8726874"><ele>308.0</ele><time>2026-04-15T10:41:08.539Z</time></trkpt><trkpt lat="46.0233547" lon="11.872703"><ele>305.83333333333337</ele><time>2026-04-15T10:41:10.536Z</time></trkpt><trkpt lat="46.0232641" lon="11.8727243"><ele>303.6666666666667</ele><time>2026-04-15T10:41:12.537Z</time></trkpt><trkpt lat="46.023176" lon="11.8727534"><ele>301.5</ele><time>2026-04-15T10:41:14.538Z</time></trkpt><trkpt lat="46.0230902" lon="11.8727924"><ele>299.3333333333333</ele><time>2026-04-15T10:41:16.539Z</time></trkpt><trkpt lat="46.0230106" lon="11.8728438"><ele>297.16666666666663</ele><time>2026-04-15T10:41:18.537Z</time></trkpt><trkpt lat="46.0229315" lon="11.8728945"><ele>295.0</ele><time>2026-04-15T10:41:20.539Z</time></trkpt><trkpt lat="46.0228474" lon="11.8729421"><ele>295.0</ele><time>2026-04-15T10:41:22.539Z</time></trkpt><trkpt lat="46.0227712" lon="11.8729841"><ele>295.0</ele><time>2026-04-15T10:41:24.539Z</time></trkpt><trkpt lat="46.0226891" lon="11.8730344"><ele>295.0</ele><time>2026-04-15T10:41:26.538Z</time></trkpt><trkpt lat="46.0226053" lon="11.8730924"><ele>295.0</ele><time>2026-04-15T10:41:28.539Z</time></trkpt><trkpt lat="46.0225309" lon="11.873175"><ele>295.0</ele><time>2026-04-15T10:41:30.537Z</time></trkpt><trkpt lat="46.0224699" lon="11.8732737"><ele>295.0</ele><time>2026-04-15T10:41:32.539Z</time></trkpt><trkpt lat="46.0224174" lon="11.8733689"><ele>293.5</ele><time>2026-04-15T10:41:34.539Z</time></trkpt><trkpt lat="46.0223633" lon="11.8734598"><ele>292.0</ele><time>2026-04-15T10:41:36.538Z</time></trkpt><trkpt lat="46.0222959" lon="11.8735424"><ele>290.5</ele><time>2026-04-15T10:41:38.539Z</time></trkpt><trkpt lat="46.0222214" lon="11.8736117"><ele>289.0</ele><time>2026-04-15T10:41:40.539Z</time></trkpt><trkpt lat="46.0221471" lon="11.8736788"><ele>287.5</ele><time>2026-04-15T10:41:42.538Z</time></trkpt><trkpt lat="46.0220726" lon="11.8737444"><ele>286.0</ele><time>2026-04-15T10:41:44.539Z</time></trkpt><trkpt lat="46.0219976" lon="11.8738027"><ele>286.0</ele><time>2026-04-15T10:41:46.539Z</time></trkpt><trkpt lat="46.0219294" lon="11.8738658"><ele>286.0</ele><time>2026-04-15T10:41:48.538Z</time></trkpt><trkpt lat="46.0218874" lon="11.8739497"><ele>286.0</ele><time>2026-04-15T10:41:50.539Z</time></trkpt><trkpt lat="46.0219104" lon="11.8740474"><ele>286.0</ele><time>2026-04-15T10:41:53.537Z</time></trkpt><trkpt lat="46.0219412" lon="11.8741308"><ele>286.0</ele><time>2026-04-15T10:41:56.537Z</time></trkpt><trkpt lat="46.021882" lon="11.8742294"><ele>286.0</ele><time>2026-04-15T10:41:59.537Z</time></trkpt><trkpt lat="46.0218319" lon="11.8743086"><ele>286.0</ele><time>2026-04-15T10:42:01.538Z</time></trkpt><trkpt lat="46.0217783" lon="11.8743902"><ele>286.0</ele><time>2026-04-15T10:42:03.539Z</time></trkpt><trkpt lat="46.0217183" lon="11.874468"><ele>286.0</ele><time>2026-04-15T10:42:05.539Z</time></trkpt><trkpt lat="46.0216574" lon="11.8745429"><ele>286.0</ele><time>2026-04-15T10:42:07.538Z</time></trkpt><trkpt lat="46.0215973" lon="11.8746192"><ele>286.0</ele><time>2026-04-15T10:42:09.539Z</time></trkpt><trkpt lat="46.0215326" lon="11.8746912"><ele>286.0</ele><time>2026-04-15T10:42:11.539Z</time></trkpt><trkpt lat="46.0214616" lon="11.8747613"><ele>285.8333333333333</ele><time>2026-04-15T10:42:13.537Z</time></trkpt><trkpt lat="46.0213944" lon="11.8748151"><ele>285.66666666666663</ele><time>2026-04-15T10:42:15.536Z</time></trkpt><trkpt lat="46.0213236" lon="11.8748557"><ele>285.5</ele><time>2026-04-15T10:42:17.537Z</time></trkpt><trkpt lat="46.0212482" lon="11.8748878"><ele>285.3333333333333</ele><time>2026-04-15T10:42:19.539Z</time></trkpt><trkpt lat="46.0211756" lon="11.8749202"><ele>285.1666666666667</ele><time>2026-04-15T10:42:21.539Z</time></trkpt><trkpt lat="46.0210991" lon="11.874951"><ele>285.0</ele><time>2026-04-15T10:42:23.539Z</time></trkpt><trkpt lat="46.0210258" lon="11.8749959"><ele>285.0</ele><time>2026-04-15T10:42:25.539Z</time></trkpt><trkpt lat="46.0209581" lon="11.8750654"><ele>285.0</ele><time>2026-04-15T10:42:27.536Z</time></trkpt><trkpt lat="46.0208951" lon="11.8751507"><ele>285.0</ele><time>2026-04-15T10:42:29.539Z</time></trkpt><trkpt lat="46.0208243" lon="11.8752353"><ele>285.0</ele><time>2026-04-15T10:42:31.537Z</time></trkpt><trkpt lat="46.0207463" lon="11.8752941"><ele>285.0</ele><time>2026-04-15T10:42:33.539Z</time></trkpt><trkpt lat="46.0206714" lon="11.8753375"><ele>285.0</ele><time>2026-04-15T10:42:35.539Z</time></trkpt><trkpt lat="46.0205933" lon="11.8753817"><ele>283.8333333333333</ele><time>2026-04-15T10:42:37.539Z</time></trkpt><trkpt lat="46.0205179" lon="11.8754218"><ele>282.6666666666667</ele><time>2026-04-15T10:42:39.539Z</time></trkpt><trkpt lat="46.0204398" lon="11.8754647"><ele>281.5</ele><time>2026-04-15T10:42:41.539Z</time></trkpt><trkpt lat="46.0203641" lon="11.8755181"><ele>280.33333333333337</ele><time>2026-04-15T10:42:43.537Z</time></trkpt><trkpt lat="46.0202952" lon="11.8755823"><ele>279.1666666666667</ele><time>2026-04-15T10:42:45.539Z</time></trkpt><trkpt lat="46.020233" lon="11.87566"><ele>278.0</ele><time>2026-04-15T10:42:47.537Z</time></trkpt><trkpt lat="46.0201732" lon="11.8757382"><ele>278.0</ele><time>2026-04-15T10:42:49.535Z</time></trkpt><trkpt lat="46.0201133" lon="11.875814"><ele>278.0</ele><time>2026-04-15T10:42:51.536Z</time></trkpt><trkpt lat="46.020054" lon="11.8758889"><ele>278.0</ele><time>2026-04-15T10:42:53.534Z</time></trkpt><trkpt lat="46.0200007" lon="11.8759611"><ele>278.0</ele><time>2026-04-15T10:42:55.534Z</time></trkpt><trkpt lat="46.0199334" lon="11.8760251"><ele>278.0</ele><time>2026-04-15T10:42:58.535Z</time></trkpt><trkpt lat="46.019883" lon="11.875956"><ele>278.0</ele><time>2026-04-15T10:43:01.537Z</time></trkpt><trkpt lat="46.0198804" lon="11.8758451"><ele>277.5</ele><time>2026-04-15T10:43:03.535Z</time></trkpt><trkpt lat="46.0198718" lon="11.875737"><ele>277.0</ele><time>2026-04-15T10:43:05.536Z</time></trkpt><trkpt lat="46.0198439" lon="11.8756194"><ele>276.5</ele><time>2026-04-15T10:43:07.537Z</time></trkpt><trkpt lat="46.0198213" lon="11.8754976"><ele>276.0</ele><time>2026-04-15T10:43:09.538Z</time></trkpt><trkpt lat="46.0198043" lon="11.8753707"><ele>275.5</ele><time>2026-04-15T10:43:11.538Z</time></trkpt><trkpt lat="46.0197751" lon="11.8752419"><ele>275.0</ele><time>2026-04-15T10:43:13.535Z</time></trkpt><trkpt lat="46.019743" lon="11.8751069"><ele>275.0</ele><time>2026-04-15T10:43:15.537Z</time></trkpt><trkpt lat="46.0197137" lon="11.8749725"><ele>275.0</ele><time>2026-04-15T10:43:17.538Z</time></trkpt><trkpt lat="46.0196793" lon="11.8748358"><ele>275.0</ele><time>2026-04-15T10:43:19.539Z</time></trkpt><trkpt lat="46.0196384" lon="11.8747032"><ele>275.0</ele><time>2026-04-15T10:43:21.539Z</time></trkpt><trkpt lat="46.0195959" lon="11.8745739"><ele>275.0</ele><time>2026-04-15T10:43:23.539Z</time></trkpt><trkpt lat="46.0195527" lon="11.8744518"><ele>275.0</ele><time>2026-04-15T10:43:25.533Z</time></trkpt><trkpt lat="46.0195092" lon="11.8743343"><ele>275.0</ele><time>2026-04-15T10:43:27.536Z</time></trkpt><trkpt lat="46.0194646" lon="11.8742146"><ele>275.0</ele><time>2026-04-15T10:43:29.537Z</time></trkpt><trkpt lat="46.0194254" lon="11.8740981"><ele>275.0</ele><time>2026-04-15T10:43:31.539Z</time></trkpt><trkpt lat="46.0194063" lon="11.8739734"><ele>275.0</ele><time>2026-04-15T10:43:33.537Z</time></trkpt><trkpt lat="46.0194195" lon="11.8738417"><ele>275.2</ele><time>2026-04-15T10:43:35.537Z</time></trkpt><trkpt lat="46.0194486" lon="11.8737153"><ele>275.4</ele><time>2026-04-15T10:43:37.539Z</time></trkpt><trkpt lat="46.0194879" lon="11.8735947"><ele>275.6</ele><time>2026-04-15T10:43:39.536Z</time></trkpt><trkpt lat="46.0195341" lon="11.873475"><ele>275.8</ele><time>2026-04-15T10:43:41.539Z</time></trkpt><trkpt lat="46.0195807" lon="11.8733568"><ele>276.0</ele><time>2026-04-15T10:43:43.536Z</time></trkpt><trkpt lat="46.0196255" lon="11.8732391"><ele>276.0</ele><time>2026-04-15T10:43:45.537Z</time></trkpt><trkpt lat="46.0196649" lon="11.8731162"><ele>276.0</ele><time>2026-04-15T10:43:47.539Z</time></trkpt><trkpt lat="46.0197039" lon="11.872987"><ele>276.0</ele><time>2026-04-15T10:43:49.538Z</time></trkpt><trkpt lat="46.0197449" lon="11.8728522"><ele>276.0</ele><time>2026-04-15T10:43:51.537Z</time></trkpt><trkpt lat="46.0197874" lon="11.8727216"><ele>276.0</ele><time>2026-04-15T10:43:53.536Z</time></trkpt><trkpt lat="46.0198248" lon="11.8725913"><ele>275.8</ele><time>2026-04-15T10:43:55.539Z</time></trkpt><trkpt lat="46.0198589" lon="11.8724611"><ele>275.6</ele><time>2026-04-15T10:43:57.537Z</time></trkpt><trkpt lat="46.0198833" lon="11.872325"><ele>275.4</ele><time>2026-04-15T10:43:59.537Z</time></trkpt><trkpt lat="46.0198977" lon="11.8721734"><ele>275.2</ele><time>2026-04-15T10:44:01.538Z</time></trkpt><trkpt lat="46.0198876" lon="11.8720133"><ele>275.0</ele><time>2026-04-15T10:44:03.539Z</time></trkpt><trkpt lat="46.0198582" lon="11.8718625"><ele>275.2</ele><time>2026-04-15T10:44:05.536Z</time></trkpt><trkpt lat="46.0198197" lon="11.8717222"><ele>275.4</ele><time>2026-04-15T10:44:07.538Z</time></trkpt><trkpt lat="46.019776" lon="11.8715834"><ele>275.6</ele><time>2026-04-15T10:44:09.537Z</time></trkpt><trkpt lat="46.0197312" lon="11.8714386"><ele>275.8</ele><time>2026-04-15T10:44:11.534Z</time></trkpt><trkpt lat="46.0196948" lon="11.8712869"><ele>276.0</ele><time>2026-04-15T10:44:13.538Z</time></trkpt><trkpt lat="46.0196652" lon="11.8711399"><ele>276.0</ele><time>2026-04-15T10:44:15.536Z</time></trkpt><trkpt lat="46.0196393" lon="11.8709938"><ele>276.0</ele><time>2026-04-15T10:44:17.538Z</time></trkpt><trkpt lat="46.0196152" lon="11.8708517"><ele>276.0</ele><time>2026-04-15T10:44:19.539Z</time></trkpt><trkpt lat="46.0195863" lon="11.870715"><ele>276.0</ele><time>2026-04-15T10:44:21.539Z</time></trkpt><trkpt lat="46.0195522" lon="11.8705827"><ele>276.0</ele><time>2026-04-15T10:44:23.537Z</time></trkpt><trkpt lat="46.0195167" lon="11.8704528"><ele>276.40000000000003</ele><time>2026-04-15T10:44:25.539Z</time></trkpt><trkpt lat="46.0194785" lon="11.870323"><ele>276.8</ele><time>2026-04-15T10:44:27.539Z</time></trkpt><trkpt lat="46.0194365" lon="11.870192"><ele>277.20000000000005</ele><time>2026-04-15T10:44:29.538Z</time></trkpt><trkpt lat="46.0193932" lon="11.8700646"><ele>277.6</ele><time>2026-04-15T10:44:31.537Z</time></trkpt><trkpt lat="46.0193528" lon="11.8699372"><ele>278.0</ele><time>2026-04-15T10:44:33.537Z</time></trkpt><trkpt lat="46.0193114" lon="11.8698104"><ele>278.2</ele><time>2026-04-15T10:44:35.536Z</time></trkpt><trkpt lat="46.0192699" lon="11.8696857"><ele>278.4</ele><time>2026-04-15T10:44:37.538Z</time></trkpt><trkpt lat="46.0192288" lon="11.8695591"><ele>278.59999999999997</ele><time>2026-04-15T10:44:39.538Z</time></trkpt><trkpt lat="46.0191844" lon="11.8694328"><ele>278.8</ele><time>2026-04-15T10:44:41.536Z</time></trkpt><trkpt lat="46.0191401" lon="11.869313"><ele>279.0</ele><time>2026-04-15T10:44:43.539Z</time></trkpt><trkpt lat="46.019087" lon="11.8692041"><ele>279.4</ele><time>2026-04-15T10:44:45.537Z</time></trkpt><trkpt lat="46.0190268" lon="11.8690981"><ele>279.79999999999995</ele><time>2026-04-15T10:44:47.538Z</time></trkpt><trkpt lat="46.0189603" lon="11.8690015"><ele>280.20000000000005</ele><time>2026-04-15T10:44:49.536Z</time></trkpt><trkpt lat="46.0188836" lon="11.8689189"><ele>280.6</ele><time>2026-04-15T10:44:51.536Z</time></trkpt><trkpt lat="46.0188073" lon="11.8688463"><ele>281.0</ele><time>2026-04-15T10:44:53.536Z</time></trkpt><trkpt lat="46.0187373" lon="11.8687757"><ele>281.00000000000006</ele><time>2026-04-15T10:44:55.538Z</time></trkpt><trkpt lat="46.01868" lon="11.8687032"><ele>281.0</ele><time>2026-04-15T10:44:57.539Z</time></trkpt><trkpt lat="46.0186324" lon="11.8686181"><ele>281.0</ele><time>2026-04-15T10:44:59.539Z</time></trkpt><trkpt lat="46.0185854" lon="11.8685312"><ele>281.0</ele><time>2026-04-15T10:45:01.536Z</time></trkpt><trkpt lat="46.0185385" lon="11.8684503"><ele>281.0</ele><time>2026-04-15T10:45:03.539Z</time></trkpt><trkpt lat="46.0184916" lon="11.8683747"><ele>281.00000000000006</ele><time>2026-04-15T10:45:05.54Z</time></trkpt><trkpt lat="46.0184866" lon="11.8682676"><ele>281.0</ele><time>2026-04-15T10:45:08.539Z</time></trkpt><trkpt lat="46.0185471" lon="11.8681773"><ele>281.33333333333337</ele><time>2026-04-15T10:45:11.54Z</time></trkpt><trkpt lat="46.0186091" lon="11.868125"><ele>281.6666666666667</ele><time>2026-04-15T10:45:13.54Z</time></trkpt><trkpt lat="46.0186666" lon="11.8680782"><ele>282.0</ele><time>2026-04-15T10:45:15.54Z</time></trkpt><trkpt lat="46.0187439" lon="11.8680042"><ele>282.3333333333333</ele><time>2026-04-15T10:45:18.538Z</time></trkpt><trkpt lat="46.0188151" lon="11.8679352"><ele>282.66666666666663</ele><time>2026-04-15T10:45:21.54Z</time></trkpt><trkpt lat="46.0188991" lon="11.8679046"><ele>283.0</ele><time>2026-04-15T10:45:24.539Z</time></trkpt><trkpt lat="46.0189725" lon="11.8678959"><ele>283.0</ele><time>2026-04-15T10:45:27.54Z</time></trkpt><trkpt lat="46.019055" lon="11.8678923"><ele>283.0</ele><time>2026-04-15T10:45:30.54Z</time></trkpt><trkpt lat="46.0191179" lon="11.8678837"><ele>283.0</ele><time>2026-04-15T10:45:32.539Z</time></trkpt><trkpt lat="46.0191856" lon="11.8678817"><ele>283.0</ele><time>2026-04-15T10:45:34.539Z</time></trkpt><trkpt lat="46.0192534" lon="11.8678892"><ele>283.0</ele><time>2026-04-15T10:45:36.537Z</time></trkpt><trkpt lat="46.0193396" lon="11.8679315"><ele>283.0</ele><time>2026-04-15T10:45:39.538Z</time></trkpt><trkpt lat="46.0193944" lon="11.867993"><ele>283.0</ele><time>2026-04-15T10:45:41.54Z</time></trkpt><trkpt lat="46.0194583" lon="11.8680847"><ele>282.8333333333333</ele><time>2026-04-15T10:45:43.538Z</time></trkpt><trkpt lat="46.0195119" lon="11.868186"><ele>282.66666666666663</ele><time>2026-04-15T10:45:45.539Z</time></trkpt><trkpt lat="46.0195546" lon="11.8682998"><ele>282.5</ele><time>2026-04-15T10:45:47.537Z</time></trkpt><trkpt lat="46.0195975" lon="11.8684103"><ele>282.3333333333333</ele><time>2026-04-15T10:45:49.537Z</time></trkpt><trkpt lat="46.0196304" lon="11.8685238"><ele>282.1666666666667</ele><time>2026-04-15T10:45:51.539Z</time></trkpt><trkpt lat="46.0196664" lon="11.8686275"><ele>282.0</ele><time>2026-04-15T10:45:53.54Z</time></trkpt><trkpt lat="46.0197094" lon="11.8687177"><ele>282.0</ele><time>2026-04-15T10:45:55.539Z</time></trkpt><trkpt lat="46.0197635" lon="11.8687884"><ele>282.0</ele><time>2026-04-15T10:45:57.539Z</time></trkpt><trkpt lat="46.0198241" lon="11.8688464"><ele>282.0</ele><time>2026-04-15T10:45:59.539Z</time></trkpt><trkpt lat="46.0198995" lon="11.868883"><ele>282.0</ele><time>2026-04-15T10:46:01.537Z</time></trkpt><trkpt lat="46.0199709" lon="11.8688926"><ele>282.0</ele><time>2026-04-15T10:46:03.54Z</time></trkpt><trkpt lat="46.0200344" lon="11.8689006"><ele>282.0</ele><time>2026-04-15T10:46:05.539Z</time></trkpt><trkpt lat="46.0201696" lon="11.8687676"><ele>282.8333333333333</ele><time>2026-04-15T10:46:12.539Z</time></trkpt><trkpt lat="46.0201325" lon="11.8686489"><ele>283.6666666666667</ele><time>2026-04-15T10:46:15.537Z</time></trkpt><trkpt lat="46.0200949" lon="11.8685495"><ele>284.5</ele><time>2026-04-15T10:46:18.539Z</time></trkpt><trkpt lat="46.0200612" lon="11.8684642"><ele>285.33333333333337</ele><time>2026-04-15T10:46:21.537Z</time></trkpt><trkpt lat="46.020026" lon="11.868368"><ele>286.1666666666667</ele><time>2026-04-15T10:46:25.538Z</time></trkpt><trkpt lat="46.0199935" lon="11.8682769"><ele>287.0</ele><time>2026-04-15T10:46:28.539Z</time></trkpt><trkpt lat="46.019951" lon="11.8681688"><ele>287.0</ele><time>2026-04-15T10:46:31.54Z</time></trkpt><trkpt lat="46.0199015" lon="11.8680553"><ele>287.0</ele><time>2026-04-15T10:46:34.539Z</time></trkpt><trkpt lat="46.0198655" lon="11.8679768"><ele>287.0</ele><time>2026-04-15T10:46:36.539Z</time></trkpt><trkpt lat="46.019829" lon="11.8679029"><ele>287.0</ele><time>2026-04-15T10:46:38.536Z</time></trkpt><trkpt lat="46.0197749" lon="11.8678001"><ele>287.0</ele><time>2026-04-15T10:46:41.538Z</time></trkpt><trkpt lat="46.0197354" lon="11.8677268"><ele>287.0</ele><time>2026-04-15T10:46:43.537Z</time></trkpt><trkpt lat="46.0196836" lon="11.8676165"><ele>288.33333333333337</ele><time>2026-04-15T10:46:46.536Z</time></trkpt><trkpt lat="46.0196307" lon="11.8675122"><ele>289.6666666666667</ele><time>2026-04-15T10:46:49.538Z</time></trkpt><trkpt lat="46.0195876" lon="11.867409"><ele>291.0</ele><time>2026-04-15T10:46:52.537Z</time></trkpt><trkpt lat="46.0195518" lon="11.8672938"><ele>292.3333333333333</ele><time>2026-04-15T10:46:55.539Z</time></trkpt><trkpt lat="46.0195203" lon="11.8671769"><ele>293.66666666666663</ele><time>2026-04-15T10:46:58.539Z</time></trkpt><trkpt lat="46.0194871" lon="11.867063"><ele>295.0</ele><time>2026-04-15T10:47:01.539Z</time></trkpt><trkpt lat="46.0194495" lon="11.8669556"><ele>295.00000000000006</ele><time>2026-04-15T10:47:04.539Z</time></trkpt><trkpt lat="46.0194064" lon="11.8668459"><ele>295.0</ele><time>2026-04-15T10:47:07.539Z</time></trkpt><trkpt lat="46.0193729" lon="11.8667654"><ele>295.0</ele><time>2026-04-15T10:47:09.537Z</time></trkpt><trkpt lat="46.019338" lon="11.8666791"><ele>295.0</ele><time>2026-04-15T10:47:11.537Z</time></trkpt><trkpt lat="46.0193082" lon="11.8665855"><ele>295.0</ele><time>2026-04-15T10:47:13.538Z</time></trkpt><trkpt lat="46.0192694" lon="11.866507"><ele>295.00000000000006</ele><time>2026-04-15T10:47:15.536Z</time></trkpt><trkpt lat="46.0192303" lon="11.8664332"><ele>295.0</ele><time>2026-04-15T10:47:17.539Z</time></trkpt><trkpt lat="46.019199" lon="11.8663526"><ele>295.0</ele><time>2026-04-15T10:47:19.536Z</time></trkpt><trkpt lat="46.0191674" lon="11.8662686"><ele>295.0</ele><time>2026-04-15T10:47:21.539Z</time></trkpt><trkpt lat="46.019136" lon="11.8661872"><ele>295.0</ele><time>2026-04-15T10:47:23.539Z</time></trkpt><trkpt lat="46.0191044" lon="11.8661073"><ele>295.0</ele><time>2026-04-15T10:47:25.537Z</time></trkpt><trkpt lat="46.0190607" lon="11.8659901"><ele>295.0</ele><time>2026-04-15T10:47:28.538Z</time></trkpt><trkpt lat="46.019017" lon="11.8658752"><ele>295.0</ele><time>2026-04-15T10:47:31.539Z</time></trkpt><trkpt lat="46.0189752" lon="11.8657561"><ele>295.0</ele><time>2026-04-15T10:47:34.538Z</time></trkpt><trkpt lat="46.0189366" lon="11.8656468"><ele>295.0</ele><time>2026-04-15T10:47:37.535Z</time></trkpt><trkpt lat="46.0188809" lon="11.8655449"><ele>295.0</ele><time>2026-04-15T10:47:40.539Z</time></trkpt><trkpt lat="46.0188345" lon="11.8654499"><ele>295.0</ele><time>2026-04-15T10:47:43.539Z</time></trkpt><trkpt lat="46.0187834" lon="11.8653655"><ele>295.0</ele><time>2026-04-15T10:47:46.539Z</time></trkpt><trkpt lat="46.0187221" lon="11.8652931"><ele>295.0</ele><time>2026-04-15T10:47:49.536Z</time></trkpt><trkpt lat="46.0186617" lon="11.8652007"><ele>298.00000000000006</ele><time>2026-04-15T10:47:52.534Z</time></trkpt><trkpt lat="46.0186089" lon="11.865109"><ele>301.0</ele><time>2026-04-15T10:47:55.539Z</time></trkpt><trkpt lat="46.0185625" lon="11.8650254"><ele>304.0</ele><time>2026-04-15T10:47:58.539Z</time></trkpt><trkpt lat="46.0185153" lon="11.864937"><ele>307.0</ele><time>2026-04-15T10:48:02.539Z</time></trkpt><trkpt lat="46.0184965" lon="11.8648504"><ele>310.0</ele><time>2026-04-15T10:48:53.535Z</time></trkpt><trkpt lat="46.0184676" lon="11.8647581"><ele>313.00000000000006</ele><time>2026-04-15T10:48:59.534Z</time></trkpt><trkpt lat="46.0184183" lon="11.8646801"><ele>316.0</ele><time>2026-04-15T10:49:03.537Z</time></trkpt><trkpt lat="46.0183767" lon="11.8645902"><ele>316.0</ele><time>2026-04-15T10:49:07.54Z</time></trkpt><trkpt lat="46.0183255" lon="11.8644985"><ele>316.0</ele><time>2026-04-15T10:49:11.539Z</time></trkpt><trkpt lat="46.0182939" lon="11.8643981"><ele>316.0</ele><time>2026-04-15T10:49:16.535Z</time></trkpt><trkpt lat="46.0182629" lon="11.8642977"><ele>316.0</ele><time>2026-04-15T10:49:20.539Z</time></trkpt><trkpt lat="46.0182309" lon="11.8641873"><ele>316.0</ele><time>2026-04-15T10:49:24.537Z</time></trkpt><trkpt lat="46.0182189" lon="11.8640967"><ele>316.0</ele><time>2026-04-15T10:49:27.536Z</time></trkpt><trkpt lat="46.0181986" lon="11.8639927"><ele>315.8571428571429</ele><time>2026-04-15T10:49:30.538Z</time></trkpt><trkpt lat="46.0182044" lon="11.8638838"><ele>315.7142857142857</ele><time>2026-04-15T10:49:33.539Z</time></trkpt><trkpt lat="46.0182241" lon="11.8637836"><ele>315.57142857142856</ele><time>2026-04-15T10:49:36.538Z</time></trkpt><trkpt lat="46.0182543" lon="11.8636845"><ele>315.42857142857144</ele><time>2026-04-15T10:49:39.539Z</time></trkpt><trkpt lat="46.0182619" lon="11.8635912"><ele>315.2857142857143</ele><time>2026-04-15T10:49:42.539Z</time></trkpt><trkpt lat="46.0182667" lon="11.8634937"><ele>315.14285714285717</ele><time>2026-04-15T10:49:45.539Z</time></trkpt><trkpt lat="46.0182481" lon="11.8633996"><ele>315.0</ele><time>2026-04-15T10:49:48.536Z</time></trkpt><trkpt lat="46.018215" lon="11.8633118"><ele>315.0</ele><time>2026-04-15T10:49:51.536Z</time></trkpt><trkpt lat="46.0181605" lon="11.8632366"><ele>315.0</ele><time>2026-04-15T10:49:54.538Z</time></trkpt><trkpt lat="46.018102" lon="11.8631658"><ele>315.0</ele><time>2026-04-15T10:49:57.536Z</time></trkpt><trkpt lat="46.0180476" lon="11.8630878"><ele>315.0</ele><time>2026-04-15T10:50:00.538Z</time></trkpt><trkpt lat="46.0180046" lon="11.8629999"><ele>315.0</ele><time>2026-04-15T10:50:03.537Z</time></trkpt><trkpt lat="46.0179592" lon="11.8629245"><ele>315.0</ele><time>2026-04-15T10:50:06.537Z</time></trkpt><trkpt lat="46.017915" lon="11.8628231"><ele>315.0</ele><time>2026-04-15T10:50:10.539Z</time></trkpt><trkpt lat="46.0178694" lon="11.8627274"><ele>315.0</ele><time>2026-04-15T10:50:14.537Z</time></trkpt><trkpt lat="46.0178327" lon="11.8626448"><ele>315.0</ele><time>2026-04-15T10:50:17.539Z</time></trkpt><trkpt lat="46.0177933" lon="11.8625543"><ele>315.0</ele><time>2026-04-15T10:50:20.537Z</time></trkpt><trkpt lat="46.0177422" lon="11.8624635"><ele>315.0</ele><time>2026-04-15T10:50:24.539Z</time></trkpt><trkpt lat="46.0176939" lon="11.8623897"><ele>315.0</ele><time>2026-04-15T10:50:28.537Z</time></trkpt><trkpt lat="46.0176517" lon="11.8623014"><ele>315.0</ele><time>2026-04-15T10:50:32.538Z</time></trkpt><trkpt lat="46.0175995" lon="11.8622308"><ele>316.57142857142856</ele><time>2026-04-15T10:50:36.538Z</time></trkpt><trkpt lat="46.0175626" lon="11.8621529"><ele>318.1428571428571</ele><time>2026-04-15T10:50:39.539Z</time></trkpt><trkpt lat="46.0175282" lon="11.8620612"><ele>319.7142857142857</ele><time>2026-04-15T10:50:42.537Z</time></trkpt><trkpt lat="46.017487" lon="11.8619802"><ele>321.2857142857143</ele><time>2026-04-15T10:50:45.539Z</time></trkpt><trkpt lat="46.0174589" lon="11.861888"><ele>322.85714285714283</ele><time>2026-04-15T10:50:48.539Z</time></trkpt><trkpt lat="46.0174373" lon="11.8617883"><ele>324.42857142857144</ele><time>2026-04-15T10:50:51.537Z</time></trkpt><trkpt lat="46.0174023" lon="11.8616848"><ele>326.0</ele><time>2026-04-15T10:50:54.535Z</time></trkpt><trkpt lat="46.0173658" lon="11.861603"><ele>326.0</ele><time>2026-04-15T10:50:57.537Z</time></trkpt><trkpt lat="46.0173308" lon="11.8614977"><ele>326.0</ele><time>2026-04-15T10:51:00.539Z</time></trkpt><trkpt lat="46.0173004" lon="11.8613883"><ele>326.0</ele><time>2026-04-15T10:51:03.539Z</time></trkpt><trkpt lat="46.0172644" lon="11.8612855"><ele>326.0</ele><time>2026-04-15T10:51:06.539Z</time></trkpt><trkpt lat="46.0172112" lon="11.8612078"><ele>326.0</ele><time>2026-04-15T10:51:09.536Z</time></trkpt><trkpt lat="46.0171507" lon="11.8611316"><ele>326.0</ele><time>2026-04-15T10:51:12.539Z</time></trkpt><trkpt lat="46.0170923" lon="11.8610454"><ele>326.0</ele><time>2026-04-15T10:51:15.538Z</time></trkpt><trkpt lat="46.0170395" lon="11.8609609"><ele>326.0</ele><time>2026-04-15T10:51:18.538Z</time></trkpt><trkpt lat="46.0169885" lon="11.860881"><ele>326.0</ele><time>2026-04-15T10:51:21.54Z</time></trkpt><trkpt lat="46.0169358" lon="11.8608066"><ele>326.0</ele><time>2026-04-15T10:51:24.537Z</time></trkpt><trkpt lat="46.0168783" lon="11.8607254"><ele>326.0</ele><time>2026-04-15T10:51:27.537Z</time></trkpt><trkpt lat="46.0168202" lon="11.8606605"><ele>326.0</ele><time>2026-04-15T10:51:30.539Z</time></trkpt><trkpt lat="46.0167533" lon="11.8605883"><ele>324.6666666666667</ele><time>2026-04-15T10:51:33.537Z</time></trkpt><trkpt lat="46.0167043" lon="11.8605028"><ele>323.33333333333337</ele><time>2026-04-15T10:51:36.538Z</time></trkpt><trkpt lat="46.0166416" lon="11.8604184"><ele>322.0</ele><time>2026-04-15T10:51:39.538Z</time></trkpt><trkpt lat="46.0165754" lon="11.8603454"><ele>320.6666666666667</ele><time>2026-04-15T10:51:42.538Z</time></trkpt><trkpt lat="46.0165123" lon="11.8602615"><ele>319.3333333333333</ele><time>2026-04-15T10:51:45.54Z</time></trkpt><trkpt lat="46.0164487" lon="11.8601941"><ele>318.0</ele><time>2026-04-15T10:51:48.539Z</time></trkpt><trkpt lat="46.0163853" lon="11.8601179"><ele>323.8333333333333</ele><time>2026-04-15T10:51:51.539Z</time></trkpt><trkpt lat="46.0163422" lon="11.8600246"><ele>329.6666666666667</ele><time>2026-04-15T10:51:54.539Z</time></trkpt><trkpt lat="46.0163004" lon="11.859916"><ele>335.5</ele><time>2026-04-15T10:51:57.54Z</time></trkpt><trkpt lat="46.0162594" lon="11.8598463"><ele>341.33333333333337</ele><time>2026-04-15T10:51:59.538Z</time></trkpt><trkpt lat="46.0162008" lon="11.859752"><ele>347.1666666666667</ele><time>2026-04-15T10:52:02.538Z</time></trkpt><trkpt lat="46.0161574" lon="11.859659"><ele>353.0</ele><time>2026-04-15T10:52:05.539Z</time></trkpt><trkpt lat="46.0161231" lon="11.8595633"><ele>353.0</ele><time>2026-04-15T10:52:08.536Z</time></trkpt><trkpt lat="46.0160837" lon="11.8594745"><ele>353.0</ele><time>2026-04-15T10:52:11.539Z</time></trkpt><trkpt lat="46.0160447" lon="11.85938"><ele>353.0</ele><time>2026-04-15T10:52:14.54Z</time></trkpt><trkpt lat="46.0160177" lon="11.8592871"><ele>353.0</ele><time>2026-04-15T10:52:17.538Z</time></trkpt><trkpt lat="46.0159828" lon="11.8591908"><ele>353.0</ele><time>2026-04-15T10:52:20.537Z</time></trkpt><trkpt lat="46.0159495" lon="11.8590836"><ele>353.0</ele><time>2026-04-15T10:52:23.537Z</time></trkpt><trkpt lat="46.0159182" lon="11.8589789"><ele>355.0</ele><time>2026-04-15T10:52:26.537Z</time></trkpt><trkpt lat="46.0158865" lon="11.8588809"><ele>357.0</ele><time>2026-04-15T10:52:29.538Z</time></trkpt><trkpt lat="46.0158639" lon="11.8587792"><ele>359.0</ele><time>2026-04-15T10:52:32.54Z</time></trkpt><trkpt lat="46.015845" lon="11.8586895"><ele>361.0</ele><time>2026-04-15T10:52:35.539Z</time></trkpt><trkpt lat="46.0158213" lon="11.8585922"><ele>363.0</ele><time>2026-04-15T10:52:38.54Z</time></trkpt><trkpt lat="46.0157924" lon="11.8584966"><ele>365.0</ele><time>2026-04-15T10:52:41.539Z</time></trkpt><trkpt lat="46.0157665" lon="11.858394"><ele>367.0</ele><time>2026-04-15T10:52:44.537Z</time></trkpt><trkpt lat="46.0157228" lon="11.8582951"><ele>367.0</ele><time>2026-04-15T10:52:47.539Z</time></trkpt><trkpt lat="46.015707" lon="11.8581788"><ele>367.0</ele><time>2026-04-15T10:52:50.538Z</time></trkpt><trkpt lat="46.0156839" lon="11.8580621"><ele>367.0</ele><time>2026-04-15T10:52:53.539Z</time></trkpt><trkpt lat="46.0156616" lon="11.8579366"><ele>367.0</ele><time>2026-04-15T10:52:56.539Z</time></trkpt><trkpt lat="46.0156489" lon="11.8578083"><ele>367.0</ele><time>2026-04-15T10:52:59.539Z</time></trkpt><trkpt lat="46.0156299" lon="11.8576897"><ele>367.0</ele><time>2026-04-15T10:53:02.536Z</time></trkpt><trkpt lat="46.01561" lon="11.8575857"><ele>370.3333333333333</ele><time>2026-04-15T10:53:05.539Z</time></trkpt><trkpt lat="46.0155919" lon="11.8574834"><ele>373.66666666666663</ele><time>2026-04-15T10:53:08.538Z</time></trkpt><trkpt lat="46.0155721" lon="11.8573741"><ele>377.0</ele><time>2026-04-15T10:53:11.537Z</time></trkpt><trkpt lat="46.01555" lon="11.8572609"><ele>380.3333333333333</ele><time>2026-04-15T10:53:14.539Z</time></trkpt><trkpt lat="46.0155135" lon="11.8571497"><ele>383.6666666666667</ele><time>2026-04-15T10:53:17.539Z</time></trkpt><trkpt lat="46.015473" lon="11.8570449"><ele>387.0</ele><time>2026-04-15T10:53:20.539Z</time></trkpt><trkpt lat="46.0154242" lon="11.8569475"><ele>387.0</ele><time>2026-04-15T10:53:23.537Z</time></trkpt><trkpt lat="46.0153676" lon="11.856849"><ele>387.0</ele><time>2026-04-15T10:53:26.539Z</time></trkpt><trkpt lat="46.0153149" lon="11.856758"><ele>387.0</ele><time>2026-04-15T10:53:29.537Z</time></trkpt><trkpt lat="46.015274" lon="11.8566711"><ele>387.0</ele><time>2026-04-15T10:53:32.54Z</time></trkpt><trkpt lat="46.0152297" lon="11.8565947"><ele>387.0</ele><time>2026-04-15T10:53:35.538Z</time></trkpt><trkpt lat="46.0151862" lon="11.8565"><ele>387.0</ele><time>2026-04-15T10:53:38.539Z</time></trkpt><trkpt lat="46.0151453" lon="11.8563973"><ele>388.8333333333333</ele><time>2026-04-15T10:53:41.539Z</time></trkpt><trkpt lat="46.0151007" lon="11.8562946"><ele>390.66666666666663</ele><time>2026-04-15T10:53:44.539Z</time></trkpt><trkpt lat="46.0150508" lon="11.8561944"><ele>392.5</ele><time>2026-04-15T10:53:47.538Z</time></trkpt><trkpt lat="46.0150025" lon="11.8561029"><ele>394.3333333333333</ele><time>2026-04-15T10:53:50.539Z</time></trkpt><trkpt lat="46.0149579" lon="11.8560144"><ele>396.16666666666663</ele><time>2026-04-15T10:53:53.537Z</time></trkpt><trkpt lat="46.0149112" lon="11.8559192"><ele>398.0</ele><time>2026-04-15T10:53:56.539Z</time></trkpt><trkpt lat="46.0148598" lon="11.8558314"><ele>397.99999999999994</ele><time>2026-04-15T10:53:59.538Z</time></trkpt><trkpt lat="46.0147983" lon="11.8557519"><ele>398.0</ele><time>2026-04-15T10:54:02.539Z</time></trkpt><trkpt lat="46.0147379" lon="11.8556739"><ele>398.0</ele><time>2026-04-15T10:54:05.537Z</time></trkpt><trkpt lat="46.0146779" lon="11.8555989"><ele>398.0</ele><time>2026-04-15T10:54:08.537Z</time></trkpt><trkpt lat="46.0146287" lon="11.855512"><ele>397.99999999999994</ele><time>2026-04-15T10:54:11.537Z</time></trkpt><trkpt lat="46.0145827" lon="11.8554236"><ele>398.0</ele><time>2026-04-15T10:54:14.539Z</time></trkpt><trkpt lat="46.0145356" lon="11.8553467"><ele>397.99999999999994</ele><time>2026-04-15T10:54:17.539Z</time></trkpt><trkpt lat="46.0144833" lon="11.8552783"><ele>398.0</ele><time>2026-04-15T10:54:20.54Z</time></trkpt><trkpt lat="46.014445" lon="11.8551924"><ele>398.0</ele><time>2026-04-15T10:54:23.538Z</time></trkpt><trkpt lat="46.0144269" lon="11.8551027"><ele>398.0</ele><time>2026-04-15T10:54:26.538Z</time></trkpt><trkpt lat="46.0144207" lon="11.854985"><ele>398.0</ele><time>2026-04-15T10:54:30.539Z</time></trkpt><trkpt lat="46.0144169" lon="11.8548655"><ele>397.99999999999994</ele><time>2026-04-15T10:54:34.539Z</time></trkpt><trkpt lat="46.0144129" lon="11.8547648"><ele>398.0</ele><time>2026-04-15T10:54:38.538Z</time></trkpt><trkpt lat="46.0144111" lon="11.8546585"><ele>400.66666666666663</ele><time>2026-04-15T10:54:42.539Z</time></trkpt><trkpt lat="46.0143983" lon="11.8545482"><ele>403.3333333333333</ele><time>2026-04-15T10:54:46.539Z</time></trkpt><trkpt lat="46.0143974" lon="11.8544573"><ele>406.0</ele><time>2026-04-15T10:54:49.539Z</time></trkpt><trkpt lat="46.0143893" lon="11.854343"><ele>408.66666666666663</ele><time>2026-04-15T10:54:53.537Z</time></trkpt><trkpt lat="46.0143791" lon="11.8542273"><ele>411.3333333333333</ele><time>2026-04-15T10:54:57.538Z</time></trkpt><trkpt lat="46.0143686" lon="11.8541139"><ele>414.0</ele><time>2026-04-15T10:55:01.538Z</time></trkpt><trkpt lat="46.0143513" lon="11.854006"><ele>416.3333333333333</ele><time>2026-04-15T10:55:05.539Z</time></trkpt><trkpt lat="46.014336" lon="11.8539021"><ele>418.66666666666663</ele><time>2026-04-15T10:55:09.539Z</time></trkpt><trkpt lat="46.0143196" lon="11.8538107"><ele>421.0</ele><time>2026-04-15T10:55:12.536Z</time></trkpt><trkpt lat="46.0143061" lon="11.853692"><ele>423.3333333333333</ele><time>2026-04-15T10:55:15.534Z</time></trkpt><trkpt lat="46.0142952" lon="11.8535721"><ele>425.66666666666663</ele><time>2026-04-15T10:55:18.539Z</time></trkpt><trkpt lat="46.0142851" lon="11.8534589"><ele>428.0</ele><time>2026-04-15T10:55:21.538Z</time></trkpt><trkpt lat="46.0142802" lon="11.8533454"><ele>428.00000000000006</ele><time>2026-04-15T10:55:24.538Z</time></trkpt><trkpt lat="46.0142918" lon="11.8532478"><ele>428.0</ele><time>2026-04-15T10:55:27.539Z</time></trkpt><trkpt lat="46.0143566" lon="11.8532295"><ele>428.0</ele><time>2026-04-15T10:55:30.538Z</time></trkpt><trkpt lat="46.0144223" lon="11.8532751"><ele>428.0</ele><time>2026-04-15T10:55:32.539Z</time></trkpt><trkpt lat="46.0144937" lon="11.8533289"><ele>428.0</ele><time>2026-04-15T10:55:34.539Z</time></trkpt><trkpt lat="46.0145653" lon="11.8533785"><ele>428.00000000000006</ele><time>2026-04-15T10:55:36.537Z</time></trkpt><trkpt lat="46.0146282" lon="11.8534511"><ele>428.0</ele><time>2026-04-15T10:55:38.538Z</time></trkpt><trkpt lat="46.0146342" lon="11.8535436"><ele>427.99999999999994</ele><time>2026-04-15T10:55:40.538Z</time></trkpt><trkpt lat="46.0145709" lon="11.8536215"><ele>428.0</ele><time>2026-04-15T10:55:43.537Z</time></trkpt><trkpt lat="46.0145311" lon="11.8537082"><ele>428.0</ele><time>2026-04-15T10:55:46.538Z</time></trkpt><trkpt lat="46.0145765" lon="11.8538167"><ele>428.0</ele><time>2026-04-15T10:55:49.538Z</time></trkpt><trkpt lat="46.0146244" lon="11.8538896"><ele>427.99999999999994</ele><time>2026-04-15T10:55:51.538Z</time></trkpt><trkpt lat="46.0146705" lon="11.8539639"><ele>428.0</ele><time>2026-04-15T10:55:53.535Z</time></trkpt><trkpt lat="46.0147132" lon="11.8540446"><ele>427.99999999999994</ele><time>2026-04-15T10:55:55.538Z</time></trkpt><trkpt lat="46.0147529" lon="11.8541172"><ele>428.0</ele><time>2026-04-15T10:55:57.536Z</time></trkpt><trkpt lat="46.0148075" lon="11.8542175"><ele>428.0</ele><time>2026-04-15T10:56:00.537Z</time></trkpt><trkpt lat="46.0148573" lon="11.8543095"><ele>428.0</ele><time>2026-04-15T10:56:03.539Z</time></trkpt><trkpt lat="46.0149061" lon="11.8543934"><ele>427.99999999999994</ele><time>2026-04-15T10:56:06.535Z</time></trkpt><trkpt lat="46.0149549" lon="11.8544791"><ele>428.0</ele><time>2026-04-15T10:56:09.537Z</time></trkpt><trkpt lat="46.015008" lon="11.8545794"><ele>428.3333333333333</ele><time>2026-04-15T10:56:12.537Z</time></trkpt><trkpt lat="46.0150771" lon="11.8546714"><ele>428.66666666666663</ele><time>2026-04-15T10:56:15.539Z</time></trkpt><trkpt lat="46.0151284" lon="11.8547396"><ele>429.0</ele><time>2026-04-15T10:56:17.538Z</time></trkpt><trkpt lat="46.015186" lon="11.8548202"><ele>429.33333333333337</ele><time>2026-04-15T10:56:19.538Z</time></trkpt><trkpt lat="46.0152514" lon="11.8549057"><ele>429.6666666666667</ele><time>2026-04-15T10:56:21.539Z</time></trkpt><trkpt lat="46.0153205" lon="11.8549937"><ele>430.0</ele><time>2026-04-15T10:56:23.536Z</time></trkpt><trkpt lat="46.0153821" lon="11.8550924"><ele>427.2</ele><time>2026-04-15T10:56:25.537Z</time></trkpt><trkpt lat="46.0154527" lon="11.8551969"><ele>424.4</ele><time>2026-04-15T10:56:27.538Z</time></trkpt><trkpt lat="46.0155268" lon="11.85531"><ele>421.6</ele><time>2026-04-15T10:56:29.538Z</time></trkpt><trkpt lat="46.0156037" lon="11.8554315"><ele>418.8</ele><time>2026-04-15T10:56:31.538Z</time></trkpt><trkpt lat="46.01568" lon="11.8555522"><ele>416.0</ele><time>2026-04-15T10:56:33.54Z</time></trkpt><trkpt lat="46.0157516" lon="11.8556659"><ele>416.0</ele><time>2026-04-15T10:56:35.538Z</time></trkpt><trkpt lat="46.0158179" lon="11.8557692"><ele>416.0</ele><time>2026-04-15T10:56:37.54Z</time></trkpt><trkpt lat="46.015884" lon="11.8558754"><ele>416.0</ele><time>2026-04-15T10:56:39.539Z</time></trkpt><trkpt lat="46.0159471" lon="11.8559981"><ele>416.0</ele><time>2026-04-15T10:56:41.534Z</time></trkpt><trkpt lat="46.0160266" lon="11.8561752"><ele>416.0</ele><time>2026-04-15T10:56:44.535Z</time></trkpt><trkpt lat="46.0160628" lon="11.8562878"><ele>417.20000000000005</ele><time>2026-04-15T10:56:46.535Z</time></trkpt><trkpt lat="46.0160723" lon="11.856399"><ele>418.40000000000003</ele><time>2026-04-15T10:56:48.535Z</time></trkpt><trkpt lat="46.0160877" lon="11.8565163"><ele>419.6</ele><time>2026-04-15T10:56:50.536Z</time></trkpt><trkpt lat="46.0161246" lon="11.8566584"><ele>420.8</ele><time>2026-04-15T10:56:52.534Z</time></trkpt><trkpt lat="46.0161626" lon="11.8568226"><ele>422.0</ele><time>2026-04-15T10:56:54.535Z</time></trkpt><trkpt lat="46.0161913" lon="11.8569061"><ele>420.14285714285717</ele><time>2026-04-15T10:56:55.537Z</time></trkpt><trkpt lat="46.0162306" lon="11.8569962"><ele>418.28571428571433</ele><time>2026-04-15T10:56:56.536Z</time></trkpt><trkpt lat="46.0162734" lon="11.8570809"><ele>416.42857142857144</ele><time>2026-04-15T10:56:57.534Z</time></trkpt><trkpt lat="46.0163219" lon="11.8571629"><ele>414.57142857142856</ele><time>2026-04-15T10:56:58.536Z</time></trkpt><trkpt lat="46.0163712" lon="11.8572467"><ele>412.7142857142857</ele><time>2026-04-15T10:56:59.536Z</time></trkpt><trkpt lat="46.0164105" lon="11.8573362"><ele>410.85714285714283</ele><time>2026-04-15T10:57:00.535Z</time></trkpt><trkpt lat="46.0164444" lon="11.8574267"><ele>409.0</ele><time>2026-04-15T10:57:01.535Z</time></trkpt><trkpt lat="46.0164764" lon="11.8575215"><ele>409.00000000000006</ele><time>2026-04-15T10:57:02.535Z</time></trkpt><trkpt lat="46.0165115" lon="11.8576131"><ele>409.0</ele><time>2026-04-15T10:57:03.535Z</time></trkpt><trkpt lat="46.0165476" lon="11.8576998"><ele>409.0</ele><time>2026-04-15T10:57:04.535Z</time></trkpt><trkpt lat="46.0165829" lon="11.8577807"><ele>409.0</ele><time>2026-04-15T10:57:05.536Z</time></trkpt><trkpt lat="46.0166164" lon="11.8578579"><ele>409.00000000000006</ele><time>2026-04-15T10:57:06.538Z</time></trkpt><trkpt lat="46.0167427" lon="11.858007"><ele>409.0</ele><time>2026-04-15T10:57:09.536Z</time></trkpt><trkpt lat="46.0168217" lon="11.8580273"><ele>411.1666666666667</ele><time>2026-04-15T10:57:11.537Z</time></trkpt><trkpt lat="46.0168859" lon="11.8580318"><ele>413.33333333333337</ele><time>2026-04-15T10:57:13.536Z</time></trkpt><trkpt lat="46.0169703" lon="11.8580358"><ele>415.5</ele><time>2026-04-15T10:57:16.539Z</time></trkpt><trkpt lat="46.0170574" lon="11.858026"><ele>417.66666666666663</ele><time>2026-04-15T10:57:19.538Z</time></trkpt><trkpt lat="46.0171434" lon="11.8580135"><ele>419.8333333333333</ele><time>2026-04-15T10:57:22.538Z</time></trkpt><trkpt lat="46.0172369" lon="11.8580086"><ele>422.0</ele><time>2026-04-15T10:57:25.538Z</time></trkpt><trkpt lat="46.0173117" lon="11.858009"><ele>422.0</ele><time>2026-04-15T10:57:27.535Z</time></trkpt><trkpt lat="46.0173964" lon="11.8580376"><ele>422.0</ele><time>2026-04-15T10:57:29.539Z</time></trkpt><trkpt lat="46.0174778" lon="11.8581064"><ele>422.0</ele><time>2026-04-15T10:57:31.539Z</time></trkpt><trkpt lat="46.0175508" lon="11.8581949"><ele>422.0</ele><time>2026-04-15T10:57:33.535Z</time></trkpt><trkpt lat="46.0176198" lon="11.8582896"><ele>422.0</ele><time>2026-04-15T10:57:35.537Z</time></trkpt><trkpt lat="46.0176939" lon="11.8583782"><ele>422.0</ele><time>2026-04-15T10:57:37.536Z</time></trkpt><trkpt lat="46.0177772" lon="11.8584545"><ele>422.0</ele><time>2026-04-15T10:57:39.537Z</time></trkpt><trkpt lat="46.0178739" lon="11.8585098"><ele>422.0</ele><time>2026-04-15T10:57:41.539Z</time></trkpt><trkpt lat="46.0179729" lon="11.8585045"><ele>422.0</ele><time>2026-04-15T10:57:43.538Z</time></trkpt><trkpt lat="46.018053" lon="11.8584605"><ele>422.0</ele><time>2026-04-15T10:57:45.536Z</time></trkpt><trkpt lat="46.0181418" lon="11.8584283"><ele>422.6</ele><time>2026-04-15T10:57:47.536Z</time></trkpt><trkpt lat="46.0182271" lon="11.8584265"><ele>423.20000000000005</ele><time>2026-04-15T10:57:49.538Z</time></trkpt><trkpt lat="46.018316" lon="11.8584433"><ele>423.8</ele><time>2026-04-15T10:57:51.538Z</time></trkpt><trkpt lat="46.018378" lon="11.8585219"><ele>424.4</ele><time>2026-04-15T10:57:53.537Z</time></trkpt><trkpt lat="46.0184001" lon="11.8586616"><ele>425.0</ele><time>2026-04-15T10:57:55.54Z</time></trkpt><trkpt lat="46.0183805" lon="11.8588138"><ele>423.0</ele><time>2026-04-15T10:57:57.536Z</time></trkpt><trkpt lat="46.018358" lon="11.8589462"><ele>421.0</ele><time>2026-04-15T10:57:59.537Z</time></trkpt><trkpt lat="46.0183884" lon="11.8590529"><ele>419.0</ele><time>2026-04-15T10:58:01.539Z</time></trkpt><trkpt lat="46.018475" lon="11.8590741"><ele>417.0</ele><time>2026-04-15T10:58:03.535Z</time></trkpt><trkpt lat="46.0185602" lon="11.859037"><ele>415.0</ele><time>2026-04-15T10:58:05.539Z</time></trkpt><trkpt lat="46.0186559" lon="11.8589965"><ele>415.0</ele><time>2026-04-15T10:58:07.537Z</time></trkpt><trkpt lat="46.0187499" lon="11.8589626"><ele>415.0</ele><time>2026-04-15T10:58:09.538Z</time></trkpt><trkpt lat="46.0188481" lon="11.8589353"><ele>415.0</ele><time>2026-04-15T10:58:11.538Z</time></trkpt><trkpt lat="46.0189489" lon="11.8589308"><ele>415.0</ele><time>2026-04-15T10:58:13.538Z</time></trkpt><trkpt lat="46.0190488" lon="11.8589513"><ele>415.0</ele><time>2026-04-15T10:58:15.539Z</time></trkpt><trkpt lat="46.0191593" lon="11.8589411"><ele>414.2</ele><time>2026-04-15T10:58:17.538Z</time></trkpt><trkpt lat="46.019267" lon="11.8589168"><ele>413.4</ele><time>2026-04-15T10:58:19.539Z</time></trkpt><trkpt lat="46.0193741" lon="11.8588937"><ele>412.6</ele><time>2026-04-15T10:58:21.539Z</time></trkpt><trkpt lat="46.0194632" lon="11.8588724"><ele>411.8</ele><time>2026-04-15T10:58:23.538Z</time></trkpt><trkpt lat="46.0195293" lon="11.8589063"><ele>411.0</ele><time>2026-04-15T10:58:25.539Z</time></trkpt><trkpt lat="46.0195541" lon="11.8590226"><ele>411.0</ele><time>2026-04-15T10:58:27.538Z</time></trkpt><trkpt lat="46.0194932" lon="11.8591351"><ele>411.0</ele><time>2026-04-15T10:58:29.536Z</time></trkpt><trkpt lat="46.0194398" lon="11.8592405"><ele>411.0</ele><time>2026-04-15T10:58:31.539Z</time></trkpt><trkpt lat="46.0194528" lon="11.8593582"><ele>411.0</ele><time>2026-04-15T10:58:33.537Z</time></trkpt><trkpt lat="46.0195167" lon="11.8594512"><ele>411.0</ele><time>2026-04-15T10:58:35.535Z</time></trkpt><trkpt lat="46.0195979" lon="11.8595033"><ele>411.8</ele><time>2026-04-15T10:58:37.539Z</time></trkpt><trkpt lat="46.0196728" lon="11.8595521"><ele>412.6</ele><time>2026-04-15T10:58:39.537Z</time></trkpt><trkpt lat="46.0197674" lon="11.8595819"><ele>413.4</ele><time>2026-04-15T10:58:41.537Z</time></trkpt><trkpt lat="46.0198568" lon="11.8596189"><ele>414.2</ele><time>2026-04-15T10:58:43.537Z</time></trkpt><trkpt lat="46.0199496" lon="11.8596467"><ele>415.0</ele><time>2026-04-15T10:58:45.538Z</time></trkpt><trkpt lat="46.0200564" lon="11.8596582"><ele>413.0</ele><time>2026-04-15T10:58:47.537Z</time></trkpt><trkpt lat="46.0201592" lon="11.859672"><ele>411.0</ele><time>2026-04-15T10:58:49.536Z</time></trkpt><trkpt lat="46.0202649" lon="11.8596958"><ele>409.0</ele><time>2026-04-15T10:58:51.538Z</time></trkpt><trkpt lat="46.0203755" lon="11.8597174"><ele>407.0</ele><time>2026-04-15T10:58:53.538Z</time></trkpt><trkpt lat="46.0204876" lon="11.8597429"><ele>405.0</ele><time>2026-04-15T10:58:55.537Z</time></trkpt><trkpt lat="46.020601" lon="11.8597767"><ele>405.0</ele><time>2026-04-15T10:58:57.538Z</time></trkpt><trkpt lat="46.0207122" lon="11.8598169"><ele>405.0</ele><time>2026-04-15T10:58:59.539Z</time></trkpt><trkpt lat="46.0208057" lon="11.8598838"><ele>405.0</ele><time>2026-04-15T10:59:01.538Z</time></trkpt><trkpt lat="46.0209005" lon="11.8599444"><ele>405.0</ele><time>2026-04-15T10:59:03.537Z</time></trkpt><trkpt lat="46.0209894" lon="11.859991"><ele>405.0</ele><time>2026-04-15T10:59:05.538Z</time></trkpt><trkpt lat="46.021066" lon="11.86005"><ele>404.6</ele><time>2026-04-15T10:59:07.539Z</time></trkpt><trkpt lat="46.0211458" lon="11.8601183"><ele>404.2</ele><time>2026-04-15T10:59:09.538Z</time></trkpt><trkpt lat="46.0212289" lon="11.8602323"><ele>403.79999999999995</ele><time>2026-04-15T10:59:11.536Z</time></trkpt><trkpt lat="46.0213033" lon="11.8603737"><ele>403.4</ele><time>2026-04-15T10:59:13.538Z</time></trkpt><trkpt lat="46.0213337" lon="11.8604541"><ele>403.0</ele><time>2026-04-15T10:59:14.538Z</time></trkpt><trkpt lat="46.0213636" lon="11.8605374"><ele>403.0</ele><time>2026-04-15T10:59:15.537Z</time></trkpt><trkpt lat="46.0213984" lon="11.8606194"><ele>403.0</ele><time>2026-04-15T10:59:16.539Z</time></trkpt><trkpt lat="46.0214342" lon="11.8606999"><ele>403.0</ele><time>2026-04-15T10:59:17.537Z</time></trkpt><trkpt lat="46.0214727" lon="11.8607815"><ele>403.0</ele><time>2026-04-15T10:59:18.538Z</time></trkpt><trkpt lat="46.0215106" lon="11.8608647"><ele>403.0</ele><time>2026-04-15T10:59:19.538Z</time></trkpt><trkpt lat="46.0215508" lon="11.8609503"><ele>403.0</ele><time>2026-04-15T10:59:20.539Z</time></trkpt><trkpt lat="46.0215937" lon="11.8610379"><ele>403.0</ele><time>2026-04-15T10:59:21.538Z</time></trkpt><trkpt lat="46.0216398" lon="11.8611243"><ele>401.2857142857143</ele><time>2026-04-15T10:59:22.537Z</time></trkpt><trkpt lat="46.0216891" lon="11.86121"><ele>399.57142857142856</ele><time>2026-04-15T10:59:23.538Z</time></trkpt><trkpt lat="46.0217402" lon="11.861294"><ele>397.85714285714283</ele><time>2026-04-15T10:59:24.537Z</time></trkpt><trkpt lat="46.0217868" lon="11.8613779"><ele>396.1428571428571</ele><time>2026-04-15T10:59:25.538Z</time></trkpt><trkpt lat="46.0218276" lon="11.8614619"><ele>394.42857142857144</ele><time>2026-04-15T10:59:26.536Z</time></trkpt><trkpt lat="46.0218667" lon="11.8615478"><ele>392.71428571428567</ele><time>2026-04-15T10:59:27.538Z</time></trkpt><trkpt lat="46.0219044" lon="11.8616349"><ele>391.0</ele><time>2026-04-15T10:59:28.537Z</time></trkpt><trkpt lat="46.0219435" lon="11.8617175"><ele>391.6666666666667</ele><time>2026-04-15T10:59:29.539Z</time></trkpt><trkpt lat="46.0219782" lon="11.8618047"><ele>392.33333333333337</ele><time>2026-04-15T10:59:30.538Z</time></trkpt><trkpt lat="46.0220252" lon="11.8618925"><ele>393.0</ele><time>2026-04-15T10:59:31.536Z</time></trkpt><trkpt lat="46.0220734" lon="11.8619802"><ele>393.66666666666663</ele><time>2026-04-15T10:59:32.538Z</time></trkpt><trkpt lat="46.0221215" lon="11.8620677"><ele>394.3333333333333</ele><time>2026-04-15T10:59:33.536Z</time></trkpt><trkpt lat="46.0221662" lon="11.8621566"><ele>395.0</ele><time>2026-04-15T10:59:34.54Z</time></trkpt><trkpt lat="46.0222129" lon="11.8622419"><ele>395.0</ele><time>2026-04-15T10:59:35.538Z</time></trkpt><trkpt lat="46.0222561" lon="11.8623261"><ele>395.0</ele><time>2026-04-15T10:59:36.538Z</time></trkpt><trkpt lat="46.0223035" lon="11.8624095"><ele>395.0</ele><time>2026-04-15T10:59:37.537Z</time></trkpt><trkpt lat="46.0223478" lon="11.8624941"><ele>395.0</ele><time>2026-04-15T10:59:38.538Z</time></trkpt><trkpt lat="46.0223896" lon="11.8625793"><ele>395.0</ele><time>2026-04-15T10:59:39.539Z</time></trkpt><trkpt lat="46.022426" lon="11.8626689"><ele>395.0</ele><time>2026-04-15T10:59:40.537Z</time></trkpt><trkpt lat="46.0224531" lon="11.8627626"><ele>395.0</ele><time>2026-04-15T10:59:41.539Z</time></trkpt><trkpt lat="46.0224778" lon="11.8628582"><ele>393.4285714285714</ele><time>2026-04-15T10:59:42.539Z</time></trkpt><trkpt lat="46.0224974" lon="11.8629549"><ele>391.8571428571429</ele><time>2026-04-15T10:59:43.538Z</time></trkpt><trkpt lat="46.0225163" lon="11.8630512"><ele>390.2857142857143</ele><time>2026-04-15T10:59:44.541Z</time></trkpt><trkpt lat="46.0225368" lon="11.8631456"><ele>388.71428571428567</ele><time>2026-04-15T10:59:45.538Z</time></trkpt><trkpt lat="46.0225563" lon="11.8632392"><ele>387.1428571428571</ele><time>2026-04-15T10:59:46.538Z</time></trkpt><trkpt lat="46.0225757" lon="11.8633311"><ele>385.57142857142856</ele><time>2026-04-15T10:59:47.538Z</time></trkpt><trkpt lat="46.022591" lon="11.8634214"><ele>384.0</ele><time>2026-04-15T10:59:48.538Z</time></trkpt><trkpt lat="46.0226058" lon="11.8635102"><ele>384.0</ele><time>2026-04-15T10:59:49.537Z</time></trkpt><trkpt lat="46.0226383" lon="11.8636803"><ele>384.0</ele><time>2026-04-15T10:59:51.537Z</time></trkpt><trkpt lat="46.0226962" lon="11.8638317"><ele>384.0</ele><time>2026-04-15T10:59:53.537Z</time></trkpt><trkpt lat="46.0227837" lon="11.8639435"><ele>384.0</ele><time>2026-04-15T10:59:55.538Z</time></trkpt><trkpt lat="46.0228828" lon="11.8639903"><ele>384.0</ele><time>2026-04-15T10:59:57.538Z</time></trkpt><trkpt lat="46.0229765" lon="11.863982"><ele>384.0</ele><time>2026-04-15T10:59:59.536Z</time></trkpt><trkpt lat="46.0230346" lon="11.8638846"><ele>384.0</ele><time>2026-04-15T11:00:01.538Z</time></trkpt><trkpt lat="46.0230774" lon="11.8637543"><ele>384.0</ele><time>2026-04-15T11:00:03.539Z</time></trkpt><trkpt lat="46.023138" lon="11.8636467"><ele>384.0</ele><time>2026-04-15T11:00:05.539Z</time></trkpt><trkpt lat="46.0231952" lon="11.8635489"><ele>383.99999999999994</ele><time>2026-04-15T11:00:07.539Z</time></trkpt><trkpt lat="46.0232462" lon="11.8634588"><ele>384.0</ele><time>2026-04-15T11:00:09.537Z</time></trkpt><trkpt lat="46.02329" lon="11.863388"><ele>384.0</ele><time>2026-04-15T11:00:11.539Z</time></trkpt><trkpt lat="46.0233445" lon="11.8633117"><ele>384.0</ele><time>2026-04-15T11:00:13.537Z</time></trkpt><trkpt lat="46.02339" lon="11.8632461"><ele>384.0</ele><time>2026-04-15T11:00:15.537Z</time></trkpt><trkpt lat="46.0234363" lon="11.8631739"><ele>383.99999999999994</ele><time>2026-04-15T11:00:17.537Z</time></trkpt><trkpt lat="46.0234781" lon="11.8630996"><ele>384.0</ele><time>2026-04-15T11:00:19.538Z</time></trkpt><trkpt lat="46.0235362" lon="11.8629962"><ele>381.57142857142856</ele><time>2026-04-15T11:00:22.539Z</time></trkpt><trkpt lat="46.0235621" lon="11.8629117"><ele>379.1428571428571</ele><time>2026-04-15T11:00:24.538Z</time></trkpt><trkpt lat="46.0235929" lon="11.8628236"><ele>376.71428571428567</ele><time>2026-04-15T11:00:26.537Z</time></trkpt><trkpt lat="46.0236214" lon="11.8627368"><ele>374.2857142857143</ele><time>2026-04-15T11:00:28.538Z</time></trkpt><trkpt lat="46.0236567" lon="11.8626402"><ele>371.8571428571429</ele><time>2026-04-15T11:00:30.538Z</time></trkpt><trkpt lat="46.0237034" lon="11.8625418"><ele>369.4285714285714</ele><time>2026-04-15T11:00:32.537Z</time></trkpt><trkpt lat="46.0237496" lon="11.8624496"><ele>367.0</ele><time>2026-04-15T11:00:34.537Z</time></trkpt><trkpt lat="46.0237812" lon="11.8623707"><ele>367.0</ele><time>2026-04-15T11:00:36.539Z</time></trkpt><trkpt lat="46.02375" lon="11.8622677"><ele>367.0</ele><time>2026-04-15T11:00:40.538Z</time></trkpt><trkpt lat="46.023808" lon="11.8623086"><ele>367.0</ele><time>2026-04-15T11:00:45.538Z</time></trkpt><trkpt lat="46.0238519" lon="11.8623814"><ele>367.0</ele><time>2026-04-15T11:00:47.538Z</time></trkpt><trkpt lat="46.0239001" lon="11.86246"><ele>367.0</ele><time>2026-04-15T11:00:49.538Z</time></trkpt><trkpt lat="46.0239472" lon="11.8625416"><ele>367.0</ele><time>2026-04-15T11:00:51.537Z</time></trkpt><trkpt lat="46.0239963" lon="11.8626238"><ele>367.0</ele><time>2026-04-15T11:00:53.539Z</time></trkpt><trkpt lat="46.0240512" lon="11.8626963"><ele>367.0</ele><time>2026-04-15T11:00:55.538Z</time></trkpt><trkpt lat="46.0241164" lon="11.8627489"><ele>367.0</ele><time>2026-04-15T11:00:57.539Z</time></trkpt><trkpt lat="46.0241796" lon="11.8628"><ele>367.0</ele><time>2026-04-15T11:00:59.538Z</time></trkpt><trkpt lat="46.0242392" lon="11.8628536"><ele>367.0</ele><time>2026-04-15T11:01:01.536Z</time></trkpt><trkpt lat="46.0243015" lon="11.8629078"><ele>367.0</ele><time>2026-04-15T11:01:03.537Z</time></trkpt><trkpt lat="46.0243679" lon="11.8629481"><ele>367.0</ele><time>2026-04-15T11:01:05.539Z</time></trkpt><trkpt lat="46.0244416" lon="11.8629752"><ele>367.0</ele><time>2026-04-15T11:01:07.538Z</time></trkpt><trkpt lat="46.0245199" lon="11.8629873"><ele>367.0</ele><time>2026-04-15T11:01:09.539Z</time></trkpt><trkpt lat="46.0245949" lon="11.8629834"><ele>367.0</ele><time>2026-04-15T11:01:11.537Z</time></trkpt><trkpt lat="46.0246577" lon="11.8629651"><ele>367.0</ele><time>2026-04-15T11:01:13.538Z</time></trkpt><trkpt lat="46.0247177" lon="11.8629349"><ele>367.0</ele><time>2026-04-15T11:01:15.538Z</time></trkpt><trkpt lat="46.0247774" lon="11.8629002"><ele>367.0</ele><time>2026-04-15T11:01:17.538Z</time></trkpt><trkpt lat="46.024865" lon="11.8628618"><ele>367.0</ele><time>2026-04-15T11:01:20.539Z</time></trkpt><trkpt lat="46.0249277" lon="11.8628394"><ele>367.0</ele><time>2026-04-15T11:01:22.537Z</time></trkpt><trkpt lat="46.0250183" lon="11.8628014"><ele>367.4285714285714</ele><time>2026-04-15T11:01:25.539Z</time></trkpt><trkpt lat="46.0250821" lon="11.8627954"><ele>367.8571428571429</ele><time>2026-04-15T11:01:27.536Z</time></trkpt><trkpt lat="46.0251495" lon="11.8627992"><ele>368.2857142857143</ele><time>2026-04-15T11:01:29.539Z</time></trkpt><trkpt lat="46.0252206" lon="11.8628045"><ele>368.71428571428567</ele><time>2026-04-15T11:01:31.538Z</time></trkpt><trkpt lat="46.0252853" lon="11.8628138"><ele>369.1428571428571</ele><time>2026-04-15T11:01:33.538Z</time></trkpt><trkpt lat="46.0253734" lon="11.8628371"><ele>369.57142857142856</ele><time>2026-04-15T11:01:36.538Z</time></trkpt><trkpt lat="46.0254426" lon="11.8628636"><ele>370.0</ele><time>2026-04-15T11:01:38.539Z</time></trkpt><trkpt lat="46.0255049" lon="11.8628868"><ele>369.99999999999994</ele><time>2026-04-15T11:01:40.538Z</time></trkpt><trkpt lat="46.0255726" lon="11.8629091"><ele>370.0</ele><time>2026-04-15T11:01:42.539Z</time></trkpt><trkpt lat="46.0256455" lon="11.8629262"><ele>370.0</ele><time>2026-04-15T11:01:44.538Z</time></trkpt><trkpt lat="46.0257176" lon="11.8629472"><ele>370.0</ele><time>2026-04-15T11:01:46.538Z</time></trkpt><trkpt lat="46.0257944" lon="11.8629616"><ele>370.0</ele><time>2026-04-15T11:01:48.539Z</time></trkpt><trkpt lat="46.0258679" lon="11.8629656"><ele>369.99999999999994</ele><time>2026-04-15T11:01:50.537Z</time></trkpt><trkpt lat="46.0259345" lon="11.8629735"><ele>370.0</ele><time>2026-04-15T11:01:52.539Z</time></trkpt><trkpt lat="46.0259987" lon="11.8630086"><ele>371.0</ele><time>2026-04-15T11:01:54.537Z</time></trkpt><trkpt lat="46.0260631" lon="11.8630577"><ele>372.0</ele><time>2026-04-15T11:01:56.538Z</time></trkpt><trkpt lat="46.0261307" lon="11.8631051"><ele>373.0</ele><time>2026-04-15T11:01:58.538Z</time></trkpt><trkpt lat="46.026204" lon="11.8631436"><ele>374.0</ele><time>2026-04-15T11:02:00.537Z</time></trkpt><trkpt lat="46.0262786" lon="11.8631803"><ele>375.0</ele><time>2026-04-15T11:02:02.539Z</time></trkpt><trkpt lat="46.0263532" lon="11.8632238"><ele>376.0</ele><time>2026-04-15T11:02:04.538Z</time></trkpt><trkpt lat="46.0264258" lon="11.8632774"><ele>376.0</ele><time>2026-04-15T11:02:06.539Z</time></trkpt><trkpt lat="46.0265038" lon="11.8633435"><ele>376.0</ele><time>2026-04-15T11:02:08.54Z</time></trkpt><trkpt lat="46.0265824" lon="11.8634246"><ele>376.0</ele><time>2026-04-15T11:02:10.538Z</time></trkpt><trkpt lat="46.0266576" lon="11.8635034"><ele>376.0</ele><time>2026-04-15T11:02:12.538Z</time></trkpt><trkpt lat="46.026734" lon="11.8635833"><ele>376.0</ele><time>2026-04-15T11:02:14.537Z</time></trkpt><trkpt lat="46.0268102" lon="11.8636806"><ele>376.0</ele><time>2026-04-15T11:02:16.539Z</time></trkpt><trkpt lat="46.0268924" lon="11.8637822"><ele>376.0</ele><time>2026-04-15T11:02:18.534Z</time></trkpt><trkpt lat="46.0269779" lon="11.8638866"><ele>376.0</ele><time>2026-04-15T11:02:20.536Z</time></trkpt><trkpt lat="46.027067" lon="11.8640094"><ele>376.0</ele><time>2026-04-15T11:02:22.536Z</time></trkpt><trkpt lat="46.0271103" lon="11.8640815"><ele>376.0</ele><time>2026-04-15T11:02:23.536Z</time></trkpt><trkpt lat="46.027155" lon="11.8641587"><ele>376.0</ele><time>2026-04-15T11:02:24.534Z</time></trkpt><trkpt lat="46.0271978" lon="11.8642421"><ele>376.0</ele><time>2026-04-15T11:02:25.538Z</time></trkpt><trkpt lat="46.0272351" lon="11.864322"><ele>376.0</ele><time>2026-04-15T11:02:26.536Z</time></trkpt><trkpt lat="46.0272757" lon="11.8644012"><ele>376.0</ele><time>2026-04-15T11:02:27.534Z</time></trkpt><trkpt lat="46.0273443" lon="11.8645347"><ele>376.0</ele><time>2026-04-15T11:02:29.534Z</time></trkpt><trkpt lat="46.0273986" lon="11.8646425"><ele>376.0</ele><time>2026-04-15T11:02:31.536Z</time></trkpt><trkpt lat="46.0274494" lon="11.8647349"><ele>376.57142857142856</ele><time>2026-04-15T11:02:33.537Z</time></trkpt><trkpt lat="46.0274962" lon="11.8648189"><ele>377.1428571428571</ele><time>2026-04-15T11:02:35.539Z</time></trkpt><trkpt lat="46.0275431" lon="11.8648974"><ele>377.7142857142857</ele><time>2026-04-15T11:02:37.537Z</time></trkpt><trkpt lat="46.0275838" lon="11.8649738"><ele>378.2857142857143</ele><time>2026-04-15T11:02:39.538Z</time></trkpt><trkpt lat="46.0276244" lon="11.8650536"><ele>378.8571428571429</ele><time>2026-04-15T11:02:41.538Z</time></trkpt><trkpt lat="46.0276642" lon="11.8651322"><ele>379.42857142857144</ele><time>2026-04-15T11:02:43.537Z</time></trkpt><trkpt lat="46.0277021" lon="11.8652074"><ele>380.0</ele><time>2026-04-15T11:02:45.538Z</time></trkpt><trkpt lat="46.0277407" lon="11.8652881"><ele>379.7142857142857</ele><time>2026-04-15T11:02:47.539Z</time></trkpt><trkpt lat="46.0277743" lon="11.8653715"><ele>379.42857142857144</ele><time>2026-04-15T11:02:49.538Z</time></trkpt><trkpt lat="46.0278069" lon="11.8654609"><ele>379.1428571428571</ele><time>2026-04-15T11:02:51.539Z</time></trkpt><trkpt lat="46.0278293" lon="11.8655568"><ele>378.8571428571429</ele><time>2026-04-15T11:02:53.539Z</time></trkpt><trkpt lat="46.0278425" lon="11.8656471"><ele>378.57142857142856</ele><time>2026-04-15T11:02:55.536Z</time></trkpt><trkpt lat="46.0278272" lon="11.8657382"><ele>378.2857142857143</ele><time>2026-04-15T11:02:57.539Z</time></trkpt><trkpt lat="46.0278089" lon="11.8658354"><ele>378.0</ele><time>2026-04-15T11:02:59.537Z</time></trkpt><trkpt lat="46.0277911" lon="11.8659661"><ele>378.0</ele><time>2026-04-15T11:03:02.538Z</time></trkpt><trkpt lat="46.0278286" lon="11.8660719"><ele>378.0</ele><time>2026-04-15T11:03:05.538Z</time></trkpt><trkpt lat="46.0278892" lon="11.8661086"><ele>378.0</ele><time>2026-04-15T11:03:07.534Z</time></trkpt><trkpt lat="46.0279497" lon="11.8661362"><ele>378.0</ele><time>2026-04-15T11:03:09.537Z</time></trkpt><trkpt lat="46.0280296" lon="11.8661876"><ele>378.0</ele><time>2026-04-15T11:03:12.535Z</time></trkpt><trkpt lat="46.0281173" lon="11.8662102"><ele>378.0</ele><time>2026-04-15T11:03:15.536Z</time></trkpt><trkpt lat="46.0281798" lon="11.8662596"><ele>378.0</ele><time>2026-04-15T11:03:18.537Z</time></trkpt><trkpt lat="46.0282554" lon="11.8662659"><ele>378.0</ele><time>2026-04-15T11:03:21.539Z</time></trkpt><trkpt lat="46.0283145" lon="11.8661683"><ele>378.0</ele><time>2026-04-15T11:03:24.536Z</time></trkpt><trkpt lat="46.0283612" lon="11.8660944"><ele>378.0</ele><time>2026-04-15T11:03:26.539Z</time></trkpt><trkpt lat="46.0284121" lon="11.8660244"><ele>378.0</ele><time>2026-04-15T11:03:28.539Z</time></trkpt><trkpt lat="46.028467" lon="11.8659537"><ele>378.0</ele><time>2026-04-15T11:03:30.539Z</time></trkpt><trkpt lat="46.0285297" lon="11.8658855"><ele>379.2857142857143</ele><time>2026-04-15T11:03:32.538Z</time></trkpt><trkpt lat="46.0285889" lon="11.8658259"><ele>380.57142857142856</ele><time>2026-04-15T11:03:34.539Z</time></trkpt><trkpt lat="46.0286521" lon="11.8657634"><ele>381.8571428571429</ele><time>2026-04-15T11:03:36.538Z</time></trkpt><trkpt lat="46.0287089" lon="11.8656954"><ele>383.1428571428571</ele><time>2026-04-15T11:03:38.538Z</time></trkpt><trkpt lat="46.0287596" lon="11.8656127"><ele>384.42857142857144</ele><time>2026-04-15T11:03:40.538Z</time></trkpt><trkpt lat="46.0288116" lon="11.865538"><ele>385.7142857142857</ele><time>2026-04-15T11:03:42.536Z</time></trkpt><trkpt lat="46.0288548" lon="11.8654605"><ele>387.0</ele><time>2026-04-15T11:03:44.538Z</time></trkpt><trkpt lat="46.0288946" lon="11.8653754"><ele>387.0</ele><time>2026-04-15T11:03:46.539Z</time></trkpt><trkpt lat="46.0289313" lon="11.8652837"><ele>387.0</ele><time>2026-04-15T11:03:48.538Z</time></trkpt><trkpt lat="46.0289605" lon="11.8651904"><ele>387.0</ele><time>2026-04-15T11:03:50.539Z</time></trkpt><trkpt lat="46.0289744" lon="11.8651015"><ele>387.0</ele><time>2026-04-15T11:03:52.537Z</time></trkpt><trkpt lat="46.0289665" lon="11.8650103"><ele>387.0</ele><time>2026-04-15T11:03:54.538Z</time></trkpt><trkpt lat="46.0289483" lon="11.8649149"><ele>387.0</ele><time>2026-04-15T11:03:56.539Z</time></trkpt><trkpt lat="46.0289277" lon="11.8648273"><ele>387.0</ele><time>2026-04-15T11:03:58.539Z</time></trkpt><trkpt lat="46.0289099" lon="11.8647394"><ele>386.6666666666667</ele><time>2026-04-15T11:04:00.538Z</time></trkpt><trkpt lat="46.0288928" lon="11.864652"><ele>386.33333333333337</ele><time>2026-04-15T11:04:02.538Z</time></trkpt><trkpt lat="46.0288735" lon="11.8645289"><ele>386.0</ele><time>2026-04-15T11:04:05.538Z</time></trkpt><trkpt lat="46.0288499" lon="11.8644071"><ele>385.6666666666667</ele><time>2026-04-15T11:04:08.539Z</time></trkpt><trkpt lat="46.028833" lon="11.8642786"><ele>385.33333333333337</ele><time>2026-04-15T11:04:11.539Z</time></trkpt><trkpt lat="46.0288125" lon="11.8641583"><ele>385.0</ele><time>2026-04-15T11:04:14.538Z</time></trkpt><trkpt lat="46.0287939" lon="11.8640367"><ele>386.50000000000006</ele><time>2026-04-15T11:04:17.537Z</time></trkpt><trkpt lat="46.0287697" lon="11.8639167"><ele>388.0</ele><time>2026-04-15T11:04:20.54Z</time></trkpt><trkpt lat="46.0287558" lon="11.8638279"><ele>389.5</ele><time>2026-04-15T11:04:22.538Z</time></trkpt><trkpt lat="46.0287689" lon="11.8637034"><ele>391.0</ele><time>2026-04-15T11:04:25.537Z</time></trkpt><trkpt lat="46.0287971" lon="11.8635842"><ele>392.50000000000006</ele><time>2026-04-15T11:04:28.538Z</time></trkpt><trkpt lat="46.0288453" lon="11.8634769"><ele>394.0</ele><time>2026-04-15T11:04:31.539Z</time></trkpt><trkpt lat="46.0289017" lon="11.8633839"><ele>395.50000000000006</ele><time>2026-04-15T11:04:34.538Z</time></trkpt><trkpt lat="46.0289609" lon="11.8632921"><ele>397.0</ele><time>2026-04-15T11:04:37.538Z</time></trkpt><trkpt lat="46.0290246" lon="11.8632031"><ele>398.5</ele><time>2026-04-15T11:04:40.537Z</time></trkpt><trkpt lat="46.0290933" lon="11.8631457"><ele>400.0</ele><time>2026-04-15T11:04:43.536Z</time></trkpt><trkpt lat="46.0291605" lon="11.8630903"><ele>401.50000000000006</ele><time>2026-04-15T11:04:46.538Z</time></trkpt><trkpt lat="46.0292264" lon="11.8630467"><ele>403.0</ele><time>2026-04-15T11:04:49.538Z</time></trkpt><trkpt lat="46.0292839" lon="11.8629984"><ele>405.1666666666667</ele><time>2026-04-15T11:04:52.536Z</time></trkpt><trkpt lat="46.0293475" lon="11.8629455"><ele>407.33333333333337</ele><time>2026-04-15T11:04:55.537Z</time></trkpt><trkpt lat="46.0293981" lon="11.8628796"><ele>409.5</ele><time>2026-04-15T11:04:58.538Z</time></trkpt><trkpt lat="46.029439" lon="11.862803"><ele>411.66666666666663</ele><time>2026-04-15T11:05:01.537Z</time></trkpt><trkpt lat="46.0295063" lon="11.8627473"><ele>413.8333333333333</ele><time>2026-04-15T11:05:04.536Z</time></trkpt><trkpt lat="46.0295867" lon="11.8626949"><ele>416.0</ele><time>2026-04-15T11:05:07.538Z</time></trkpt><trkpt lat="46.0296719" lon="11.8626491"><ele>416.66666666666663</ele><time>2026-04-15T11:05:10.538Z</time></trkpt><trkpt lat="46.0297317" lon="11.8626123"><ele>417.3333333333333</ele><time>2026-04-15T11:05:12.539Z</time></trkpt><trkpt lat="46.0298165" lon="11.8625655"><ele>418.0</ele><time>2026-04-15T11:05:15.538Z</time></trkpt><trkpt lat="46.029899" lon="11.8625338"><ele>418.66666666666663</ele><time>2026-04-15T11:05:18.537Z</time></trkpt><trkpt lat="46.029986" lon="11.8625391"><ele>419.3333333333333</ele><time>2026-04-15T11:05:21.538Z</time></trkpt><trkpt lat="46.0300667" lon="11.8625785"><ele>420.0</ele><time>2026-04-15T11:05:24.539Z</time></trkpt><trkpt lat="46.0301504" lon="11.8626172"><ele>421.5</ele><time>2026-04-15T11:05:27.537Z</time></trkpt><trkpt lat="46.0302354" lon="11.8626599"><ele>423.0</ele><time>2026-04-15T11:05:30.538Z</time></trkpt><trkpt lat="46.0303147" lon="11.8627128"><ele>424.5</ele><time>2026-04-15T11:05:33.537Z</time></trkpt><trkpt lat="46.0303948" lon="11.8627638"><ele>426.0</ele><time>2026-04-15T11:05:36.538Z</time></trkpt><trkpt lat="46.0304674" lon="11.8628048"><ele>427.5</ele><time>2026-04-15T11:05:39.536Z</time></trkpt><trkpt lat="46.0305485" lon="11.8628276"><ele>429.0</ele><time>2026-04-15T11:05:42.538Z</time></trkpt><trkpt lat="46.0306306" lon="11.8628024"><ele>429.0</ele><time>2026-04-15T11:05:45.539Z</time></trkpt><trkpt lat="46.0307018" lon="11.8627625"><ele>429.0</ele><time>2026-04-15T11:05:48.538Z</time></trkpt><trkpt lat="46.0307724" lon="11.8627214"><ele>429.0</ele><time>2026-04-15T11:05:51.539Z</time></trkpt><trkpt lat="46.0308242" lon="11.8626435"><ele>429.0</ele><time>2026-04-15T11:05:56.539Z</time></trkpt><trkpt lat="46.0308256" lon="11.8625479"><ele>429.0</ele><time>2026-04-15T11:05:59.535Z</time></trkpt><trkpt lat="46.0308781" lon="11.8624661"><ele>429.0</ele><time>2026-04-15T11:06:03.537Z</time></trkpt><trkpt lat="46.0309392" lon="11.8623831"><ele>431.0</ele><time>2026-04-15T11:06:06.538Z</time></trkpt><trkpt lat="46.0310082" lon="11.8623062"><ele>433.0</ele><time>2026-04-15T11:06:09.538Z</time></trkpt><trkpt lat="46.0310812" lon="11.8622314"><ele>435.0</ele><time>2026-04-15T11:06:12.538Z</time></trkpt><trkpt lat="46.0311414" lon="11.8621463"><ele>437.0</ele><time>2026-04-15T11:06:15.536Z</time></trkpt><trkpt lat="46.0311955" lon="11.8620523"><ele>439.0</ele><time>2026-04-15T11:06:18.538Z</time></trkpt><trkpt lat="46.0312532" lon="11.8619592"><ele>441.0</ele><time>2026-04-15T11:06:21.538Z</time></trkpt><trkpt lat="46.0313021" lon="11.8618626"><ele>441.0</ele><time>2026-04-15T11:06:24.539Z</time></trkpt><trkpt lat="46.0313388" lon="11.8617402"><ele>441.0</ele><time>2026-04-15T11:06:27.538Z</time></trkpt><trkpt lat="46.031369" lon="11.8616142"><ele>441.0</ele><time>2026-04-15T11:06:30.537Z</time></trkpt><trkpt lat="46.0313873" lon="11.8615272"><ele>441.0</ele><time>2026-04-15T11:06:32.537Z</time></trkpt><trkpt lat="46.0314049" lon="11.8613938"><ele>441.0</ele><time>2026-04-15T11:06:35.535Z</time></trkpt><trkpt lat="46.0314128" lon="11.8612664"><ele>441.0</ele><time>2026-04-15T11:06:38.539Z</time></trkpt><trkpt lat="46.0314237" lon="11.8611302"><ele>441.0</ele><time>2026-04-15T11:06:41.537Z</time></trkpt><trkpt lat="46.0314315" lon="11.8610397"><ele>441.0</ele><time>2026-04-15T11:06:43.537Z</time></trkpt><trkpt lat="46.0314411" lon="11.8609199"><ele>441.0</ele><time>2026-04-15T11:06:46.537Z</time></trkpt><trkpt lat="46.0314561" lon="11.8608241"><ele>441.0</ele><time>2026-04-15T11:06:49.538Z</time></trkpt><trkpt lat="46.0314445" lon="11.8607171"><ele>441.0</ele><time>2026-04-15T11:06:54.539Z</time></trkpt><trkpt lat="46.0314192" lon="11.8605909"><ele>441.0</ele><time>2026-04-15T11:06:57.537Z</time></trkpt><trkpt lat="46.0314046" lon="11.8604778"><ele>441.1666666666667</ele><time>2026-04-15T11:06:59.538Z</time></trkpt><trkpt lat="46.0313951" lon="11.8603623"><ele>441.33333333333337</ele><time>2026-04-15T11:07:01.535Z</time></trkpt><trkpt lat="46.0313865" lon="11.8602452"><ele>441.5</ele><time>2026-04-15T11:07:03.535Z</time></trkpt><trkpt lat="46.0313703" lon="11.860135"><ele>441.6666666666667</ele><time>2026-04-15T11:07:05.536Z</time></trkpt><trkpt lat="46.0313571" lon="11.8600291"><ele>441.83333333333337</ele><time>2026-04-15T11:07:07.537Z</time></trkpt><trkpt lat="46.0313375" lon="11.8599337"><ele>442.0</ele><time>2026-04-15T11:07:09.539Z</time></trkpt><trkpt lat="46.0313227" lon="11.8598415"><ele>442.00000000000006</ele><time>2026-04-15T11:07:11.537Z</time></trkpt><trkpt lat="46.0313042" lon="11.8597152"><ele>442.0</ele><time>2026-04-15T11:07:14.539Z</time></trkpt><trkpt lat="46.0312882" lon="11.8596266"><ele>442.0</ele><time>2026-04-15T11:07:16.537Z</time></trkpt><trkpt lat="46.0312686" lon="11.8595316"><ele>442.0</ele><time>2026-04-15T11:07:18.539Z</time></trkpt><trkpt lat="46.0312523" lon="11.8594354"><ele>442.0</ele><time>2026-04-15T11:07:20.539Z</time></trkpt><trkpt lat="46.031226" lon="11.8593397"><ele>442.00000000000006</ele><time>2026-04-15T11:07:22.539Z</time></trkpt><trkpt lat="46.031197" lon="11.8592447"><ele>442.0</ele><time>2026-04-15T11:07:24.538Z</time></trkpt><trkpt lat="46.0311631" lon="11.8591516"><ele>443.28571428571433</ele><time>2026-04-15T11:07:26.538Z</time></trkpt><trkpt lat="46.0311348" lon="11.8590569"><ele>444.57142857142856</ele><time>2026-04-15T11:07:28.538Z</time></trkpt><trkpt lat="46.0311014" lon="11.8589665"><ele>445.8571428571429</ele><time>2026-04-15T11:07:30.537Z</time></trkpt><trkpt lat="46.0310716" lon="11.8588804"><ele>447.14285714285717</ele><time>2026-04-15T11:07:32.539Z</time></trkpt><trkpt lat="46.0310407" lon="11.8588005"><ele>448.42857142857144</ele><time>2026-04-15T11:07:34.536Z</time></trkpt><trkpt lat="46.0310087" lon="11.8587202"><ele>449.7142857142857</ele><time>2026-04-15T11:07:36.538Z</time></trkpt><trkpt lat="46.0309609" lon="11.8586131"><ele>451.0</ele><time>2026-04-15T11:07:39.537Z</time></trkpt><trkpt lat="46.0309262" lon="11.8585373"><ele>451.0</ele><time>2026-04-15T11:07:41.539Z</time></trkpt><trkpt lat="46.0308867" lon="11.8584627"><ele>451.0</ele><time>2026-04-15T11:07:43.535Z</time></trkpt><trkpt lat="46.0308476" lon="11.8583803"><ele>451.0</ele><time>2026-04-15T11:07:45.537Z</time></trkpt><trkpt lat="46.0308034" lon="11.8583034"><ele>451.0</ele><time>2026-04-15T11:07:47.539Z</time></trkpt><trkpt lat="46.0307663" lon="11.8582202"><ele>451.0</ele><time>2026-04-15T11:07:49.538Z</time></trkpt><trkpt lat="46.0307358" lon="11.8581381"><ele>451.0</ele><time>2026-04-15T11:07:51.538Z</time></trkpt><trkpt lat="46.0306899" lon="11.8580183"><ele>451.0</ele><time>2026-04-15T11:07:54.539Z</time></trkpt><trkpt lat="46.0306591" lon="11.857935"><ele>450.1666666666667</ele><time>2026-04-15T11:07:56.539Z</time></trkpt><trkpt lat="46.0306224" lon="11.8578127"><ele>449.33333333333337</ele><time>2026-04-15T11:07:59.538Z</time></trkpt><trkpt lat="46.0305982" lon="11.8576884"><ele>448.5</ele><time>2026-04-15T11:08:02.539Z</time></trkpt><trkpt lat="46.0305743" lon="11.8575734"><ele>447.66666666666663</ele><time>2026-04-15T11:08:05.538Z</time></trkpt><trkpt lat="46.0305548" lon="11.8574638"><ele>446.8333333333333</ele><time>2026-04-15T11:08:08.539Z</time></trkpt><trkpt lat="46.0305355" lon="11.8573579"><ele>446.0</ele><time>2026-04-15T11:08:11.537Z</time></trkpt><trkpt lat="46.0305116" lon="11.8572447"><ele>447.66666666666663</ele><time>2026-04-15T11:08:14.539Z</time></trkpt><trkpt lat="46.0304864" lon="11.8571367"><ele>449.3333333333333</ele><time>2026-04-15T11:08:17.538Z</time></trkpt><trkpt lat="46.03046" lon="11.8570196"><ele>451.0</ele><time>2026-04-15T11:08:20.538Z</time></trkpt><trkpt lat="46.030413" lon="11.856912"><ele>452.66666666666663</ele><time>2026-04-15T11:08:23.537Z</time></trkpt><trkpt lat="46.0303702" lon="11.8568079"><ele>454.3333333333333</ele><time>2026-04-15T11:08:26.538Z</time></trkpt><trkpt lat="46.0303213" lon="11.8567047"><ele>456.0</ele><time>2026-04-15T11:08:29.536Z</time></trkpt><trkpt lat="46.0302659" lon="11.8566"><ele>458.0</ele><time>2026-04-15T11:08:32.539Z</time></trkpt><trkpt lat="46.0302236" lon="11.856485"><ele>460.0</ele><time>2026-04-15T11:08:35.538Z</time></trkpt><trkpt lat="46.0301859" lon="11.8563741"><ele>462.0</ele><time>2026-04-15T11:08:38.542Z</time></trkpt><trkpt lat="46.0301509" lon="11.8562836"><ele>464.0</ele><time>2026-04-15T11:08:41.539Z</time></trkpt><trkpt lat="46.0301279" lon="11.8561872"><ele>466.0</ele><time>2026-04-15T11:08:45.538Z</time></trkpt><trkpt lat="46.0301805" lon="11.8561091"><ele>468.0</ele><time>2026-04-15T11:08:50.538Z</time></trkpt><trkpt lat="46.0302376" lon="11.8560522"><ele>468.0</ele><time>2026-04-15T11:08:53.539Z</time></trkpt><trkpt lat="46.0303116" lon="11.8560304"><ele>468.00000000000006</ele><time>2026-04-15T11:08:57.537Z</time></trkpt><trkpt lat="46.0303736" lon="11.8560526"><ele>468.0</ele><time>2026-04-15T11:09:00.538Z</time></trkpt><trkpt lat="46.0304404" lon="11.8560735"><ele>468.0</ele><time>2026-04-15T11:09:03.536Z</time></trkpt><trkpt lat="46.0305208" lon="11.8561037"><ele>468.00000000000006</ele><time>2026-04-15T11:09:07.537Z</time></trkpt><trkpt lat="46.0305931" lon="11.8561395"><ele>468.0</ele><time>2026-04-15T11:09:11.54Z</time></trkpt><trkpt lat="46.0306684" lon="11.8561653"><ele>468.0</ele><time>2026-04-15T11:09:15.538Z</time></trkpt><trkpt lat="46.0307385" lon="11.8562043"><ele>471.28571428571433</ele><time>2026-04-15T11:09:19.537Z</time></trkpt><trkpt lat="46.0308164" lon="11.8562356"><ele>474.5714285714286</ele><time>2026-04-15T11:09:23.538Z</time></trkpt><trkpt lat="46.0308764" lon="11.8562641"><ele>477.8571428571429</ele><time>2026-04-15T11:09:26.539Z</time></trkpt><trkpt lat="46.0309436" lon="11.8563054"><ele>481.1428571428571</ele><time>2026-04-15T11:09:29.538Z</time></trkpt><trkpt lat="46.0310043" lon="11.8563591"><ele>484.4285714285714</ele><time>2026-04-15T11:09:32.538Z</time></trkpt><trkpt lat="46.0310594" lon="11.8564489"><ele>487.71428571428567</ele><time>2026-04-15T11:09:36.537Z</time></trkpt><trkpt lat="46.0311129" lon="11.8565103"><ele>491.0</ele><time>2026-04-15T11:09:39.538Z</time></trkpt><trkpt lat="46.0311671" lon="11.8565733"><ele>491.0</ele><time>2026-04-15T11:09:42.538Z</time></trkpt><trkpt lat="46.0312162" lon="11.8566419"><ele>490.99999999999994</ele><time>2026-04-15T11:09:45.539Z</time></trkpt><trkpt lat="46.031264" lon="11.856707"><ele>491.0</ele><time>2026-04-15T11:09:48.538Z</time></trkpt><trkpt lat="46.0313225" lon="11.856787"><ele>491.0</ele><time>2026-04-15T11:09:52.539Z</time></trkpt><trkpt lat="46.0313852" lon="11.8568466"><ele>490.99999999999994</ele><time>2026-04-15T11:09:55.539Z</time></trkpt><trkpt lat="46.0314402" lon="11.8569004"><ele>491.0</ele><time>2026-04-15T11:09:58.536Z</time></trkpt><trkpt lat="46.0314911" lon="11.8569678"><ele>491.0</ele><time>2026-04-15T11:10:01.538Z</time></trkpt><trkpt lat="46.0315433" lon="11.8570306"><ele>488.49999999999994</ele><time>2026-04-15T11:10:04.539Z</time></trkpt><trkpt lat="46.0315985" lon="11.8570895"><ele>486.0</ele><time>2026-04-15T11:10:07.539Z</time></trkpt><trkpt lat="46.0316481" lon="11.8571616"><ele>483.5</ele><time>2026-04-15T11:10:10.537Z</time></trkpt><trkpt lat="46.0317047" lon="11.8572427"><ele>481.0</ele><time>2026-04-15T11:10:14.539Z</time></trkpt><trkpt lat="46.0317667" lon="11.8573254"><ele>478.49999999999994</ele><time>2026-04-15T11:10:18.539Z</time></trkpt><trkpt lat="46.0318275" lon="11.8574094"><ele>476.0</ele><time>2026-04-15T11:10:22.537Z</time></trkpt><trkpt lat="46.0318942" lon="11.8574768"><ele>479.1428571428571</ele><time>2026-04-15T11:10:26.539Z</time></trkpt><trkpt lat="46.0319424" lon="11.8575388"><ele>482.2857142857143</ele><time>2026-04-15T11:10:29.537Z</time></trkpt><trkpt lat="46.0319956" lon="11.8575905"><ele>485.42857142857144</ele><time>2026-04-15T11:10:32.539Z</time></trkpt><trkpt lat="46.0320475" lon="11.8576704"><ele>488.57142857142856</ele><time>2026-04-15T11:10:36.537Z</time></trkpt><trkpt lat="46.0320959" lon="11.857746"><ele>491.71428571428567</ele><time>2026-04-15T11:10:40.538Z</time></trkpt><trkpt lat="46.0321446" lon="11.8578292"><ele>494.85714285714283</ele><time>2026-04-15T11:10:45.539Z</time></trkpt><trkpt lat="46.0321926" lon="11.8579129"><ele>498.0</ele><time>2026-04-15T11:10:49.539Z</time></trkpt><trkpt lat="46.0322394" lon="11.8579754"><ele>498.0</ele><time>2026-04-15T11:10:52.537Z</time></trkpt><trkpt lat="46.0322871" lon="11.8580356"><ele>497.99999999999994</ele><time>2026-04-15T11:10:55.537Z</time></trkpt><trkpt lat="46.0323478" lon="11.8581091"><ele>498.0</ele><time>2026-04-15T11:10:59.538Z</time></trkpt><trkpt lat="46.0323954" lon="11.858176"><ele>498.0</ele><time>2026-04-15T11:11:02.539Z</time></trkpt><trkpt lat="46.0324422" lon="11.8582387"><ele>497.99999999999994</ele><time>2026-04-15T11:11:05.539Z</time></trkpt><trkpt lat="46.0324964" lon="11.8582948"><ele>498.0</ele><time>2026-04-15T11:11:09.538Z</time></trkpt><trkpt lat="46.0325491" lon="11.8583838"><ele>498.0</ele><time>2026-04-15T11:11:13.538Z</time></trkpt><trkpt lat="46.0326002" lon="11.8584483"><ele>501.4285714285714</ele><time>2026-04-15T11:11:16.537Z</time></trkpt><trkpt lat="46.0326456" lon="11.8585115"><ele>504.8571428571428</ele><time>2026-04-15T11:11:19.537Z</time></trkpt><trkpt lat="46.0326967" lon="11.8585873"><ele>508.2857142857143</ele><time>2026-04-15T11:11:23.538Z</time></trkpt><trkpt lat="46.0327583" lon="11.8586516"><ele>511.71428571428567</ele><time>2026-04-15T11:11:27.537Z</time></trkpt><trkpt lat="46.0328207" lon="11.8586818"><ele>515.1428571428571</ele><time>2026-04-15T11:11:30.538Z</time></trkpt><trkpt lat="46.0328934" lon="11.8587283"><ele>518.5714285714286</ele><time>2026-04-15T11:11:34.537Z</time></trkpt><trkpt lat="46.0329686" lon="11.8587791"><ele>522.0</ele><time>2026-04-15T11:11:38.539Z</time></trkpt><trkpt lat="46.0330321" lon="11.8588412"><ele>522.0</ele><time>2026-04-15T11:11:42.539Z</time></trkpt><trkpt lat="46.0330944" lon="11.8588893"><ele>522.0</ele><time>2026-04-15T11:11:46.539Z</time></trkpt><trkpt lat="46.0331715" lon="11.858912"><ele>522.0</ele><time>2026-04-15T11:11:50.538Z</time></trkpt><trkpt lat="46.0332511" lon="11.8589027"><ele>522.0</ele><time>2026-04-15T11:11:54.538Z</time></trkpt><trkpt lat="46.0333253" lon="11.8588891"><ele>522.0</ele><time>2026-04-15T11:11:59.537Z</time></trkpt><trkpt lat="46.0333939" lon="11.8589026"><ele>522.0</ele><time>2026-04-15T11:12:03.535Z</time></trkpt><trkpt lat="46.0334708" lon="11.8589168"><ele>525.8571428571429</ele><time>2026-04-15T11:12:07.536Z</time></trkpt><trkpt lat="46.0335423" lon="11.8589705"><ele>529.7142857142857</ele><time>2026-04-15T11:12:11.538Z</time></trkpt><trkpt lat="46.0336025" lon="11.859025"><ele>533.5714285714286</ele><time>2026-04-15T11:12:14.534Z</time></trkpt><trkpt lat="46.0336574" lon="11.8590828"><ele>537.4285714285714</ele><time>2026-04-15T11:12:17.539Z</time></trkpt><trkpt lat="46.033712" lon="11.8591292"><ele>541.2857142857143</ele><time>2026-04-15T11:12:20.539Z</time></trkpt><trkpt lat="46.0337744" lon="11.8591597"><ele>545.1428571428571</ele><time>2026-04-15T11:12:23.537Z</time></trkpt><trkpt lat="46.0338522" lon="11.859172"><ele>549.0</ele><time>2026-04-15T11:12:27.536Z</time></trkpt><trkpt lat="46.0339347" lon="11.8591805"><ele>549.0</ele><time>2026-04-15T11:12:31.538Z</time></trkpt><trkpt lat="46.0340155" lon="11.8591886"><ele>549.0</ele><time>2026-04-15T11:12:35.537Z</time></trkpt><trkpt lat="46.0340885" lon="11.8592237"><ele>549.0</ele><time>2026-04-15T11:12:39.538Z</time></trkpt><trkpt lat="46.0341584" lon="11.8592262"><ele>549.0</ele><time>2026-04-15T11:12:42.537Z</time></trkpt><trkpt lat="46.0342319" lon="11.8592455"><ele>549.0</ele><time>2026-04-15T11:12:46.535Z</time></trkpt><trkpt lat="46.034295" lon="11.8592505"><ele>549.0</ele><time>2026-04-15T11:12:50.539Z</time></trkpt><trkpt lat="46.0343617" lon="11.8592638"><ele>549.0</ele><time>2026-04-15T11:12:54.538Z</time></trkpt><trkpt lat="46.0344346" lon="11.8592698"><ele>549.7142857142857</ele><time>2026-04-15T11:12:58.537Z</time></trkpt><trkpt lat="46.0344975" lon="11.85928"><ele>550.4285714285714</ele><time>2026-04-15T11:13:02.539Z</time></trkpt><trkpt lat="46.0345622" lon="11.8592911"><ele>551.1428571428571</ele><time>2026-04-15T11:13:06.539Z</time></trkpt><trkpt lat="46.0346374" lon="11.8593137"><ele>551.8571428571429</ele><time>2026-04-15T11:13:11.539Z</time></trkpt><trkpt lat="46.0347077" lon="11.8593432"><ele>552.5714285714286</ele><time>2026-04-15T11:13:16.539Z</time></trkpt><trkpt lat="46.0347673" lon="11.859375"><ele>553.2857142857142</ele><time>2026-04-15T11:13:20.539Z</time></trkpt><trkpt lat="46.0348317" lon="11.859387"><ele>554.0</ele><time>2026-04-15T11:13:24.537Z</time></trkpt><trkpt lat="46.0348955" lon="11.8594098"><ele>554.0</ele><time>2026-04-15T11:13:28.536Z</time></trkpt><trkpt lat="46.0349567" lon="11.8594447"><ele>554.0</ele><time>2026-04-15T11:13:32.538Z</time></trkpt><trkpt lat="46.0350175" lon="11.8594755"><ele>554.0</ele><time>2026-04-15T11:13:36.537Z</time></trkpt><trkpt lat="46.0350879" lon="11.8595151"><ele>554.0</ele><time>2026-04-15T11:13:41.538Z</time></trkpt><trkpt lat="46.0351631" lon="11.8595078"><ele>554.0</ele><time>2026-04-15T11:13:45.539Z</time></trkpt><trkpt lat="46.0352358" lon="11.8594484"><ele>554.0</ele><time>2026-04-15T11:13:49.538Z</time></trkpt><trkpt lat="46.0352928" lon="11.8593804"><ele>554.0</ele><time>2026-04-15T11:13:53.538Z</time></trkpt><trkpt lat="46.0353566" lon="11.8593278"><ele>559.7142857142857</ele><time>2026-04-15T11:13:57.537Z</time></trkpt><trkpt lat="46.0354255" lon="11.8592794"><ele>565.4285714285713</ele><time>2026-04-15T11:14:01.537Z</time></trkpt><trkpt lat="46.0354941" lon="11.859227"><ele>571.1428571428571</ele><time>2026-04-15T11:14:05.537Z</time></trkpt><trkpt lat="46.0355508" lon="11.8591841"><ele>576.8571428571429</ele><time>2026-04-15T11:14:08.539Z</time></trkpt><trkpt lat="46.035618" lon="11.8591228"><ele>582.5714285714287</ele><time>2026-04-15T11:14:12.539Z</time></trkpt><trkpt lat="46.0356859" lon="11.8590794"><ele>588.2857142857143</ele><time>2026-04-15T11:14:16.538Z</time></trkpt><trkpt lat="46.035754" lon="11.8590385"><ele>594.0</ele><time>2026-04-15T11:14:20.538Z</time></trkpt><trkpt lat="46.035817" lon="11.8590112"><ele>595.7142857142858</ele><time>2026-04-15T11:14:24.537Z</time></trkpt><trkpt lat="46.0358818" lon="11.8590079"><ele>597.4285714285714</ele><time>2026-04-15T11:14:29.539Z</time></trkpt><trkpt lat="46.0359461" lon="11.8590045"><ele>599.1428571428571</ele><time>2026-04-15T11:14:34.535Z</time></trkpt><trkpt lat="46.0359536" lon="11.8588992"><ele>600.8571428571429</ele><time>2026-04-15T11:14:40.536Z</time></trkpt><trkpt lat="46.0359934" lon="11.8588126"><ele>602.5714285714286</ele><time>2026-04-15T11:14:44.539Z</time></trkpt><trkpt lat="46.0360234" lon="11.8587202"><ele>604.2857142857143</ele><time>2026-04-15T11:14:48.538Z</time></trkpt><trkpt lat="46.036052" lon="11.8586139"><ele>606.0</ele><time>2026-04-15T11:14:52.537Z</time></trkpt><trkpt lat="46.0360898" lon="11.8585125"><ele>609.3333333333334</ele><time>2026-04-15T11:14:56.539Z</time></trkpt><trkpt lat="46.0361189" lon="11.8584101"><ele>612.6666666666666</ele><time>2026-04-15T11:15:00.538Z</time></trkpt><trkpt lat="46.0361468" lon="11.8583045"><ele>616.0</ele><time>2026-04-15T11:15:04.539Z</time></trkpt><trkpt lat="46.0361667" lon="11.8581837"><ele>619.3333333333333</ele><time>2026-04-15T11:15:08.539Z</time></trkpt><trkpt lat="46.036167" lon="11.8580631"><ele>622.6666666666666</ele><time>2026-04-15T11:15:12.537Z</time></trkpt><trkpt lat="46.0361661" lon="11.8579545"><ele>626.0</ele><time>2026-04-15T11:15:16.538Z</time></trkpt><trkpt lat="46.0361563" lon="11.8578509"><ele>626.0</ele><time>2026-04-15T11:15:21.539Z</time></trkpt><trkpt lat="46.0361365" lon="11.857963"><ele>626.0</ele><time>2026-04-15T11:16:24.535Z</time></trkpt><trkpt lat="46.0361496" lon="11.8580728"><ele>626.0</ele><time>2026-04-15T11:16:27.536Z</time></trkpt><trkpt lat="46.0361376" lon="11.8581799"><ele>626.0</ele><time>2026-04-15T11:16:30.534Z</time></trkpt><trkpt lat="46.0361101" lon="11.8582929"><ele>626.0</ele><time>2026-04-15T11:16:33.535Z</time></trkpt><trkpt lat="46.0361022" lon="11.8584007"><ele>626.0</ele><time>2026-04-15T11:16:36.535Z</time></trkpt><trkpt lat="46.0360979" lon="11.8585207"><ele>622.6666666666666</ele><time>2026-04-15T11:16:39.535Z</time></trkpt><trkpt lat="46.0360586" lon="11.8586314"><ele>619.3333333333333</ele><time>2026-04-15T11:16:42.535Z</time></trkpt><trkpt lat="46.0360099" lon="11.8587414"><ele>616.0</ele><time>2026-04-15T11:16:45.535Z</time></trkpt><trkpt lat="46.0359718" lon="11.8588434"><ele>612.6666666666666</ele><time>2026-04-15T11:16:48.534Z</time></trkpt><trkpt lat="46.0359601" lon="11.8589366"><ele>609.3333333333334</ele><time>2026-04-15T11:16:53.535Z</time></trkpt><trkpt lat="46.0360178" lon="11.8588812"><ele>606.0</ele><time>2026-04-15T11:16:59.535Z</time></trkpt><trkpt lat="46.0360826" lon="11.8588"><ele>606.0</ele><time>2026-04-15T11:17:02.535Z</time></trkpt><trkpt lat="46.0361374" lon="11.8587239"><ele>606.0</ele><time>2026-04-15T11:17:05.534Z</time></trkpt><trkpt lat="46.0362001" lon="11.8586999"><ele>606.0</ele><time>2026-04-15T11:17:08.535Z</time></trkpt><trkpt lat="46.0362711" lon="11.8587436"><ele>606.0</ele><time>2026-04-15T11:17:12.534Z</time></trkpt><trkpt lat="46.0362973" lon="11.8588295"><ele>606.0</ele><time>2026-04-15T11:17:15.536Z</time></trkpt><trkpt lat="46.03628" lon="11.8589416"><ele>606.0</ele><time>2026-04-15T11:17:19.536Z</time></trkpt><trkpt lat="46.0362869" lon="11.8590345"><ele>606.0</ele><time>2026-04-15T11:17:22.535Z</time></trkpt><trkpt lat="46.0363542" lon="11.8590415"><ele>606.0</ele><time>2026-04-15T11:17:26.535Z</time></trkpt><trkpt lat="46.0363759" lon="11.858938"><ele>606.0</ele><time>2026-04-15T11:17:30.535Z</time></trkpt><trkpt lat="46.0363926" lon="11.858848"><ele>606.0</ele><time>2026-04-15T11:17:33.535Z</time></trkpt><trkpt lat="46.0364178" lon="11.8587592"><ele>606.0</ele><time>2026-04-15T11:17:36.537Z</time></trkpt><trkpt lat="46.0364298" lon="11.8586656"><ele>606.0</ele><time>2026-04-15T11:17:39.536Z</time></trkpt><trkpt lat="46.0364424" lon="11.8585515"><ele>606.0</ele><time>2026-04-15T11:17:43.535Z</time></trkpt><trkpt lat="46.0364712" lon="11.8584516"><ele>606.0</ele><time>2026-04-15T11:17:47.534Z</time></trkpt><trkpt lat="46.0365471" lon="11.8584749"><ele>606.0</ele><time>2026-04-15T11:17:51.535Z</time></trkpt><trkpt lat="46.0365853" lon="11.8585538"><ele>606.0</ele><time>2026-04-15T11:17:54.536Z</time></trkpt><trkpt lat="46.0366197" lon="11.8586327"><ele>606.0</ele><time>2026-04-15T11:17:57.534Z</time></trkpt><trkpt lat="46.0366532" lon="11.8587107"><ele>606.0</ele><time>2026-04-15T11:18:00.535Z</time></trkpt><trkpt lat="46.0366911" lon="11.858786"><ele>606.0</ele><time>2026-04-15T11:18:03.536Z</time></trkpt><trkpt lat="46.0367439" lon="11.8588371"><ele>606.0</ele><time>2026-04-15T11:18:06.535Z</time></trkpt><trkpt lat="46.0367992" lon="11.8588978"><ele>606.0</ele><time>2026-04-15T11:18:09.537Z</time></trkpt><trkpt lat="46.0368468" lon="11.8589764"><ele>608.0</ele><time>2026-04-15T11:18:12.535Z</time></trkpt><trkpt lat="46.0368733" lon="11.8590648"><ele>610.0</ele><time>2026-04-15T11:18:15.536Z</time></trkpt><trkpt lat="46.0368959" lon="11.8591517"><ele>612.0</ele><time>2026-04-15T11:18:18.534Z</time></trkpt><trkpt lat="46.0369275" lon="11.8592528"><ele>614.0</ele><time>2026-04-15T11:18:22.535Z</time></trkpt><trkpt lat="46.0369837" lon="11.8593403"><ele>616.0</ele><time>2026-04-15T11:18:26.536Z</time></trkpt><trkpt lat="46.0370539" lon="11.8593991"><ele>618.0</ele><time>2026-04-15T11:18:30.534Z</time></trkpt><trkpt lat="46.0370912" lon="11.8595056"><ele>618.0000000000001</ele><time>2026-04-15T11:18:34.536Z</time></trkpt><trkpt lat="46.0371155" lon="11.8596048"><ele>618.0</ele><time>2026-04-15T11:18:38.536Z</time></trkpt><trkpt lat="46.0371147" lon="11.8597119"><ele>618.0</ele><time>2026-04-15T11:18:41.536Z</time></trkpt><trkpt lat="46.037089" lon="11.8598257"><ele>618.0</ele><time>2026-04-15T11:18:45.536Z</time></trkpt><trkpt lat="46.0370828" lon="11.8599349"><ele>618.0</ele><time>2026-04-15T11:18:49.535Z</time></trkpt><trkpt lat="46.0371561" lon="11.8599588"><ele>618.0000000000001</ele><time>2026-04-15T11:20:04.537Z</time></trkpt><trkpt lat="46.0371918" lon="11.859876"><ele>618.0</ele><time>2026-04-15T11:20:08.536Z</time></trkpt><trkpt lat="46.0372061" lon="11.859771"><ele>618.0</ele><time>2026-04-15T11:20:12.535Z</time></trkpt><trkpt lat="46.0372326" lon="11.8596601"><ele>618.0</ele><time>2026-04-15T11:20:16.535Z</time></trkpt><trkpt lat="46.0372399" lon="11.8595477"><ele>618.0</ele><time>2026-04-15T11:20:20.538Z</time></trkpt><trkpt lat="46.0372396" lon="11.8594418"><ele>618.0</ele><time>2026-04-15T11:20:24.534Z</time></trkpt><trkpt lat="46.0372526" lon="11.8593496"><ele>618.0</ele><time>2026-04-15T11:20:27.536Z</time></trkpt><trkpt lat="46.0372455" lon="11.8592345"><ele>618.0</ele><time>2026-04-15T11:20:31.536Z</time></trkpt><trkpt lat="46.0372459" lon="11.8591192"><ele>618.5714285714287</ele><time>2026-04-15T11:20:35.538Z</time></trkpt><trkpt lat="46.0372645" lon="11.8590187"><ele>619.1428571428571</ele><time>2026-04-15T11:20:39.535Z</time></trkpt><trkpt lat="46.0373062" lon="11.8589341"><ele>619.7142857142858</ele><time>2026-04-15T11:20:43.534Z</time></trkpt><trkpt lat="46.0373238" lon="11.8588464"><ele>620.2857142857143</ele><time>2026-04-15T11:20:46.534Z</time></trkpt><trkpt lat="46.0373155" lon="11.8587551"><ele>620.8571428571429</ele><time>2026-04-15T11:20:49.535Z</time></trkpt><trkpt lat="46.0373016" lon="11.8586506"><ele>621.4285714285714</ele><time>2026-04-15T11:20:52.534Z</time></trkpt><trkpt lat="46.0372919" lon="11.8585402"><ele>622.0</ele><time>2026-04-15T11:20:55.535Z</time></trkpt><trkpt lat="46.0372671" lon="11.8584294"><ele>623.0</ele><time>2026-04-15T11:20:59.534Z</time></trkpt><trkpt lat="46.037266" lon="11.8583166"><ele>624.0</ele><time>2026-04-15T11:21:03.536Z</time></trkpt><trkpt lat="46.0372699" lon="11.8581965"><ele>625.0</ele><time>2026-04-15T11:21:07.534Z</time></trkpt><trkpt lat="46.0372684" lon="11.8581011"><ele>626.0</ele><time>2026-04-15T11:21:10.535Z</time></trkpt><trkpt lat="46.0372684" lon="11.8579863"><ele>627.0</ele><time>2026-04-15T11:21:13.535Z</time></trkpt><trkpt lat="46.0372618" lon="11.8578757"><ele>628.0</ele><time>2026-04-15T11:21:16.535Z</time></trkpt><trkpt lat="46.0372751" lon="11.8577702"><ele>628.0</ele><time>2026-04-15T11:21:19.536Z</time></trkpt><trkpt lat="46.0372985" lon="11.8576791"><ele>628.0</ele><time>2026-04-15T11:21:22.536Z</time></trkpt><trkpt lat="46.037335" lon="11.8575926"><ele>628.0</ele><time>2026-04-15T11:21:25.535Z</time></trkpt><trkpt lat="46.0373766" lon="11.8574912"><ele>628.0</ele><time>2026-04-15T11:21:29.535Z</time></trkpt><trkpt lat="46.0373883" lon="11.8573852"><ele>628.0</ele><time>2026-04-15T11:21:51.533Z</time></trkpt><trkpt lat="46.0373835" lon="11.857267"><ele>628.0</ele><time>2026-04-15T11:21:55.536Z</time></trkpt><trkpt lat="46.0373712" lon="11.8571614"><ele>629.5</ele><time>2026-04-15T11:21:58.535Z</time></trkpt><trkpt lat="46.0373784" lon="11.8570566"><ele>631.0</ele><time>2026-04-15T11:22:02.534Z</time></trkpt><trkpt lat="46.0373969" lon="11.8569353"><ele>632.5</ele><time>2026-04-15T11:22:05.535Z</time></trkpt><trkpt lat="46.0374145" lon="11.8568212"><ele>634.0</ele><time>2026-04-15T11:22:08.535Z</time></trkpt><trkpt lat="46.0374291" lon="11.856706"><ele>635.5</ele><time>2026-04-15T11:22:11.535Z</time></trkpt><trkpt lat="46.0374262" lon="11.8566049"><ele>637.0</ele><time>2026-04-15T11:22:14.534Z</time></trkpt><trkpt lat="46.0374107" lon="11.8564873"><ele>639.1428571428571</ele><time>2026-04-15T11:22:18.535Z</time></trkpt><trkpt lat="46.0374063" lon="11.8563774"><ele>641.2857142857142</ele><time>2026-04-15T11:22:22.535Z</time></trkpt><trkpt lat="46.0374058" lon="11.8562774"><ele>643.4285714285714</ele><time>2026-04-15T11:22:25.534Z</time></trkpt><trkpt lat="46.0373981" lon="11.8561723"><ele>645.5714285714286</ele><time>2026-04-15T11:22:28.535Z</time></trkpt><trkpt lat="46.0373894" lon="11.856065"><ele>647.7142857142857</ele><time>2026-04-15T11:22:32.536Z</time></trkpt><trkpt lat="46.0373872" lon="11.8559642"><ele>649.8571428571429</ele><time>2026-04-15T11:22:35.535Z</time></trkpt><trkpt lat="46.0374032" lon="11.855857"><ele>652.0</ele><time>2026-04-15T11:22:38.535Z</time></trkpt><trkpt lat="46.0374092" lon="11.8557629"><ele>655.0</ele><time>2026-04-15T11:22:41.534Z</time></trkpt><trkpt lat="46.0374131" lon="11.8556563"><ele>658.0</ele><time>2026-04-15T11:22:45.534Z</time></trkpt><trkpt lat="46.037426" lon="11.8555645"><ele>661.0</ele><time>2026-04-15T11:22:48.534Z</time></trkpt><trkpt lat="46.0374209" lon="11.855473"><ele>664.0</ele><time>2026-04-15T11:22:51.534Z</time></trkpt><trkpt lat="46.0374364" lon="11.8553821"><ele>667.0</ele><time>2026-04-15T11:22:55.535Z</time></trkpt><trkpt lat="46.0374538" lon="11.8552712"><ele>670.0</ele><time>2026-04-15T11:22:59.535Z</time></trkpt><trkpt lat="46.037468" lon="11.8551794"><ele>673.0</ele><time>2026-04-15T11:23:02.535Z</time></trkpt><trkpt lat="46.0374791" lon="11.8550605"><ele>675.4285714285714</ele><time>2026-04-15T11:23:06.534Z</time></trkpt><trkpt lat="46.0374867" lon="11.8549689"><ele>677.8571428571428</ele><time>2026-04-15T11:23:09.535Z</time></trkpt><trkpt lat="46.0374782" lon="11.8548624"><ele>680.2857142857142</ele><time>2026-04-15T11:23:13.536Z</time></trkpt><trkpt lat="46.0374636" lon="11.8547586"><ele>682.7142857142858</ele><time>2026-04-15T11:23:16.535Z</time></trkpt><trkpt lat="46.0374339" lon="11.8546579"><ele>685.1428571428571</ele><time>2026-04-15T11:23:19.536Z</time></trkpt><trkpt lat="46.0374261" lon="11.8545677"><ele>687.5714285714286</ele><time>2026-04-15T11:23:22.535Z</time></trkpt><trkpt lat="46.0374156" lon="11.8544697"><ele>690.0</ele><time>2026-04-15T11:23:25.535Z</time></trkpt><trkpt lat="46.0373865" lon="11.8543594"><ele>692.7142857142858</ele><time>2026-04-15T11:23:28.535Z</time></trkpt><trkpt lat="46.0373476" lon="11.8542643"><ele>695.4285714285714</ele><time>2026-04-15T11:23:31.536Z</time></trkpt><trkpt lat="46.0373252" lon="11.8541652"><ele>698.1428571428571</ele><time>2026-04-15T11:23:34.537Z</time></trkpt><trkpt lat="46.0372903" lon="11.8540589"><ele>700.8571428571429</ele><time>2026-04-15T11:23:38.537Z</time></trkpt><trkpt lat="46.0372537" lon="11.8539803"><ele>703.5714285714286</ele><time>2026-04-15T11:23:41.537Z</time></trkpt><trkpt lat="46.0372056" lon="11.8538955"><ele>706.2857142857143</ele><time>2026-04-15T11:23:45.538Z</time></trkpt><trkpt lat="46.0371445" lon="11.8539286"><ele>709.0</ele><time>2026-04-15T11:24:57.538Z</time></trkpt><trkpt lat="46.0370717" lon="11.8539938"><ele>709.0</ele><time>2026-04-15T11:24:59.538Z</time></trkpt><trkpt lat="46.0370078" lon="11.8540528"><ele>709.0</ele><time>2026-04-15T11:25:01.538Z</time></trkpt><trkpt lat="46.0369328" lon="11.8541184"><ele>709.0</ele><time>2026-04-15T11:25:04.538Z</time></trkpt><trkpt lat="46.0368614" lon="11.8541671"><ele>709.0</ele><time>2026-04-15T11:25:07.537Z</time></trkpt><trkpt lat="46.036812" lon="11.8542256"><ele>709.0</ele><time>2026-04-15T11:25:10.536Z</time></trkpt><trkpt lat="46.0367564" lon="11.8542899"><ele>709.0</ele><time>2026-04-15T11:25:13.537Z</time></trkpt><trkpt lat="46.0366848" lon="11.854351"><ele>711.0</ele><time>2026-04-15T11:25:17.537Z</time></trkpt><trkpt lat="46.0366362" lon="11.8544398"><ele>713.0</ele><time>2026-04-15T11:25:20.539Z</time></trkpt><trkpt lat="46.0365879" lon="11.8545429"><ele>715.0</ele><time>2026-04-15T11:25:24.536Z</time></trkpt><trkpt lat="46.0365265" lon="11.854622"><ele>717.0</ele><time>2026-04-15T11:25:27.538Z</time></trkpt><trkpt lat="46.0364613" lon="11.8546794"><ele>719.0</ele><time>2026-04-15T11:25:30.538Z</time></trkpt><trkpt lat="46.0364051" lon="11.8547607"><ele>721.0</ele><time>2026-04-15T11:25:34.536Z</time></trkpt><trkpt lat="46.0363704" lon="11.8548428"><ele>721.0</ele><time>2026-04-15T11:25:39.539Z</time></trkpt><trkpt lat="46.0363823" lon="11.8547325"><ele>721.0</ele><time>2026-04-15T11:26:05.537Z</time></trkpt><trkpt lat="46.0364073" lon="11.8546447"><ele>721.0</ele><time>2026-04-15T11:26:09.537Z</time></trkpt><trkpt lat="46.0364405" lon="11.8545463"><ele>721.0</ele><time>2026-04-15T11:26:13.539Z</time></trkpt><trkpt lat="46.0364785" lon="11.8544549"><ele>721.0</ele><time>2026-04-15T11:26:17.539Z</time></trkpt><trkpt lat="46.0364957" lon="11.854345"><ele>721.0</ele><time>2026-04-15T11:26:21.539Z</time></trkpt><trkpt lat="46.036503" lon="11.8542328"><ele>724.3333333333334</ele><time>2026-04-15T11:26:25.538Z</time></trkpt><trkpt lat="46.0365025" lon="11.8540495"><ele>727.6666666666667</ele><time>2026-04-15T11:27:18.539Z</time></trkpt><trkpt lat="46.0365262" lon="11.8539521"><ele>731.0</ele><time>2026-04-15T11:27:33.537Z</time></trkpt><trkpt lat="46.0365463" lon="11.8538483"><ele>734.3333333333334</ele><time>2026-04-15T11:27:38.539Z</time></trkpt><trkpt lat="46.036575" lon="11.8537622"><ele>737.6666666666666</ele><time>2026-04-15T11:27:42.539Z</time></trkpt><trkpt lat="46.0365952" lon="11.8536718"><ele>741.0</ele><time>2026-04-15T11:27:56.539Z</time></trkpt><trkpt lat="46.0366119" lon="11.8535412"><ele>738.4285714285714</ele><time>2026-04-15T11:28:15.539Z</time></trkpt><trkpt lat="46.0366253" lon="11.8534464"><ele>735.8571428571429</ele><time>2026-04-15T11:28:20.538Z</time></trkpt><trkpt lat="46.0366608" lon="11.8533606"><ele>733.2857142857143</ele><time>2026-04-15T11:28:32.538Z</time></trkpt><trkpt lat="46.0367048" lon="11.8532849"><ele>730.7142857142858</ele><time>2026-04-15T11:28:36.538Z</time></trkpt><trkpt lat="46.0367456" lon="11.8532058"><ele>728.1428571428571</ele><time>2026-04-15T11:28:40.538Z</time></trkpt><trkpt lat="46.0367915" lon="11.8531136"><ele>725.5714285714287</ele><time>2026-04-15T11:28:45.538Z</time></trkpt><trkpt lat="46.0368325" lon="11.8530422"><ele>723.0</ele><time>2026-04-15T11:28:49.538Z</time></trkpt><trkpt lat="46.0368684" lon="11.85296"><ele>723.0</ele><time>2026-04-15T11:28:53.538Z</time></trkpt><trkpt lat="46.0369042" lon="11.8528764"><ele>723.0</ele><time>2026-04-15T11:28:59.539Z</time></trkpt><trkpt lat="46.0369462" lon="11.8528039"><ele>723.0</ele><time>2026-04-15T11:29:03.537Z</time></trkpt><trkpt lat="46.0370651" lon="11.8526271"><ele>723.0</ele><time>2026-04-15T11:29:14.539Z</time></trkpt><trkpt lat="46.0371147" lon="11.8525566"><ele>723.0</ele><time>2026-04-15T11:29:18.538Z</time></trkpt><trkpt lat="46.0371681" lon="11.8524594"><ele>726.8571428571429</ele><time>2026-04-15T11:29:23.538Z</time></trkpt><trkpt lat="46.0372159" lon="11.8523838"><ele>730.7142857142858</ele><time>2026-04-15T11:29:28.536Z</time></trkpt><trkpt lat="46.0372604" lon="11.8522929"><ele>734.5714285714287</ele><time>2026-04-15T11:29:32.538Z</time></trkpt><trkpt lat="46.0373219" lon="11.852248"><ele>738.4285714285714</ele><time>2026-04-15T11:29:35.539Z</time></trkpt><trkpt lat="46.0373829" lon="11.8521833"><ele>742.2857142857142</ele><time>2026-04-15T11:29:38.539Z</time></trkpt><trkpt lat="46.0373892" lon="11.8520899"><ele>746.1428571428572</ele><time>2026-04-15T11:29:43.539Z</time></trkpt><trkpt lat="46.0373199" lon="11.8520357"><ele>750.0</ele><time>2026-04-15T11:30:25.539Z</time></trkpt><trkpt lat="46.037257" lon="11.8520246"><ele>750.0</ele><time>2026-04-15T11:30:39.538Z</time></trkpt><trkpt lat="46.0371826" lon="11.852046"><ele>750.0</ele><time>2026-04-15T11:30:44.536Z</time></trkpt><trkpt lat="46.0371098" lon="11.8520831"><ele>750.0</ele><time>2026-04-15T11:30:48.538Z</time></trkpt><trkpt lat="46.0370484" lon="11.8521169"><ele>750.0</ele><time>2026-04-15T11:30:52.538Z</time></trkpt><trkpt lat="46.0369904" lon="11.8521761"><ele>750.0</ele><time>2026-04-15T11:30:56.538Z</time></trkpt><trkpt lat="46.0369369" lon="11.8522367"><ele>750.0</ele><time>2026-04-15T11:31:00.539Z</time></trkpt><trkpt lat="46.0368771" lon="11.8522844"><ele>750.0</ele><time>2026-04-15T11:31:03.538Z</time></trkpt><trkpt lat="46.0368183" lon="11.8523259"><ele>750.0</ele><time>2026-04-15T11:31:07.539Z</time></trkpt><trkpt lat="46.0367401" lon="11.8523542"><ele>750.0</ele><time>2026-04-15T11:31:11.539Z</time></trkpt><trkpt lat="46.0366641" lon="11.8523811"><ele>750.0</ele><time>2026-04-15T11:31:15.537Z</time></trkpt><trkpt lat="46.0365877" lon="11.8524032"><ele>750.0</ele><time>2026-04-15T11:31:19.542Z</time></trkpt><trkpt lat="46.0365185" lon="11.8524463"><ele>750.0</ele><time>2026-04-15T11:31:23.539Z</time></trkpt><trkpt lat="46.0364553" lon="11.8524712"><ele>750.0</ele><time>2026-04-15T11:31:27.537Z</time></trkpt><trkpt lat="46.0364003" lon="11.8525165"><ele>750.0</ele><time>2026-04-15T11:32:09.538Z</time></trkpt><trkpt lat="46.0362693" lon="11.8525667"><ele>753.0</ele><time>2026-04-15T11:32:33.538Z</time></trkpt><trkpt lat="46.036163" lon="11.8525957"><ele>756.0</ele><time>2026-04-15T11:33:00.539Z</time></trkpt><trkpt lat="46.036035" lon="11.852634"><ele>759.0</ele><time>2026-04-15T11:33:28.538Z</time></trkpt><trkpt lat="46.0359396" lon="11.8527039"><ele>762.0</ele><time>2026-04-15T11:34:02.539Z</time></trkpt><trkpt lat="46.0359542" lon="11.8526074"><ele>765.0</ele><time>2026-04-15T11:35:31.539Z</time></trkpt><trkpt lat="46.0359938" lon="11.8525152"><ele>769.1428571428572</ele><time>2026-04-15T11:35:36.539Z</time></trkpt><trkpt lat="46.0360411" lon="11.8524395"><ele>773.2857142857143</ele><time>2026-04-15T11:35:40.539Z</time></trkpt><trkpt lat="46.0360678" lon="11.8523451"><ele>777.4285714285714</ele><time>2026-04-15T11:35:45.536Z</time></trkpt><trkpt lat="46.0360028" lon="11.8523519"><ele>781.5714285714287</ele><time>2026-04-15T11:35:52.536Z</time></trkpt><trkpt lat="46.0359374" lon="11.8524072"><ele>785.7142857142857</ele><time>2026-04-15T11:35:57.538Z</time></trkpt><trkpt lat="46.0358777" lon="11.8524538"><ele>789.8571428571429</ele><time>2026-04-15T11:36:01.536Z</time></trkpt><trkpt lat="46.0358185" lon="11.8524982"><ele>794.0</ele><time>2026-04-15T11:36:05.539Z</time></trkpt><trkpt lat="46.0357452" lon="11.8525333"><ele>795.5000000000001</ele><time>2026-04-15T11:36:10.537Z</time></trkpt><trkpt lat="46.0356772" lon="11.8525685"><ele>797.0</ele><time>2026-04-15T11:36:14.539Z</time></trkpt><trkpt lat="46.0356007" lon="11.8525901"><ele>798.5</ele><time>2026-04-15T11:36:18.539Z</time></trkpt><trkpt lat="46.0355303" lon="11.8526043"><ele>800.0</ele><time>2026-04-15T11:36:22.538Z</time></trkpt><trkpt lat="46.0354492" lon="11.8526151"><ele>801.5000000000001</ele><time>2026-04-15T11:36:26.538Z</time></trkpt><trkpt lat="46.0353758" lon="11.852625"><ele>803.0</ele><time>2026-04-15T11:36:30.539Z</time></trkpt><trkpt lat="46.0353021" lon="11.852627"><ele>802.9999999999999</ele><time>2026-04-15T11:36:34.538Z</time></trkpt><trkpt lat="46.0352298" lon="11.8526228"><ele>803.0</ele><time>2026-04-15T11:36:38.539Z</time></trkpt><trkpt lat="46.0351665" lon="11.8526276"><ele>803.0</ele><time>2026-04-15T11:36:41.539Z</time></trkpt><trkpt lat="46.0350909" lon="11.8526207"><ele>803.0</ele><time>2026-04-15T11:36:45.539Z</time></trkpt><trkpt lat="46.0350189" lon="11.8526236"><ele>803.0</ele><time>2026-04-15T11:36:49.538Z</time></trkpt><trkpt lat="46.034945" lon="11.8526596"><ele>802.9999999999999</ele><time>2026-04-15T11:36:53.539Z</time></trkpt><trkpt lat="46.0348723" lon="11.8526179"><ele>803.0</ele><time>2026-04-15T11:36:57.539Z</time></trkpt><trkpt lat="46.0348038" lon="11.8525924"><ele>797.9999999999999</ele><time>2026-04-15T11:37:01.538Z</time></trkpt><trkpt lat="46.0347333" lon="11.8525358"><ele>793.0</ele><time>2026-04-15T11:37:06.538Z</time></trkpt><trkpt lat="46.0346871" lon="11.8524591"><ele>788.0</ele><time>2026-04-15T11:37:09.536Z</time></trkpt><trkpt lat="46.0346387" lon="11.8524008"><ele>783.0</ele><time>2026-04-15T11:37:12.538Z</time></trkpt><trkpt lat="46.0345902" lon="11.8523224"><ele>778.0</ele><time>2026-04-15T11:37:15.538Z</time></trkpt><trkpt lat="46.0345523" lon="11.8522352"><ele>772.9999999999999</ele><time>2026-04-15T11:37:18.537Z</time></trkpt><trkpt lat="46.0345114" lon="11.8521644"><ele>768.0</ele><time>2026-04-15T11:37:21.536Z</time></trkpt><trkpt lat="46.0344718" lon="11.8520682"><ele>768.0</ele><time>2026-04-15T11:37:24.537Z</time></trkpt><trkpt lat="46.0344288" lon="11.8519527"><ele>768.0</ele><time>2026-04-15T11:37:27.534Z</time></trkpt><trkpt lat="46.0344003" lon="11.8518438"><ele>768.0</ele><time>2026-04-15T11:37:30.536Z</time></trkpt><trkpt lat="46.0343573" lon="11.8517267"><ele>768.0</ele><time>2026-04-15T11:37:33.538Z</time></trkpt><trkpt lat="46.0343215" lon="11.8516437"><ele>768.0</ele><time>2026-04-15T11:37:35.539Z</time></trkpt><trkpt lat="46.0342921" lon="11.8515632"><ele>768.0</ele><time>2026-04-15T11:37:37.538Z</time></trkpt><trkpt lat="46.0342623" lon="11.8514594"><ele>768.8333333333334</ele><time>2026-04-15T11:37:40.538Z</time></trkpt><trkpt lat="46.0342087" lon="11.851359"><ele>769.6666666666667</ele><time>2026-04-15T11:37:43.537Z</time></trkpt><trkpt lat="46.0341601" lon="11.8512636"><ele>770.5</ele><time>2026-04-15T11:37:46.537Z</time></trkpt><trkpt lat="46.0341107" lon="11.8511701"><ele>771.3333333333334</ele><time>2026-04-15T11:37:49.535Z</time></trkpt><trkpt lat="46.0340604" lon="11.8510717"><ele>772.1666666666667</ele><time>2026-04-15T11:37:52.536Z</time></trkpt><trkpt lat="46.0340024" lon="11.8509825"><ele>773.0</ele><time>2026-04-15T11:37:55.537Z</time></trkpt><trkpt lat="46.033951" lon="11.8508834"><ele>773.0000000000001</ele><time>2026-04-15T11:37:58.538Z</time></trkpt><trkpt lat="46.033918" lon="11.8507736"><ele>773.0</ele><time>2026-04-15T11:38:01.538Z</time></trkpt><trkpt lat="46.0338749" lon="11.8506691"><ele>773.0</ele><time>2026-04-15T11:38:04.537Z</time></trkpt><trkpt lat="46.0338343" lon="11.8505726"><ele>773.0</ele><time>2026-04-15T11:38:07.539Z</time></trkpt><trkpt lat="46.0337833" lon="11.8505017"><ele>773.0000000000001</ele><time>2026-04-15T11:38:10.537Z</time></trkpt><trkpt lat="46.0337457" lon="11.8504201"><ele>773.0</ele><time>2026-04-15T11:38:13.538Z</time></trkpt><trkpt lat="46.0336962" lon="11.85033"><ele>773.0</ele><time>2026-04-15T11:38:17.536Z</time></trkpt><trkpt lat="46.0336563" lon="11.8502458"><ele>773.0</ele><time>2026-04-15T11:38:20.539Z</time></trkpt><trkpt lat="46.0336117" lon="11.850148"><ele>773.0</ele><time>2026-04-15T11:38:24.539Z</time></trkpt><trkpt lat="46.0335681" lon="11.8500517"><ele>773.0</ele><time>2026-04-15T11:38:28.537Z</time></trkpt><trkpt lat="46.0335211" lon="11.8499727"><ele>773.0</ele><time>2026-04-15T11:38:32.538Z</time></trkpt><trkpt lat="46.0334571" lon="11.849911"><ele>773.0</ele><time>2026-04-15T11:38:36.538Z</time></trkpt><trkpt lat="46.0334106" lon="11.8498446"><ele>773.0</ele><time>2026-04-15T11:38:39.537Z</time></trkpt><trkpt lat="46.0333658" lon="11.8497771"><ele>770.4285714285714</ele><time>2026-04-15T11:38:42.537Z</time></trkpt><trkpt lat="46.0333391" lon="11.8496883"><ele>767.8571428571429</ele><time>2026-04-15T11:38:45.539Z</time></trkpt><trkpt lat="46.0332962" lon="11.8496108"><ele>765.2857142857142</ele><time>2026-04-15T11:38:48.536Z</time></trkpt><trkpt lat="46.0332562" lon="11.84954"><ele>762.7142857142858</ele><time>2026-04-15T11:38:51.538Z</time></trkpt><trkpt lat="46.0332373" lon="11.8494513"><ele>760.1428571428572</ele><time>2026-04-15T11:38:54.539Z</time></trkpt><trkpt lat="46.0332212" lon="11.849361"><ele>757.5714285714286</ele><time>2026-04-15T11:38:57.539Z</time></trkpt><trkpt lat="46.0332079" lon="11.8492591"><ele>755.0</ele><time>2026-04-15T11:39:01.539Z</time></trkpt><trkpt lat="46.0331948" lon="11.8491641"><ele>761.5714285714286</ele><time>2026-04-15T11:39:06.539Z</time></trkpt><trkpt lat="46.0332152" lon="11.8490646"><ele>768.1428571428572</ele><time>2026-04-15T11:39:10.538Z</time></trkpt><trkpt lat="46.0331989" lon="11.8489722"><ele>774.7142857142858</ele><time>2026-04-15T11:39:14.539Z</time></trkpt><trkpt lat="46.0331463" lon="11.8489213"><ele>781.2857142857142</ele><time>2026-04-15T11:39:17.539Z</time></trkpt><trkpt lat="46.0330757" lon="11.8488588"><ele>787.8571428571429</ele><time>2026-04-15T11:39:21.537Z</time></trkpt><trkpt lat="46.0329969" lon="11.8488339"><ele>794.4285714285714</ele><time>2026-04-15T11:39:25.537Z</time></trkpt><trkpt lat="46.0329468" lon="11.8487683"><ele>801.0</ele><time>2026-04-15T11:39:29.539Z</time></trkpt><trkpt lat="46.0329068" lon="11.848694"><ele>801.0</ele><time>2026-04-15T11:39:34.536Z</time></trkpt><trkpt lat="46.0328668" lon="11.8486235"><ele>801.0</ele><time>2026-04-15T11:39:38.539Z</time></trkpt><trkpt lat="46.0328851" lon="11.8487118"><ele>801.0</ele><time>2026-04-15T11:40:36.536Z</time></trkpt><trkpt lat="46.0329157" lon="11.8487966"><ele>801.0</ele><time>2026-04-15T11:40:40.534Z</time></trkpt><trkpt lat="46.0329737" lon="11.8488633"><ele>801.0</ele><time>2026-04-15T11:40:52.534Z</time></trkpt><trkpt lat="46.0330385" lon="11.8488952"><ele>801.0</ele><time>2026-04-15T11:40:56.536Z</time></trkpt><trkpt lat="46.0331012" lon="11.8489249"><ele>801.0</ele><time>2026-04-15T11:41:00.536Z</time></trkpt><trkpt lat="46.0331575" lon="11.848974"><ele>801.0</ele><time>2026-04-15T11:41:04.536Z</time></trkpt><trkpt lat="46.0331324" lon="11.8490775"><ele>801.0</ele><time>2026-04-15T11:41:09.536Z</time></trkpt><trkpt lat="46.0331146" lon="11.849184"><ele>801.0</ele><time>2026-04-15T11:41:13.537Z</time></trkpt><trkpt lat="46.0331405" lon="11.8493043"><ele>801.0</ele><time>2026-04-15T11:41:16.534Z</time></trkpt><trkpt lat="46.0331613" lon="11.8494222"><ele>801.0</ele><time>2026-04-15T11:41:19.536Z</time></trkpt><trkpt lat="46.0332036" lon="11.8495344"><ele>801.0</ele><time>2026-04-15T11:41:21.535Z</time></trkpt><trkpt lat="46.033252" lon="11.8496164"><ele>799.8333333333334</ele><time>2026-04-15T11:41:23.535Z</time></trkpt><trkpt lat="46.0333026" lon="11.8496976"><ele>798.6666666666667</ele><time>2026-04-15T11:41:25.535Z</time></trkpt><trkpt lat="46.0333448" lon="11.8497703"><ele>797.5</ele><time>2026-04-15T11:41:27.535Z</time></trkpt><trkpt lat="46.0333932" lon="11.8498485"><ele>796.3333333333334</ele><time>2026-04-15T11:41:30.535Z</time></trkpt><trkpt lat="46.0334466" lon="11.8499387"><ele>795.1666666666667</ele><time>2026-04-15T11:41:33.534Z</time></trkpt><trkpt lat="46.0334933" lon="11.8500311"><ele>794.0</ele><time>2026-04-15T11:41:36.534Z</time></trkpt><trkpt lat="46.0335323" lon="11.8501212"><ele>790.5000000000001</ele><time>2026-04-15T11:41:39.533Z</time></trkpt><trkpt lat="46.0335792" lon="11.8502303"><ele>787.0</ele><time>2026-04-15T11:41:42.535Z</time></trkpt><trkpt lat="46.0336364" lon="11.8503028"><ele>783.5</ele><time>2026-04-15T11:41:44.534Z</time></trkpt><trkpt lat="46.0336878" lon="11.8503805"><ele>780.0</ele><time>2026-04-15T11:41:46.534Z</time></trkpt><trkpt lat="46.0337477" lon="11.8504888"><ele>776.5000000000001</ele><time>2026-04-15T11:41:48.535Z</time></trkpt><trkpt lat="46.0337996" lon="11.8505833"><ele>773.0</ele><time>2026-04-15T11:41:50.534Z</time></trkpt><trkpt lat="46.0338461" lon="11.8506705"><ele>773.0000000000001</ele><time>2026-04-15T11:41:52.536Z</time></trkpt><trkpt lat="46.0338949" lon="11.8507677"><ele>773.0</ele><time>2026-04-15T11:41:55.535Z</time></trkpt><trkpt lat="46.0339356" lon="11.8508567"><ele>773.0</ele><time>2026-04-15T11:41:58.535Z</time></trkpt><trkpt lat="46.0339726" lon="11.8509472"><ele>773.0</ele><time>2026-04-15T11:42:01.536Z</time></trkpt><trkpt lat="46.034026" lon="11.8510396"><ele>773.0000000000001</ele><time>2026-04-15T11:42:04.536Z</time></trkpt><trkpt lat="46.0340643" lon="11.8511128"><ele>773.0</ele><time>2026-04-15T11:42:06.639Z</time></trkpt><trkpt lat="46.0341167" lon="11.8512163"><ele>776.3333333333334</ele><time>2026-04-15T11:42:09.539Z</time></trkpt><trkpt lat="46.0341753" lon="11.8513221"><ele>779.6666666666667</ele><time>2026-04-15T11:42:12.536Z</time></trkpt><trkpt lat="46.0342328" lon="11.8514291"><ele>783.0</ele><time>2026-04-15T11:42:15.537Z</time></trkpt><trkpt lat="46.0342696" lon="11.8515042"><ele>786.3333333333333</ele><time>2026-04-15T11:42:17.536Z</time></trkpt><trkpt lat="46.0343017" lon="11.8515858"><ele>789.6666666666666</ele><time>2026-04-15T11:42:19.539Z</time></trkpt><trkpt lat="46.0343325" lon="11.8516803"><ele>793.0</ele><time>2026-04-15T11:42:22.538Z</time></trkpt><trkpt lat="46.034381" lon="11.8517874"><ele>788.8333333333333</ele><time>2026-04-15T11:42:26.539Z</time></trkpt><trkpt lat="46.0344126" lon="11.8518868"><ele>784.6666666666666</ele><time>2026-04-15T11:42:29.538Z</time></trkpt><trkpt lat="46.0344617" lon="11.8520002"><ele>780.5</ele><time>2026-04-15T11:42:32.539Z</time></trkpt><trkpt lat="46.0345041" lon="11.8521045"><ele>776.3333333333333</ele><time>2026-04-15T11:42:35.539Z</time></trkpt><trkpt lat="46.034548" lon="11.8521998"><ele>772.1666666666666</ele><time>2026-04-15T11:42:38.537Z</time></trkpt><trkpt lat="46.0345985" lon="11.8522767"><ele>768.0</ele><time>2026-04-15T11:42:41.539Z</time></trkpt><trkpt lat="46.0346392" lon="11.8523768"><ele>767.9999999999999</ele><time>2026-04-15T11:42:44.538Z</time></trkpt><trkpt lat="46.0346907" lon="11.8524626"><ele>768.0</ele><time>2026-04-15T11:42:47.539Z</time></trkpt><trkpt lat="46.0347378" lon="11.8525291"><ele>768.0</ele><time>2026-04-15T11:42:50.538Z</time></trkpt><trkpt lat="46.034791" lon="11.8525824"><ele>768.0</ele><time>2026-04-15T11:42:53.537Z</time></trkpt><trkpt lat="46.034854" lon="11.8525888"><ele>768.0</ele><time>2026-04-15T11:42:56.539Z</time></trkpt><trkpt lat="46.0349202" lon="11.8525822"><ele>767.9999999999999</ele><time>2026-04-15T11:42:59.538Z</time></trkpt><trkpt lat="46.0349863" lon="11.8525434"><ele>768.0</ele><time>2026-04-15T11:43:02.539Z</time></trkpt><trkpt lat="46.035062" lon="11.8524914"><ele>773.8333333333334</ele><time>2026-04-15T11:43:06.537Z</time></trkpt><trkpt lat="46.0351394" lon="11.8524423"><ele>779.6666666666667</ele><time>2026-04-15T11:43:10.538Z</time></trkpt><trkpt lat="46.0352054" lon="11.8523999"><ele>785.5</ele><time>2026-04-15T11:43:13.539Z</time></trkpt><trkpt lat="46.0352696" lon="11.8523285"><ele>791.3333333333334</ele><time>2026-04-15T11:43:17.539Z</time></trkpt><trkpt lat="46.0353336" lon="11.8522644"><ele>797.1666666666667</ele><time>2026-04-15T11:43:21.537Z</time></trkpt><trkpt lat="46.0354022" lon="11.8522107"><ele>803.0</ele><time>2026-04-15T11:43:24.537Z</time></trkpt><trkpt lat="46.0354762" lon="11.8521533"><ele>803.0000000000001</ele><time>2026-04-15T11:43:27.539Z</time></trkpt><trkpt lat="46.03554" lon="11.85211"><ele>803.0</ele><time>2026-04-15T11:43:30.536Z</time></trkpt><trkpt lat="46.0356019" lon="11.8520422"><ele>803.0</ele><time>2026-04-15T11:43:33.538Z</time></trkpt><trkpt lat="46.0356686" lon="11.8520063"><ele>803.0</ele><time>2026-04-15T11:43:36.537Z</time></trkpt><trkpt lat="46.035747" lon="11.8519338"><ele>803.0000000000001</ele><time>2026-04-15T11:43:39.537Z</time></trkpt><trkpt lat="46.0358166" lon="11.8518501"><ele>803.0</ele><time>2026-04-15T11:43:42.537Z</time></trkpt><trkpt lat="46.03588" lon="11.8517622"><ele>806.1666666666667</ele><time>2026-04-15T11:43:45.536Z</time></trkpt><trkpt lat="46.0359479" lon="11.8516726"><ele>809.3333333333334</ele><time>2026-04-15T11:43:48.537Z</time></trkpt><trkpt lat="46.0360166" lon="11.851592"><ele>812.5</ele><time>2026-04-15T11:43:51.539Z</time></trkpt><trkpt lat="46.0360722" lon="11.8515227"><ele>815.6666666666667</ele><time>2026-04-15T11:43:53.537Z</time></trkpt><trkpt lat="46.0361316" lon="11.8514455"><ele>818.8333333333334</ele><time>2026-04-15T11:43:55.539Z</time></trkpt><trkpt lat="46.0361934" lon="11.8513669"><ele>822.0</ele><time>2026-04-15T11:43:57.535Z</time></trkpt><trkpt lat="46.0362527" lon="11.8512867"><ele>822.0</ele><time>2026-04-15T11:43:59.539Z</time></trkpt><trkpt lat="46.0363126" lon="11.8512087"><ele>822.0</ele><time>2026-04-15T11:44:01.538Z</time></trkpt><trkpt lat="46.0363723" lon="11.8511544"><ele>822.0</ele><time>2026-04-15T11:44:03.538Z</time></trkpt><trkpt lat="46.0364319" lon="11.8510656"><ele>822.0</ele><time>2026-04-15T11:44:06.539Z</time></trkpt><trkpt lat="46.0364731" lon="11.8509922"><ele>822.0</ele><time>2026-04-15T11:44:09.537Z</time></trkpt><trkpt lat="46.0365499" lon="11.8509236"><ele>822.0</ele><time>2026-04-15T11:44:12.539Z</time></trkpt><trkpt lat="46.0366276" lon="11.8508718"><ele>820.8333333333334</ele><time>2026-04-15T11:44:15.538Z</time></trkpt><trkpt lat="46.0366924" lon="11.8507905"><ele>819.6666666666667</ele><time>2026-04-15T11:44:18.537Z</time></trkpt><trkpt lat="46.0367289" lon="11.850688"><ele>818.5</ele><time>2026-04-15T11:44:21.536Z</time></trkpt><trkpt lat="46.0367827" lon="11.8505735"><ele>817.3333333333334</ele><time>2026-04-15T11:44:24.538Z</time></trkpt><trkpt lat="46.0368295" lon="11.850495"><ele>816.1666666666667</ele><time>2026-04-15T11:44:26.538Z</time></trkpt><trkpt lat="46.0368771" lon="11.8504088"><ele>815.0</ele><time>2026-04-15T11:44:28.537Z</time></trkpt><trkpt lat="46.036913" lon="11.8502926"><ele>815.0000000000001</ele><time>2026-04-15T11:44:31.539Z</time></trkpt><trkpt lat="46.0369107" lon="11.850186"><ele>815.0</ele><time>2026-04-15T11:44:34.536Z</time></trkpt><trkpt lat="46.0369198" lon="11.8500802"><ele>815.0</ele><time>2026-04-15T11:44:37.537Z</time></trkpt><trkpt lat="46.0369054" lon="11.8499576"><ele>815.0</ele><time>2026-04-15T11:44:40.537Z</time></trkpt><trkpt lat="46.03691" lon="11.8498667"><ele>815.0000000000001</ele><time>2026-04-15T11:44:42.538Z</time></trkpt><trkpt lat="46.0369908" lon="11.8498466"><ele>815.0</ele><time>2026-04-15T11:44:50.537Z</time></trkpt><trkpt lat="46.0370621" lon="11.8498656"><ele>814.7142857142857</ele><time>2026-04-15T11:44:53.539Z</time></trkpt><trkpt lat="46.037129" lon="11.8499021"><ele>814.4285714285713</ele><time>2026-04-15T11:44:56.539Z</time></trkpt><trkpt lat="46.037208" lon="11.8499237"><ele>814.1428571428571</ele><time>2026-04-15T11:44:59.538Z</time></trkpt><trkpt lat="46.0372964" lon="11.8499294"><ele>813.8571428571429</ele><time>2026-04-15T11:45:02.537Z</time></trkpt><trkpt lat="46.0373597" lon="11.8499238"><ele>813.5714285714286</ele><time>2026-04-15T11:45:04.536Z</time></trkpt><trkpt lat="46.037429" lon="11.8499141"><ele>813.2857142857143</ele><time>2026-04-15T11:45:06.533Z</time></trkpt><trkpt lat="46.0375" lon="11.8499209"><ele>813.0</ele><time>2026-04-15T11:45:08.537Z</time></trkpt><trkpt lat="46.0375765" lon="11.8499199"><ele>813.0</ele><time>2026-04-15T11:45:10.538Z</time></trkpt><trkpt lat="46.0376495" lon="11.8499206"><ele>813.0</ele><time>2026-04-15T11:45:12.537Z</time></trkpt><trkpt lat="46.0377301" lon="11.8499128"><ele>813.0</ele><time>2026-04-15T11:45:14.538Z</time></trkpt><trkpt lat="46.0377943" lon="11.849891"><ele>813.0</ele><time>2026-04-15T11:45:16.536Z</time></trkpt><trkpt lat="46.0378795" lon="11.8498785"><ele>813.0</ele><time>2026-04-15T11:45:19.536Z</time></trkpt><trkpt lat="46.0379608" lon="11.8499045"><ele>813.0</ele><time>2026-04-15T11:45:22.539Z</time></trkpt><trkpt lat="46.0380552" lon="11.8498986"><ele>813.0</ele><time>2026-04-15T11:45:25.538Z</time></trkpt><trkpt lat="46.0381209" lon="11.8498842"><ele>813.0</ele><time>2026-04-15T11:45:27.537Z</time></trkpt><trkpt lat="46.0381832" lon="11.8498677"><ele>813.0</ele><time>2026-04-15T11:45:29.538Z</time></trkpt><trkpt lat="46.0382706" lon="11.849834"><ele>813.0</ele><time>2026-04-15T11:45:32.538Z</time></trkpt><trkpt lat="46.0383306" lon="11.8498049"><ele>813.0</ele><time>2026-04-15T11:45:34.537Z</time></trkpt><trkpt lat="46.0384173" lon="11.849762"><ele>813.0</ele><time>2026-04-15T11:45:37.536Z</time></trkpt><trkpt lat="46.0384999" lon="11.8497067"><ele>811.6666666666666</ele><time>2026-04-15T11:45:40.537Z</time></trkpt><trkpt lat="46.0385891" lon="11.8496833"><ele>810.3333333333333</ele><time>2026-04-15T11:45:43.539Z</time></trkpt><trkpt lat="46.038659" lon="11.8496768"><ele>809.0</ele><time>2026-04-15T11:45:45.539Z</time></trkpt><trkpt lat="46.0387357" lon="11.8496991"><ele>807.6666666666666</ele><time>2026-04-15T11:45:48.539Z</time></trkpt><trkpt lat="46.0388053" lon="11.8497409"><ele>806.3333333333333</ele><time>2026-04-15T11:45:51.539Z</time></trkpt><trkpt lat="46.038879" lon="11.8497871"><ele>805.0</ele><time>2026-04-15T11:45:54.538Z</time></trkpt><trkpt lat="46.0389472" lon="11.8498509"><ele>804.9999999999999</ele><time>2026-04-15T11:45:57.539Z</time></trkpt><trkpt lat="46.0390061" lon="11.8499326"><ele>805.0</ele><time>2026-04-15T11:46:00.539Z</time></trkpt><trkpt lat="46.0390606" lon="11.8500111"><ele>805.0</ele><time>2026-04-15T11:46:03.537Z</time></trkpt><trkpt lat="46.0391072" lon="11.8500935"><ele>805.0</ele><time>2026-04-15T11:46:06.538Z</time></trkpt><trkpt lat="46.0391565" lon="11.8501946"><ele>804.9999999999999</ele><time>2026-04-15T11:46:09.537Z</time></trkpt><trkpt lat="46.0392033" lon="11.8502825"><ele>805.0</ele><time>2026-04-15T11:46:12.537Z</time></trkpt><trkpt lat="46.0392316" lon="11.8503768"><ele>805.0</ele><time>2026-04-15T11:46:15.539Z</time></trkpt><trkpt lat="46.0392305" lon="11.850472"><ele>805.0</ele><time>2026-04-15T11:46:18.538Z</time></trkpt><trkpt lat="46.0392078" lon="11.8505613"><ele>805.0</ele><time>2026-04-15T11:46:21.537Z</time></trkpt><trkpt lat="46.0391792" lon="11.8506483"><ele>805.0</ele><time>2026-04-15T11:46:24.539Z</time></trkpt><trkpt lat="46.0391588" lon="11.8507445"><ele>805.0</ele><time>2026-04-15T11:46:27.537Z</time></trkpt><trkpt lat="46.0391392" lon="11.8508331"><ele>805.0</ele><time>2026-04-15T11:46:30.538Z</time></trkpt><trkpt lat="46.0391425" lon="11.8509304"><ele>805.0</ele><time>2026-04-15T11:46:33.539Z</time></trkpt><trkpt lat="46.0391637" lon="11.851025"><ele>804.9999999999999</ele><time>2026-04-15T11:46:36.539Z</time></trkpt><trkpt lat="46.0392122" lon="11.8511233"><ele>805.0</ele><time>2026-04-15T11:46:39.538Z</time></trkpt><trkpt lat="46.0392572" lon="11.8511915"><ele>805.0</ele><time>2026-04-15T11:46:41.538Z</time></trkpt><trkpt lat="46.0393199" lon="11.8512835"><ele>805.0</ele><time>2026-04-15T11:46:44.538Z</time></trkpt><trkpt lat="46.0393712" lon="11.8513701"><ele>804.9999999999999</ele><time>2026-04-15T11:46:47.539Z</time></trkpt><trkpt lat="46.0394143" lon="11.8514537"><ele>805.0</ele><time>2026-04-15T11:46:50.536Z</time></trkpt><trkpt lat="46.039452" lon="11.8515297"><ele>804.9999999999999</ele><time>2026-04-15T11:46:53.538Z</time></trkpt><trkpt lat="46.0395023" lon="11.8516049"><ele>805.0</ele><time>2026-04-15T11:46:56.538Z</time></trkpt><trkpt lat="46.0395472" lon="11.8517018"><ele>805.0</ele><time>2026-04-15T11:46:59.538Z</time></trkpt><trkpt lat="46.0395634" lon="11.8517967"><ele>805.0</ele><time>2026-04-15T11:47:02.539Z</time></trkpt><trkpt lat="46.0395711" lon="11.8519114"><ele>804.9999999999999</ele><time>2026-04-15T11:47:06.539Z</time></trkpt><trkpt lat="46.0395707" lon="11.8520345"><ele>805.0</ele><time>2026-04-15T11:47:10.538Z</time></trkpt><trkpt lat="46.0395751" lon="11.8521466"><ele>804.8333333333333</ele><time>2026-04-15T11:47:14.538Z</time></trkpt><trkpt lat="46.0395855" lon="11.8523276"><ele>804.6666666666666</ele><time>2026-04-15T11:47:52.536Z</time></trkpt><trkpt lat="46.0396151" lon="11.8524401"><ele>804.5</ele><time>2026-04-15T11:47:56.539Z</time></trkpt><trkpt lat="46.0396217" lon="11.8525568"><ele>804.3333333333333</ele><time>2026-04-15T11:47:59.538Z</time></trkpt><trkpt lat="46.0396321" lon="11.8526594"><ele>804.1666666666666</ele><time>2026-04-15T11:48:02.538Z</time></trkpt><trkpt lat="46.0396638" lon="11.8527681"><ele>804.0</ele><time>2026-04-15T11:48:06.538Z</time></trkpt><trkpt lat="46.0396908" lon="11.8528526"><ele>803.4285714285714</ele><time>2026-04-15T11:48:09.537Z</time></trkpt><trkpt lat="46.039712" lon="11.8529664"><ele>802.8571428571429</ele><time>2026-04-15T11:48:13.539Z</time></trkpt><trkpt lat="46.0397202" lon="11.8530728"><ele>802.2857142857143</ele><time>2026-04-15T11:48:17.539Z</time></trkpt><trkpt lat="46.0397363" lon="11.8531695"><ele>801.7142857142858</ele><time>2026-04-15T11:48:21.54Z</time></trkpt><trkpt lat="46.0397462" lon="11.8532657"><ele>801.1428571428571</ele><time>2026-04-15T11:48:25.539Z</time></trkpt><trkpt lat="46.0397663" lon="11.8533763"><ele>800.5714285714287</ele><time>2026-04-15T11:48:29.539Z</time></trkpt><trkpt lat="46.0397845" lon="11.853467"><ele>800.0</ele><time>2026-04-15T11:48:32.539Z</time></trkpt><trkpt lat="46.0398104" lon="11.8535518"><ele>799.7142857142858</ele><time>2026-04-15T11:48:35.539Z</time></trkpt><trkpt lat="46.0398432" lon="11.8536564"><ele>799.4285714285714</ele><time>2026-04-15T11:48:39.538Z</time></trkpt><trkpt lat="46.039854" lon="11.853759"><ele>799.1428571428571</ele><time>2026-04-15T11:48:43.536Z</time></trkpt><trkpt lat="46.0398655" lon="11.8538488"><ele>798.8571428571429</ele><time>2026-04-15T11:48:47.538Z</time></trkpt><trkpt lat="46.0398765" lon="11.8539481"><ele>798.5714285714286</ele><time>2026-04-15T11:48:51.539Z</time></trkpt><trkpt lat="46.0398936" lon="11.8540592"><ele>798.2857142857143</ele><time>2026-04-15T11:48:55.537Z</time></trkpt><trkpt lat="46.0399259" lon="11.8541653"><ele>798.0</ele><time>2026-04-15T11:48:59.539Z</time></trkpt><trkpt lat="46.039955" lon="11.8542631"><ele>805.7142857142857</ele><time>2026-04-15T11:49:03.538Z</time></trkpt><trkpt lat="46.0399764" lon="11.8543536"><ele>813.4285714285714</ele><time>2026-04-15T11:49:06.538Z</time></trkpt><trkpt lat="46.0399767" lon="11.8544687"><ele>821.1428571428571</ele><time>2026-04-15T11:49:10.536Z</time></trkpt><trkpt lat="46.0399807" lon="11.8545709"><ele>828.8571428571429</ele><time>2026-04-15T11:49:14.536Z</time></trkpt><trkpt lat="46.0400018" lon="11.8544816"><ele>836.5714285714286</ele><time>2026-04-15T11:49:21.539Z</time></trkpt><trkpt lat="46.0400155" lon="11.854382"><ele>844.2857142857142</ele><time>2026-04-15T11:49:24.539Z</time></trkpt><trkpt lat="46.0400311" lon="11.8542758"><ele>852.0</ele><time>2026-04-15T11:49:27.539Z</time></trkpt><trkpt lat="46.040048" lon="11.8541663"><ele>852.8333333333334</ele><time>2026-04-15T11:49:30.539Z</time></trkpt><trkpt lat="46.0400565" lon="11.8540756"><ele>853.6666666666667</ele><time>2026-04-15T11:49:32.538Z</time></trkpt><trkpt lat="46.0400676" lon="11.8539852"><ele>854.5</ele><time>2026-04-15T11:49:34.537Z</time></trkpt><trkpt lat="46.0400749" lon="11.8538607"><ele>855.3333333333334</ele><time>2026-04-15T11:49:37.537Z</time></trkpt><trkpt lat="46.0401047" lon="11.8537389"><ele>856.1666666666667</ele><time>2026-04-15T11:49:40.538Z</time></trkpt><trkpt lat="46.0401294" lon="11.8536092"><ele>857.0</ele><time>2026-04-15T11:49:43.539Z</time></trkpt><trkpt lat="46.0401452" lon="11.8534875"><ele>856.8333333333334</ele><time>2026-04-15T11:49:46.537Z</time></trkpt><trkpt lat="46.0401626" lon="11.8533755"><ele>856.6666666666667</ele><time>2026-04-15T11:49:49.538Z</time></trkpt><trkpt lat="46.0401657" lon="11.8532488"><ele>856.5</ele><time>2026-04-15T11:49:52.537Z</time></trkpt><trkpt lat="46.0401786" lon="11.8531543"><ele>856.3333333333333</ele><time>2026-04-15T11:49:56.537Z</time></trkpt><trkpt lat="46.0401884" lon="11.8530546"><ele>856.1666666666666</ele><time>2026-04-15T11:50:10.539Z</time></trkpt><trkpt lat="46.0402143" lon="11.8529367"><ele>856.0</ele><time>2026-04-15T11:50:14.539Z</time></trkpt><trkpt lat="46.0402284" lon="11.8528327"><ele>855.9999999999999</ele><time>2026-04-15T11:50:17.535Z</time></trkpt><trkpt lat="46.0402452" lon="11.8527276"><ele>856.0</ele><time>2026-04-15T11:50:20.539Z</time></trkpt><trkpt lat="46.0402602" lon="11.8526222"><ele>856.0</ele><time>2026-04-15T11:50:23.537Z</time></trkpt><trkpt lat="46.0402805" lon="11.8525018"><ele>856.0</ele><time>2026-04-15T11:50:26.539Z</time></trkpt><trkpt lat="46.040306" lon="11.8523833"><ele>855.9999999999999</ele><time>2026-04-15T11:50:29.538Z</time></trkpt><trkpt lat="46.0403345" lon="11.8522746"><ele>856.0</ele><time>2026-04-15T11:50:32.538Z</time></trkpt><trkpt lat="46.0403629" lon="11.8521665"><ele>855.9999999999999</ele><time>2026-04-15T11:50:35.539Z</time></trkpt><trkpt lat="46.0403886" lon="11.8520565"><ele>856.0</ele><time>2026-04-15T11:50:38.537Z</time></trkpt><trkpt lat="46.040405" lon="11.8519381"><ele>856.0</ele><time>2026-04-15T11:50:41.538Z</time></trkpt><trkpt lat="46.0404132" lon="11.8518185"><ele>856.0</ele><time>2026-04-15T11:50:44.538Z</time></trkpt><trkpt lat="46.0404114" lon="11.8517014"><ele>855.9999999999999</ele><time>2026-04-15T11:50:47.538Z</time></trkpt><trkpt lat="46.0404046" lon="11.8515983"><ele>856.0</ele><time>2026-04-15T11:50:50.539Z</time></trkpt><trkpt lat="46.0404204" lon="11.8514846"><ele>855.1999999999999</ele><time>2026-04-15T11:50:53.539Z</time></trkpt><trkpt lat="46.0404411" lon="11.8513708"><ele>854.3999999999999</ele><time>2026-04-15T11:50:56.539Z</time></trkpt><trkpt lat="46.0404832" lon="11.851246"><ele>853.6</ele><time>2026-04-15T11:50:59.538Z</time></trkpt><trkpt lat="46.0405369" lon="11.851129"><ele>852.8</ele><time>2026-04-15T11:51:02.538Z</time></trkpt><trkpt lat="46.040588" lon="11.8510245"><ele>852.0</ele><time>2026-04-15T11:51:05.539Z</time></trkpt><trkpt lat="46.0406235" lon="11.850901"><ele>851.8571428571428</ele><time>2026-04-15T11:51:08.539Z</time></trkpt><trkpt lat="46.0406464" lon="11.8507648"><ele>851.7142857142857</ele><time>2026-04-15T11:51:11.534Z</time></trkpt><trkpt lat="46.0406672" lon="11.8506416"><ele>851.5714285714286</ele><time>2026-04-15T11:51:14.535Z</time></trkpt><trkpt lat="46.040675" lon="11.8505495"><ele>851.4285714285713</ele><time>2026-04-15T11:51:16.535Z</time></trkpt><trkpt lat="46.0406851" lon="11.8504565"><ele>851.2857142857143</ele><time>2026-04-15T11:51:18.535Z</time></trkpt><trkpt lat="46.0406973" lon="11.8503655"><ele>851.1428571428571</ele><time>2026-04-15T11:51:20.534Z</time></trkpt><trkpt lat="46.0407087" lon="11.850276"><ele>851.0</ele><time>2026-04-15T11:51:22.536Z</time></trkpt><trkpt lat="46.0407173" lon="11.8501793"><ele>851.3333333333334</ele><time>2026-04-15T11:51:24.535Z</time></trkpt><trkpt lat="46.0407224" lon="11.8500878"><ele>851.6666666666667</ele><time>2026-04-15T11:51:26.536Z</time></trkpt><trkpt lat="46.040739" lon="11.8499608"><ele>852.0</ele><time>2026-04-15T11:51:29.536Z</time></trkpt><trkpt lat="46.0407574" lon="11.849836"><ele>852.3333333333333</ele><time>2026-04-15T11:51:32.535Z</time></trkpt><trkpt lat="46.0407761" lon="11.8497038"><ele>852.6666666666666</ele><time>2026-04-15T11:51:35.536Z</time></trkpt><trkpt lat="46.0407809" lon="11.8496129"><ele>853.0</ele><time>2026-04-15T11:51:37.536Z</time></trkpt><trkpt lat="46.0407909" lon="11.849522"><ele>860.1666666666666</ele><time>2026-04-15T11:51:39.537Z</time></trkpt><trkpt lat="46.0408012" lon="11.8493909"><ele>867.3333333333333</ele><time>2026-04-15T11:51:42.537Z</time></trkpt><trkpt lat="46.0408126" lon="11.8492646"><ele>874.5</ele><time>2026-04-15T11:51:45.536Z</time></trkpt><trkpt lat="46.0408324" lon="11.8491434"><ele>881.6666666666667</ele><time>2026-04-15T11:51:48.535Z</time></trkpt><trkpt lat="46.0408598" lon="11.8490181"><ele>888.8333333333334</ele><time>2026-04-15T11:51:51.535Z</time></trkpt><trkpt lat="46.0408814" lon="11.8488924"><ele>896.0</ele><time>2026-04-15T11:51:54.535Z</time></trkpt><trkpt lat="46.0408994" lon="11.848805"><ele>896.0000000000001</ele><time>2026-04-15T11:51:56.536Z</time></trkpt><trkpt lat="46.040925" lon="11.8486777"><ele>896.0</ele><time>2026-04-15T11:51:59.536Z</time></trkpt><trkpt lat="46.0409498" lon="11.8485514"><ele>896.0</ele><time>2026-04-15T11:52:02.535Z</time></trkpt><trkpt lat="46.0409641" lon="11.8484579"><ele>896.0</ele><time>2026-04-15T11:52:04.535Z</time></trkpt><trkpt lat="46.0409882" lon="11.8483324"><ele>896.0000000000001</ele><time>2026-04-15T11:52:07.536Z</time></trkpt><trkpt lat="46.0410239" lon="11.8482161"><ele>896.0</ele><time>2026-04-15T11:52:10.535Z</time></trkpt><trkpt lat="46.0410408" lon="11.848127"><ele>896.0000000000001</ele><time>2026-04-15T11:52:12.535Z</time></trkpt><trkpt lat="46.0410552" lon="11.848034"><ele>896.0</ele><time>2026-04-15T11:52:14.535Z</time></trkpt><trkpt lat="46.0410603" lon="11.8479371"><ele>896.0</ele><time>2026-04-15T11:52:16.535Z</time></trkpt><trkpt lat="46.0410684" lon="11.8478393"><ele>896.0</ele><time>2026-04-15T11:52:18.534Z</time></trkpt><trkpt lat="46.0410805" lon="11.8477111"><ele>896.0000000000001</ele><time>2026-04-15T11:52:21.534Z</time></trkpt><trkpt lat="46.0410824" lon="11.8475773"><ele>896.0</ele><time>2026-04-15T11:52:24.535Z</time></trkpt><trkpt lat="46.041084" lon="11.8474549"><ele>896.0000000000001</ele><time>2026-04-15T11:52:27.537Z</time></trkpt><trkpt lat="46.0410805" lon="11.8473307"><ele>896.0</ele><time>2026-04-15T11:52:30.536Z</time></trkpt><trkpt lat="46.0411141" lon="11.8472354"><ele>896.0</ele><time>2026-04-15T11:52:33.536Z</time></trkpt><trkpt lat="46.0411675" lon="11.8473053"><ele>896.0</ele><time>2026-04-15T11:52:36.535Z</time></trkpt><trkpt lat="46.0411655" lon="11.8474282"><ele>896.0000000000001</ele><time>2026-04-15T11:52:39.534Z</time></trkpt><trkpt lat="46.0411607" lon="11.8475402"><ele>896.0</ele><time>2026-04-15T11:52:42.535Z</time></trkpt><trkpt lat="46.041155" lon="11.8476559"><ele>896.0000000000001</ele><time>2026-04-15T11:52:45.535Z</time></trkpt><trkpt lat="46.0411582" lon="11.8477701"><ele>896.0</ele><time>2026-04-15T11:52:48.536Z</time></trkpt><trkpt lat="46.041159" lon="11.8478943"><ele>896.0</ele><time>2026-04-15T11:52:51.535Z</time></trkpt><trkpt lat="46.0411581" lon="11.8480142"><ele>896.0</ele><time>2026-04-15T11:52:54.535Z</time></trkpt><trkpt lat="46.041157" lon="11.848142"><ele>896.0000000000001</ele><time>2026-04-15T11:52:57.535Z</time></trkpt><trkpt lat="46.0411585" lon="11.8482631"><ele>896.0</ele><time>2026-04-15T11:53:00.535Z</time></trkpt><trkpt lat="46.0411612" lon="11.8483856"><ele>896.0000000000001</ele><time>2026-04-15T11:53:03.535Z</time></trkpt><trkpt lat="46.0411613" lon="11.8485093"><ele>896.0</ele><time>2026-04-15T11:53:06.535Z</time></trkpt><trkpt lat="46.041156" lon="11.8486379"><ele>896.0</ele><time>2026-04-15T11:53:09.535Z</time></trkpt><trkpt lat="46.0411647" lon="11.8487722"><ele>896.0</ele><time>2026-04-15T11:53:12.535Z</time></trkpt><trkpt lat="46.041171" lon="11.8488661"><ele>896.0000000000001</ele><time>2026-04-15T11:53:14.535Z</time></trkpt><trkpt lat="46.0411802" lon="11.8489912"><ele>896.0</ele><time>2026-04-15T11:53:17.534Z</time></trkpt><trkpt lat="46.0411966" lon="11.8490987"><ele>896.0000000000001</ele><time>2026-04-15T11:53:20.535Z</time></trkpt><trkpt lat="46.0412063" lon="11.8491971"><ele>896.0</ele><time>2026-04-15T11:53:23.534Z</time></trkpt><trkpt lat="46.0412169" lon="11.8493169"><ele>896.0</ele><time>2026-04-15T11:53:26.536Z</time></trkpt><trkpt lat="46.0412303" lon="11.8494392"><ele>896.0</ele><time>2026-04-15T11:53:29.535Z</time></trkpt><trkpt lat="46.0412453" lon="11.84956"><ele>896.0000000000001</ele><time>2026-04-15T11:53:32.537Z</time></trkpt><trkpt lat="46.0412565" lon="11.8496832"><ele>896.0</ele><time>2026-04-15T11:53:35.537Z</time></trkpt><trkpt lat="46.0412677" lon="11.8498133"><ele>896.0000000000001</ele><time>2026-04-15T11:53:38.538Z</time></trkpt><trkpt lat="46.0412813" lon="11.8499368"><ele>896.0</ele><time>2026-04-15T11:53:41.537Z</time></trkpt><trkpt lat="46.0412877" lon="11.8500417"><ele>896.0</ele><time>2026-04-15T11:53:44.538Z</time></trkpt><trkpt lat="46.0412972" lon="11.8501582"><ele>896.0</ele><time>2026-04-15T11:53:48.535Z</time></trkpt><trkpt lat="46.0413134" lon="11.8502643"><ele>896.0000000000001</ele><time>2026-04-15T11:53:52.535Z</time></trkpt><trkpt lat="46.0413251" lon="11.8503559"><ele>896.0</ele><time>2026-04-15T11:53:55.535Z</time></trkpt><trkpt lat="46.0413339" lon="11.8504545"><ele>896.3333333333334</ele><time>2026-04-15T11:53:58.538Z</time></trkpt><trkpt lat="46.0413373" lon="11.8505603"><ele>896.6666666666667</ele><time>2026-04-15T11:54:01.536Z</time></trkpt><trkpt lat="46.0413386" lon="11.8506691"><ele>897.0</ele><time>2026-04-15T11:54:04.536Z</time></trkpt><trkpt lat="46.0413468" lon="11.8507806"><ele>897.3333333333333</ele><time>2026-04-15T11:54:07.537Z</time></trkpt><trkpt lat="46.0413603" lon="11.8508902"><ele>897.6666666666666</ele><time>2026-04-15T11:54:10.537Z</time></trkpt><trkpt lat="46.0413658" lon="11.8510107"><ele>898.0</ele><time>2026-04-15T11:54:13.537Z</time></trkpt><trkpt lat="46.0413629" lon="11.8511322"><ele>898.8333333333333</ele><time>2026-04-15T11:54:16.537Z</time></trkpt><trkpt lat="46.0413755" lon="11.8512463"><ele>899.6666666666666</ele><time>2026-04-15T11:54:19.535Z</time></trkpt><trkpt lat="46.0413825" lon="11.8513643"><ele>900.5</ele><time>2026-04-15T11:54:22.536Z</time></trkpt><trkpt lat="46.0413755" lon="11.8514866"><ele>901.3333333333333</ele><time>2026-04-15T11:54:25.535Z</time></trkpt><trkpt lat="46.0413685" lon="11.8516105"><ele>902.1666666666666</ele><time>2026-04-15T11:54:28.535Z</time></trkpt><trkpt lat="46.041356" lon="11.8517334"><ele>903.0</ele><time>2026-04-15T11:54:31.537Z</time></trkpt><trkpt lat="46.0413471" lon="11.8518569"><ele>904.6666666666666</ele><time>2026-04-15T11:54:34.535Z</time></trkpt><trkpt lat="46.041329" lon="11.8519736"><ele>906.3333333333333</ele><time>2026-04-15T11:54:37.535Z</time></trkpt><trkpt lat="46.0413135" lon="11.8520884"><ele>908.0</ele><time>2026-04-15T11:54:40.534Z</time></trkpt><trkpt lat="46.0413041" lon="11.8522054"><ele>909.6666666666666</ele><time>2026-04-15T11:54:43.534Z</time></trkpt><trkpt lat="46.0412815" lon="11.8523197"><ele>911.3333333333333</ele><time>2026-04-15T11:54:46.536Z</time></trkpt><trkpt lat="46.0412658" lon="11.85244"><ele>913.0</ele><time>2026-04-15T11:54:49.535Z</time></trkpt><trkpt lat="46.0412625" lon="11.8525538"><ele>913.8333333333333</ele><time>2026-04-15T11:54:52.535Z</time></trkpt><trkpt lat="46.0412503" lon="11.8526636"><ele>914.6666666666666</ele><time>2026-04-15T11:54:55.535Z</time></trkpt><trkpt lat="46.0412424" lon="11.8527836"><ele>915.5</ele><time>2026-04-15T11:54:58.535Z</time></trkpt><trkpt lat="46.0412361" lon="11.8529023"><ele>916.3333333333333</ele><time>2026-04-15T11:55:01.534Z</time></trkpt><trkpt lat="46.041222" lon="11.8530232"><ele>917.1666666666666</ele><time>2026-04-15T11:55:04.535Z</time></trkpt><trkpt lat="46.0412272" lon="11.8531439"><ele>918.0</ele><time>2026-04-15T11:55:07.537Z</time></trkpt><trkpt lat="46.0412397" lon="11.8532681"><ele>918.0</ele><time>2026-04-15T11:55:10.536Z</time></trkpt><trkpt lat="46.0412448" lon="11.8533911"><ele>918.0</ele><time>2026-04-15T11:55:13.535Z</time></trkpt><trkpt lat="46.041247" lon="11.8535087"><ele>918.0</ele><time>2026-04-15T11:55:16.534Z</time></trkpt><trkpt lat="46.0412581" lon="11.8536305"><ele>918.0</ele><time>2026-04-15T11:55:19.534Z</time></trkpt><trkpt lat="46.0412693" lon="11.8537512"><ele>918.0</ele><time>2026-04-15T11:55:22.534Z</time></trkpt><trkpt lat="46.0412923" lon="11.8538701"><ele>918.0</ele><time>2026-04-15T11:55:25.535Z</time></trkpt><trkpt lat="46.0413119" lon="11.8539578"><ele>917.3333333333334</ele><time>2026-04-15T11:55:27.535Z</time></trkpt><trkpt lat="46.0413354" lon="11.8540427"><ele>916.6666666666667</ele><time>2026-04-15T11:55:29.534Z</time></trkpt><trkpt lat="46.0413691" lon="11.8541611"><ele>916.0</ele><time>2026-04-15T11:55:32.534Z</time></trkpt><trkpt lat="46.0414064" lon="11.8542858"><ele>915.3333333333334</ele><time>2026-04-15T11:55:35.534Z</time></trkpt><trkpt lat="46.0414413" lon="11.8544021"><ele>914.6666666666667</ele><time>2026-04-15T11:55:38.536Z</time></trkpt><trkpt lat="46.0414755" lon="11.8545204"><ele>914.0</ele><time>2026-04-15T11:55:41.534Z</time></trkpt><trkpt lat="46.04152" lon="11.8546339"><ele>913.3333333333334</ele><time>2026-04-15T11:55:44.535Z</time></trkpt><trkpt lat="46.0415543" lon="11.8547324"><ele>912.6666666666667</ele><time>2026-04-15T11:55:47.534Z</time></trkpt><trkpt lat="46.0415892" lon="11.8548426"><ele>912.0</ele><time>2026-04-15T11:55:51.535Z</time></trkpt><trkpt lat="46.041619" lon="11.8549425"><ele>911.3333333333333</ele><time>2026-04-15T11:55:54.535Z</time></trkpt><trkpt lat="46.0416566" lon="11.8550416"><ele>910.6666666666666</ele><time>2026-04-15T11:55:57.535Z</time></trkpt><trkpt lat="46.0416992" lon="11.8551631"><ele>910.0</ele><time>2026-04-15T11:56:00.535Z</time></trkpt><trkpt lat="46.0417373" lon="11.8552799"><ele>914.4999999999999</ele><time>2026-04-15T11:56:03.535Z</time></trkpt><trkpt lat="46.0417702" lon="11.8553579"><ele>919.0</ele><time>2026-04-15T11:56:05.537Z</time></trkpt><trkpt lat="46.0418289" lon="11.8554611"><ele>923.5</ele><time>2026-04-15T11:56:08.535Z</time></trkpt><trkpt lat="46.0418679" lon="11.8555359"><ele>928.0</ele><time>2026-04-15T11:56:10.535Z</time></trkpt><trkpt lat="46.0419158" lon="11.8556483"><ele>932.4999999999999</ele><time>2026-04-15T11:56:13.534Z</time></trkpt><trkpt lat="46.0419653" lon="11.8557462"><ele>937.0</ele><time>2026-04-15T11:56:16.535Z</time></trkpt><trkpt lat="46.0420356" lon="11.8557887"><ele>936.9999999999999</ele><time>2026-04-15T11:56:19.536Z</time></trkpt><trkpt lat="46.0421048" lon="11.8557883"><ele>937.0</ele><time>2026-04-15T11:56:22.534Z</time></trkpt><trkpt lat="46.0421802" lon="11.8557498"><ele>937.0</ele><time>2026-04-15T11:56:25.535Z</time></trkpt><trkpt lat="46.0422529" lon="11.8556973"><ele>937.0</ele><time>2026-04-15T11:56:28.535Z</time></trkpt><trkpt lat="46.0423232" lon="11.8556304"><ele>936.9999999999999</ele><time>2026-04-15T11:56:31.536Z</time></trkpt><trkpt lat="46.0423937" lon="11.8555568"><ele>937.0</ele><time>2026-04-15T11:56:34.537Z</time></trkpt><trkpt lat="46.0424668" lon="11.855503"><ele>939.8333333333333</ele><time>2026-04-15T11:56:37.534Z</time></trkpt><trkpt lat="46.0425303" lon="11.855428"><ele>942.6666666666666</ele><time>2026-04-15T11:56:40.535Z</time></trkpt><trkpt lat="46.0425984" lon="11.8553483"><ele>945.5</ele><time>2026-04-15T11:56:43.535Z</time></trkpt><trkpt lat="46.0426651" lon="11.8552675"><ele>948.3333333333333</ele><time>2026-04-15T11:56:46.534Z</time></trkpt><trkpt lat="46.0427189" lon="11.8551966"><ele>951.1666666666666</ele><time>2026-04-15T11:56:49.536Z</time></trkpt><trkpt lat="46.0427669" lon="11.8551227"><ele>954.0</ele><time>2026-04-15T11:56:52.534Z</time></trkpt><trkpt lat="46.0428174" lon="11.8550371"><ele>956.0</ele><time>2026-04-15T11:56:55.534Z</time></trkpt><trkpt lat="46.0428686" lon="11.8549512"><ele>958.0</ele><time>2026-04-15T11:56:58.534Z</time></trkpt><trkpt lat="46.0429173" lon="11.8548785"><ele>960.0</ele><time>2026-04-15T11:57:01.535Z</time></trkpt><trkpt lat="46.0429678" lon="11.8548065"><ele>962.0</ele><time>2026-04-15T11:57:04.535Z</time></trkpt><trkpt lat="46.0430303" lon="11.854727"><ele>964.0</ele><time>2026-04-15T11:57:07.535Z</time></trkpt><trkpt lat="46.0430972" lon="11.8546483"><ele>966.0</ele><time>2026-04-15T11:57:10.537Z</time></trkpt><trkpt lat="46.0431675" lon="11.8545759"><ele>966.0</ele><time>2026-04-15T11:57:13.534Z</time></trkpt><trkpt lat="46.0432383" lon="11.8544988"><ele>966.0</ele><time>2026-04-15T11:57:16.534Z</time></trkpt><trkpt lat="46.0432864" lon="11.8544316"><ele>966.0</ele><time>2026-04-15T11:57:19.534Z</time></trkpt><trkpt lat="46.0432582" lon="11.8543472"><ele>966.0</ele><time>2026-04-15T11:57:22.534Z</time></trkpt><trkpt lat="46.0431779" lon="11.8543293"><ele>966.0</ele><time>2026-04-15T11:57:25.535Z</time></trkpt><trkpt lat="46.0431027" lon="11.8543693"><ele>966.0</ele><time>2026-04-15T11:57:28.536Z</time></trkpt><trkpt lat="46.0430403" lon="11.8544219"><ele>966.0</ele><time>2026-04-15T11:57:31.536Z</time></trkpt><trkpt lat="46.0429668" lon="11.8544776"><ele>966.0</ele><time>2026-04-15T11:57:34.537Z</time></trkpt><trkpt lat="46.0428876" lon="11.8545165"><ele>966.0</ele><time>2026-04-15T11:57:37.539Z</time></trkpt><trkpt lat="46.0428153" lon="11.8545572"><ele>966.0</ele><time>2026-04-15T11:57:40.536Z</time></trkpt><trkpt lat="46.0427377" lon="11.8545791"><ele>966.0</ele><time>2026-04-15T11:57:43.536Z</time></trkpt><trkpt lat="46.0426622" lon="11.854612"><ele>966.0</ele><time>2026-04-15T11:57:46.533Z</time></trkpt><trkpt lat="46.0425805" lon="11.854646"><ele>966.0</ele><time>2026-04-15T11:57:49.535Z</time></trkpt><trkpt lat="46.0425011" lon="11.8546689"><ele>966.0</ele><time>2026-04-15T11:57:52.533Z</time></trkpt><trkpt lat="46.0424184" lon="11.8546648"><ele>966.0</ele><time>2026-04-15T11:57:55.534Z</time></trkpt><trkpt lat="46.042346" lon="11.8546345"><ele>966.0</ele><time>2026-04-15T11:57:58.535Z</time></trkpt><trkpt lat="46.0422706" lon="11.8545676"><ele>966.0</ele><time>2026-04-15T11:58:01.535Z</time></trkpt><trkpt lat="46.0422112" lon="11.8544979"><ele>966.0</ele><time>2026-04-15T11:58:04.535Z</time></trkpt><trkpt lat="46.0421471" lon="11.8544467"><ele>966.4285714285714</ele><time>2026-04-15T11:58:07.534Z</time></trkpt><trkpt lat="46.0420924" lon="11.8543645"><ele>966.8571428571429</ele><time>2026-04-15T11:58:11.535Z</time></trkpt><trkpt lat="46.0420536" lon="11.854271"><ele>967.2857142857142</ele><time>2026-04-15T11:58:16.534Z</time></trkpt><trkpt lat="46.0420197" lon="11.8541859"><ele>967.7142857142857</ele><time>2026-04-15T11:58:19.534Z</time></trkpt><trkpt lat="46.0419939" lon="11.8540851"><ele>968.1428571428571</ele><time>2026-04-15T11:58:22.534Z</time></trkpt><trkpt lat="46.0419769" lon="11.8539814"><ele>968.5714285714284</ele><time>2026-04-15T11:58:25.535Z</time></trkpt><trkpt lat="46.0419719" lon="11.8538709"><ele>968.9999999999999</ele><time>2026-04-15T11:58:28.536Z</time></trkpt><trkpt lat="46.0419651" lon="11.8537607"><ele>969.0</ele><time>2026-04-15T11:58:31.535Z</time></trkpt><trkpt lat="46.0419688" lon="11.8536483"><ele>969.0</ele><time>2026-04-15T11:58:34.533Z</time></trkpt><trkpt lat="46.0419848" lon="11.8535342"><ele>969.0</ele><time>2026-04-15T11:58:37.536Z</time></trkpt><trkpt lat="46.0419772" lon="11.8534273"><ele>969.0</ele><time>2026-04-15T11:58:40.535Z</time></trkpt><trkpt lat="46.0419837" lon="11.8533133"><ele>969.0</ele><time>2026-04-15T11:58:43.535Z</time></trkpt><trkpt lat="46.0420147" lon="11.8531999"><ele>969.0</ele><time>2026-04-15T11:58:46.535Z</time></trkpt><trkpt lat="46.0420398" lon="11.8530799"><ele>969.1666666666666</ele><time>2026-04-15T11:58:49.534Z</time></trkpt><trkpt lat="46.0420706" lon="11.8529815"><ele>969.3333333333333</ele><time>2026-04-15T11:58:52.534Z</time></trkpt><trkpt lat="46.0421029" lon="11.8528806"><ele>969.5</ele><time>2026-04-15T11:58:55.534Z</time></trkpt><trkpt lat="46.0421242" lon="11.8527652"><ele>969.6666666666666</ele><time>2026-04-15T11:58:58.535Z</time></trkpt><trkpt lat="46.0421532" lon="11.8526571"><ele>969.8333333333333</ele><time>2026-04-15T11:59:01.535Z</time></trkpt><trkpt lat="46.0421822" lon="11.8525363"><ele>970.0</ele><time>2026-04-15T11:59:04.535Z</time></trkpt><trkpt lat="46.0422124" lon="11.8524227"><ele>969.9999999999999</ele><time>2026-04-15T11:59:07.535Z</time></trkpt><trkpt lat="46.0422358" lon="11.8523061"><ele>970.0</ele><time>2026-04-15T11:59:10.536Z</time></trkpt><trkpt lat="46.0422795" lon="11.8521846"><ele>970.0</ele><time>2026-04-15T11:59:13.537Z</time></trkpt><trkpt lat="46.0423165" lon="11.8520749"><ele>970.0</ele><time>2026-04-15T11:59:16.534Z</time></trkpt><trkpt lat="46.0423544" lon="11.851976"><ele>969.9999999999999</ele><time>2026-04-15T11:59:19.536Z</time></trkpt><trkpt lat="46.042377" lon="11.8518608"><ele>970.0</ele><time>2026-04-15T11:59:22.535Z</time></trkpt><trkpt lat="46.0423946" lon="11.8517438"><ele>968.5714285714287</ele><time>2026-04-15T11:59:25.535Z</time></trkpt><trkpt lat="46.0424213" lon="11.8516453"><ele>967.1428571428571</ele><time>2026-04-15T11:59:28.535Z</time></trkpt><trkpt lat="46.0424456" lon="11.8515539"><ele>965.7142857142858</ele><time>2026-04-15T11:59:31.536Z</time></trkpt><trkpt lat="46.0424694" lon="11.8514538"><ele>964.2857142857143</ele><time>2026-04-15T11:59:34.538Z</time></trkpt><trkpt lat="46.0424876" lon="11.8513475"><ele>962.8571428571429</ele><time>2026-04-15T11:59:37.535Z</time></trkpt><trkpt lat="46.0425123" lon="11.8512392"><ele>961.4285714285714</ele><time>2026-04-15T11:59:40.536Z</time></trkpt><trkpt lat="46.042523" lon="11.8511307"><ele>960.0</ele><time>2026-04-15T11:59:44.536Z</time></trkpt><trkpt lat="46.0425342" lon="11.8510399"><ele>966.1428571428571</ele><time>2026-04-15T11:59:48.535Z</time></trkpt><trkpt lat="46.0425461" lon="11.8509224"><ele>972.2857142857142</ele><time>2026-04-15T11:59:52.535Z</time></trkpt><trkpt lat="46.0425501" lon="11.8508301"><ele>978.4285714285713</ele><time>2026-04-15T11:59:55.538Z</time></trkpt><trkpt lat="46.0425699" lon="11.8507276"><ele>984.5714285714286</ele><time>2026-04-15T11:59:58.536Z</time></trkpt><trkpt lat="46.0425774" lon="11.8506203"><ele>990.7142857142856</ele><time>2026-04-15T12:00:02.543Z</time></trkpt><trkpt lat="46.0425826" lon="11.8505074"><ele>996.8571428571428</ele><time>2026-04-15T12:00:06.536Z</time></trkpt><trkpt lat="46.0426077" lon="11.8504132"><ele>1003.0</ele><time>2026-04-15T12:00:10.535Z</time></trkpt><trkpt lat="46.0426601" lon="11.8504777"><ele>1003.0</ele><time>2026-04-15T12:00:16.536Z</time></trkpt><trkpt lat="46.0426405" lon="11.8505651"><ele>1002.9999999999999</ele><time>2026-04-15T12:00:19.535Z</time></trkpt><trkpt lat="46.0426276" lon="11.85066"><ele>1003.0</ele><time>2026-04-15T12:00:23.534Z</time></trkpt><trkpt lat="46.0426587" lon="11.8507564"><ele>1003.0</ele><time>2026-04-15T12:00:27.535Z</time></trkpt><trkpt lat="46.0426673" lon="11.8506605"><ele>1002.9999999999999</ele><time>2026-04-15T12:01:32.536Z</time></trkpt><trkpt lat="46.0426442" lon="11.8505404"><ele>1003.0</ele><time>2026-04-15T12:01:36.537Z</time></trkpt><trkpt lat="46.0426638" lon="11.8504472"><ele>1003.0</ele><time>2026-04-15T12:01:39.536Z</time></trkpt><trkpt lat="46.0426138" lon="11.8503754"><ele>1003.0</ele><time>2026-04-15T12:01:45.535Z</time></trkpt><trkpt lat="46.0425784" lon="11.8504507"><ele>1002.9999999999999</ele><time>2026-04-15T12:01:49.536Z</time></trkpt><trkpt lat="46.0425633" lon="11.8505583"><ele>1003.0</ele><time>2026-04-15T12:01:53.536Z</time></trkpt><trkpt lat="46.0425469" lon="11.8506612"><ele>1003.0</ele><time>2026-04-15T12:01:57.535Z</time></trkpt><trkpt lat="46.0425344" lon="11.8507543"><ele>1002.9999999999999</ele><time>2026-04-15T12:02:00.535Z</time></trkpt><trkpt lat="46.0425182" lon="11.8508681"><ele>1003.0</ele><time>2026-04-15T12:02:04.535Z</time></trkpt><trkpt lat="46.0425112" lon="11.8509583"><ele>1003.0</ele><time>2026-04-15T12:02:07.534Z</time></trkpt><trkpt lat="46.0425172" lon="11.8510513"><ele>1003.0</ele><time>2026-04-15T12:02:10.534Z</time></trkpt><trkpt lat="46.0425087" lon="11.8511458"><ele>1002.9999999999999</ele><time>2026-04-15T12:02:13.534Z</time></trkpt><trkpt lat="46.0425036" lon="11.8512518"><ele>1003.0</ele><time>2026-04-15T12:02:16.534Z</time></trkpt><trkpt lat="46.042448" lon="11.851299"><ele>1003.0</ele><time>2026-04-15T12:02:20.535Z</time></trkpt><trkpt lat="46.0424628" lon="11.8511875"><ele>1002.9999999999999</ele><time>2026-04-15T12:02:24.536Z</time></trkpt><trkpt lat="46.042476" lon="11.8510738"><ele>1003.0</ele><time>2026-04-15T12:02:27.536Z</time></trkpt><trkpt lat="46.0424831" lon="11.8509652"><ele>1003.0</ele><time>2026-04-15T12:02:30.536Z</time></trkpt><trkpt lat="46.042479" lon="11.8508549"><ele>1003.0</ele><time>2026-04-15T12:02:33.535Z</time></trkpt><trkpt lat="46.0424819" lon="11.8507508"><ele>1002.9999999999999</ele><time>2026-04-15T12:02:36.534Z</time></trkpt><trkpt lat="46.0424887" lon="11.8506495"><ele>1003.0</ele><time>2026-04-15T12:02:39.535Z</time></trkpt><trkpt lat="46.0424855" lon="11.8505527"><ele>1003.0</ele><time>2026-04-15T12:02:42.535Z</time></trkpt><trkpt lat="46.0425" lon="11.8504582"><ele>1002.9999999999999</ele><time>2026-04-15T12:02:45.535Z</time></trkpt><trkpt lat="46.042509" lon="11.8503647"><ele>1003.0</ele><time>2026-04-15T12:02:48.535Z</time></trkpt><trkpt lat="46.0425148" lon="11.8502645"><ele>1003.0</ele><time>2026-04-15T12:02:51.535Z</time></trkpt><trkpt lat="46.0425161" lon="11.8501633"><ele>1003.0</ele><time>2026-04-15T12:02:54.534Z</time></trkpt><trkpt lat="46.0425357" lon="11.8500712"><ele>1002.9999999999999</ele><time>2026-04-15T12:02:57.535Z</time></trkpt><trkpt lat="46.0425645" lon="11.8499825"><ele>1003.0</ele><time>2026-04-15T12:03:00.534Z</time></trkpt><trkpt lat="46.0425852" lon="11.8498605"><ele>1003.0</ele><time>2026-04-15T12:03:04.534Z</time></trkpt><trkpt lat="46.0426055" lon="11.8497624"><ele>1002.9999999999999</ele><time>2026-04-15T12:03:07.534Z</time></trkpt><trkpt lat="46.0426249" lon="11.8496687"><ele>1003.0</ele><time>2026-04-15T12:03:10.534Z</time></trkpt><trkpt lat="46.0426469" lon="11.8495752"><ele>1003.0</ele><time>2026-04-15T12:03:13.536Z</time></trkpt><trkpt lat="46.0426598" lon="11.8494695"><ele>1002.9999999999999</ele><time>2026-04-15T12:03:16.534Z</time></trkpt><trkpt lat="46.042661" lon="11.8493613"><ele>1003.0</ele><time>2026-04-15T12:03:19.534Z</time></trkpt><trkpt lat="46.0426724" lon="11.8492586"><ele>1003.0</ele><time>2026-04-15T12:03:22.534Z</time></trkpt><trkpt lat="46.0426806" lon="11.8491455"><ele>1003.0</ele><time>2026-04-15T12:03:25.535Z</time></trkpt><trkpt lat="46.0426862" lon="11.849038"><ele>1002.9999999999999</ele><time>2026-04-15T12:03:28.534Z</time></trkpt><trkpt lat="46.0426859" lon="11.8489274"><ele>1003.0</ele><time>2026-04-15T12:03:31.537Z</time></trkpt><trkpt lat="46.0426953" lon="11.8488235"><ele>1002.8571428571428</ele><time>2026-04-15T12:03:34.536Z</time></trkpt><trkpt lat="46.0427169" lon="11.8487235"><ele>1002.7142857142856</ele><time>2026-04-15T12:03:37.536Z</time></trkpt><trkpt lat="46.0427255" lon="11.8486146"><ele>1002.5714285714286</ele><time>2026-04-15T12:03:40.536Z</time></trkpt><trkpt lat="46.042741" lon="11.8485167"><ele>1002.4285714285713</ele><time>2026-04-15T12:03:43.537Z</time></trkpt><trkpt lat="46.0427555" lon="11.8484127"><ele>1002.2857142857142</ele><time>2026-04-15T12:03:46.533Z</time></trkpt><trkpt lat="46.0427672" lon="11.8483022"><ele>1002.1428571428571</ele><time>2026-04-15T12:03:49.535Z</time></trkpt><trkpt lat="46.0427918" lon="11.8481934"><ele>1002.0</ele><time>2026-04-15T12:03:52.534Z</time></trkpt><trkpt lat="46.0428189" lon="11.848086"><ele>1001.6666666666666</ele><time>2026-04-15T12:03:55.535Z</time></trkpt><trkpt lat="46.0428396" lon="11.847984"><ele>1001.3333333333333</ele><time>2026-04-15T12:03:58.534Z</time></trkpt><trkpt lat="46.042865" lon="11.8478763"><ele>1001.0</ele><time>2026-04-15T12:04:01.535Z</time></trkpt><trkpt lat="46.0428948" lon="11.8477744"><ele>1000.6666666666666</ele><time>2026-04-15T12:04:04.534Z</time></trkpt><trkpt lat="46.0429281" lon="11.8476757"><ele>1000.3333333333333</ele><time>2026-04-15T12:04:07.534Z</time></trkpt><trkpt lat="46.0429726" lon="11.8475869"><ele>1000.0</ele><time>2026-04-15T12:04:10.535Z</time></trkpt><trkpt lat="46.0430148" lon="11.8474907"><ele>999.3333333333333</ele><time>2026-04-15T12:04:13.534Z</time></trkpt><trkpt lat="46.0430434" lon="11.8473868"><ele>998.6666666666666</ele><time>2026-04-15T12:04:16.535Z</time></trkpt><trkpt lat="46.0430804" lon="11.8472947"><ele>998.0</ele><time>2026-04-15T12:04:19.535Z</time></trkpt><trkpt lat="46.0431216" lon="11.8471969"><ele>997.3333333333333</ele><time>2026-04-15T12:04:22.537Z</time></trkpt><trkpt lat="46.0431626" lon="11.8471024"><ele>996.6666666666666</ele><time>2026-04-15T12:04:25.535Z</time></trkpt><trkpt lat="46.0432003" lon="11.8469899"><ele>996.0</ele><time>2026-04-15T12:04:28.535Z</time></trkpt><trkpt lat="46.0432365" lon="11.8469147"><ele>996.5</ele><time>2026-04-15T12:04:30.537Z</time></trkpt><trkpt lat="46.0432788" lon="11.8467923"><ele>997.0</ele><time>2026-04-15T12:04:33.537Z</time></trkpt><trkpt lat="46.0433215" lon="11.8466747"><ele>997.5</ele><time>2026-04-15T12:04:36.537Z</time></trkpt><trkpt lat="46.043338" lon="11.84655"><ele>998.0</ele><time>2026-04-15T12:04:39.535Z</time></trkpt><trkpt lat="46.0433654" lon="11.8464676"><ele>998.5</ele><time>2026-04-15T12:04:41.535Z</time></trkpt><trkpt lat="46.04339" lon="11.8463818"><ele>999.0</ele><time>2026-04-15T12:04:43.537Z</time></trkpt><trkpt lat="46.043431" lon="11.8462633"><ele>1004.5</ele><time>2026-04-15T12:04:46.535Z</time></trkpt><trkpt lat="46.0434584" lon="11.8461319"><ele>1010.0</ele><time>2026-04-15T12:04:49.535Z</time></trkpt><trkpt lat="46.0434887" lon="11.8460066"><ele>1015.5</ele><time>2026-04-15T12:04:52.536Z</time></trkpt><trkpt lat="46.0435011" lon="11.8459155"><ele>1021.0</ele><time>2026-04-15T12:04:54.536Z</time></trkpt><trkpt lat="46.0435363" lon="11.845791"><ele>1026.5</ele><time>2026-04-15T12:04:57.536Z</time></trkpt><trkpt lat="46.0435707" lon="11.8457132"><ele>1032.0</ele><time>2026-04-15T12:04:59.537Z</time></trkpt><trkpt lat="46.0435988" lon="11.8456281"><ele>1031.9999999999998</ele><time>2026-04-15T12:05:01.537Z</time></trkpt><trkpt lat="46.0436264" lon="11.8455457"><ele>1032.0</ele><time>2026-04-15T12:05:03.536Z</time></trkpt><trkpt lat="46.0436552" lon="11.8454647"><ele>1032.0</ele><time>2026-04-15T12:05:05.537Z</time></trkpt><trkpt lat="46.0436849" lon="11.8453775"><ele>1032.0</ele><time>2026-04-15T12:05:07.537Z</time></trkpt><trkpt lat="46.0437127" lon="11.8452949"><ele>1032.0</ele><time>2026-04-15T12:05:09.534Z</time></trkpt><trkpt lat="46.0437552" lon="11.8451777"><ele>1031.9999999999998</ele><time>2026-04-15T12:05:12.536Z</time></trkpt><trkpt lat="46.0437764" lon="11.8450922"><ele>1032.0</ele><time>2026-04-15T12:05:14.536Z</time></trkpt><trkpt lat="46.0437844" lon="11.8449989"><ele>1031.2857142857142</ele><time>2026-04-15T12:05:16.537Z</time></trkpt><trkpt lat="46.0437966" lon="11.8449049"><ele>1030.5714285714284</ele><time>2026-04-15T12:05:18.534Z</time></trkpt><trkpt lat="46.0438023" lon="11.8448103"><ele>1029.857142857143</ele><time>2026-04-15T12:05:20.536Z</time></trkpt><trkpt lat="46.0438021" lon="11.8447104"><ele>1029.142857142857</ele><time>2026-04-15T12:05:22.536Z</time></trkpt><trkpt lat="46.0438009" lon="11.844612"><ele>1028.4285714285716</ele><time>2026-04-15T12:05:24.535Z</time></trkpt><trkpt lat="46.0437872" lon="11.8445079"><ele>1027.7142857142858</ele><time>2026-04-15T12:05:26.537Z</time></trkpt><trkpt lat="46.0437682" lon="11.8444124"><ele>1027.0</ele><time>2026-04-15T12:05:28.535Z</time></trkpt><trkpt lat="46.043755" lon="11.8443179"><ele>1027.5714285714287</ele><time>2026-04-15T12:05:30.535Z</time></trkpt><trkpt lat="46.0437268" lon="11.8441906"><ele>1028.1428571428573</ele><time>2026-04-15T12:05:33.537Z</time></trkpt><trkpt lat="46.0437019" lon="11.8441056"><ele>1028.7142857142858</ele><time>2026-04-15T12:05:35.537Z</time></trkpt><trkpt lat="46.0436779" lon="11.8440168"><ele>1029.2857142857142</ele><time>2026-04-15T12:05:37.536Z</time></trkpt><trkpt lat="46.0436439" lon="11.8439367"><ele>1029.8571428571427</ele><time>2026-04-15T12:05:39.537Z</time></trkpt><trkpt lat="46.0436079" lon="11.8438596"><ele>1030.4285714285713</ele><time>2026-04-15T12:05:41.538Z</time></trkpt><trkpt lat="46.0435664" lon="11.8437861"><ele>1031.0</ele><time>2026-04-15T12:05:43.538Z</time></trkpt><trkpt lat="46.0435268" lon="11.8437127"><ele>1031.0</ele><time>2026-04-15T12:05:45.535Z</time></trkpt><trkpt lat="46.0434699" lon="11.8436103"><ele>1031.0</ele><time>2026-04-15T12:05:48.535Z</time></trkpt><trkpt lat="46.0434086" lon="11.8435165"><ele>1031.0</ele><time>2026-04-15T12:05:51.534Z</time></trkpt><trkpt lat="46.0433447" lon="11.8434208"><ele>1031.0</ele><time>2026-04-15T12:05:54.534Z</time></trkpt><trkpt lat="46.0432807" lon="11.8433266"><ele>1031.0</ele><time>2026-04-15T12:05:57.534Z</time></trkpt><trkpt lat="46.0432128" lon="11.8432362"><ele>1033.1666666666667</ele><time>2026-04-15T12:06:00.535Z</time></trkpt><trkpt lat="46.0431462" lon="11.8431484"><ele>1035.3333333333335</ele><time>2026-04-15T12:06:03.536Z</time></trkpt><trkpt lat="46.0430771" lon="11.8430748"><ele>1037.5</ele><time>2026-04-15T12:06:06.534Z</time></trkpt><trkpt lat="46.0429999" lon="11.8430098"><ele>1039.6666666666667</ele><time>2026-04-15T12:06:09.534Z</time></trkpt><trkpt lat="46.0429199" lon="11.8429515"><ele>1041.8333333333333</ele><time>2026-04-15T12:06:12.537Z</time></trkpt><trkpt lat="46.0428635" lon="11.8429106"><ele>1044.0</ele><time>2026-04-15T12:06:14.534Z</time></trkpt><trkpt lat="46.0427761" lon="11.8428567"><ele>1044.0</ele><time>2026-04-15T12:06:17.535Z</time></trkpt><trkpt lat="46.0427152" lon="11.8428266"><ele>1044.0</ele><time>2026-04-15T12:06:19.534Z</time></trkpt><trkpt lat="46.0426565" lon="11.8427904"><ele>1044.0</ele><time>2026-04-15T12:06:21.535Z</time></trkpt><trkpt lat="46.0425785" lon="11.8427498"><ele>1044.0</ele><time>2026-04-15T12:06:24.534Z</time></trkpt><trkpt lat="46.0425089" lon="11.8427028"><ele>1044.0</ele><time>2026-04-15T12:06:27.534Z</time></trkpt><trkpt lat="46.0424316" lon="11.8426812"><ele>1044.0</ele><time>2026-04-15T12:06:30.535Z</time></trkpt><trkpt lat="46.0423477" lon="11.8426488"><ele>1047.5</ele><time>2026-04-15T12:06:33.534Z</time></trkpt><trkpt lat="46.04226" lon="11.8426228"><ele>1051.0</ele><time>2026-04-15T12:06:36.534Z</time></trkpt><trkpt lat="46.0421979" lon="11.8425994"><ele>1054.5</ele><time>2026-04-15T12:06:38.535Z</time></trkpt><trkpt lat="46.0421341" lon="11.8425745"><ele>1058.0</ele><time>2026-04-15T12:06:40.535Z</time></trkpt><trkpt lat="46.0420453" lon="11.8425529"><ele>1061.5</ele><time>2026-04-15T12:06:43.533Z</time></trkpt><trkpt lat="46.0419548" lon="11.8425412"><ele>1065.0</ele><time>2026-04-15T12:06:46.533Z</time></trkpt><trkpt lat="46.0418752" lon="11.8425369"><ele>1065.0</ele><time>2026-04-15T12:06:49.535Z</time></trkpt><trkpt lat="46.041791" lon="11.8425386"><ele>1065.0</ele><time>2026-04-15T12:06:52.534Z</time></trkpt><trkpt lat="46.0417122" lon="11.8425244"><ele>1065.0</ele><time>2026-04-15T12:06:55.535Z</time></trkpt><trkpt lat="46.0416345" lon="11.8424942"><ele>1065.0</ele><time>2026-04-15T12:06:58.535Z</time></trkpt><trkpt lat="46.0415631" lon="11.8424626"><ele>1065.0</ele><time>2026-04-15T12:07:01.536Z</time></trkpt><trkpt lat="46.0414959" lon="11.8424446"><ele>1065.0</ele><time>2026-04-15T12:07:04.536Z</time></trkpt><trkpt lat="46.041445" lon="11.8423845"><ele>1064.2857142857142</ele><time>2026-04-15T12:08:24.535Z</time></trkpt><trkpt lat="46.0413658" lon="11.8423442"><ele>1063.5714285714284</ele><time>2026-04-15T12:08:28.533Z</time></trkpt><trkpt lat="46.0413039" lon="11.8423078"><ele>1062.8571428571427</ele><time>2026-04-15T12:08:31.538Z</time></trkpt><trkpt lat="46.0412422" lon="11.8422758"><ele>1062.142857142857</ele><time>2026-04-15T12:08:34.534Z</time></trkpt><trkpt lat="46.0411834" lon="11.8422374"><ele>1061.4285714285713</ele><time>2026-04-15T12:08:37.535Z</time></trkpt><trkpt lat="46.0411135" lon="11.8421763"><ele>1060.7142857142856</ele><time>2026-04-15T12:08:41.535Z</time></trkpt><trkpt lat="46.0410474" lon="11.8421027"><ele>1060.0</ele><time>2026-04-15T12:08:45.535Z</time></trkpt><trkpt lat="46.0409893" lon="11.8420446"><ele>1060.0</ele><time>2026-04-15T12:08:48.628Z</time></trkpt><trkpt lat="46.0409248" lon="11.8419973"><ele>1060.0</ele><time>2026-04-15T12:08:51.535Z</time></trkpt><trkpt lat="46.0408639" lon="11.8419509"><ele>1060.0</ele><time>2026-04-15T12:08:54.535Z</time></trkpt><trkpt lat="46.0407928" lon="11.8418987"><ele>1060.0</ele><time>2026-04-15T12:08:57.536Z</time></trkpt><trkpt lat="46.0407198" lon="11.8418434"><ele>1060.0</ele><time>2026-04-15T12:09:00.536Z</time></trkpt><trkpt lat="46.0406475" lon="11.8417934"><ele>1060.0</ele><time>2026-04-15T12:09:03.534Z</time></trkpt><trkpt lat="46.0405781" lon="11.8417357"><ele>1061.1666666666665</ele><time>2026-04-15T12:09:06.535Z</time></trkpt><trkpt lat="46.0405048" lon="11.8416764"><ele>1062.3333333333333</ele><time>2026-04-15T12:09:09.535Z</time></trkpt><trkpt lat="46.0404295" lon="11.8416156"><ele>1063.5</ele><time>2026-04-15T12:09:12.535Z</time></trkpt><trkpt lat="46.0403644" lon="11.8415595"><ele>1064.6666666666667</ele><time>2026-04-15T12:09:15.534Z</time></trkpt><trkpt lat="46.0402949" lon="11.8414839"><ele>1065.8333333333335</ele><time>2026-04-15T12:09:18.535Z</time></trkpt><trkpt lat="46.0402241" lon="11.8414177"><ele>1067.0</ele><time>2026-04-15T12:09:21.534Z</time></trkpt><trkpt lat="46.0401505" lon="11.841358"><ele>1067.0</ele><time>2026-04-15T12:09:24.534Z</time></trkpt><trkpt lat="46.0400801" lon="11.8413016"><ele>1067.0</ele><time>2026-04-15T12:09:27.535Z</time></trkpt><trkpt lat="46.0400137" lon="11.8412275"><ele>1067.0</ele><time>2026-04-15T12:09:30.534Z</time></trkpt><trkpt lat="46.0399524" lon="11.8411535"><ele>1067.0</ele><time>2026-04-15T12:09:33.537Z</time></trkpt><trkpt lat="46.0398962" lon="11.8410551"><ele>1067.0</ele><time>2026-04-15T12:09:36.533Z</time></trkpt><trkpt lat="46.0398404" lon="11.8409608"><ele>1067.0</ele><time>2026-04-15T12:09:39.536Z</time></trkpt><trkpt lat="46.0397956" lon="11.8408524"><ele>1069.6666666666667</ele><time>2026-04-15T12:09:42.534Z</time></trkpt><trkpt lat="46.03976" lon="11.8407396"><ele>1072.3333333333335</ele><time>2026-04-15T12:09:45.535Z</time></trkpt><trkpt lat="46.03972" lon="11.8406419"><ele>1075.0</ele><time>2026-04-15T12:09:48.533Z</time></trkpt><trkpt lat="46.0396616" lon="11.8405588"><ele>1077.6666666666667</ele><time>2026-04-15T12:09:51.536Z</time></trkpt><trkpt lat="46.0395897" lon="11.8404996"><ele>1080.3333333333333</ele><time>2026-04-15T12:09:54.534Z</time></trkpt><trkpt lat="46.0395297" lon="11.8404713"><ele>1083.0</ele><time>2026-04-15T12:09:57.536Z</time></trkpt><trkpt lat="46.0394478" lon="11.8404653"><ele>1083.0</ele><time>2026-04-15T12:10:00.537Z</time></trkpt><trkpt lat="46.0393589" lon="11.8404734"><ele>1083.0</ele><time>2026-04-15T12:10:03.536Z</time></trkpt><trkpt lat="46.0392593" lon="11.8404957"><ele>1083.0</ele><time>2026-04-15T12:10:06.535Z</time></trkpt><trkpt lat="46.0391924" lon="11.8405105"><ele>1083.0</ele><time>2026-04-15T12:10:08.534Z</time></trkpt><trkpt lat="46.0391115" lon="11.8405636"><ele>1083.0</ele><time>2026-04-15T12:10:11.533Z</time></trkpt><trkpt lat="46.0390341" lon="11.8406167"><ele>1083.0</ele><time>2026-04-15T12:10:14.535Z</time></trkpt><trkpt lat="46.0389596" lon="11.8406797"><ele>1085.1666666666667</ele><time>2026-04-15T12:10:17.534Z</time></trkpt><trkpt lat="46.0388804" lon="11.8407357"><ele>1087.3333333333333</ele><time>2026-04-15T12:10:20.535Z</time></trkpt><trkpt lat="46.0387954" lon="11.8407394"><ele>1089.5</ele><time>2026-04-15T12:10:23.536Z</time></trkpt><trkpt lat="46.0387403" lon="11.8406858"><ele>1091.6666666666665</ele><time>2026-04-15T12:10:27.535Z</time></trkpt><trkpt lat="46.03879" lon="11.8406276"><ele>1093.8333333333333</ele><time>2026-04-15T12:10:32.535Z</time></trkpt><trkpt lat="46.0387751" lon="11.8407223"><ele>1096.0</ele><time>2026-04-15T12:10:36.533Z</time></trkpt><trkpt lat="46.0386988" lon="11.8407736"><ele>1096.0</ele><time>2026-04-15T12:10:40.535Z</time></trkpt><trkpt lat="46.0386281" lon="11.8407759"><ele>1096.0</ele><time>2026-04-15T12:10:43.534Z</time></trkpt><trkpt lat="46.0385496" lon="11.8407382"><ele>1096.0</ele><time>2026-04-15T12:10:46.534Z</time></trkpt><trkpt lat="46.0384706" lon="11.8406908"><ele>1096.0</ele><time>2026-04-15T12:10:49.536Z</time></trkpt><trkpt lat="46.0383892" lon="11.8406606"><ele>1096.0</ele><time>2026-04-15T12:10:52.534Z</time></trkpt><trkpt lat="46.0383091" lon="11.8406236"><ele>1096.0</ele><time>2026-04-15T12:10:55.534Z</time></trkpt><trkpt lat="46.0382367" lon="11.8406328"><ele>1098.3333333333333</ele><time>2026-04-15T12:10:58.537Z</time></trkpt><trkpt lat="46.0381586" lon="11.8406849"><ele>1100.6666666666665</ele><time>2026-04-15T12:11:02.535Z</time></trkpt><trkpt lat="46.0380823" lon="11.8407198"><ele>1103.0</ele><time>2026-04-15T12:11:05.536Z</time></trkpt><trkpt lat="46.0380096" lon="11.8407501"><ele>1105.3333333333333</ele><time>2026-04-15T12:11:08.537Z</time></trkpt><trkpt lat="46.037938" lon="11.8407985"><ele>1107.6666666666667</ele><time>2026-04-15T12:11:11.536Z</time></trkpt><trkpt lat="46.037862" lon="11.8408786"><ele>1110.0</ele><time>2026-04-15T12:11:14.537Z</time></trkpt><trkpt lat="46.0378052" lon="11.8409194"><ele>1110.0</ele><time>2026-04-15T12:11:16.536Z</time></trkpt><trkpt lat="46.0377404" lon="11.8409478"><ele>1110.0</ele><time>2026-04-15T12:11:18.536Z</time></trkpt><trkpt lat="46.0376492" lon="11.8409795"><ele>1110.0</ele><time>2026-04-15T12:11:21.537Z</time></trkpt><trkpt lat="46.0375676" lon="11.8409862"><ele>1110.0</ele><time>2026-04-15T12:11:24.534Z</time></trkpt><trkpt lat="46.0375051" lon="11.8409739"><ele>1110.0</ele><time>2026-04-15T12:11:27.536Z</time></trkpt><trkpt lat="46.0373938" lon="11.8409702"><ele>1110.0</ele><time>2026-04-15T12:14:18.535Z</time></trkpt><trkpt lat="46.0373212" lon="11.8409817"><ele>1108.1428571428573</ele><time>2026-04-15T12:14:21.536Z</time></trkpt><trkpt lat="46.0372551" lon="11.8409658"><ele>1106.2857142857142</ele><time>2026-04-15T12:14:23.534Z</time></trkpt><trkpt lat="46.0371838" lon="11.8409362"><ele>1104.4285714285716</ele><time>2026-04-15T12:14:25.535Z</time></trkpt><trkpt lat="46.0371078" lon="11.840905"><ele>1102.5714285714287</ele><time>2026-04-15T12:14:27.535Z</time></trkpt><trkpt lat="46.0370408" lon="11.8408715"><ele>1100.7142857142858</ele><time>2026-04-15T12:14:29.535Z</time></trkpt><trkpt lat="46.0369785" lon="11.8408411"><ele>1098.857142857143</ele><time>2026-04-15T12:14:31.536Z</time></trkpt><trkpt lat="46.036905" lon="11.8408121"><ele>1097.0</ele><time>2026-04-15T12:14:33.536Z</time></trkpt><trkpt lat="46.0368296" lon="11.8407857"><ele>1097.0</ele><time>2026-04-15T12:14:35.535Z</time></trkpt><trkpt lat="46.0367564" lon="11.8407683"><ele>1097.0</ele><time>2026-04-15T12:14:37.535Z</time></trkpt><trkpt lat="46.0366825" lon="11.8407555"><ele>1097.0</ele><time>2026-04-15T12:14:39.536Z</time></trkpt><trkpt lat="46.0366178" lon="11.8407369"><ele>1097.0</ele><time>2026-04-15T12:14:41.536Z</time></trkpt><trkpt lat="46.036539" lon="11.8406994"><ele>1097.0</ele><time>2026-04-15T12:14:44.536Z</time></trkpt><trkpt lat="46.0364514" lon="11.8406552"><ele>1097.0</ele><time>2026-04-15T12:14:47.536Z</time></trkpt><trkpt lat="46.0363687" lon="11.8406385"><ele>1096.857142857143</ele><time>2026-04-15T12:14:49.534Z</time></trkpt><trkpt lat="46.0363017" lon="11.8406132"><ele>1096.7142857142858</ele><time>2026-04-15T12:14:51.535Z</time></trkpt><trkpt lat="46.0362361" lon="11.8405807"><ele>1096.5714285714287</ele><time>2026-04-15T12:14:53.535Z</time></trkpt><trkpt lat="46.0361676" lon="11.8405378"><ele>1096.4285714285716</ele><time>2026-04-15T12:14:55.534Z</time></trkpt><trkpt lat="46.0361151" lon="11.8404759"><ele>1096.2857142857142</ele><time>2026-04-15T12:14:57.534Z</time></trkpt><trkpt lat="46.0360532" lon="11.8403807"><ele>1096.1428571428573</ele><time>2026-04-15T12:15:00.534Z</time></trkpt><trkpt lat="46.0359894" lon="11.8403207"><ele>1096.0</ele><time>2026-04-15T12:15:03.535Z</time></trkpt><trkpt lat="46.0359214" lon="11.8403156"><ele>1096.0000000000002</ele><time>2026-04-15T12:15:05.535Z</time></trkpt><trkpt lat="46.0358518" lon="11.8403295"><ele>1096.0</ele><time>2026-04-15T12:15:07.535Z</time></trkpt><trkpt lat="46.0357704" lon="11.8403711"><ele>1096.0</ele><time>2026-04-15T12:15:10.536Z</time></trkpt><trkpt lat="46.0357079" lon="11.8404045"><ele>1096.0</ele><time>2026-04-15T12:15:12.535Z</time></trkpt><trkpt lat="46.0356434" lon="11.8404288"><ele>1096.0</ele><time>2026-04-15T12:15:14.536Z</time></trkpt><trkpt lat="46.0355756" lon="11.8404784"><ele>1096.0000000000002</ele><time>2026-04-15T12:15:17.535Z</time></trkpt><trkpt lat="46.0355028" lon="11.840522"><ele>1096.0</ele><time>2026-04-15T12:15:20.535Z</time></trkpt><trkpt lat="46.0354168" lon="11.8405432"><ele>1096.3333333333333</ele><time>2026-04-15T12:15:23.534Z</time></trkpt><trkpt lat="46.035324" lon="11.8405576"><ele>1096.6666666666665</ele><time>2026-04-15T12:15:26.535Z</time></trkpt><trkpt lat="46.0352541" lon="11.8405614"><ele>1097.0</ele><time>2026-04-15T12:15:28.534Z</time></trkpt><trkpt lat="46.0351878" lon="11.8405592"><ele>1097.3333333333333</ele><time>2026-04-15T12:15:30.534Z</time></trkpt><trkpt lat="46.0350974" lon="11.8405591"><ele>1097.6666666666667</ele><time>2026-04-15T12:15:33.534Z</time></trkpt><trkpt lat="46.0350144" lon="11.8405308"><ele>1098.0</ele><time>2026-04-15T12:15:36.534Z</time></trkpt><trkpt lat="46.0349454" lon="11.8405145"><ele>1099.2857142857142</ele><time>2026-04-15T12:15:39.534Z</time></trkpt><trkpt lat="46.0348803" lon="11.8405188"><ele>1100.5714285714287</ele><time>2026-04-15T12:15:42.537Z</time></trkpt><trkpt lat="46.034813" lon="11.840522"><ele>1101.857142857143</ele><time>2026-04-15T12:15:45.534Z</time></trkpt><trkpt lat="46.0347503" lon="11.8405403"><ele>1103.142857142857</ele><time>2026-04-15T12:15:48.536Z</time></trkpt><trkpt lat="46.0346729" lon="11.8405838"><ele>1104.4285714285713</ele><time>2026-04-15T12:15:52.535Z</time></trkpt><trkpt lat="46.0346053" lon="11.8405961"><ele>1105.7142857142858</ele><time>2026-04-15T12:15:55.535Z</time></trkpt><trkpt lat="46.0345344" lon="11.8406048"><ele>1107.0</ele><time>2026-04-15T12:15:58.534Z</time></trkpt><trkpt lat="46.0344591" lon="11.84058"><ele>1107.0</ele><time>2026-04-15T12:16:01.535Z</time></trkpt><trkpt lat="46.0344013" lon="11.8405335"><ele>1107.0</ele><time>2026-04-15T12:16:04.534Z</time></trkpt><trkpt lat="46.0343719" lon="11.8404499"><ele>1107.0</ele><time>2026-04-15T12:16:07.537Z</time></trkpt><trkpt lat="46.0343032" lon="11.8404539"><ele>1107.0</ele><time>2026-04-15T12:16:11.536Z</time></trkpt><trkpt lat="46.0342426" lon="11.8405351"><ele>1107.0</ele><time>2026-04-15T12:16:14.535Z</time></trkpt><trkpt lat="46.0342029" lon="11.8406298"><ele>1107.0</ele><time>2026-04-15T12:16:17.538Z</time></trkpt><trkpt lat="46.0341707" lon="11.8407104"><ele>1107.0</ele><time>2026-04-15T12:16:19.539Z</time></trkpt><trkpt lat="46.0341316" lon="11.8407901"><ele>1106.5</ele><time>2026-04-15T12:16:21.539Z</time></trkpt><trkpt lat="46.0340849" lon="11.8408807"><ele>1106.0</ele><time>2026-04-15T12:16:23.535Z</time></trkpt><trkpt lat="46.0340213" lon="11.8409599"><ele>1105.5</ele><time>2026-04-15T12:16:26.535Z</time></trkpt><trkpt lat="46.0339976" lon="11.8410451"><ele>1105.0</ele><time>2026-04-15T12:16:29.536Z</time></trkpt><trkpt lat="46.033979" lon="11.8411679"><ele>1104.5</ele><time>2026-04-15T12:16:33.537Z</time></trkpt><trkpt lat="46.0339245" lon="11.841262"><ele>1104.0</ele><time>2026-04-15T12:16:36.536Z</time></trkpt><trkpt lat="46.0338791" lon="11.8413325"><ele>1100.6666666666667</ele><time>2026-04-15T12:16:38.537Z</time></trkpt><trkpt lat="46.0338307" lon="11.8413922"><ele>1097.3333333333333</ele><time>2026-04-15T12:16:40.538Z</time></trkpt><trkpt lat="46.0337435" lon="11.8414498"><ele>1094.0</ele><time>2026-04-15T12:16:43.535Z</time></trkpt><trkpt lat="46.0336593" lon="11.8415024"><ele>1090.6666666666665</ele><time>2026-04-15T12:16:46.538Z</time></trkpt><trkpt lat="46.0335967" lon="11.8415193"><ele>1087.3333333333333</ele><time>2026-04-15T12:16:48.538Z</time></trkpt><trkpt lat="46.0335081" lon="11.8415424"><ele>1084.0</ele><time>2026-04-15T12:16:51.537Z</time></trkpt><trkpt lat="46.03342" lon="11.8415557"><ele>1084.0</ele><time>2026-04-15T12:16:54.539Z</time></trkpt><trkpt lat="46.0333619" lon="11.8415947"><ele>1084.0</ele><time>2026-04-15T12:16:57.536Z</time></trkpt><trkpt lat="46.0333208" lon="11.8416847"><ele>1084.0</ele><time>2026-04-15T12:17:01.538Z</time></trkpt><trkpt lat="46.0332861" lon="11.8417693"><ele>1084.0</ele><time>2026-04-15T12:17:10.537Z</time></trkpt><trkpt lat="46.0332496" lon="11.841856"><ele>1084.0</ele><time>2026-04-15T12:17:15.537Z</time></trkpt><trkpt lat="46.0331906" lon="11.8419283"><ele>1084.0</ele><time>2026-04-15T12:17:23.539Z</time></trkpt><trkpt lat="46.033133" lon="11.8419705"><ele>1084.0</ele><time>2026-04-15T12:17:27.538Z</time></trkpt><trkpt lat="46.0330758" lon="11.8420333"><ele>1077.5</ele><time>2026-04-15T12:17:32.536Z</time></trkpt><trkpt lat="46.0330217" lon="11.8420846"><ele>1071.0</ele><time>2026-04-15T12:17:37.539Z</time></trkpt><trkpt lat="46.0329609" lon="11.8421247"><ele>1064.5</ele><time>2026-04-15T12:17:42.535Z</time></trkpt><trkpt lat="46.0328561" lon="11.8422394"><ele>1058.0</ele><time>2026-04-15T12:17:55.539Z</time></trkpt><trkpt lat="46.0327924" lon="11.842254"><ele>1051.5</ele><time>2026-04-15T12:17:59.539Z</time></trkpt><trkpt lat="46.0327298" lon="11.8422263"><ele>1045.0</ele><time>2026-04-15T12:18:04.538Z</time></trkpt><trkpt lat="46.0326933" lon="11.8421402"><ele>1045.0</ele><time>2026-04-15T12:18:10.538Z</time></trkpt><trkpt lat="46.0326376" lon="11.8420933"><ele>1045.0</ele><time>2026-04-15T12:18:16.539Z</time></trkpt><trkpt lat="46.0325751" lon="11.8420442"><ele>1045.0</ele><time>2026-04-15T12:18:21.537Z</time></trkpt><trkpt lat="46.0325041" lon="11.8420227"><ele>1045.0</ele><time>2026-04-15T12:18:27.537Z</time></trkpt><trkpt lat="46.0324367" lon="11.8419894"><ele>1045.0</ele><time>2026-04-15T12:18:31.539Z</time></trkpt><trkpt lat="46.0323777" lon="11.8419483"><ele>1045.0</ele><time>2026-04-15T12:18:34.539Z</time></trkpt><trkpt lat="46.0323093" lon="11.8419137"><ele>1045.0</ele><time>2026-04-15T12:18:38.539Z</time></trkpt><trkpt lat="46.0322381" lon="11.8418521"><ele>1044.5714285714284</ele><time>2026-04-15T12:18:43.539Z</time></trkpt><trkpt lat="46.0321748" lon="11.8418299"><ele>1044.142857142857</ele><time>2026-04-15T12:18:47.539Z</time></trkpt><trkpt lat="46.0321113" lon="11.8418169"><ele>1043.7142857142858</ele><time>2026-04-15T12:18:51.539Z</time></trkpt><trkpt lat="46.0320414" lon="11.8418214"><ele>1043.2857142857142</ele><time>2026-04-15T12:18:56.539Z</time></trkpt><trkpt lat="46.0319733" lon="11.8417692"><ele>1042.857142857143</ele><time>2026-04-15T12:19:00.538Z</time></trkpt><trkpt lat="46.0319088" lon="11.8417269"><ele>1042.4285714285713</ele><time>2026-04-15T12:19:04.537Z</time></trkpt><trkpt lat="46.0318413" lon="11.8417003"><ele>1042.0</ele><time>2026-04-15T12:19:08.538Z</time></trkpt><trkpt lat="46.031752" lon="11.841688"><ele>1042.0</ele><time>2026-04-15T12:19:12.534Z</time></trkpt><trkpt lat="46.0316822" lon="11.8416838"><ele>1042.0</ele><time>2026-04-15T12:19:15.536Z</time></trkpt><trkpt lat="46.0316101" lon="11.8416662"><ele>1042.0</ele><time>2026-04-15T12:19:18.538Z</time></trkpt><trkpt lat="46.0315317" lon="11.84163"><ele>1042.0</ele><time>2026-04-15T12:19:21.538Z</time></trkpt><trkpt lat="46.0314655" lon="11.8416357"><ele>1042.0</ele><time>2026-04-15T12:19:24.537Z</time></trkpt><trkpt lat="46.0314023" lon="11.8416558"><ele>1042.0</ele><time>2026-04-15T12:19:27.536Z</time></trkpt><trkpt lat="46.0313505" lon="11.8417226"><ele>1042.0</ele><time>2026-04-15T12:19:30.539Z</time></trkpt><trkpt lat="46.0312777" lon="11.8417696"><ele>1039.857142857143</ele><time>2026-04-15T12:19:33.537Z</time></trkpt><trkpt lat="46.0312032" lon="11.8417983"><ele>1037.7142857142858</ele><time>2026-04-15T12:19:36.537Z</time></trkpt><trkpt lat="46.0311254" lon="11.8418222"><ele>1035.5714285714287</ele><time>2026-04-15T12:19:39.536Z</time></trkpt><trkpt lat="46.0310636" lon="11.8418763"><ele>1033.4285714285716</ele><time>2026-04-15T12:19:42.536Z</time></trkpt><trkpt lat="46.0310108" lon="11.8419507"><ele>1031.2857142857144</ele><time>2026-04-15T12:19:45.538Z</time></trkpt><trkpt lat="46.0309758" lon="11.842036"><ele>1029.142857142857</ele><time>2026-04-15T12:19:48.537Z</time></trkpt><trkpt lat="46.030923" lon="11.8421063"><ele>1027.0</ele><time>2026-04-15T12:19:51.539Z</time></trkpt><trkpt lat="46.0308638" lon="11.842193"><ele>1023.6666666666666</ele><time>2026-04-15T12:19:55.538Z</time></trkpt><trkpt lat="46.0308204" lon="11.8422602"><ele>1020.3333333333333</ele><time>2026-04-15T12:19:58.537Z</time></trkpt><trkpt lat="46.0307489" lon="11.8422877"><ele>1017.0</ele><time>2026-04-15T12:20:01.539Z</time></trkpt><trkpt lat="46.0306801" lon="11.8422735"><ele>1013.6666666666667</ele><time>2026-04-15T12:20:04.536Z</time></trkpt><trkpt lat="46.030594" lon="11.8422852"><ele>1010.3333333333334</ele><time>2026-04-15T12:20:07.539Z</time></trkpt><trkpt lat="46.0305139" lon="11.8422988"><ele>1007.0</ele><time>2026-04-15T12:20:10.538Z</time></trkpt><trkpt lat="46.0304303" lon="11.8423038"><ele>1004.0000000000001</ele><time>2026-04-15T12:20:13.539Z</time></trkpt><trkpt lat="46.0303542" lon="11.8422855"><ele>1001.0</ele><time>2026-04-15T12:20:16.534Z</time></trkpt><trkpt lat="46.0302694" lon="11.8422569"><ele>998.0</ele><time>2026-04-15T12:20:19.539Z</time></trkpt><trkpt lat="46.0301753" lon="11.8422372"><ele>995.0</ele><time>2026-04-15T12:20:22.538Z</time></trkpt><trkpt lat="46.030096" lon="11.8422027"><ele>992.0000000000001</ele><time>2026-04-15T12:20:25.538Z</time></trkpt><trkpt lat="46.0300237" lon="11.8421321"><ele>989.0</ele><time>2026-04-15T12:20:28.537Z</time></trkpt><trkpt lat="46.0299441" lon="11.8420708"><ele>987.0000000000001</ele><time>2026-04-15T12:20:31.536Z</time></trkpt><trkpt lat="46.0298736" lon="11.8420022"><ele>985.0</ele><time>2026-04-15T12:20:34.539Z</time></trkpt><trkpt lat="46.0297862" lon="11.8419374"><ele>983.0</ele><time>2026-04-15T12:20:37.54Z</time></trkpt><trkpt lat="46.029727" lon="11.8418915"><ele>981.0</ele><time>2026-04-15T12:20:39.538Z</time></trkpt><trkpt lat="46.0296674" lon="11.8418238"><ele>979.0000000000001</ele><time>2026-04-15T12:20:41.538Z</time></trkpt><trkpt lat="46.0296085" lon="11.8417555"><ele>977.0</ele><time>2026-04-15T12:20:43.538Z</time></trkpt><trkpt lat="46.029552" lon="11.8417021"><ele>977.0000000000001</ele><time>2026-04-15T12:20:45.54Z</time></trkpt><trkpt lat="46.0294874" lon="11.8416497"><ele>977.0</ele><time>2026-04-15T12:20:48.538Z</time></trkpt><trkpt lat="46.0294329" lon="11.8415972"><ele>977.0000000000001</ele><time>2026-04-15T12:20:59.537Z</time></trkpt><trkpt lat="46.0293787" lon="11.8415385"><ele>977.0000000000001</ele><time>2026-04-15T12:21:02.538Z</time></trkpt><trkpt lat="46.0293282" lon="11.8414768"><ele>977.0</ele><time>2026-04-15T12:21:04.539Z</time></trkpt><trkpt lat="46.0292858" lon="11.8413572"><ele>977.0000000000001</ele><time>2026-04-15T12:21:07.539Z</time></trkpt><trkpt lat="46.0292389" lon="11.8412887"><ele>977.0000000000001</ele><time>2026-04-15T12:21:09.539Z</time></trkpt><trkpt lat="46.0291747" lon="11.8412683"><ele>973.8333333333334</ele><time>2026-04-15T12:21:11.538Z</time></trkpt><trkpt lat="46.0290889" lon="11.8412674"><ele>970.6666666666667</ele><time>2026-04-15T12:21:14.536Z</time></trkpt><trkpt lat="46.0290251" lon="11.8412746"><ele>967.5</ele><time>2026-04-15T12:21:16.537Z</time></trkpt><trkpt lat="46.0289307" lon="11.8412958"><ele>964.3333333333333</ele><time>2026-04-15T12:21:19.539Z</time></trkpt><trkpt lat="46.0288662" lon="11.8412869"><ele>961.1666666666666</ele><time>2026-04-15T12:21:21.537Z</time></trkpt><trkpt lat="46.028787" lon="11.8412575"><ele>958.0</ele><time>2026-04-15T12:21:24.538Z</time></trkpt><trkpt lat="46.028699" lon="11.8412213"><ele>957.9999999999999</ele><time>2026-04-15T12:21:27.539Z</time></trkpt><trkpt lat="46.0286187" lon="11.8411798"><ele>958.0</ele><time>2026-04-15T12:21:30.536Z</time></trkpt><trkpt lat="46.0285328" lon="11.8411708"><ele>958.0</ele><time>2026-04-15T12:21:33.539Z</time></trkpt><trkpt lat="46.0284493" lon="11.8411472"><ele>958.0</ele><time>2026-04-15T12:21:35.538Z</time></trkpt><trkpt lat="46.0283711" lon="11.8411149"><ele>957.9999999999999</ele><time>2026-04-15T12:21:37.539Z</time></trkpt><trkpt lat="46.0282996" lon="11.8410941"><ele>958.0</ele><time>2026-04-15T12:21:39.538Z</time></trkpt><trkpt lat="46.0282326" lon="11.8410702"><ele>955.4999999999999</ele><time>2026-04-15T12:21:41.538Z</time></trkpt><trkpt lat="46.0281491" lon="11.8410541"><ele>953.0</ele><time>2026-04-15T12:21:43.538Z</time></trkpt><trkpt lat="46.0280642" lon="11.8410398"><ele>950.5</ele><time>2026-04-15T12:21:45.537Z</time></trkpt><trkpt lat="46.0279924" lon="11.8410137"><ele>948.0</ele><time>2026-04-15T12:21:47.537Z</time></trkpt><trkpt lat="46.0279231" lon="11.840994"><ele>945.4999999999999</ele><time>2026-04-15T12:21:49.535Z</time></trkpt><trkpt lat="46.0278531" lon="11.8409741"><ele>943.0</ele><time>2026-04-15T12:21:51.534Z</time></trkpt><trkpt lat="46.0277886" lon="11.8409526"><ele>943.4999999999999</ele><time>2026-04-15T12:21:53.534Z</time></trkpt><trkpt lat="46.0276982" lon="11.8409232"><ele>944.0</ele><time>2026-04-15T12:21:56.537Z</time></trkpt><trkpt lat="46.0276231" lon="11.8408853"><ele>944.5</ele><time>2026-04-15T12:21:58.537Z</time></trkpt><trkpt lat="46.0275552" lon="11.8408356"><ele>945.0</ele><time>2026-04-15T12:22:00.534Z</time></trkpt><trkpt lat="46.0274972" lon="11.8407895"><ele>945.4999999999999</ele><time>2026-04-15T12:22:02.536Z</time></trkpt><trkpt lat="46.0274135" lon="11.8407264"><ele>946.0</ele><time>2026-04-15T12:22:05.537Z</time></trkpt><trkpt lat="46.0273443" lon="11.8406978"><ele>945.9999999999999</ele><time>2026-04-15T12:22:07.538Z</time></trkpt><trkpt lat="46.0272766" lon="11.8406678"><ele>946.0</ele><time>2026-04-15T12:22:09.537Z</time></trkpt><trkpt lat="46.0271897" lon="11.8406309"><ele>946.0</ele><time>2026-04-15T12:22:12.538Z</time></trkpt><trkpt lat="46.027124" lon="11.8406071"><ele>946.0</ele><time>2026-04-15T12:22:15.537Z</time></trkpt><trkpt lat="46.027051" lon="11.8405832"><ele>945.9999999999999</ele><time>2026-04-15T12:22:18.538Z</time></trkpt><trkpt lat="46.026988" lon="11.8405588"><ele>946.0</ele><time>2026-04-15T12:22:21.538Z</time></trkpt><trkpt lat="46.0269092" lon="11.8405307"><ele>946.0</ele><time>2026-04-15T12:22:25.538Z</time></trkpt><trkpt lat="46.0268355" lon="11.8405197"><ele>946.0</ele><time>2026-04-15T12:22:29.538Z</time></trkpt><trkpt lat="46.026768" lon="11.8405247"><ele>946.0</ele><time>2026-04-15T12:22:33.539Z</time></trkpt><trkpt lat="46.0266901" lon="11.8405295"><ele>946.0</ele><time>2026-04-15T12:22:36.539Z</time></trkpt><trkpt lat="46.0266274" lon="11.8405501"><ele>946.0</ele><time>2026-04-15T12:22:39.539Z</time></trkpt><trkpt lat="46.0265417" lon="11.8405256"><ele>946.0</ele><time>2026-04-15T12:22:42.538Z</time></trkpt><trkpt lat="46.0264754" lon="11.8405074"><ele>946.0</ele><time>2026-04-15T12:22:44.538Z</time></trkpt><trkpt lat="46.0264063" lon="11.840493"><ele>942.2857142857143</ele><time>2026-04-15T12:22:47.539Z</time></trkpt><trkpt lat="46.0263581" lon="11.8405619"><ele>938.5714285714284</ele><time>2026-04-15T12:22:51.539Z</time></trkpt><trkpt lat="46.0263794" lon="11.840683"><ele>934.8571428571428</ele><time>2026-04-15T12:22:54.539Z</time></trkpt><trkpt lat="46.0263987" lon="11.8407727"><ele>931.1428571428571</ele><time>2026-04-15T12:22:56.539Z</time></trkpt><trkpt lat="46.026398" lon="11.8408773"><ele>927.4285714285713</ele><time>2026-04-15T12:22:59.538Z</time></trkpt><trkpt lat="46.0263681" lon="11.8409594"><ele>923.7142857142856</ele><time>2026-04-15T12:23:02.537Z</time></trkpt><trkpt lat="46.0263014" lon="11.8409934"><ele>919.9999999999999</ele><time>2026-04-15T12:23:05.537Z</time></trkpt><trkpt lat="46.026225" lon="11.8409923"><ele>919.9999999999999</ele><time>2026-04-15T12:23:09.537Z</time></trkpt><trkpt lat="46.0261557" lon="11.8409589"><ele>920.0</ele><time>2026-04-15T12:23:13.539Z</time></trkpt><trkpt lat="46.0260855" lon="11.8409356"><ele>919.9999999999999</ele><time>2026-04-15T12:23:16.539Z</time></trkpt><trkpt lat="46.0260195" lon="11.8409258"><ele>919.9999999999999</ele><time>2026-04-15T12:23:19.537Z</time></trkpt><trkpt lat="46.0259488" lon="11.8408949"><ele>920.0</ele><time>2026-04-15T12:23:23.535Z</time></trkpt><trkpt lat="46.0258787" lon="11.8408323"><ele>919.9999999999999</ele><time>2026-04-15T12:23:27.537Z</time></trkpt><trkpt lat="46.0258191" lon="11.8407684"><ele>919.9999999999999</ele><time>2026-04-15T12:23:30.537Z</time></trkpt><trkpt lat="46.0257608" lon="11.8407235"><ele>914.5714285714284</ele><time>2026-04-15T12:23:33.538Z</time></trkpt><trkpt lat="46.0256912" lon="11.8406672"><ele>909.1428571428571</ele><time>2026-04-15T12:23:36.538Z</time></trkpt><trkpt lat="46.0256215" lon="11.840627"><ele>903.7142857142857</ele><time>2026-04-15T12:23:39.537Z</time></trkpt><trkpt lat="46.0255547" lon="11.8406031"><ele>898.2857142857142</ele><time>2026-04-15T12:23:42.539Z</time></trkpt><trkpt lat="46.0254912" lon="11.8405813"><ele>892.8571428571429</ele><time>2026-04-15T12:23:45.536Z</time></trkpt><trkpt lat="46.0254238" lon="11.8405637"><ele>887.4285714285714</ele><time>2026-04-15T12:23:48.537Z</time></trkpt><trkpt lat="46.0253521" lon="11.8405475"><ele>882.0</ele><time>2026-04-15T12:23:51.537Z</time></trkpt><trkpt lat="46.0252887" lon="11.8404952"><ele>882.0</ele><time>2026-04-15T12:23:54.539Z</time></trkpt><trkpt lat="46.0252323" lon="11.840439"><ele>882.0</ele><time>2026-04-15T12:23:57.537Z</time></trkpt><trkpt lat="46.0251799" lon="11.8403709"><ele>882.0</ele><time>2026-04-15T12:24:00.538Z</time></trkpt><trkpt lat="46.0251288" lon="11.8402916"><ele>882.0</ele><time>2026-04-15T12:24:03.537Z</time></trkpt><trkpt lat="46.0250702" lon="11.8402064"><ele>882.0</ele><time>2026-04-15T12:24:06.539Z</time></trkpt><trkpt lat="46.0250043" lon="11.8401183"><ele>882.0</ele><time>2026-04-15T12:24:09.539Z</time></trkpt><trkpt lat="46.0249388" lon="11.8400342"><ele>878.6666666666666</ele><time>2026-04-15T12:24:12.539Z</time></trkpt><trkpt lat="46.0248663" lon="11.8399532"><ele>875.3333333333333</ele><time>2026-04-15T12:24:15.538Z</time></trkpt><trkpt lat="46.0248165" lon="11.8398719"><ele>872.0</ele><time>2026-04-15T12:24:18.538Z</time></trkpt><trkpt lat="46.0247648" lon="11.8397971"><ele>868.6666666666666</ele><time>2026-04-15T12:24:21.538Z</time></trkpt><trkpt lat="46.0247269" lon="11.8397213"><ele>865.3333333333333</ele><time>2026-04-15T12:24:24.538Z</time></trkpt><trkpt lat="46.0246747" lon="11.8396295"><ele>862.0</ele><time>2026-04-15T12:24:27.537Z</time></trkpt><trkpt lat="46.0246146" lon="11.8395354"><ele>861.9999999999999</ele><time>2026-04-15T12:24:30.643Z</time></trkpt><trkpt lat="46.0245634" lon="11.8394543"><ele>862.0</ele><time>2026-04-15T12:24:33.537Z</time></trkpt><trkpt lat="46.0245012" lon="11.8393765"><ele>862.0</ele><time>2026-04-15T12:24:37.537Z</time></trkpt><trkpt lat="46.0244317" lon="11.8393104"><ele>862.0</ele><time>2026-04-15T12:24:41.539Z</time></trkpt><trkpt lat="46.0243628" lon="11.8392488"><ele>861.9999999999999</ele><time>2026-04-15T12:24:44.539Z</time></trkpt><trkpt lat="46.0242866" lon="11.8392223"><ele>862.0</ele><time>2026-04-15T12:24:47.536Z</time></trkpt><trkpt lat="46.0242119" lon="11.8392159"><ele>862.0</ele><time>2026-04-15T12:24:50.538Z</time></trkpt><trkpt lat="46.0241663" lon="11.8392942"><ele>862.0</ele><time>2026-04-15T12:24:55.539Z</time></trkpt><trkpt lat="46.024186" lon="11.8393881"><ele>862.0</ele><time>2026-04-15T12:24:59.539Z</time></trkpt><trkpt lat="46.024214" lon="11.8395006"><ele>862.0</ele><time>2026-04-15T12:25:04.539Z</time></trkpt><trkpt lat="46.0242244" lon="11.8396071"><ele>862.0</ele><time>2026-04-15T12:25:08.539Z</time></trkpt><trkpt lat="46.0242305" lon="11.8396984"><ele>862.0</ele><time>2026-04-15T12:25:11.536Z</time></trkpt><trkpt lat="46.0242469" lon="11.8398033"><ele>862.0</ele><time>2026-04-15T12:25:14.537Z</time></trkpt><trkpt lat="46.0242429" lon="11.839911"><ele>861.9999999999999</ele><time>2026-04-15T12:25:17.539Z</time></trkpt><trkpt lat="46.024256" lon="11.8400146"><ele>862.0</ele><time>2026-04-15T12:25:20.539Z</time></trkpt><trkpt lat="46.0242571" lon="11.8401172"><ele>862.0</ele><time>2026-04-15T12:25:23.539Z</time></trkpt><trkpt lat="46.0242717" lon="11.8402284"><ele>862.0</ele><time>2026-04-15T12:25:26.537Z</time></trkpt><trkpt lat="46.0242883" lon="11.8403404"><ele>861.9999999999999</ele><time>2026-04-15T12:25:29.539Z</time></trkpt><trkpt lat="46.0242894" lon="11.8404504"><ele>862.0</ele><time>2026-04-15T12:25:32.539Z</time></trkpt><trkpt lat="46.0242698" lon="11.8405804"><ele>858.2857142857143</ele><time>2026-04-15T12:25:35.54Z</time></trkpt><trkpt lat="46.024291" lon="11.8406972"><ele>854.5714285714286</ele><time>2026-04-15T12:25:38.538Z</time></trkpt><trkpt lat="46.0243254" lon="11.8407877"><ele>850.8571428571429</ele><time>2026-04-15T12:25:41.535Z</time></trkpt><trkpt lat="46.0243581" lon="11.8408837"><ele>847.1428571428571</ele><time>2026-04-15T12:25:44.539Z</time></trkpt><trkpt lat="46.0243971" lon="11.8409683"><ele>843.4285714285713</ele><time>2026-04-15T12:25:47.538Z</time></trkpt><trkpt lat="46.0244219" lon="11.8410623"><ele>839.7142857142857</ele><time>2026-04-15T12:25:50.536Z</time></trkpt><trkpt lat="46.0244515" lon="11.8411663"><ele>836.0</ele><time>2026-04-15T12:25:53.539Z</time></trkpt><trkpt lat="46.0244911" lon="11.8412682"><ele>831.3333333333334</ele><time>2026-04-15T12:25:56.539Z</time></trkpt><trkpt lat="46.0245132" lon="11.8413758"><ele>826.6666666666667</ele><time>2026-04-15T12:25:59.539Z</time></trkpt><trkpt lat="46.0245469" lon="11.8414766"><ele>822.0</ele><time>2026-04-15T12:26:02.536Z</time></trkpt><trkpt lat="46.0245792" lon="11.8415771"><ele>817.3333333333333</ele><time>2026-04-15T12:26:05.538Z</time></trkpt><trkpt lat="46.0245818" lon="11.8416764"><ele>812.6666666666666</ele><time>2026-04-15T12:26:09.538Z</time></trkpt><trkpt lat="46.0245087" lon="11.8416353"><ele>808.0</ele><time>2026-04-15T12:26:25.539Z</time></trkpt><trkpt lat="46.0244318" lon="11.8415878"><ele>807.9999999999999</ele><time>2026-04-15T12:26:28.537Z</time></trkpt><trkpt lat="46.0243495" lon="11.8415398"><ele>808.0</ele><time>2026-04-15T12:26:31.539Z</time></trkpt><trkpt lat="46.0242893" lon="11.8415012"><ele>808.0</ele><time>2026-04-15T12:26:33.538Z</time></trkpt><trkpt lat="46.0242209" lon="11.8414568"><ele>808.0</ele><time>2026-04-15T12:26:35.538Z</time></trkpt><trkpt lat="46.0241443" lon="11.841422"><ele>807.9999999999999</ele><time>2026-04-15T12:26:37.537Z</time></trkpt><trkpt lat="46.0240727" lon="11.8413753"><ele>808.0</ele><time>2026-04-15T12:26:39.539Z</time></trkpt><trkpt lat="46.0240034" lon="11.8413262"><ele>805.6666666666666</ele><time>2026-04-15T12:26:41.539Z</time></trkpt><trkpt lat="46.0239304" lon="11.8412679"><ele>803.3333333333333</ele><time>2026-04-15T12:26:43.538Z</time></trkpt><trkpt lat="46.0238658" lon="11.8412136"><ele>801.0</ele><time>2026-04-15T12:26:45.538Z</time></trkpt><trkpt lat="46.0238034" lon="11.8411604"><ele>798.6666666666667</ele><time>2026-04-15T12:26:47.538Z</time></trkpt><trkpt lat="46.0237421" lon="11.8411162"><ele>796.3333333333334</ele><time>2026-04-15T12:26:49.539Z</time></trkpt><trkpt lat="46.0236888" lon="11.8410548"><ele>794.0</ele><time>2026-04-15T12:26:51.539Z</time></trkpt><trkpt lat="46.0236297" lon="11.8409605"><ele>794.0000000000001</ele><time>2026-04-15T12:26:54.538Z</time></trkpt><trkpt lat="46.0235754" lon="11.840871"><ele>794.0</ele><time>2026-04-15T12:26:57.537Z</time></trkpt><trkpt lat="46.0235258" lon="11.840789"><ele>794.0</ele><time>2026-04-15T12:27:00.539Z</time></trkpt><trkpt lat="46.023485" lon="11.8407004"><ele>794.0</ele><time>2026-04-15T12:27:03.539Z</time></trkpt><trkpt lat="46.023431" lon="11.8406385"><ele>794.0000000000001</ele><time>2026-04-15T12:27:06.538Z</time></trkpt><trkpt lat="46.0233807" lon="11.840563"><ele>794.0</ele><time>2026-04-15T12:27:09.539Z</time></trkpt><trkpt lat="46.0233211" lon="11.8404815"><ele>789.5000000000001</ele><time>2026-04-15T12:27:12.538Z</time></trkpt><trkpt lat="46.0232742" lon="11.8403851"><ele>785.0</ele><time>2026-04-15T12:27:15.539Z</time></trkpt><trkpt lat="46.023207" lon="11.8402808"><ele>780.5</ele><time>2026-04-15T12:27:18.539Z</time></trkpt><trkpt lat="46.0231584" lon="11.8402107"><ele>776.0</ele><time>2026-04-15T12:27:20.538Z</time></trkpt><trkpt lat="46.0231028" lon="11.8401374"><ele>771.5</ele><time>2026-04-15T12:27:22.538Z</time></trkpt><trkpt lat="46.0230412" lon="11.8400331"><ele>767.0</ele><time>2026-04-15T12:27:24.539Z</time></trkpt><trkpt lat="46.0229655" lon="11.8399254"><ele>767.0</ele><time>2026-04-15T12:27:26.538Z</time></trkpt><trkpt lat="46.0228909" lon="11.8398499"><ele>767.0</ele><time>2026-04-15T12:27:28.537Z</time></trkpt><trkpt lat="46.022801" lon="11.8397818"><ele>767.0</ele><time>2026-04-15T12:27:30.538Z</time></trkpt><trkpt lat="46.0227118" lon="11.8397285"><ele>767.0</ele><time>2026-04-15T12:27:32.539Z</time></trkpt><trkpt lat="46.0226223" lon="11.8396571"><ele>767.0</ele><time>2026-04-15T12:27:34.537Z</time></trkpt><trkpt lat="46.0225385" lon="11.8395871"><ele>761.8333333333333</ele><time>2026-04-15T12:27:36.538Z</time></trkpt><trkpt lat="46.0224681" lon="11.8395318"><ele>756.6666666666666</ele><time>2026-04-15T12:27:38.538Z</time></trkpt><trkpt lat="46.0224063" lon="11.8394781"><ele>751.5</ele><time>2026-04-15T12:27:40.539Z</time></trkpt><trkpt lat="46.0223371" lon="11.8394123"><ele>746.3333333333334</ele><time>2026-04-15T12:27:43.537Z</time></trkpt><trkpt lat="46.0222682" lon="11.8393452"><ele>741.1666666666667</ele><time>2026-04-15T12:27:46.538Z</time></trkpt><trkpt lat="46.0222234" lon="11.8392726"><ele>736.0</ele><time>2026-04-15T12:27:48.539Z</time></trkpt><trkpt lat="46.0221853" lon="11.8391745"><ele>736.0</ele><time>2026-04-15T12:27:50.538Z</time></trkpt><trkpt lat="46.0221648" lon="11.8390757"><ele>736.0</ele><time>2026-04-15T12:27:52.539Z</time></trkpt><trkpt lat="46.0221437" lon="11.8389481"><ele>736.0</ele><time>2026-04-15T12:27:55.539Z</time></trkpt><trkpt lat="46.0220841" lon="11.8388984"><ele>736.0</ele><time>2026-04-15T12:28:01.539Z</time></trkpt><trkpt lat="46.0220357" lon="11.8389774"><ele>736.0</ele><time>2026-04-15T12:28:05.539Z</time></trkpt><trkpt lat="46.0219925" lon="11.8390744"><ele>736.0</ele><time>2026-04-15T12:28:09.539Z</time></trkpt><trkpt lat="46.021965" lon="11.8391794"><ele>736.0</ele><time>2026-04-15T12:28:12.539Z</time></trkpt><trkpt lat="46.0219409" lon="11.8392944"><ele>736.0</ele><time>2026-04-15T12:28:15.539Z</time></trkpt><trkpt lat="46.0219361" lon="11.8394147"><ele>736.0</ele><time>2026-04-15T12:28:18.536Z</time></trkpt><trkpt lat="46.0219409" lon="11.8395381"><ele>736.0</ele><time>2026-04-15T12:28:21.538Z</time></trkpt><trkpt lat="46.0219507" lon="11.8396738"><ele>736.0</ele><time>2026-04-15T12:28:24.538Z</time></trkpt><trkpt lat="46.0219548" lon="11.8397725"><ele>736.0</ele><time>2026-04-15T12:28:26.539Z</time></trkpt><trkpt lat="46.0219693" lon="11.8398687"><ele>733.7142857142858</ele><time>2026-04-15T12:28:28.538Z</time></trkpt><trkpt lat="46.0219924" lon="11.8399673"><ele>731.4285714285713</ele><time>2026-04-15T12:28:30.539Z</time></trkpt><trkpt lat="46.0220292" lon="11.8400533"><ele>729.1428571428571</ele><time>2026-04-15T12:28:32.539Z</time></trkpt><trkpt lat="46.0220686" lon="11.8401266"><ele>726.8571428571429</ele><time>2026-04-15T12:28:34.538Z</time></trkpt><trkpt lat="46.0221097" lon="11.8401976"><ele>724.5714285714287</ele><time>2026-04-15T12:28:36.538Z</time></trkpt><trkpt lat="46.0221634" lon="11.840271"><ele>722.2857142857142</ele><time>2026-04-15T12:28:38.539Z</time></trkpt><trkpt lat="46.0222199" lon="11.8403494"><ele>720.0</ele><time>2026-04-15T12:28:40.537Z</time></trkpt><trkpt lat="46.02226" lon="11.8404345"><ele>717.5</ele><time>2026-04-15T12:28:42.539Z</time></trkpt><trkpt lat="46.0222861" lon="11.8405373"><ele>715.0</ele><time>2026-04-15T12:28:44.539Z</time></trkpt><trkpt lat="46.0222951" lon="11.8406724"><ele>712.5</ele><time>2026-04-15T12:28:47.538Z</time></trkpt><trkpt lat="46.0223221" lon="11.8407741"><ele>710.0</ele><time>2026-04-15T12:28:49.539Z</time></trkpt><trkpt lat="46.0223605" lon="11.8408953"><ele>707.5</ele><time>2026-04-15T12:28:52.538Z</time></trkpt><trkpt lat="46.022379" lon="11.8409861"><ele>705.0</ele><time>2026-04-15T12:28:54.534Z</time></trkpt><trkpt lat="46.0223912" lon="11.8410879"><ele>702.8333333333334</ele><time>2026-04-15T12:28:56.539Z</time></trkpt><trkpt lat="46.0223933" lon="11.8411976"><ele>700.6666666666666</ele><time>2026-04-15T12:28:58.538Z</time></trkpt><trkpt lat="46.0223959" lon="11.8412933"><ele>698.5</ele><time>2026-04-15T12:29:00.537Z</time></trkpt><trkpt lat="46.0223921" lon="11.8413972"><ele>696.3333333333333</ele><time>2026-04-15T12:29:02.539Z</time></trkpt><trkpt lat="46.0224055" lon="11.8415234"><ele>694.1666666666666</ele><time>2026-04-15T12:29:04.538Z</time></trkpt><trkpt lat="46.0224329" lon="11.8416639"><ele>692.0</ele><time>2026-04-15T12:29:06.539Z</time></trkpt><trkpt lat="46.0224553" lon="11.8418015"><ele>696.5</ele><time>2026-04-15T12:29:08.539Z</time></trkpt><trkpt lat="46.0224895" lon="11.8419267"><ele>701.0</ele><time>2026-04-15T12:29:10.539Z</time></trkpt><trkpt lat="46.0225302" lon="11.8420131"><ele>705.5</ele><time>2026-04-15T12:29:12.538Z</time></trkpt><trkpt lat="46.0225885" lon="11.8421048"><ele>710.0</ele><time>2026-04-15T12:29:15.538Z</time></trkpt><trkpt lat="46.0226302" lon="11.8422222"><ele>714.5</ele><time>2026-04-15T12:29:18.537Z</time></trkpt><trkpt lat="46.0226623" lon="11.8423437"><ele>719.0</ele><time>2026-04-15T12:29:21.539Z</time></trkpt><trkpt lat="46.0227069" lon="11.8424286"><ele>719.0</ele><time>2026-04-15T12:29:23.537Z</time></trkpt><trkpt lat="46.0227574" lon="11.8425332"><ele>719.0</ele><time>2026-04-15T12:29:25.539Z</time></trkpt><trkpt lat="46.0228115" lon="11.8426361"><ele>719.0</ele><time>2026-04-15T12:29:27.536Z</time></trkpt><trkpt lat="46.0228616" lon="11.8427193"><ele>719.0</ele><time>2026-04-15T12:29:29.539Z</time></trkpt><trkpt lat="46.0229195" lon="11.8427908"><ele>719.0</ele><time>2026-04-15T12:29:31.539Z</time></trkpt><trkpt lat="46.0229735" lon="11.8428532"><ele>719.0</ele><time>2026-04-15T12:29:33.539Z</time></trkpt><trkpt lat="46.0230225" lon="11.8429207"><ele>721.2</ele><time>2026-04-15T12:29:35.539Z</time></trkpt><trkpt lat="46.0230847" lon="11.8430106"><ele>723.4000000000001</ele><time>2026-04-15T12:29:37.538Z</time></trkpt><trkpt lat="46.023147" lon="11.8431096"><ele>725.6</ele><time>2026-04-15T12:29:39.539Z</time></trkpt><trkpt lat="46.0232026" lon="11.8432056"><ele>727.8</ele><time>2026-04-15T12:29:41.536Z</time></trkpt><trkpt lat="46.0232658" lon="11.8433074"><ele>730.0</ele><time>2026-04-15T12:29:43.538Z</time></trkpt><trkpt lat="46.023328" lon="11.8434158"><ele>726.3333333333334</ele><time>2026-04-15T12:29:45.538Z</time></trkpt><trkpt lat="46.0233809" lon="11.8435235"><ele>722.6666666666667</ele><time>2026-04-15T12:29:47.538Z</time></trkpt><trkpt lat="46.0234294" lon="11.843629"><ele>719.0</ele><time>2026-04-15T12:29:49.539Z</time></trkpt><trkpt lat="46.0234765" lon="11.8437376"><ele>715.3333333333334</ele><time>2026-04-15T12:29:51.539Z</time></trkpt><trkpt lat="46.023524" lon="11.8438436"><ele>711.6666666666666</ele><time>2026-04-15T12:29:53.538Z</time></trkpt><trkpt lat="46.0235768" lon="11.8439512"><ele>708.0</ele><time>2026-04-15T12:29:55.538Z</time></trkpt><trkpt lat="46.0236329" lon="11.8440535"><ele>708.0</ele><time>2026-04-15T12:29:57.539Z</time></trkpt><trkpt lat="46.0236794" lon="11.8441612"><ele>708.0</ele><time>2026-04-15T12:29:59.537Z</time></trkpt><trkpt lat="46.0237175" lon="11.8442867"><ele>708.0</ele><time>2026-04-15T12:30:01.54Z</time></trkpt><trkpt lat="46.0237575" lon="11.8444079"><ele>708.0</ele><time>2026-04-15T12:30:03.538Z</time></trkpt><trkpt lat="46.0237982" lon="11.8445209"><ele>708.0</ele><time>2026-04-15T12:30:05.538Z</time></trkpt><trkpt lat="46.0238446" lon="11.8446386"><ele>704.8</ele><time>2026-04-15T12:30:07.538Z</time></trkpt><trkpt lat="46.0239044" lon="11.844751"><ele>701.5999999999999</ele><time>2026-04-15T12:30:09.539Z</time></trkpt><trkpt lat="46.0239589" lon="11.8448578"><ele>698.4000000000001</ele><time>2026-04-15T12:30:11.539Z</time></trkpt><trkpt lat="46.0240179" lon="11.8449786"><ele>695.2</ele><time>2026-04-15T12:30:13.537Z</time></trkpt><trkpt lat="46.0240702" lon="11.8450899"><ele>692.0</ele><time>2026-04-15T12:30:15.538Z</time></trkpt><trkpt lat="46.0241171" lon="11.8451993"><ele>690.6666666666666</ele><time>2026-04-15T12:30:17.537Z</time></trkpt><trkpt lat="46.0241541" lon="11.8452989"><ele>689.3333333333333</ele><time>2026-04-15T12:30:19.538Z</time></trkpt><trkpt lat="46.0241849" lon="11.8453831"><ele>688.0</ele><time>2026-04-15T12:30:21.539Z</time></trkpt><trkpt lat="46.024225" lon="11.8454923"><ele>686.6666666666666</ele><time>2026-04-15T12:30:24.538Z</time></trkpt><trkpt lat="46.0242555" lon="11.8455839"><ele>685.3333333333334</ele><time>2026-04-15T12:30:27.538Z</time></trkpt><trkpt lat="46.0242695" lon="11.8456883"><ele>684.0</ele><time>2026-04-15T12:30:31.536Z</time></trkpt><trkpt lat="46.0242944" lon="11.8457981"><ele>684.0</ele><time>2026-04-15T12:30:34.539Z</time></trkpt><trkpt lat="46.0243063" lon="11.8459061"><ele>684.0</ele><time>2026-04-15T12:30:37.539Z</time></trkpt><trkpt lat="46.0243419" lon="11.8460245"><ele>684.0</ele><time>2026-04-15T12:30:40.538Z</time></trkpt><trkpt lat="46.0243711" lon="11.846137"><ele>684.0</ele><time>2026-04-15T12:30:43.539Z</time></trkpt><trkpt lat="46.0244002" lon="11.8462381"><ele>684.0</ele><time>2026-04-15T12:30:46.537Z</time></trkpt><trkpt lat="46.0244402" lon="11.8463259"><ele>684.0</ele><time>2026-04-15T12:30:49.536Z</time></trkpt><trkpt lat="46.0244814" lon="11.8464282"><ele>681.7142857142857</ele><time>2026-04-15T12:30:52.537Z</time></trkpt><trkpt lat="46.024514" lon="11.846532"><ele>679.4285714285714</ele><time>2026-04-15T12:30:56.539Z</time></trkpt><trkpt lat="46.0245707" lon="11.8466148"><ele>677.1428571428571</ele><time>2026-04-15T12:30:59.537Z</time></trkpt><trkpt lat="46.0246253" lon="11.8466661"><ele>674.8571428571429</ele><time>2026-04-15T12:31:01.538Z</time></trkpt><trkpt lat="46.0246918" lon="11.8467129"><ele>672.5714285714286</ele><time>2026-04-15T12:31:04.538Z</time></trkpt><trkpt lat="46.0247533" lon="11.8467449"><ele>670.2857142857142</ele><time>2026-04-15T12:31:07.535Z</time></trkpt><trkpt lat="46.0248219" lon="11.8467901"><ele>668.0</ele><time>2026-04-15T12:31:11.536Z</time></trkpt><trkpt lat="46.0248947" lon="11.8468385"><ele>664.8571428571429</ele><time>2026-04-15T12:31:15.538Z</time></trkpt><trkpt lat="46.0249518" lon="11.8468848"><ele>661.7142857142858</ele><time>2026-04-15T12:31:19.538Z</time></trkpt><trkpt lat="46.0250227" lon="11.846913"><ele>658.5714285714287</ele><time>2026-04-15T12:31:23.537Z</time></trkpt><trkpt lat="46.0250835" lon="11.8469632"><ele>655.4285714285714</ele><time>2026-04-15T12:31:26.539Z</time></trkpt><trkpt lat="46.0251375" lon="11.8470223"><ele>652.2857142857143</ele><time>2026-04-15T12:31:30.536Z</time></trkpt><trkpt lat="46.0251967" lon="11.8470912"><ele>649.1428571428572</ele><time>2026-04-15T12:31:33.537Z</time></trkpt><trkpt lat="46.0252534" lon="11.8471652"><ele>646.0</ele><time>2026-04-15T12:31:37.538Z</time></trkpt><trkpt lat="46.0253072" lon="11.8472178"><ele>645.3333333333334</ele><time>2026-04-15T12:31:41.538Z</time></trkpt><trkpt lat="46.0253655" lon="11.8472836"><ele>644.6666666666667</ele><time>2026-04-15T12:31:46.538Z</time></trkpt><trkpt lat="46.0254006" lon="11.8473619"><ele>644.0</ele><time>2026-04-15T12:31:49.539Z</time></trkpt><trkpt lat="46.0254673" lon="11.8474361"><ele>643.3333333333334</ele><time>2026-04-15T12:31:53.54Z</time></trkpt><trkpt lat="46.0255155" lon="11.8475063"><ele>642.6666666666666</ele><time>2026-04-15T12:31:55.537Z</time></trkpt><trkpt lat="46.0255716" lon="11.8476135"><ele>642.0</ele><time>2026-04-15T12:31:58.539Z</time></trkpt><trkpt lat="46.0256226" lon="11.8476978"><ele>639.1428571428571</ele><time>2026-04-15T12:32:01.538Z</time></trkpt><trkpt lat="46.0256688" lon="11.8477663"><ele>636.2857142857142</ele><time>2026-04-15T12:32:04.538Z</time></trkpt><trkpt lat="46.0257443" lon="11.8478442"><ele>633.4285714285713</ele><time>2026-04-15T12:32:07.539Z</time></trkpt><trkpt lat="46.0258055" lon="11.8478893"><ele>630.5714285714286</ele><time>2026-04-15T12:32:09.539Z</time></trkpt><trkpt lat="46.0258795" lon="11.847955"><ele>627.7142857142858</ele><time>2026-04-15T12:32:12.538Z</time></trkpt><trkpt lat="46.0259322" lon="11.8480176"><ele>624.8571428571428</ele><time>2026-04-15T12:32:15.538Z</time></trkpt><trkpt lat="46.025979" lon="11.8480849"><ele>622.0</ele><time>2026-04-15T12:32:18.537Z</time></trkpt><trkpt lat="46.026029" lon="11.8481514"><ele>622.0</ele><time>2026-04-15T12:32:21.537Z</time></trkpt><trkpt lat="46.0261008" lon="11.8482108"><ele>622.0</ele><time>2026-04-15T12:32:24.537Z</time></trkpt><trkpt lat="46.0261627" lon="11.8482538"><ele>622.0</ele><time>2026-04-15T12:32:27.538Z</time></trkpt><trkpt lat="46.0262228" lon="11.8482121"><ele>622.0</ele><time>2026-04-15T12:32:32.539Z</time></trkpt><trkpt lat="46.0262915" lon="11.8481639"><ele>622.0</ele><time>2026-04-15T12:32:35.537Z</time></trkpt><trkpt lat="46.026361" lon="11.8482098"><ele>622.0</ele><time>2026-04-15T12:32:39.539Z</time></trkpt><trkpt lat="46.0264098" lon="11.8482822"><ele>622.0</ele><time>2026-04-15T12:32:43.539Z</time></trkpt><trkpt lat="46.0264499" lon="11.8483574"><ele>622.0</ele><time>2026-04-15T12:32:47.538Z</time></trkpt><trkpt lat="46.0264696" lon="11.8484512"><ele>622.0</ele><time>2026-04-15T12:32:52.537Z</time></trkpt><trkpt lat="46.0264743" lon="11.8485621"><ele>622.0</ele><time>2026-04-15T12:32:58.539Z</time></trkpt><trkpt lat="46.0264796" lon="11.8486683"><ele>622.0</ele><time>2026-04-15T12:33:02.538Z</time></trkpt><trkpt lat="46.0265087" lon="11.8487515"><ele>622.0</ele><time>2026-04-15T12:33:05.539Z</time></trkpt><trkpt lat="46.0265369" lon="11.8488529"><ele>622.0</ele><time>2026-04-15T12:33:08.539Z</time></trkpt><trkpt lat="46.0265526" lon="11.8489554"><ele>622.0</ele><time>2026-04-15T12:33:12.537Z</time></trkpt><trkpt lat="46.0265556" lon="11.8490742"><ele>618.4285714285714</ele><time>2026-04-15T12:33:16.539Z</time></trkpt><trkpt lat="46.0265747" lon="11.849173"><ele>614.8571428571429</ele><time>2026-04-15T12:33:20.539Z</time></trkpt><trkpt lat="46.0266211" lon="11.8492684"><ele>611.2857142857143</ele><time>2026-04-15T12:33:25.539Z</time></trkpt><trkpt lat="46.0266505" lon="11.8493607"><ele>607.7142857142858</ele><time>2026-04-15T12:33:29.539Z</time></trkpt><trkpt lat="46.0266915" lon="11.8494339"><ele>604.1428571428571</ele><time>2026-04-15T12:33:33.538Z</time></trkpt><trkpt lat="46.0267272" lon="11.8495327"><ele>600.5714285714287</ele><time>2026-04-15T12:34:20.536Z</time></trkpt><trkpt lat="46.0267653" lon="11.8496143"><ele>597.0</ele><time>2026-04-15T12:34:23.536Z</time></trkpt><trkpt lat="46.0268179" lon="11.8496794"><ele>593.0000000000001</ele><time>2026-04-15T12:34:26.538Z</time></trkpt><trkpt lat="46.0268506" lon="11.8497793"><ele>589.0</ele><time>2026-04-15T12:34:30.539Z</time></trkpt><trkpt lat="46.0268867" lon="11.8498733"><ele>585.0</ele><time>2026-04-15T12:34:34.54Z</time></trkpt><trkpt lat="46.0269415" lon="11.8499549"><ele>581.0</ele><time>2026-04-15T12:34:38.539Z</time></trkpt><trkpt lat="46.0269824" lon="11.8500276"><ele>577.0</ele><time>2026-04-15T12:34:43.536Z</time></trkpt><trkpt lat="46.0270497" lon="11.8500814"><ele>573.0000000000001</ele><time>2026-04-15T12:34:47.539Z</time></trkpt><trkpt lat="46.0270973" lon="11.850155"><ele>569.0</ele><time>2026-04-15T12:34:50.537Z</time></trkpt><trkpt lat="46.0271345" lon="11.8502524"><ele>565.0</ele><time>2026-04-15T12:34:54.536Z</time></trkpt><trkpt lat="46.0271803" lon="11.8503169"><ele>561.0</ele><time>2026-04-15T12:34:58.539Z</time></trkpt><trkpt lat="46.0272291" lon="11.8504043"><ele>557.0</ele><time>2026-04-15T12:35:01.538Z</time></trkpt><trkpt lat="46.0272753" lon="11.8504974"><ele>553.0</ele><time>2026-04-15T12:35:04.537Z</time></trkpt><trkpt lat="46.0273249" lon="11.8505808"><ele>549.0</ele><time>2026-04-15T12:35:07.539Z</time></trkpt><trkpt lat="46.0273858" lon="11.8506653"><ele>545.0</ele><time>2026-04-15T12:35:10.537Z</time></trkpt><trkpt lat="46.0274563" lon="11.8507562"><ele>543.3333333333333</ele><time>2026-04-15T12:35:13.539Z</time></trkpt><trkpt lat="46.0275202" lon="11.8508351"><ele>541.6666666666666</ele><time>2026-04-15T12:35:16.538Z</time></trkpt><trkpt lat="46.0275804" lon="11.85092"><ele>540.0</ele><time>2026-04-15T12:35:19.539Z</time></trkpt><trkpt lat="46.0276376" lon="11.8510033"><ele>538.3333333333334</ele><time>2026-04-15T12:35:22.537Z</time></trkpt><trkpt lat="46.0276957" lon="11.8511081"><ele>536.6666666666667</ele><time>2026-04-15T12:35:25.538Z</time></trkpt><trkpt lat="46.027739" lon="11.85118"><ele>535.0</ele><time>2026-04-15T12:35:27.539Z</time></trkpt><trkpt lat="46.0277856" lon="11.8512889"><ele>535.0</ele><time>2026-04-15T12:35:30.539Z</time></trkpt><trkpt lat="46.0278208" lon="11.8513999"><ele>535.0</ele><time>2026-04-15T12:35:33.537Z</time></trkpt><trkpt lat="46.0278762" lon="11.8514671"><ele>535.0</ele><time>2026-04-15T12:35:35.539Z</time></trkpt><trkpt lat="46.0279358" lon="11.8515534"><ele>535.0</ele><time>2026-04-15T12:35:37.539Z</time></trkpt><trkpt lat="46.0279936" lon="11.8516433"><ele>535.0</ele><time>2026-04-15T12:35:39.538Z</time></trkpt><trkpt lat="46.0280395" lon="11.8517163"><ele>535.0</ele><time>2026-04-15T12:35:41.538Z</time></trkpt><trkpt lat="46.0280772" lon="11.8517901"><ele>533.8</ele><time>2026-04-15T12:35:43.537Z</time></trkpt><trkpt lat="46.0281313" lon="11.8518806"><ele>532.6</ele><time>2026-04-15T12:35:45.539Z</time></trkpt><trkpt lat="46.0282129" lon="11.8519947"><ele>531.4</ele><time>2026-04-15T12:35:47.536Z</time></trkpt><trkpt lat="46.0282883" lon="11.8521132"><ele>530.2</ele><time>2026-04-15T12:35:49.539Z</time></trkpt><trkpt lat="46.0283673" lon="11.8522083"><ele>529.0</ele><time>2026-04-15T12:35:51.539Z</time></trkpt><trkpt lat="46.0284163" lon="11.8522946"><ele>529.0</ele><time>2026-04-15T12:35:53.539Z</time></trkpt><trkpt lat="46.0284636" lon="11.8523815"><ele>529.0</ele><time>2026-04-15T12:35:55.539Z</time></trkpt><trkpt lat="46.0285123" lon="11.8524661"><ele>529.0</ele><time>2026-04-15T12:35:57.536Z</time></trkpt><trkpt lat="46.0285709" lon="11.8525622"><ele>529.0</ele><time>2026-04-15T12:36:00.539Z</time></trkpt><trkpt lat="46.0286254" lon="11.8526796"><ele>529.0</ele><time>2026-04-15T12:36:03.537Z</time></trkpt><trkpt lat="46.0286732" lon="11.8527567"><ele>529.0</ele><time>2026-04-15T12:36:05.538Z</time></trkpt><trkpt lat="46.02872" lon="11.8528327"><ele>525.6666666666667</ele><time>2026-04-15T12:36:07.538Z</time></trkpt><trkpt lat="46.0287732" lon="11.8528976"><ele>522.3333333333334</ele><time>2026-04-15T12:36:09.538Z</time></trkpt><trkpt lat="46.0288364" lon="11.852964"><ele>519.0</ele><time>2026-04-15T12:36:11.539Z</time></trkpt><trkpt lat="46.0289091" lon="11.8530343"><ele>515.6666666666666</ele><time>2026-04-15T12:36:13.537Z</time></trkpt><trkpt lat="46.0289629" lon="11.8531055"><ele>512.3333333333333</ele><time>2026-04-15T12:36:15.537Z</time></trkpt><trkpt lat="46.0290191" lon="11.8531731"><ele>509.0</ele><time>2026-04-15T12:36:17.539Z</time></trkpt><trkpt lat="46.0290685" lon="11.8532485"><ele>508.99999999999994</ele><time>2026-04-15T12:36:19.538Z</time></trkpt><trkpt lat="46.0291135" lon="11.8533242"><ele>509.0</ele><time>2026-04-15T12:36:21.538Z</time></trkpt><trkpt lat="46.0291568" lon="11.8533998"><ele>509.0</ele><time>2026-04-15T12:36:23.537Z</time></trkpt><trkpt lat="46.0291942" lon="11.853474"><ele>509.0</ele><time>2026-04-15T12:36:25.538Z</time></trkpt><trkpt lat="46.0292487" lon="11.8535655"><ele>508.99999999999994</ele><time>2026-04-15T12:36:28.538Z</time></trkpt><trkpt lat="46.0292985" lon="11.8536655"><ele>509.0</ele><time>2026-04-15T12:36:31.538Z</time></trkpt><trkpt lat="46.0293325" lon="11.8537799"><ele>508.42857142857133</ele><time>2026-04-15T12:36:34.539Z</time></trkpt><trkpt lat="46.0293556" lon="11.8539005"><ele>507.85714285714283</ele><time>2026-04-15T12:36:37.538Z</time></trkpt><trkpt lat="46.0293701" lon="11.8539938"><ele>507.2857142857142</ele><time>2026-04-15T12:36:39.538Z</time></trkpt><trkpt lat="46.0293931" lon="11.8540787"><ele>506.71428571428567</ele><time>2026-04-15T12:36:41.536Z</time></trkpt><trkpt lat="46.0294104" lon="11.8541699"><ele>506.1428571428571</ele><time>2026-04-15T12:36:43.538Z</time></trkpt><trkpt lat="46.029422" lon="11.8542645"><ele>505.57142857142856</ele><time>2026-04-15T12:36:45.538Z</time></trkpt><trkpt lat="46.0294478" lon="11.8543898"><ele>505.0</ele><time>2026-04-15T12:36:48.538Z</time></trkpt><trkpt lat="46.0294739" lon="11.8544786"><ele>502.2857142857143</ele><time>2026-04-15T12:36:50.539Z</time></trkpt><trkpt lat="46.0294917" lon="11.854577"><ele>499.57142857142856</ele><time>2026-04-15T12:36:52.536Z</time></trkpt><trkpt lat="46.0295154" lon="11.8546783"><ele>496.85714285714283</ele><time>2026-04-15T12:36:54.537Z</time></trkpt><trkpt lat="46.0295409" lon="11.8547784"><ele>494.1428571428571</ele><time>2026-04-15T12:36:56.539Z</time></trkpt><trkpt lat="46.0295734" lon="11.8548737"><ele>491.42857142857144</ele><time>2026-04-15T12:36:58.539Z</time></trkpt><trkpt lat="46.0295979" lon="11.8549606"><ele>488.71428571428567</ele><time>2026-04-15T12:37:00.538Z</time></trkpt><trkpt lat="46.0296253" lon="11.8550532"><ele>486.0</ele><time>2026-04-15T12:37:02.536Z</time></trkpt><trkpt lat="46.0296701" lon="11.8551694"><ele>481.0</ele><time>2026-04-15T12:37:04.538Z</time></trkpt><trkpt lat="46.0297327" lon="11.8552991"><ele>476.0</ele><time>2026-04-15T12:37:06.538Z</time></trkpt><trkpt lat="46.0297964" lon="11.8554223"><ele>471.0</ele><time>2026-04-15T12:37:08.538Z</time></trkpt><trkpt lat="46.0298669" lon="11.8555484"><ele>466.0</ele><time>2026-04-15T12:37:10.537Z</time></trkpt><trkpt lat="46.0299348" lon="11.8556985"><ele>466.0</ele><time>2026-04-15T12:37:12.538Z</time></trkpt><trkpt lat="46.0299621" lon="11.8557893"><ele>466.0</ele><time>2026-04-15T12:37:13.539Z</time></trkpt><trkpt lat="46.0299911" lon="11.8558796"><ele>466.0</ele><time>2026-04-15T12:37:14.538Z</time></trkpt><trkpt lat="46.0300271" lon="11.8559721"><ele>466.0</ele><time>2026-04-15T12:37:15.538Z</time></trkpt><trkpt lat="46.0300675" lon="11.8560543"><ele>466.0</ele><time>2026-04-15T12:37:16.537Z</time></trkpt><trkpt lat="46.0301002" lon="11.8561363"><ele>466.0</ele><time>2026-04-15T12:37:17.539Z</time></trkpt><trkpt lat="46.0301325" lon="11.8562187"><ele>466.0</ele><time>2026-04-15T12:37:18.535Z</time></trkpt><trkpt lat="46.0301692" lon="11.8563095"><ele>466.28571428571433</ele><time>2026-04-15T12:37:19.536Z</time></trkpt><trkpt lat="46.0302037" lon="11.8564072"><ele>466.57142857142856</ele><time>2026-04-15T12:37:20.539Z</time></trkpt><trkpt lat="46.0302388" lon="11.8565069"><ele>466.8571428571429</ele><time>2026-04-15T12:37:21.538Z</time></trkpt><trkpt lat="46.0302735" lon="11.8565969"><ele>467.14285714285717</ele><time>2026-04-15T12:37:22.538Z</time></trkpt><trkpt lat="46.0303049" lon="11.8566769"><ele>467.42857142857144</ele><time>2026-04-15T12:37:23.537Z</time></trkpt><trkpt lat="46.0303377" lon="11.8567576"><ele>467.7142857142857</ele><time>2026-04-15T12:37:24.536Z</time></trkpt><trkpt lat="46.0303718" lon="11.8568456"><ele>468.0</ele><time>2026-04-15T12:37:25.538Z</time></trkpt><trkpt lat="46.030405" lon="11.8569297"><ele>465.59999999999997</ele><time>2026-04-15T12:37:26.539Z</time></trkpt><trkpt lat="46.030447" lon="11.8570752"><ele>463.19999999999993</ele><time>2026-04-15T12:37:28.539Z</time></trkpt><trkpt lat="46.0304901" lon="11.8572426"><ele>460.8</ele><time>2026-04-15T12:37:30.539Z</time></trkpt><trkpt lat="46.0305103" lon="11.8573335"><ele>458.4</ele><time>2026-04-15T12:37:31.539Z</time></trkpt><trkpt lat="46.0305339" lon="11.8574333"><ele>456.0</ele><time>2026-04-15T12:37:32.539Z</time></trkpt><trkpt lat="46.0305606" lon="11.8575405"><ele>454.3333333333333</ele><time>2026-04-15T12:37:33.538Z</time></trkpt><trkpt lat="46.0305846" lon="11.857649"><ele>452.66666666666663</ele><time>2026-04-15T12:37:34.536Z</time></trkpt><trkpt lat="46.0306108" lon="11.8577602"><ele>451.0</ele><time>2026-04-15T12:37:35.537Z</time></trkpt><trkpt lat="46.0306412" lon="11.8578735"><ele>449.3333333333333</ele><time>2026-04-15T12:37:36.539Z</time></trkpt><trkpt lat="46.0306777" lon="11.8579857"><ele>447.66666666666663</ele><time>2026-04-15T12:37:37.536Z</time></trkpt><trkpt lat="46.0307196" lon="11.8580993"><ele>446.0</ele><time>2026-04-15T12:37:38.539Z</time></trkpt><trkpt lat="46.0307642" lon="11.8582093"><ele>446.8333333333333</ele><time>2026-04-15T12:37:39.539Z</time></trkpt><trkpt lat="46.030811" lon="11.8583105"><ele>447.66666666666663</ele><time>2026-04-15T12:37:40.539Z</time></trkpt><trkpt lat="46.030857" lon="11.8583989"><ele>448.5</ele><time>2026-04-15T12:37:41.539Z</time></trkpt><trkpt lat="46.0309002" lon="11.8584805"><ele>449.33333333333337</ele><time>2026-04-15T12:37:42.537Z</time></trkpt><trkpt lat="46.0309391" lon="11.858568"><ele>450.1666666666667</ele><time>2026-04-15T12:37:43.539Z</time></trkpt><trkpt lat="46.030975" lon="11.8586624"><ele>451.0</ele><time>2026-04-15T12:37:44.536Z</time></trkpt><trkpt lat="46.0310114" lon="11.858763"><ele>451.00000000000006</ele><time>2026-04-15T12:37:45.537Z</time></trkpt><trkpt lat="46.0310538" lon="11.8588655"><ele>451.0</ele><time>2026-04-15T12:37:46.538Z</time></trkpt><trkpt lat="46.0310943" lon="11.8589734"><ele>451.0</ele><time>2026-04-15T12:37:47.539Z</time></trkpt><trkpt lat="46.0311272" lon="11.8590833"><ele>451.0</ele><time>2026-04-15T12:37:48.538Z</time></trkpt><trkpt lat="46.0311556" lon="11.8591965"><ele>451.00000000000006</ele><time>2026-04-15T12:37:49.534Z</time></trkpt><trkpt lat="46.0311877" lon="11.8593093"><ele>451.0</ele><time>2026-04-15T12:37:50.535Z</time></trkpt><trkpt lat="46.0312164" lon="11.8594183"><ele>449.50000000000006</ele><time>2026-04-15T12:37:51.537Z</time></trkpt><trkpt lat="46.0312426" lon="11.8595277"><ele>448.0</ele><time>2026-04-15T12:37:52.536Z</time></trkpt><trkpt lat="46.0312683" lon="11.8596376"><ele>446.5</ele><time>2026-04-15T12:37:53.535Z</time></trkpt><trkpt lat="46.031292" lon="11.859748"><ele>445.0</ele><time>2026-04-15T12:37:54.535Z</time></trkpt><trkpt lat="46.0313147" lon="11.8598639"><ele>443.50000000000006</ele><time>2026-04-15T12:37:55.538Z</time></trkpt><trkpt lat="46.0313338" lon="11.8599842"><ele>442.0</ele><time>2026-04-15T12:37:56.538Z</time></trkpt><trkpt lat="46.0313526" lon="11.8601063"><ele>442.00000000000006</ele><time>2026-04-15T12:37:57.537Z</time></trkpt><trkpt lat="46.0313708" lon="11.8602228"><ele>442.0</ele><time>2026-04-15T12:37:58.54Z</time></trkpt><trkpt lat="46.0313891" lon="11.8603388"><ele>442.0</ele><time>2026-04-15T12:37:59.54Z</time></trkpt><trkpt lat="46.0314026" lon="11.8604488"><ele>442.0</ele><time>2026-04-15T12:38:00.537Z</time></trkpt><trkpt lat="46.0314125" lon="11.8605564"><ele>442.00000000000006</ele><time>2026-04-15T12:38:01.54Z</time></trkpt><trkpt lat="46.03142" lon="11.8606526"><ele>442.0</ele><time>2026-04-15T12:38:02.54Z</time></trkpt><trkpt lat="46.0314221" lon="11.8608237"><ele>442.00000000000006</ele><time>2026-04-15T12:38:04.537Z</time></trkpt><trkpt lat="46.0314223" lon="11.8609183"><ele>442.0</ele><time>2026-04-15T12:38:05.537Z</time></trkpt><trkpt lat="46.0314167" lon="11.8610192"><ele>442.0</ele><time>2026-04-15T12:38:06.538Z</time></trkpt><trkpt lat="46.0314129" lon="11.8611268"><ele>442.0</ele><time>2026-04-15T12:38:07.537Z</time></trkpt><trkpt lat="46.0314059" lon="11.8612354"><ele>442.0</ele><time>2026-04-15T12:38:08.539Z</time></trkpt><trkpt lat="46.0313897" lon="11.861336"><ele>442.00000000000006</ele><time>2026-04-15T12:38:09.539Z</time></trkpt><trkpt lat="46.0313729" lon="11.8614301"><ele>442.0</ele><time>2026-04-15T12:38:10.539Z</time></trkpt><trkpt lat="46.0313453" lon="11.8615949"><ele>441.83333333333337</ele><time>2026-04-15T12:38:12.538Z</time></trkpt><trkpt lat="46.0313192" lon="11.861725"><ele>441.6666666666667</ele><time>2026-04-15T12:38:14.538Z</time></trkpt><trkpt lat="46.0312848" lon="11.8618128"><ele>441.5</ele><time>2026-04-15T12:38:16.534Z</time></trkpt><trkpt lat="46.0312284" lon="11.8619313"><ele>441.33333333333337</ele><time>2026-04-15T12:38:19.537Z</time></trkpt><trkpt lat="46.0311656" lon="11.8620286"><ele>441.1666666666667</ele><time>2026-04-15T12:38:21.536Z</time></trkpt><trkpt lat="46.0310933" lon="11.8621131"><ele>441.0</ele><time>2026-04-15T12:38:23.536Z</time></trkpt><trkpt lat="46.0310339" lon="11.8621835"><ele>441.0</ele><time>2026-04-15T12:38:25.537Z</time></trkpt><trkpt lat="46.0309708" lon="11.862259"><ele>441.0</ele><time>2026-04-15T12:38:27.538Z</time></trkpt><trkpt lat="46.0309104" lon="11.8623507"><ele>441.0</ele><time>2026-04-15T12:38:29.538Z</time></trkpt><trkpt lat="46.0308574" lon="11.8624312"><ele>441.0</ele><time>2026-04-15T12:38:31.539Z</time></trkpt><trkpt lat="46.0308105" lon="11.8625345"><ele>441.0</ele><time>2026-04-15T12:38:35.537Z</time></trkpt><trkpt lat="46.0307716" lon="11.8626355"><ele>441.0</ele><time>2026-04-15T12:38:38.538Z</time></trkpt><trkpt lat="46.0307052" lon="11.8627298"><ele>439.1666666666667</ele><time>2026-04-15T12:38:41.537Z</time></trkpt><trkpt lat="46.0306448" lon="11.8627752"><ele>437.33333333333337</ele><time>2026-04-15T12:38:43.538Z</time></trkpt><trkpt lat="46.0305783" lon="11.8627987"><ele>435.5</ele><time>2026-04-15T12:38:45.537Z</time></trkpt><trkpt lat="46.0305056" lon="11.8627951"><ele>433.6666666666667</ele><time>2026-04-15T12:38:47.537Z</time></trkpt><trkpt lat="46.0304423" lon="11.862732"><ele>431.83333333333337</ele><time>2026-04-15T12:38:49.539Z</time></trkpt><trkpt lat="46.0303522" lon="11.8626628"><ele>430.0</ele><time>2026-04-15T12:38:51.539Z</time></trkpt><trkpt lat="46.0302415" lon="11.8626141"><ele>430.0</ele><time>2026-04-15T12:38:53.539Z</time></trkpt><trkpt lat="46.0301466" lon="11.862567"><ele>430.0</ele><time>2026-04-15T12:38:55.535Z</time></trkpt><trkpt lat="46.0300677" lon="11.8625299"><ele>430.0</ele><time>2026-04-15T12:38:57.538Z</time></trkpt><trkpt lat="46.0299835" lon="11.8625042"><ele>430.0</ele><time>2026-04-15T12:38:59.535Z</time></trkpt><trkpt lat="46.0298838" lon="11.8625277"><ele>430.0</ele><time>2026-04-15T12:39:01.538Z</time></trkpt><trkpt lat="46.0297773" lon="11.8625807"><ele>427.2</ele><time>2026-04-15T12:39:03.539Z</time></trkpt><trkpt lat="46.0296707" lon="11.8626364"><ele>424.4</ele><time>2026-04-15T12:39:05.535Z</time></trkpt><trkpt lat="46.0295758" lon="11.8626828"><ele>421.6</ele><time>2026-04-15T12:39:07.539Z</time></trkpt><trkpt lat="46.0294945" lon="11.8627298"><ele>418.8</ele><time>2026-04-15T12:39:09.537Z</time></trkpt><trkpt lat="46.0294235" lon="11.862808"><ele>416.0</ele><time>2026-04-15T12:39:11.539Z</time></trkpt><trkpt lat="46.0293526" lon="11.8628994"><ele>415.99999999999994</ele><time>2026-04-15T12:39:13.539Z</time></trkpt><trkpt lat="46.0292616" lon="11.8629917"><ele>416.0</ele><time>2026-04-15T12:39:15.538Z</time></trkpt><trkpt lat="46.0291513" lon="11.8630776"><ele>416.0</ele><time>2026-04-15T12:39:17.539Z</time></trkpt><trkpt lat="46.0290942" lon="11.8631226"><ele>416.0</ele><time>2026-04-15T12:39:18.539Z</time></trkpt><trkpt lat="46.0290401" lon="11.8631743"><ele>415.99999999999994</ele><time>2026-04-15T12:39:19.539Z</time></trkpt><trkpt lat="46.0289876" lon="11.8632299"><ele>416.0</ele><time>2026-04-15T12:39:20.539Z</time></trkpt><trkpt lat="46.0289392" lon="11.8632879"><ele>413.4</ele><time>2026-04-15T12:39:21.536Z</time></trkpt><trkpt lat="46.0288549" lon="11.8634061"><ele>410.8</ele><time>2026-04-15T12:39:23.539Z</time></trkpt><trkpt lat="46.0287902" lon="11.8635312"><ele>408.2</ele><time>2026-04-15T12:39:25.535Z</time></trkpt><trkpt lat="46.0287488" lon="11.8636743"><ele>405.59999999999997</ele><time>2026-04-15T12:39:27.539Z</time></trkpt><trkpt lat="46.0287359" lon="11.8638342"><ele>403.0</ele><time>2026-04-15T12:39:29.539Z</time></trkpt><trkpt lat="46.0287552" lon="11.8639935"><ele>401.50000000000006</ele><time>2026-04-15T12:39:31.537Z</time></trkpt><trkpt lat="46.0287865" lon="11.8641746"><ele>400.0</ele><time>2026-04-15T12:39:33.538Z</time></trkpt><trkpt lat="46.0288036" lon="11.8642687"><ele>398.5</ele><time>2026-04-15T12:39:34.539Z</time></trkpt><trkpt lat="46.0288237" lon="11.8643608"><ele>397.0</ele><time>2026-04-15T12:39:35.537Z</time></trkpt><trkpt lat="46.0288471" lon="11.8644604"><ele>395.50000000000006</ele><time>2026-04-15T12:39:36.539Z</time></trkpt><trkpt lat="46.0288679" lon="11.8645628"><ele>394.0</ele><time>2026-04-15T12:39:37.537Z</time></trkpt><trkpt lat="46.0288919" lon="11.8646606"><ele>392.6</ele><time>2026-04-15T12:39:38.538Z</time></trkpt><trkpt lat="46.0289141" lon="11.8647551"><ele>391.2</ele><time>2026-04-15T12:39:39.538Z</time></trkpt><trkpt lat="46.0289327" lon="11.8648472"><ele>389.8</ele><time>2026-04-15T12:39:40.538Z</time></trkpt><trkpt lat="46.0289556" lon="11.8650216"><ele>388.40000000000003</ele><time>2026-04-15T12:39:42.539Z</time></trkpt><trkpt lat="46.0289388" lon="11.8652055"><ele>387.0</ele><time>2026-04-15T12:39:44.538Z</time></trkpt><trkpt lat="46.0289077" lon="11.8652977"><ele>387.0</ele><time>2026-04-15T12:39:45.538Z</time></trkpt><trkpt lat="46.0288665" lon="11.8653896"><ele>387.0</ele><time>2026-04-15T12:39:46.539Z</time></trkpt><trkpt lat="46.0288214" lon="11.8654817"><ele>387.0</ele><time>2026-04-15T12:39:47.537Z</time></trkpt><trkpt lat="46.0287709" lon="11.8655708"><ele>387.0</ele><time>2026-04-15T12:39:48.535Z</time></trkpt><trkpt lat="46.0287171" lon="11.865655"><ele>387.0</ele><time>2026-04-15T12:39:49.538Z</time></trkpt><trkpt lat="46.028661" lon="11.8657251"><ele>387.0</ele><time>2026-04-15T12:39:50.539Z</time></trkpt><trkpt lat="46.0286032" lon="11.8657847"><ele>387.0</ele><time>2026-04-15T12:39:51.539Z</time></trkpt><trkpt lat="46.0285501" lon="11.8658361"><ele>387.0</ele><time>2026-04-15T12:39:52.538Z</time></trkpt><trkpt lat="46.028466" lon="11.8659345"><ele>387.0</ele><time>2026-04-15T12:39:54.539Z</time></trkpt><trkpt lat="46.0284021" lon="11.8660387"><ele>387.0</ele><time>2026-04-15T12:39:56.54Z</time></trkpt><trkpt lat="46.0283415" lon="11.8661393"><ele>387.0</ele><time>2026-04-15T12:39:58.538Z</time></trkpt><trkpt lat="46.0282776" lon="11.8661931"><ele>387.0</ele><time>2026-04-15T12:40:00.539Z</time></trkpt><trkpt lat="46.0282296" lon="11.8662608"><ele>385.5</ele><time>2026-04-15T12:40:02.539Z</time></trkpt><trkpt lat="46.0282047" lon="11.8663773"><ele>384.0</ele><time>2026-04-15T12:40:04.536Z</time></trkpt><trkpt lat="46.0281922" lon="11.8665022"><ele>382.5</ele><time>2026-04-15T12:40:06.535Z</time></trkpt><trkpt lat="46.0281761" lon="11.8666212"><ele>381.0</ele><time>2026-04-15T12:40:08.539Z</time></trkpt><trkpt lat="46.0281242" lon="11.8667396"><ele>379.5</ele><time>2026-04-15T12:40:10.538Z</time></trkpt><trkpt lat="46.0280768" lon="11.8668392"><ele>378.0</ele><time>2026-04-15T12:40:12.538Z</time></trkpt><trkpt lat="46.0280368" lon="11.8669125"><ele>375.0</ele><time>2026-04-15T12:40:14.54Z</time></trkpt><trkpt lat="46.0280108" lon="11.8670361"><ele>372.0</ele><time>2026-04-15T12:40:17.537Z</time></trkpt><trkpt lat="46.0280138" lon="11.8671387"><ele>369.0</ele><time>2026-04-15T12:40:19.539Z</time></trkpt><trkpt lat="46.0280409" lon="11.8672439"><ele>366.0</ele><time>2026-04-15T12:40:21.539Z</time></trkpt><trkpt lat="46.0280506" lon="11.8673567"><ele>363.0</ele><time>2026-04-15T12:40:23.537Z</time></trkpt><trkpt lat="46.0280709" lon="11.8674716"><ele>360.0</ele><time>2026-04-15T12:40:25.537Z</time></trkpt><trkpt lat="46.0281025" lon="11.8675981"><ele>359.3333333333333</ele><time>2026-04-15T12:40:27.539Z</time></trkpt><trkpt lat="46.0281274" lon="11.867756"><ele>358.6666666666667</ele><time>2026-04-15T12:40:29.538Z</time></trkpt><trkpt lat="46.0281512" lon="11.8678519"><ele>358.0</ele><time>2026-04-15T12:40:30.538Z</time></trkpt><trkpt lat="46.0281878" lon="11.8679554"><ele>357.33333333333337</ele><time>2026-04-15T12:40:31.535Z</time></trkpt><trkpt lat="46.0282338" lon="11.8680597"><ele>356.6666666666667</ele><time>2026-04-15T12:40:32.539Z</time></trkpt><trkpt lat="46.0282868" lon="11.8681623"><ele>356.0</ele><time>2026-04-15T12:40:33.539Z</time></trkpt><trkpt lat="46.0283373" lon="11.8682564"><ele>356.0</ele><time>2026-04-15T12:40:34.538Z</time></trkpt><trkpt lat="46.0283832" lon="11.8683386"><ele>356.0</ele><time>2026-04-15T12:40:35.539Z</time></trkpt><trkpt lat="46.0284245" lon="11.868412"><ele>356.0</ele><time>2026-04-15T12:40:36.538Z</time></trkpt><trkpt lat="46.0284809" lon="11.8685273"><ele>356.0</ele><time>2026-04-15T12:40:38.54Z</time></trkpt><trkpt lat="46.0285307" lon="11.8686088"><ele>356.0</ele><time>2026-04-15T12:40:40.539Z</time></trkpt><trkpt lat="46.0285949" lon="11.8686753"><ele>356.0</ele><time>2026-04-15T12:40:42.538Z</time></trkpt><trkpt lat="46.028651" lon="11.8687615"><ele>354.20000000000005</ele><time>2026-04-15T12:40:44.539Z</time></trkpt><trkpt lat="46.0287086" lon="11.8688676"><ele>352.40000000000003</ele><time>2026-04-15T12:40:46.539Z</time></trkpt><trkpt lat="46.0287678" lon="11.868977"><ele>350.6</ele><time>2026-04-15T12:40:48.539Z</time></trkpt><trkpt lat="46.0288412" lon="11.8690717"><ele>348.8</ele><time>2026-04-15T12:40:50.538Z</time></trkpt><trkpt lat="46.0289236" lon="11.8691734"><ele>347.0</ele><time>2026-04-15T12:40:52.535Z</time></trkpt><trkpt lat="46.0290143" lon="11.8692817"><ele>346.7142857142857</ele><time>2026-04-15T12:40:54.536Z</time></trkpt><trkpt lat="46.0290637" lon="11.8693382"><ele>346.4285714285714</ele><time>2026-04-15T12:40:55.539Z</time></trkpt><trkpt lat="46.0291166" lon="11.8693975"><ele>346.1428571428571</ele><time>2026-04-15T12:40:56.538Z</time></trkpt><trkpt lat="46.0291697" lon="11.8694589"><ele>345.8571428571429</ele><time>2026-04-15T12:40:57.537Z</time></trkpt><trkpt lat="46.0292196" lon="11.8695226"><ele>345.57142857142856</ele><time>2026-04-15T12:40:58.537Z</time></trkpt><trkpt lat="46.0292657" lon="11.8695901"><ele>345.2857142857143</ele><time>2026-04-15T12:40:59.539Z</time></trkpt><trkpt lat="46.0293115" lon="11.8696581"><ele>345.0</ele><time>2026-04-15T12:41:00.538Z</time></trkpt><trkpt lat="46.0293575" lon="11.869724"><ele>345.0</ele><time>2026-04-15T12:41:01.539Z</time></trkpt><trkpt lat="46.0294004" lon="11.8697929"><ele>345.0</ele><time>2026-04-15T12:41:02.539Z</time></trkpt><trkpt lat="46.0294397" lon="11.869865"><ele>345.0</ele><time>2026-04-15T12:41:03.539Z</time></trkpt><trkpt lat="46.0294777" lon="11.8699393"><ele>345.0</ele><time>2026-04-15T12:41:04.538Z</time></trkpt><trkpt lat="46.0295121" lon="11.8700176"><ele>345.0</ele><time>2026-04-15T12:41:05.537Z</time></trkpt><trkpt lat="46.0295422" lon="11.8700992"><ele>345.0</ele><time>2026-04-15T12:41:06.539Z</time></trkpt><trkpt lat="46.0295631" lon="11.8701862"><ele>345.0</ele><time>2026-04-15T12:41:07.538Z</time></trkpt><trkpt lat="46.0295733" lon="11.8702786"><ele>345.0</ele><time>2026-04-15T12:41:08.538Z</time></trkpt><trkpt lat="46.0295727" lon="11.8703741"><ele>344.42857142857144</ele><time>2026-04-15T12:41:09.538Z</time></trkpt><trkpt lat="46.0295642" lon="11.870472"><ele>343.85714285714283</ele><time>2026-04-15T12:41:10.537Z</time></trkpt><trkpt lat="46.0295487" lon="11.8705699"><ele>343.2857142857143</ele><time>2026-04-15T12:41:11.538Z</time></trkpt><trkpt lat="46.0295361" lon="11.8706709"><ele>342.7142857142857</ele><time>2026-04-15T12:41:12.539Z</time></trkpt><trkpt lat="46.0295257" lon="11.870773"><ele>342.14285714285717</ele><time>2026-04-15T12:41:13.538Z</time></trkpt><trkpt lat="46.0295141" lon="11.8708763"><ele>341.57142857142856</ele><time>2026-04-15T12:41:14.539Z</time></trkpt><trkpt lat="46.0295001" lon="11.8709816"><ele>341.0</ele><time>2026-04-15T12:41:15.539Z</time></trkpt><trkpt lat="46.0294865" lon="11.8710885"><ele>340.33333333333337</ele><time>2026-04-15T12:41:16.538Z</time></trkpt><trkpt lat="46.0294714" lon="11.8711944"><ele>339.6666666666667</ele><time>2026-04-15T12:41:17.538Z</time></trkpt><trkpt lat="46.029452" lon="11.8713004"><ele>339.0</ele><time>2026-04-15T12:41:18.536Z</time></trkpt><trkpt lat="46.0294282" lon="11.8714081"><ele>338.3333333333333</ele><time>2026-04-15T12:41:19.538Z</time></trkpt><trkpt lat="46.0294003" lon="11.8715162"><ele>337.66666666666663</ele><time>2026-04-15T12:41:20.539Z</time></trkpt><trkpt lat="46.0293632" lon="11.8716165"><ele>337.0</ele><time>2026-04-15T12:41:21.538Z</time></trkpt><trkpt lat="46.0293166" lon="11.8717092"><ele>336.66666666666663</ele><time>2026-04-15T12:41:22.538Z</time></trkpt><trkpt lat="46.0292642" lon="11.8717977"><ele>336.3333333333333</ele><time>2026-04-15T12:41:23.539Z</time></trkpt><trkpt lat="46.0292076" lon="11.8718787"><ele>336.0</ele><time>2026-04-15T12:41:24.537Z</time></trkpt><trkpt lat="46.0291472" lon="11.8719547"><ele>335.6666666666667</ele><time>2026-04-15T12:41:25.538Z</time></trkpt><trkpt lat="46.0290826" lon="11.8720248"><ele>335.33333333333337</ele><time>2026-04-15T12:41:26.539Z</time></trkpt><trkpt lat="46.0290151" lon="11.8720874"><ele>335.0</ele><time>2026-04-15T12:41:27.539Z</time></trkpt><trkpt lat="46.0289451" lon="11.8721443"><ele>335.0</ele><time>2026-04-15T12:41:28.539Z</time></trkpt><trkpt lat="46.0288756" lon="11.8721973"><ele>335.0</ele><time>2026-04-15T12:41:29.539Z</time></trkpt><trkpt lat="46.028813" lon="11.8722567"><ele>335.0</ele><time>2026-04-15T12:41:30.539Z</time></trkpt><trkpt lat="46.0287639" lon="11.8723286"><ele>335.0</ele><time>2026-04-15T12:41:31.536Z</time></trkpt><trkpt lat="46.0287286" lon="11.8724077"><ele>335.0</ele><time>2026-04-15T12:41:32.539Z</time></trkpt><trkpt lat="46.0286844" lon="11.872545"><ele>335.0</ele><time>2026-04-15T12:41:34.538Z</time></trkpt><trkpt lat="46.0286366" lon="11.8726379"><ele>334.83333333333337</ele><time>2026-04-15T12:41:36.538Z</time></trkpt><trkpt lat="46.0285947" lon="11.8727272"><ele>334.6666666666667</ele><time>2026-04-15T12:41:38.539Z</time></trkpt><trkpt lat="46.028557" lon="11.8728222"><ele>334.5</ele><time>2026-04-15T12:41:40.539Z</time></trkpt><trkpt lat="46.0285418" lon="11.8729366"><ele>334.3333333333333</ele><time>2026-04-15T12:41:42.539Z</time></trkpt><trkpt lat="46.0285727" lon="11.87304"><ele>334.16666666666663</ele><time>2026-04-15T12:41:44.539Z</time></trkpt><trkpt lat="46.0286076" lon="11.8731436"><ele>334.0</ele><time>2026-04-15T12:41:46.537Z</time></trkpt><trkpt lat="46.0286357" lon="11.8732744"><ele>334.0</ele><time>2026-04-15T12:41:48.539Z</time></trkpt><trkpt lat="46.0286658" lon="11.8734119"><ele>334.0</ele><time>2026-04-15T12:41:50.537Z</time></trkpt><trkpt lat="46.0286981" lon="11.8735213"><ele>334.0</ele><time>2026-04-15T12:41:52.538Z</time></trkpt><trkpt lat="46.0287759" lon="11.8735861"><ele>334.0</ele><time>2026-04-15T12:41:55.538Z</time></trkpt><trkpt lat="46.0288283" lon="11.8736798"><ele>334.0</ele><time>2026-04-15T12:41:58.537Z</time></trkpt><trkpt lat="46.0288037" lon="11.8738081"><ele>334.0</ele><time>2026-04-15T12:42:00.537Z</time></trkpt><trkpt lat="46.0287512" lon="11.8739731"><ele>333.2857142857143</ele><time>2026-04-15T12:42:02.538Z</time></trkpt><trkpt lat="46.0287218" lon="11.8740663"><ele>332.57142857142856</ele><time>2026-04-15T12:42:03.539Z</time></trkpt><trkpt lat="46.0286932" lon="11.8741649"><ele>331.8571428571429</ele><time>2026-04-15T12:42:04.537Z</time></trkpt><trkpt lat="46.0286652" lon="11.8742649"><ele>331.1428571428571</ele><time>2026-04-15T12:42:05.537Z</time></trkpt><trkpt lat="46.0286362" lon="11.8743644"><ele>330.42857142857144</ele><time>2026-04-15T12:42:06.537Z</time></trkpt><trkpt lat="46.0286087" lon="11.8744668"><ele>329.7142857142857</ele><time>2026-04-15T12:42:07.539Z</time></trkpt><trkpt lat="46.0285857" lon="11.8745739"><ele>329.0</ele><time>2026-04-15T12:42:08.539Z</time></trkpt><trkpt lat="46.0285679" lon="11.874696"><ele>327.2</ele><time>2026-04-15T12:42:09.538Z</time></trkpt><trkpt lat="46.0285629" lon="11.8748292"><ele>325.4</ele><time>2026-04-15T12:42:10.539Z</time></trkpt><trkpt lat="46.028577" lon="11.8749644"><ele>323.6</ele><time>2026-04-15T12:42:11.538Z</time></trkpt><trkpt lat="46.0285986" lon="11.8750964"><ele>321.8</ele><time>2026-04-15T12:42:12.538Z</time></trkpt><trkpt lat="46.0286247" lon="11.8752292"><ele>320.0</ele><time>2026-04-15T12:42:13.538Z</time></trkpt><trkpt lat="46.0286463" lon="11.8753618"><ele>319.5</ele><time>2026-04-15T12:42:14.539Z</time></trkpt><trkpt lat="46.0286526" lon="11.875492"><ele>319.0</ele><time>2026-04-15T12:42:15.539Z</time></trkpt><trkpt lat="46.0286438" lon="11.8756194"><ele>318.5</ele><time>2026-04-15T12:42:16.537Z</time></trkpt><trkpt lat="46.0286218" lon="11.8757377"><ele>318.0</ele><time>2026-04-15T12:42:17.538Z</time></trkpt><trkpt lat="46.0285864" lon="11.8758407"><ele>317.5</ele><time>2026-04-15T12:42:18.538Z</time></trkpt><trkpt lat="46.0285422" lon="11.8759244"><ele>317.0</ele><time>2026-04-15T12:42:19.537Z</time></trkpt><trkpt lat="46.0284973" lon="11.8759959"><ele>318.0</ele><time>2026-04-15T12:42:20.538Z</time></trkpt><trkpt lat="46.0284511" lon="11.8760584"><ele>319.0</ele><time>2026-04-15T12:42:21.538Z</time></trkpt><trkpt lat="46.0283566" lon="11.8761494"><ele>320.0</ele><time>2026-04-15T12:42:23.537Z</time></trkpt><trkpt lat="46.0282673" lon="11.8762186"><ele>321.0</ele><time>2026-04-15T12:42:25.538Z</time></trkpt><trkpt lat="46.0281833" lon="11.8762775"><ele>322.0</ele><time>2026-04-15T12:42:27.539Z</time></trkpt><trkpt lat="46.0281016" lon="11.8763312"><ele>322.0</ele><time>2026-04-15T12:42:29.539Z</time></trkpt><trkpt lat="46.0280255" lon="11.8763898"><ele>322.0</ele><time>2026-04-15T12:42:31.538Z</time></trkpt><trkpt lat="46.0279632" lon="11.8764533"><ele>322.0</ele><time>2026-04-15T12:42:33.537Z</time></trkpt><trkpt lat="46.0279057" lon="11.8765185"><ele>322.0</ele><time>2026-04-15T12:42:35.539Z</time></trkpt><trkpt lat="46.0278566" lon="11.8765954"><ele>322.0</ele><time>2026-04-15T12:42:37.539Z</time></trkpt><trkpt lat="46.0278174" lon="11.8766772"><ele>322.0</ele><time>2026-04-15T12:42:39.539Z</time></trkpt><trkpt lat="46.0277797" lon="11.8767718"><ele>323.2857142857143</ele><time>2026-04-15T12:42:41.539Z</time></trkpt><trkpt lat="46.027753" lon="11.8768683"><ele>324.57142857142856</ele><time>2026-04-15T12:42:43.538Z</time></trkpt><trkpt lat="46.0277314" lon="11.8769645"><ele>325.8571428571429</ele><time>2026-04-15T12:42:45.539Z</time></trkpt><trkpt lat="46.0277193" lon="11.8770638"><ele>327.1428571428571</ele><time>2026-04-15T12:42:47.538Z</time></trkpt><trkpt lat="46.0277123" lon="11.8771628"><ele>328.42857142857144</ele><time>2026-04-15T12:42:49.539Z</time></trkpt><trkpt lat="46.0276981" lon="11.877258"><ele>329.7142857142857</ele><time>2026-04-15T12:42:51.538Z</time></trkpt><trkpt lat="46.0276789" lon="11.8773491"><ele>331.0</ele><time>2026-04-15T12:42:53.537Z</time></trkpt><trkpt lat="46.0276502" lon="11.8774406"><ele>331.0</ele><time>2026-04-15T12:42:55.538Z</time></trkpt><trkpt lat="46.0276134" lon="11.8775234"><ele>331.0</ele><time>2026-04-15T12:42:57.538Z</time></trkpt><trkpt lat="46.0275804" lon="11.8776032"><ele>331.0</ele><time>2026-04-15T12:42:59.537Z</time></trkpt><trkpt lat="46.0275337" lon="11.8776668"><ele>331.0</ele><time>2026-04-15T12:43:01.538Z</time></trkpt><trkpt lat="46.0274786" lon="11.8777214"><ele>331.0</ele><time>2026-04-15T12:43:03.538Z</time></trkpt><trkpt lat="46.0274262" lon="11.8777761"><ele>331.0</ele><time>2026-04-15T12:43:05.538Z</time></trkpt><trkpt lat="46.0273616" lon="11.8778257"><ele>331.0</ele><time>2026-04-15T12:43:07.538Z</time></trkpt><trkpt lat="46.0273033" lon="11.8778797"><ele>332.0</ele><time>2026-04-15T12:43:09.537Z</time></trkpt><trkpt lat="46.0272409" lon="11.8779345"><ele>333.0</ele><time>2026-04-15T12:43:11.539Z</time></trkpt><trkpt lat="46.027179" lon="11.8779938"><ele>334.0</ele><time>2026-04-15T12:43:13.538Z</time></trkpt><trkpt lat="46.0271241" lon="11.8780649"><ele>335.0</ele><time>2026-04-15T12:43:15.537Z</time></trkpt><trkpt lat="46.0270735" lon="11.8781446"><ele>336.0</ele><time>2026-04-15T12:43:17.539Z</time></trkpt><trkpt lat="46.0270273" lon="11.8782281"><ele>337.0</ele><time>2026-04-15T12:43:19.539Z</time></trkpt><trkpt lat="46.0269861" lon="11.8783177"><ele>338.0</ele><time>2026-04-15T12:43:21.537Z</time></trkpt><trkpt lat="46.0269425" lon="11.8784092"><ele>337.57142857142856</ele><time>2026-04-15T12:43:23.536Z</time></trkpt><trkpt lat="46.0269119" lon="11.8784932"><ele>337.1428571428571</ele><time>2026-04-15T12:43:25.539Z</time></trkpt><trkpt lat="46.0268863" lon="11.8786019"><ele>336.71428571428567</ele><time>2026-04-15T12:43:28.539Z</time></trkpt><trkpt lat="46.0268703" lon="11.8787273"><ele>336.2857142857143</ele><time>2026-04-15T12:43:31.538Z</time></trkpt><trkpt lat="46.0268756" lon="11.8788206"><ele>335.85714285714283</ele><time>2026-04-15T12:43:33.534Z</time></trkpt><trkpt lat="46.0268854" lon="11.8789171"><ele>335.4285714285714</ele><time>2026-04-15T12:43:35.539Z</time></trkpt><trkpt lat="46.0269038" lon="11.8790166"><ele>335.0</ele><time>2026-04-15T12:43:37.539Z</time></trkpt><trkpt lat="46.0269221" lon="11.8791192"><ele>335.0</ele><time>2026-04-15T12:43:39.538Z</time></trkpt><trkpt lat="46.0269495" lon="11.8792196"><ele>335.0</ele><time>2026-04-15T12:43:41.539Z</time></trkpt><trkpt lat="46.0269731" lon="11.8793207"><ele>335.0</ele><time>2026-04-15T12:43:43.54Z</time></trkpt><trkpt lat="46.0269928" lon="11.8794262"><ele>335.0</ele><time>2026-04-15T12:43:45.535Z</time></trkpt><trkpt lat="46.0270315" lon="11.8795066"><ele>335.0</ele><time>2026-04-15T12:43:47.538Z</time></trkpt><trkpt lat="46.0270959" lon="11.8795964"><ele>335.0</ele><time>2026-04-15T12:43:50.539Z</time></trkpt><trkpt lat="46.0271734" lon="11.8796762"><ele>335.0</ele><time>2026-04-15T12:43:53.539Z</time></trkpt><trkpt lat="46.0272489" lon="11.8796695"><ele>335.0</ele><time>2026-04-15T12:43:56.538Z</time></trkpt><trkpt lat="46.0272678" lon="11.8795724"><ele>335.0</ele><time>2026-04-15T12:43:59.536Z</time></trkpt><trkpt lat="46.0272703" lon="11.8794584"><ele>335.0</ele><time>2026-04-15T12:44:02.538Z</time></trkpt><trkpt lat="46.0272874" lon="11.879334"><ele>335.0</ele><time>2026-04-15T12:44:05.539Z</time></trkpt><trkpt lat="46.0273138" lon="11.8792065"><ele>335.0</ele><time>2026-04-15T12:44:08.538Z</time></trkpt><trkpt lat="46.0273641" lon="11.8790939"><ele>334.99999999999994</ele><time>2026-04-15T12:44:11.537Z</time></trkpt><trkpt lat="46.0274228" lon="11.8790472"><ele>335.0</ele><time>2026-04-15T12:44:13.539Z</time></trkpt><trkpt lat="46.0274947" lon="11.8790331"><ele>335.0</ele><time>2026-04-15T12:44:15.538Z</time></trkpt><trkpt lat="46.0275692" lon="11.8790417"><ele>335.0</ele><time>2026-04-15T12:44:17.538Z</time></trkpt><trkpt lat="46.0276348" lon="11.8790595"><ele>335.0</ele><time>2026-04-15T12:44:19.539Z</time></trkpt><trkpt lat="46.0277069" lon="11.8790796"><ele>334.99999999999994</ele><time>2026-04-15T12:44:21.537Z</time></trkpt><trkpt lat="46.0277763" lon="11.87911"><ele>335.0</ele><time>2026-04-15T12:44:23.539Z</time></trkpt><trkpt lat="46.0278485" lon="11.8791375"><ele>335.83333333333337</ele><time>2026-04-15T12:44:25.539Z</time></trkpt><trkpt lat="46.0279221" lon="11.8791589"><ele>336.6666666666667</ele><time>2026-04-15T12:44:27.539Z</time></trkpt><trkpt lat="46.0279925" lon="11.8791717"><ele>337.5</ele><time>2026-04-15T12:44:29.539Z</time></trkpt><trkpt lat="46.0280656" lon="11.8791796"><ele>338.3333333333333</ele><time>2026-04-15T12:44:31.537Z</time></trkpt><trkpt lat="46.0281461" lon="11.879183"><ele>339.16666666666663</ele><time>2026-04-15T12:44:33.537Z</time></trkpt><trkpt lat="46.0282251" lon="11.8791812"><ele>340.0</ele><time>2026-04-15T12:44:35.538Z</time></trkpt><trkpt lat="46.0282988" lon="11.8791867"><ele>340.8571428571429</ele><time>2026-04-15T12:44:37.538Z</time></trkpt><trkpt lat="46.0283704" lon="11.8791884"><ele>341.71428571428567</ele><time>2026-04-15T12:44:39.539Z</time></trkpt><trkpt lat="46.0284459" lon="11.8791755"><ele>342.57142857142856</ele><time>2026-04-15T12:44:41.539Z</time></trkpt><trkpt lat="46.0285174" lon="11.8791447"><ele>343.42857142857144</ele><time>2026-04-15T12:44:43.538Z</time></trkpt><trkpt lat="46.028586" lon="11.8791079"><ele>344.28571428571433</ele><time>2026-04-15T12:44:45.538Z</time></trkpt><trkpt lat="46.0286542" lon="11.8790744"><ele>345.1428571428571</ele><time>2026-04-15T12:44:47.539Z</time></trkpt><trkpt lat="46.0287133" lon="11.879043"><ele>346.0</ele><time>2026-04-15T12:44:49.539Z</time></trkpt><trkpt lat="46.0287757" lon="11.8790169"><ele>346.0</ele><time>2026-04-15T12:44:51.536Z</time></trkpt><trkpt lat="46.0288602" lon="11.8789718"><ele>346.0</ele><time>2026-04-15T12:44:54.537Z</time></trkpt><trkpt lat="46.0289213" lon="11.8789352"><ele>346.0</ele><time>2026-04-15T12:44:56.539Z</time></trkpt><trkpt lat="46.0289898" lon="11.8789177"><ele>346.0</ele><time>2026-04-15T12:44:58.537Z</time></trkpt><trkpt lat="46.029064" lon="11.8789385"><ele>346.0</ele><time>2026-04-15T12:45:00.538Z</time></trkpt><trkpt lat="46.0291316" lon="11.878966"><ele>346.0</ele><time>2026-04-15T12:45:02.537Z</time></trkpt><trkpt lat="46.0292018" lon="11.8789948"><ele>346.0</ele><time>2026-04-15T12:45:04.536Z</time></trkpt><trkpt lat="46.0292722" lon="11.8790249"><ele>346.3333333333333</ele><time>2026-04-15T12:45:06.539Z</time></trkpt><trkpt lat="46.0293421" lon="11.8790414"><ele>346.66666666666663</ele><time>2026-04-15T12:45:08.537Z</time></trkpt><trkpt lat="46.0294141" lon="11.8790563"><ele>347.0</ele><time>2026-04-15T12:45:10.538Z</time></trkpt><trkpt lat="46.0294875" lon="11.879069"><ele>347.3333333333333</ele><time>2026-04-15T12:45:12.539Z</time></trkpt><trkpt lat="46.0295604" lon="11.8790789"><ele>347.6666666666667</ele><time>2026-04-15T12:45:14.539Z</time></trkpt><trkpt lat="46.0296389" lon="11.879073"><ele>348.0</ele><time>2026-04-15T12:45:16.539Z</time></trkpt><trkpt lat="46.0297203" lon="11.879056"><ele>348.0</ele><time>2026-04-15T12:45:18.535Z</time></trkpt><trkpt lat="46.0297896" lon="11.8790346"><ele>348.0</ele><time>2026-04-15T12:45:20.539Z</time></trkpt><trkpt lat="46.0298564" lon="11.8790168"><ele>348.0</ele><time>2026-04-15T12:45:22.539Z</time></trkpt><trkpt lat="46.0299216" lon="11.879021"><ele>348.0</ele><time>2026-04-15T12:45:24.539Z</time></trkpt><trkpt lat="46.0299861" lon="11.8790278"><ele>348.0</ele><time>2026-04-15T12:45:26.539Z</time></trkpt><trkpt lat="46.0300506" lon="11.8790313"><ele>348.0</ele><time>2026-04-15T12:45:28.539Z</time></trkpt><trkpt lat="46.0301212" lon="11.8790335"><ele>348.0</ele><time>2026-04-15T12:45:30.539Z</time></trkpt><trkpt lat="46.0301926" lon="11.8790392"><ele>348.7142857142857</ele><time>2026-04-15T12:45:32.538Z</time></trkpt><trkpt lat="46.0302657" lon="11.8790474"><ele>349.42857142857144</ele><time>2026-04-15T12:45:34.536Z</time></trkpt><trkpt lat="46.0303391" lon="11.8790585"><ele>350.1428571428571</ele><time>2026-04-15T12:45:36.539Z</time></trkpt><trkpt lat="46.03041" lon="11.8790639"><ele>350.8571428571429</ele><time>2026-04-15T12:45:38.539Z</time></trkpt><trkpt lat="46.0304797" lon="11.8790614"><ele>351.5714285714286</ele><time>2026-04-15T12:45:40.537Z</time></trkpt><trkpt lat="46.0305473" lon="11.8790627"><ele>352.2857142857143</ele><time>2026-04-15T12:45:42.539Z</time></trkpt><trkpt lat="46.0306125" lon="11.8790611"><ele>353.0</ele><time>2026-04-15T12:45:44.539Z</time></trkpt><trkpt lat="46.0306758" lon="11.8790623"><ele>353.0</ele><time>2026-04-15T12:45:46.538Z</time></trkpt><trkpt lat="46.0307671" lon="11.8790676"><ele>353.0</ele><time>2026-04-15T12:45:49.539Z</time></trkpt><trkpt lat="46.0308526" lon="11.8790719"><ele>353.0</ele><time>2026-04-15T12:45:52.538Z</time></trkpt><trkpt lat="46.0309306" lon="11.8790987"><ele>353.0</ele><time>2026-04-15T12:45:55.539Z</time></trkpt><trkpt lat="46.030993" lon="11.8791236"><ele>353.0</ele><time>2026-04-15T12:45:58.539Z</time></trkpt><trkpt lat="46.0310449" lon="11.8791762"><ele>353.0</ele><time>2026-04-15T12:46:01.539Z</time></trkpt><trkpt lat="46.0310822" lon="11.8792652"><ele>353.33333333333337</ele><time>2026-04-15T12:46:05.539Z</time></trkpt><trkpt lat="46.0310681" lon="11.8793705"><ele>353.6666666666667</ele><time>2026-04-15T12:46:09.538Z</time></trkpt><trkpt lat="46.0310367" lon="11.8794731"><ele>354.0</ele><time>2026-04-15T12:46:12.538Z</time></trkpt><trkpt lat="46.031023" lon="11.8795811"><ele>354.3333333333333</ele><time>2026-04-15T12:46:15.539Z</time></trkpt><trkpt lat="46.0310194" lon="11.8796905"><ele>354.66666666666663</ele><time>2026-04-15T12:46:18.539Z</time></trkpt><trkpt lat="46.0310169" lon="11.8798026"><ele>355.0</ele><time>2026-04-15T12:46:21.539Z</time></trkpt><trkpt lat="46.0310034" lon="11.8799"><ele>355.0</ele><time>2026-04-15T12:46:24.539Z</time></trkpt><trkpt lat="46.0309701" lon="11.8799795"><ele>355.0</ele><time>2026-04-15T12:46:27.538Z</time></trkpt><trkpt lat="46.0310302" lon="11.8799222"><ele>355.0</ele><time>2026-04-15T12:47:05.538Z</time></trkpt><trkpt lat="46.0310149" lon="11.8798198"><ele>355.0</ele><time>2026-04-15T12:47:08.539Z</time></trkpt><trkpt lat="46.0309882" lon="11.8797123"><ele>355.0</ele><time>2026-04-15T12:47:11.537Z</time></trkpt><trkpt lat="46.0309972" lon="11.879581"><ele>355.0</ele><time>2026-04-15T12:47:14.538Z</time></trkpt><trkpt lat="46.0310144" lon="11.8794863"><ele>355.0</ele><time>2026-04-15T12:47:16.539Z</time></trkpt><trkpt lat="46.0310515" lon="11.8794055"><ele>355.0</ele><time>2026-04-15T12:47:18.537Z</time></trkpt><trkpt lat="46.0311075" lon="11.8793546"><ele>355.0</ele><time>2026-04-15T12:47:20.537Z</time></trkpt><trkpt lat="46.0311917" lon="11.8793736"><ele>355.0</ele><time>2026-04-15T12:47:23.538Z</time></trkpt><trkpt lat="46.0312404" lon="11.8794407"><ele>355.0</ele><time>2026-04-15T12:47:25.539Z</time></trkpt><trkpt lat="46.0313022" lon="11.8795109"><ele>355.0</ele><time>2026-04-15T12:47:27.539Z</time></trkpt><trkpt lat="46.0313738" lon="11.8795829"><ele>355.0</ele><time>2026-04-15T12:47:29.538Z</time></trkpt><trkpt lat="46.0314509" lon="11.8796589"><ele>355.0</ele><time>2026-04-15T12:47:31.535Z</time></trkpt><trkpt lat="46.0315419" lon="11.8797359"><ele>355.0</ele><time>2026-04-15T12:47:33.535Z</time></trkpt><trkpt lat="46.0316368" lon="11.8798229"><ele>355.0</ele><time>2026-04-15T12:47:35.537Z</time></trkpt><trkpt lat="46.0317154" lon="11.8799272"><ele>355.0</ele><time>2026-04-15T12:47:37.539Z</time></trkpt><trkpt lat="46.0317824" lon="11.8800261"><ele>355.0</ele><time>2026-04-15T12:47:39.539Z</time></trkpt><trkpt lat="46.0318622" lon="11.8801104"><ele>353.66666666666663</ele><time>2026-04-15T12:47:41.539Z</time></trkpt><trkpt lat="46.0319562" lon="11.8802035"><ele>352.3333333333333</ele><time>2026-04-15T12:47:43.539Z</time></trkpt><trkpt lat="46.0320103" lon="11.8802559"><ele>351.0</ele><time>2026-04-15T12:47:44.539Z</time></trkpt><trkpt lat="46.032069" lon="11.8803049"><ele>349.6666666666667</ele><time>2026-04-15T12:47:45.539Z</time></trkpt><trkpt lat="46.0321285" lon="11.880346"><ele>348.33333333333337</ele><time>2026-04-15T12:47:46.537Z</time></trkpt><trkpt lat="46.0322399" lon="11.8803796"><ele>347.0</ele><time>2026-04-15T12:47:48.538Z</time></trkpt><trkpt lat="46.0323326" lon="11.8803964"><ele>347.0</ele><time>2026-04-15T12:47:50.539Z</time></trkpt><trkpt lat="46.032377" lon="11.8804902"><ele>347.0</ele><time>2026-04-15T12:47:52.538Z</time></trkpt><trkpt lat="46.0323711" lon="11.8805953"><ele>347.0</ele><time>2026-04-15T12:47:54.538Z</time></trkpt><trkpt lat="46.0323626" lon="11.8807119"><ele>347.0</ele><time>2026-04-15T12:47:57.538Z</time></trkpt><trkpt lat="46.0324081" lon="11.8807828"><ele>347.0</ele><time>2026-04-15T12:47:59.539Z</time></trkpt><trkpt lat="46.0324415" lon="11.8808679"><ele>347.0</ele><time>2026-04-15T12:48:01.539Z</time></trkpt><trkpt lat="46.032479" lon="11.8809557"><ele>347.0</ele><time>2026-04-15T12:48:03.539Z</time></trkpt><trkpt lat="46.0325139" lon="11.8810525"><ele>346.5</ele><time>2026-04-15T12:48:05.539Z</time></trkpt><trkpt lat="46.0325444" lon="11.8811475"><ele>346.0</ele><time>2026-04-15T12:48:07.538Z</time></trkpt><trkpt lat="46.0325767" lon="11.8812397"><ele>345.5</ele><time>2026-04-15T12:48:09.538Z</time></trkpt><trkpt lat="46.0326061" lon="11.881337"><ele>345.0</ele><time>2026-04-15T12:48:11.537Z</time></trkpt><trkpt lat="46.0326179" lon="11.881445"><ele>344.5</ele><time>2026-04-15T12:48:13.537Z</time></trkpt><trkpt lat="46.0326311" lon="11.8815673"><ele>344.0</ele><time>2026-04-15T12:48:15.538Z</time></trkpt><trkpt lat="46.0326359" lon="11.8816968"><ele>344.0</ele><time>2026-04-15T12:48:17.539Z</time></trkpt><trkpt lat="46.0326399" lon="11.8818394"><ele>344.0</ele><time>2026-04-15T12:48:19.538Z</time></trkpt><trkpt lat="46.032645" lon="11.8819849"><ele>344.0</ele><time>2026-04-15T12:48:21.537Z</time></trkpt><trkpt lat="46.0326548" lon="11.8821288"><ele>344.0</ele><time>2026-04-15T12:48:23.537Z</time></trkpt><trkpt lat="46.0326602" lon="11.8822684"><ele>344.0</ele><time>2026-04-15T12:48:25.539Z</time></trkpt><trkpt lat="46.0326673" lon="11.8824034"><ele>344.0</ele><time>2026-04-15T12:48:27.537Z</time></trkpt><trkpt lat="46.0326706" lon="11.8825379"><ele>344.0</ele><time>2026-04-15T12:48:29.537Z</time></trkpt><trkpt lat="46.0326754" lon="11.8826743"><ele>344.0</ele><time>2026-04-15T12:48:31.536Z</time></trkpt><trkpt lat="46.032683" lon="11.882808"><ele>344.0</ele><time>2026-04-15T12:48:33.539Z</time></trkpt><trkpt lat="46.0326987" lon="11.8829382"><ele>344.0</ele><time>2026-04-15T12:48:35.539Z</time></trkpt><trkpt lat="46.0327238" lon="11.8830743"><ele>343.2</ele><time>2026-04-15T12:48:37.537Z</time></trkpt><trkpt lat="46.0327604" lon="11.8832178"><ele>342.4</ele><time>2026-04-15T12:48:39.537Z</time></trkpt><trkpt lat="46.032793" lon="11.8833527"><ele>341.6</ele><time>2026-04-15T12:48:41.538Z</time></trkpt><trkpt lat="46.0327825" lon="11.8835081"><ele>340.8</ele><time>2026-04-15T12:48:43.538Z</time></trkpt><trkpt lat="46.0327705" lon="11.8836585"><ele>340.0</ele><time>2026-04-15T12:48:45.538Z</time></trkpt><trkpt lat="46.0327702" lon="11.8838053"><ele>339.5</ele><time>2026-04-15T12:48:47.538Z</time></trkpt><trkpt lat="46.0327808" lon="11.8839211"><ele>339.0</ele><time>2026-04-15T12:48:49.538Z</time></trkpt><trkpt lat="46.0328227" lon="11.8840007"><ele>338.5</ele><time>2026-04-15T12:48:51.538Z</time></trkpt><trkpt lat="46.0328824" lon="11.8840529"><ele>338.0</ele><time>2026-04-15T12:48:53.538Z</time></trkpt><trkpt lat="46.0329519" lon="11.8840766"><ele>337.5</ele><time>2026-04-15T12:48:55.538Z</time></trkpt><trkpt lat="46.0330379" lon="11.8840783"><ele>337.0</ele><time>2026-04-15T12:48:57.536Z</time></trkpt><trkpt lat="46.0331322" lon="11.8840599"><ele>337.0</ele><time>2026-04-15T12:48:59.537Z</time></trkpt><trkpt lat="46.0332193" lon="11.8840398"><ele>337.0</ele><time>2026-04-15T12:49:01.538Z</time></trkpt><trkpt lat="46.0333073" lon="11.8840231"><ele>337.0</ele><time>2026-04-15T12:49:03.538Z</time></trkpt><trkpt lat="46.0333958" lon="11.8840035"><ele>337.0</ele><time>2026-04-15T12:49:05.537Z</time></trkpt><trkpt lat="46.0334882" lon="11.8839655"><ele>337.0</ele><time>2026-04-15T12:49:07.538Z</time></trkpt><trkpt lat="46.0335747" lon="11.8839387"><ele>336.8333333333333</ele><time>2026-04-15T12:49:09.538Z</time></trkpt><trkpt lat="46.033652" lon="11.8838928"><ele>336.66666666666663</ele><time>2026-04-15T12:49:11.537Z</time></trkpt><trkpt lat="46.0337318" lon="11.8838554"><ele>336.5</ele><time>2026-04-15T12:49:13.538Z</time></trkpt><trkpt lat="46.0338152" lon="11.883814"><ele>336.3333333333333</ele><time>2026-04-15T12:49:15.539Z</time></trkpt><trkpt lat="46.0338993" lon="11.8837708"><ele>336.1666666666667</ele><time>2026-04-15T12:49:17.538Z</time></trkpt><trkpt lat="46.0339816" lon="11.88373"><ele>336.0</ele><time>2026-04-15T12:49:19.538Z</time></trkpt><trkpt lat="46.0340586" lon="11.8836854"><ele>336.0</ele><time>2026-04-15T12:49:21.538Z</time></trkpt><trkpt lat="46.0341307" lon="11.883628"><ele>336.0</ele><time>2026-04-15T12:49:23.536Z</time></trkpt><trkpt lat="46.0342057" lon="11.8835515"><ele>336.0</ele><time>2026-04-15T12:49:25.539Z</time></trkpt><trkpt lat="46.034284" lon="11.8834569"><ele>336.0</ele><time>2026-04-15T12:49:27.539Z</time></trkpt><trkpt lat="46.034359" lon="11.8833734"><ele>336.0</ele><time>2026-04-15T12:49:29.538Z</time></trkpt><trkpt lat="46.0344356" lon="11.883303"><ele>336.5</ele><time>2026-04-15T12:49:31.537Z</time></trkpt><trkpt lat="46.034508" lon="11.8832361"><ele>337.0</ele><time>2026-04-15T12:49:33.536Z</time></trkpt><trkpt lat="46.0345713" lon="11.8831608"><ele>337.5</ele><time>2026-04-15T12:49:35.538Z</time></trkpt><trkpt lat="46.0346308" lon="11.8830698"><ele>338.0</ele><time>2026-04-15T12:49:37.538Z</time></trkpt><trkpt lat="46.0346889" lon="11.8829786"><ele>338.5</ele><time>2026-04-15T12:49:39.534Z</time></trkpt><trkpt lat="46.0347473" lon="11.8828803"><ele>339.0</ele><time>2026-04-15T12:49:41.535Z</time></trkpt><trkpt lat="46.0348092" lon="11.8827857"><ele>339.0</ele><time>2026-04-15T12:49:43.535Z</time></trkpt><trkpt lat="46.0348602" lon="11.8826727"><ele>339.0</ele><time>2026-04-15T12:49:45.534Z</time></trkpt><trkpt lat="46.0348905" lon="11.8825511"><ele>339.0</ele><time>2026-04-15T12:49:47.538Z</time></trkpt><trkpt lat="46.0349219" lon="11.8824258"><ele>339.0</ele><time>2026-04-15T12:49:49.535Z</time></trkpt><trkpt lat="46.0349455" lon="11.8822921"><ele>339.0</ele><time>2026-04-15T12:49:51.535Z</time></trkpt><trkpt lat="46.034964" lon="11.8821597"><ele>339.0</ele><time>2026-04-15T12:49:53.537Z</time></trkpt><trkpt lat="46.0349914" lon="11.8820325"><ele>339.0</ele><time>2026-04-15T12:49:55.539Z</time></trkpt><trkpt lat="46.0350045" lon="11.8819025"><ele>339.0</ele><time>2026-04-15T12:49:57.538Z</time></trkpt><trkpt lat="46.0350155" lon="11.88178"><ele>339.0</ele><time>2026-04-15T12:49:59.538Z</time></trkpt><trkpt lat="46.0350445" lon="11.8816737"><ele>339.0</ele><time>2026-04-15T12:50:01.537Z</time></trkpt><trkpt lat="46.0351221" lon="11.8816198"><ele>339.0</ele><time>2026-04-15T12:50:03.536Z</time></trkpt><trkpt lat="46.0352176" lon="11.8816108"><ele>339.0</ele><time>2026-04-15T12:50:05.537Z</time></trkpt><trkpt lat="46.03532" lon="11.881591"><ele>339.0</ele><time>2026-04-15T12:50:07.539Z</time></trkpt><trkpt lat="46.0354245" lon="11.881515"><ele>339.0</ele><time>2026-04-15T12:50:09.537Z</time></trkpt><trkpt lat="46.0355141" lon="11.8814312"><ele>339.0</ele><time>2026-04-15T12:50:11.538Z</time></trkpt><trkpt lat="46.035589" lon="11.8813637"><ele>339.0</ele><time>2026-04-15T12:50:13.536Z</time></trkpt><trkpt lat="46.0356671" lon="11.8813434"><ele>339.0</ele><time>2026-04-15T12:50:16.537Z</time></trkpt><trkpt lat="46.0356816" lon="11.8814349"><ele>339.0</ele><time>2026-04-15T12:50:19.538Z</time></trkpt><trkpt lat="46.0356551" lon="11.8815265"><ele>339.0</ele><time>2026-04-15T12:50:22.538Z</time></trkpt><trkpt lat="46.0356982" lon="11.8816146"><ele>339.0</ele><time>2026-04-15T12:50:26.539Z</time></trkpt><trkpt lat="46.0357678" lon="11.8816322"><ele>339.0</ele><time>2026-04-15T12:50:29.535Z</time></trkpt><trkpt lat="46.0357852" lon="11.8817298"><ele>339.0</ele><time>2026-04-15T12:50:32.538Z</time></trkpt><trkpt lat="46.0357899" lon="11.8818303"><ele>339.0</ele><time>2026-04-15T12:50:35.539Z</time></trkpt><trkpt lat="46.0357782" lon="11.8819379"><ele>339.1428571428571</ele><time>2026-04-15T12:50:39.537Z</time></trkpt><trkpt lat="46.0357893" lon="11.8820333"><ele>339.28571428571433</ele><time>2026-04-15T12:50:42.538Z</time></trkpt><trkpt lat="46.0358333" lon="11.8821522"><ele>339.42857142857144</ele><time>2026-04-15T12:50:45.538Z</time></trkpt><trkpt lat="46.035856" lon="11.8822454"><ele>339.57142857142856</ele><time>2026-04-15T12:50:47.538Z</time></trkpt><trkpt lat="46.0358757" lon="11.8823448"><ele>339.71428571428567</ele><time>2026-04-15T12:50:49.539Z</time></trkpt><trkpt lat="46.0359011" lon="11.8824456"><ele>339.8571428571429</ele><time>2026-04-15T12:50:51.539Z</time></trkpt><trkpt lat="46.0359319" lon="11.8825385"><ele>340.0</ele><time>2026-04-15T12:50:53.538Z</time></trkpt><trkpt lat="46.0359788" lon="11.8826385"><ele>339.0</ele><time>2026-04-15T12:50:56.539Z</time></trkpt><trkpt lat="46.0360133" lon="11.8827505"><ele>338.0</ele><time>2026-04-15T12:51:00.539Z</time></trkpt><trkpt lat="46.0360387" lon="11.8828505"><ele>337.0</ele><time>2026-04-15T12:51:04.537Z</time></trkpt><trkpt lat="46.0359756" lon="11.8829496"><ele>336.0</ele><time>2026-04-15T12:51:08.538Z</time></trkpt><trkpt lat="46.0359076" lon="11.8829995"><ele>335.0</ele><time>2026-04-15T12:51:10.537Z</time></trkpt><trkpt lat="46.0358308" lon="11.8830496"><ele>334.0</ele><time>2026-04-15T12:51:12.538Z</time></trkpt><trkpt lat="46.0357516" lon="11.8831033"><ele>334.0</ele><time>2026-04-15T12:51:14.536Z</time></trkpt><trkpt lat="46.0356762" lon="11.883163"><ele>334.0</ele><time>2026-04-15T12:51:16.538Z</time></trkpt><trkpt lat="46.0355978" lon="11.8832241"><ele>334.0</ele><time>2026-04-15T12:51:18.538Z</time></trkpt><trkpt lat="46.0355213" lon="11.8832857"><ele>334.0</ele><time>2026-04-15T12:51:20.539Z</time></trkpt><trkpt lat="46.0354503" lon="11.8833555"><ele>334.0</ele><time>2026-04-15T12:51:22.538Z</time></trkpt><trkpt lat="46.0353835" lon="11.8834317"><ele>334.0</ele><time>2026-04-15T12:51:24.538Z</time></trkpt><trkpt lat="46.0353053" lon="11.8835024"><ele>333.6</ele><time>2026-04-15T12:51:26.538Z</time></trkpt><trkpt lat="46.0352201" lon="11.8835692"><ele>333.2</ele><time>2026-04-15T12:51:28.536Z</time></trkpt><trkpt lat="46.0351423" lon="11.8836494"><ele>332.8</ele><time>2026-04-15T12:51:30.536Z</time></trkpt><trkpt lat="46.0350685" lon="11.8837325"><ele>332.40000000000003</ele><time>2026-04-15T12:51:32.537Z</time></trkpt><trkpt lat="46.0350006" lon="11.8838188"><ele>332.0</ele><time>2026-04-15T12:51:34.535Z</time></trkpt><trkpt lat="46.0349314" lon="11.8839063"><ele>332.0</ele><time>2026-04-15T12:51:36.538Z</time></trkpt><trkpt lat="46.0348694" lon="11.8840055"><ele>332.0</ele><time>2026-04-15T12:51:38.539Z</time></trkpt><trkpt lat="46.0348029" lon="11.8841055"><ele>332.0</ele><time>2026-04-15T12:51:40.538Z</time></trkpt><trkpt lat="46.0347426" lon="11.8841996"><ele>332.0</ele><time>2026-04-15T12:51:42.538Z</time></trkpt><trkpt lat="46.0346904" lon="11.8842733"><ele>332.0</ele><time>2026-04-15T12:51:44.538Z</time></trkpt><trkpt lat="46.0346332" lon="11.8843629"><ele>332.0</ele><time>2026-04-15T12:51:47.536Z</time></trkpt><trkpt lat="46.0346417" lon="11.884463"><ele>330.83333333333337</ele><time>2026-04-15T12:51:50.539Z</time></trkpt><trkpt lat="46.0347056" lon="11.8845181"><ele>329.6666666666667</ele><time>2026-04-15T12:51:52.537Z</time></trkpt><trkpt lat="46.0347712" lon="11.8845984"><ele>328.5</ele><time>2026-04-15T12:51:54.538Z</time></trkpt><trkpt lat="46.0348246" lon="11.8846849"><ele>327.3333333333333</ele><time>2026-04-15T12:51:56.539Z</time></trkpt><trkpt lat="46.0348569" lon="11.8847736"><ele>326.16666666666663</ele><time>2026-04-15T12:51:58.539Z</time></trkpt><trkpt lat="46.0348242" lon="11.8848532"><ele>325.0</ele><time>2026-04-15T12:52:00.537Z</time></trkpt><trkpt lat="46.0347604" lon="11.8849351"><ele>325.0</ele><time>2026-04-15T12:52:02.539Z</time></trkpt><trkpt lat="46.0346941" lon="11.8850275"><ele>325.0</ele><time>2026-04-15T12:52:04.539Z</time></trkpt><trkpt lat="46.0346248" lon="11.8851163"><ele>325.0</ele><time>2026-04-15T12:52:06.539Z</time></trkpt><trkpt lat="46.0345536" lon="11.8852087"><ele>325.0</ele><time>2026-04-15T12:52:08.54Z</time></trkpt><trkpt lat="46.0344814" lon="11.8853108"><ele>325.0</ele><time>2026-04-15T12:52:10.538Z</time></trkpt><trkpt lat="46.0344051" lon="11.8854136"><ele>324.8</ele><time>2026-04-15T12:52:12.537Z</time></trkpt><trkpt lat="46.0343256" lon="11.8855218"><ele>324.6</ele><time>2026-04-15T12:52:14.535Z</time></trkpt><trkpt lat="46.0342632" lon="11.8856468"><ele>324.4</ele><time>2026-04-15T12:52:16.536Z</time></trkpt><trkpt lat="46.0342665" lon="11.885797"><ele>324.2</ele><time>2026-04-15T12:52:18.539Z</time></trkpt><trkpt lat="46.0343329" lon="11.8859156"><ele>324.0</ele><time>2026-04-15T12:52:20.539Z</time></trkpt><trkpt lat="46.0344077" lon="11.8860265"><ele>324.0</ele><time>2026-04-15T12:52:22.537Z</time></trkpt><trkpt lat="46.0344945" lon="11.8861381"><ele>324.0</ele><time>2026-04-15T12:52:24.537Z</time></trkpt><trkpt lat="46.034588" lon="11.8862449"><ele>324.0</ele><time>2026-04-15T12:52:26.539Z</time></trkpt><trkpt lat="46.0346786" lon="11.8863507"><ele>324.0</ele><time>2026-04-15T12:52:28.538Z</time></trkpt><trkpt lat="46.0347653" lon="11.8864524"><ele>324.0</ele><time>2026-04-15T12:52:30.538Z</time></trkpt><trkpt lat="46.0348429" lon="11.8865515"><ele>324.0</ele><time>2026-04-15T12:52:32.538Z</time></trkpt><trkpt lat="46.0349279" lon="11.8866487"><ele>324.0</ele><time>2026-04-15T12:52:34.535Z</time></trkpt><trkpt lat="46.0350212" lon="11.8867432"><ele>324.0</ele><time>2026-04-15T12:52:36.537Z</time></trkpt><trkpt lat="46.0350979" lon="11.8868431"><ele>324.0</ele><time>2026-04-15T12:52:38.539Z</time></trkpt><trkpt lat="46.0351728" lon="11.8869379"><ele>323.6</ele><time>2026-04-15T12:52:40.538Z</time></trkpt><trkpt lat="46.035251" lon="11.887025"><ele>323.2</ele><time>2026-04-15T12:52:42.534Z</time></trkpt><trkpt lat="46.0353302" lon="11.8871036"><ele>322.8</ele><time>2026-04-15T12:52:44.538Z</time></trkpt><trkpt lat="46.0354028" lon="11.8871871"><ele>322.40000000000003</ele><time>2026-04-15T12:52:46.538Z</time></trkpt><trkpt lat="46.0354768" lon="11.8872728"><ele>322.0</ele><time>2026-04-15T12:52:48.537Z</time></trkpt><trkpt lat="46.0355515" lon="11.8873546"><ele>322.0</ele><time>2026-04-15T12:52:50.538Z</time></trkpt><trkpt lat="46.0356344" lon="11.8874287"><ele>322.0</ele><time>2026-04-15T12:52:52.538Z</time></trkpt><trkpt lat="46.0357204" lon="11.8875156"><ele>322.0</ele><time>2026-04-15T12:52:54.539Z</time></trkpt><trkpt lat="46.0358117" lon="11.8875972"><ele>322.0</ele><time>2026-04-15T12:52:56.539Z</time></trkpt><trkpt lat="46.0358941" lon="11.88768"><ele>322.0</ele><time>2026-04-15T12:52:58.538Z</time></trkpt><trkpt lat="46.0359769" lon="11.8877586"><ele>321.6</ele><time>2026-04-15T12:53:00.538Z</time></trkpt><trkpt lat="46.0360554" lon="11.8878345"><ele>321.20000000000005</ele><time>2026-04-15T12:53:02.538Z</time></trkpt><trkpt lat="46.0361355" lon="11.8879142"><ele>320.8</ele><time>2026-04-15T12:53:04.538Z</time></trkpt><trkpt lat="46.0362169" lon="11.8879959"><ele>320.4</ele><time>2026-04-15T12:53:06.536Z</time></trkpt><trkpt lat="46.0362961" lon="11.8880686"><ele>320.0</ele><time>2026-04-15T12:53:08.539Z</time></trkpt><trkpt lat="46.0363777" lon="11.8881389"><ele>320.0</ele><time>2026-04-15T12:53:10.539Z</time></trkpt><trkpt lat="46.0364479" lon="11.8882112"><ele>320.0</ele><time>2026-04-15T12:53:12.537Z</time></trkpt><trkpt lat="46.0365115" lon="11.8882705"><ele>320.0</ele><time>2026-04-15T12:53:14.538Z</time></trkpt><trkpt lat="46.0365513" lon="11.8883518"><ele>320.0</ele><time>2026-04-15T12:53:16.538Z</time></trkpt><trkpt lat="46.0365226" lon="11.8884472"><ele>320.0</ele><time>2026-04-15T12:53:18.538Z</time></trkpt><trkpt lat="46.0364701" lon="11.8885529"><ele>320.0</ele><time>2026-04-15T12:53:20.539Z</time></trkpt><trkpt lat="46.0364237" lon="11.8886695"><ele>319.8</ele><time>2026-04-15T12:53:22.538Z</time></trkpt><trkpt lat="46.0363873" lon="11.8887973"><ele>319.6</ele><time>2026-04-15T12:53:24.539Z</time></trkpt><trkpt lat="46.0363739" lon="11.8889398"><ele>319.4</ele><time>2026-04-15T12:53:26.538Z</time></trkpt><trkpt lat="46.0363642" lon="11.8890896"><ele>319.2</ele><time>2026-04-15T12:53:28.539Z</time></trkpt><trkpt lat="46.0363518" lon="11.8892413"><ele>319.0</ele><time>2026-04-15T12:53:30.539Z</time></trkpt><trkpt lat="46.0363407" lon="11.8893926"><ele>318.4</ele><time>2026-04-15T12:53:32.539Z</time></trkpt><trkpt lat="46.0363247" lon="11.8895444"><ele>317.79999999999995</ele><time>2026-04-15T12:53:34.537Z</time></trkpt><trkpt lat="46.0363052" lon="11.8896986"><ele>317.20000000000005</ele><time>2026-04-15T12:53:36.537Z</time></trkpt><trkpt lat="46.0362417" lon="11.8898257"><ele>316.6</ele><time>2026-04-15T12:53:38.537Z</time></trkpt><trkpt lat="46.0361498" lon="11.8899083"><ele>316.0</ele><time>2026-04-15T12:53:40.537Z</time></trkpt><trkpt lat="46.036041" lon="11.8899346"><ele>316.0</ele><time>2026-04-15T12:53:42.537Z</time></trkpt><trkpt lat="46.0359307" lon="11.889943"><ele>316.0</ele><time>2026-04-15T12:53:44.539Z</time></trkpt><trkpt lat="46.0358232" lon="11.889955"><ele>316.0</ele><time>2026-04-15T12:53:46.539Z</time></trkpt><trkpt lat="46.0357178" lon="11.8899643"><ele>316.0</ele><time>2026-04-15T12:53:48.536Z</time></trkpt><trkpt lat="46.0356085" lon="11.8899618"><ele>316.0</ele><time>2026-04-15T12:53:50.539Z</time></trkpt><trkpt lat="46.0354999" lon="11.8899448"><ele>315.8</ele><time>2026-04-15T12:53:52.537Z</time></trkpt><trkpt lat="46.0353975" lon="11.8899126"><ele>315.6</ele><time>2026-04-15T12:53:54.537Z</time></trkpt><trkpt lat="46.0353129" lon="11.8898312"><ele>315.4</ele><time>2026-04-15T12:53:56.538Z</time></trkpt><trkpt lat="46.0352424" lon="11.8897252"><ele>315.2</ele><time>2026-04-15T12:53:58.539Z</time></trkpt><trkpt lat="46.0351794" lon="11.8896213"><ele>315.0</ele><time>2026-04-15T12:54:00.537Z</time></trkpt><trkpt lat="46.0351011" lon="11.8895424"><ele>315.0</ele><time>2026-04-15T12:54:02.538Z</time></trkpt><trkpt lat="46.035001" lon="11.8895171"><ele>315.0</ele><time>2026-04-15T12:54:04.538Z</time></trkpt><trkpt lat="46.0349101" lon="11.8895709"><ele>315.0</ele><time>2026-04-15T12:54:06.538Z</time></trkpt><trkpt lat="46.0348231" lon="11.8896262"><ele>315.0</ele><time>2026-04-15T12:54:08.54Z</time></trkpt><trkpt lat="46.0347313" lon="11.8896264"><ele>315.0</ele><time>2026-04-15T12:54:10.535Z</time></trkpt><trkpt lat="46.0346544" lon="11.8895554"><ele>315.0</ele><time>2026-04-15T12:54:12.536Z</time></trkpt><trkpt lat="46.034595" lon="11.8894573"><ele>315.0</ele><time>2026-04-15T12:54:14.54Z</time></trkpt><trkpt lat="46.034533" lon="11.8893601"><ele>315.0</ele><time>2026-04-15T12:54:16.539Z</time></trkpt><trkpt lat="46.0344702" lon="11.8892601"><ele>315.0</ele><time>2026-04-15T12:54:18.537Z</time></trkpt><trkpt lat="46.0344029" lon="11.8891685"><ele>315.0</ele><time>2026-04-15T12:54:20.539Z</time></trkpt><trkpt lat="46.0343347" lon="11.8890987"><ele>315.0</ele><time>2026-04-15T12:54:22.535Z</time></trkpt><trkpt lat="46.034258" lon="11.8890611"><ele>315.0</ele><time>2026-04-15T12:54:24.537Z</time></trkpt><trkpt lat="46.0341731" lon="11.8890647"><ele>315.0</ele><time>2026-04-15T12:54:26.538Z</time></trkpt><trkpt lat="46.0340826" lon="11.8890951"><ele>315.0</ele><time>2026-04-15T12:54:28.536Z</time></trkpt><trkpt lat="46.0339927" lon="11.8891407"><ele>315.0</ele><time>2026-04-15T12:54:30.539Z</time></trkpt><trkpt lat="46.0339004" lon="11.8891757"><ele>314.6</ele><time>2026-04-15T12:54:32.539Z</time></trkpt><trkpt lat="46.0338046" lon="11.889222"><ele>314.2</ele><time>2026-04-15T12:54:34.539Z</time></trkpt><trkpt lat="46.0337086" lon="11.8892914"><ele>313.8</ele><time>2026-04-15T12:54:36.538Z</time></trkpt><trkpt lat="46.0336187" lon="11.8893855"><ele>313.4</ele><time>2026-04-15T12:54:38.538Z</time></trkpt><trkpt lat="46.0335446" lon="11.8895008"><ele>313.0</ele><time>2026-04-15T12:54:40.536Z</time></trkpt><trkpt lat="46.0334683" lon="11.8896252"><ele>312.75</ele><time>2026-04-15T12:54:42.538Z</time></trkpt><trkpt lat="46.0333893" lon="11.8897557"><ele>312.5</ele><time>2026-04-15T12:54:44.539Z</time></trkpt><trkpt lat="46.0333232" lon="11.8899048"><ele>312.25</ele><time>2026-04-15T12:54:46.537Z</time></trkpt><trkpt lat="46.0332671" lon="11.8900572"><ele>312.0</ele><time>2026-04-15T12:54:48.539Z</time></trkpt><trkpt lat="46.0332248" lon="11.890217"><ele>311.25</ele><time>2026-04-15T12:54:50.539Z</time></trkpt><trkpt lat="46.0331836" lon="11.8903762"><ele>310.5</ele><time>2026-04-15T12:54:52.537Z</time></trkpt><trkpt lat="46.0331668" lon="11.890543"><ele>309.75</ele><time>2026-04-15T12:54:54.539Z</time></trkpt><trkpt lat="46.0331611" lon="11.890709"><ele>309.0</ele><time>2026-04-15T12:54:56.537Z</time></trkpt><trkpt lat="46.0331637" lon="11.890875"><ele>308.5</ele><time>2026-04-15T12:54:58.538Z</time></trkpt><trkpt lat="46.0331494" lon="11.8910387"><ele>308.0</ele><time>2026-04-15T12:55:00.537Z</time></trkpt><trkpt lat="46.0331018" lon="11.8911873"><ele>307.5</ele><time>2026-04-15T12:55:02.538Z</time></trkpt><trkpt lat="46.0330302" lon="11.8913148"><ele>307.0</ele><time>2026-04-15T12:55:04.539Z</time></trkpt><trkpt lat="46.0329464" lon="11.8914194"><ele>307.0</ele><time>2026-04-15T12:55:06.536Z</time></trkpt><trkpt lat="46.0328575" lon="11.8915039"><ele>307.0</ele><time>2026-04-15T12:55:08.539Z</time></trkpt><trkpt lat="46.0327664" lon="11.8915674"><ele>307.0</ele><time>2026-04-15T12:55:10.536Z</time></trkpt><trkpt lat="46.0326802" lon="11.8916144"><ele>307.0</ele><time>2026-04-15T12:55:12.538Z</time></trkpt><trkpt lat="46.032609" lon="11.8916742"><ele>307.0</ele><time>2026-04-15T12:55:14.539Z</time></trkpt><trkpt lat="46.0325618" lon="11.8917642"><ele>306.8</ele><time>2026-04-15T12:55:16.537Z</time></trkpt><trkpt lat="46.0325247" lon="11.8918819"><ele>306.6</ele><time>2026-04-15T12:55:18.537Z</time></trkpt><trkpt lat="46.0324946" lon="11.8920164"><ele>306.40000000000003</ele><time>2026-04-15T12:55:20.538Z</time></trkpt><trkpt lat="46.0324838" lon="11.8921628"><ele>306.2</ele><time>2026-04-15T12:55:22.539Z</time></trkpt><trkpt lat="46.0324739" lon="11.8923055"><ele>306.0</ele><time>2026-04-15T12:55:24.539Z</time></trkpt><trkpt lat="46.0324602" lon="11.892447"><ele>306.0</ele><time>2026-04-15T12:55:26.539Z</time></trkpt><trkpt lat="46.0324535" lon="11.8925884"><ele>306.0</ele><time>2026-04-15T12:55:28.537Z</time></trkpt><trkpt lat="46.0324392" lon="11.8927287"><ele>306.0</ele><time>2026-04-15T12:55:30.539Z</time></trkpt><trkpt lat="46.0324228" lon="11.8928803"><ele>306.0</ele><time>2026-04-15T12:55:32.536Z</time></trkpt><trkpt lat="46.0324021" lon="11.8930388"><ele>306.0</ele><time>2026-04-15T12:55:34.539Z</time></trkpt><trkpt lat="46.0323834" lon="11.8932114"><ele>306.0</ele><time>2026-04-15T12:55:36.538Z</time></trkpt><trkpt lat="46.0323688" lon="11.8933762"><ele>306.0</ele><time>2026-04-15T12:55:38.539Z</time></trkpt><trkpt lat="46.0323824" lon="11.8935332"><ele>306.0</ele><time>2026-04-15T12:55:40.538Z</time></trkpt><trkpt lat="46.0324487" lon="11.8936862"><ele>306.0</ele><time>2026-04-15T12:55:42.539Z</time></trkpt><trkpt lat="46.0325175" lon="11.8938346"><ele>305.2</ele><time>2026-04-15T12:55:44.537Z</time></trkpt><trkpt lat="46.0325845" lon="11.8939722"><ele>304.40000000000003</ele><time>2026-04-15T12:55:46.539Z</time></trkpt><trkpt lat="46.0326282" lon="11.8941071"><ele>303.6</ele><time>2026-04-15T12:55:48.539Z</time></trkpt><trkpt lat="46.032626" lon="11.8942381"><ele>302.8</ele><time>2026-04-15T12:55:50.539Z</time></trkpt><trkpt lat="46.0326105" lon="11.8943602"><ele>302.0</ele><time>2026-04-15T12:55:52.538Z</time></trkpt><trkpt lat="46.0325941" lon="11.8944826"><ele>301.8</ele><time>2026-04-15T12:55:54.539Z</time></trkpt><trkpt lat="46.0325541" lon="11.8945789"><ele>301.6</ele><time>2026-04-15T12:55:56.539Z</time></trkpt><trkpt lat="46.03247" lon="11.8946467"><ele>301.40000000000003</ele><time>2026-04-15T12:55:58.539Z</time></trkpt><trkpt lat="46.0323784" lon="11.8947081"><ele>301.2</ele><time>2026-04-15T12:56:00.539Z</time></trkpt><trkpt lat="46.0322912" lon="11.8947702"><ele>301.0</ele><time>2026-04-15T12:56:02.539Z</time></trkpt><trkpt lat="46.032222" lon="11.8948519"><ele>301.0</ele><time>2026-04-15T12:56:04.537Z</time></trkpt><trkpt lat="46.0321698" lon="11.8949562"><ele>301.0</ele><time>2026-04-15T12:56:06.538Z</time></trkpt><trkpt lat="46.0321303" lon="11.8950762"><ele>301.0</ele><time>2026-04-15T12:56:08.538Z</time></trkpt><trkpt lat="46.032088" lon="11.8952016"><ele>301.0</ele><time>2026-04-15T12:56:10.538Z</time></trkpt><trkpt lat="46.0320468" lon="11.8953277"><ele>301.0</ele><time>2026-04-15T12:56:12.538Z</time></trkpt><trkpt lat="46.0319958" lon="11.8954556"><ele>300.8</ele><time>2026-04-15T12:56:14.539Z</time></trkpt><trkpt lat="46.0319487" lon="11.8955783"><ele>300.6</ele><time>2026-04-15T12:56:16.539Z</time></trkpt><trkpt lat="46.0319074" lon="11.8956978"><ele>300.4</ele><time>2026-04-15T12:56:18.539Z</time></trkpt><trkpt lat="46.0318532" lon="11.8958095"><ele>300.2</ele><time>2026-04-15T12:56:20.538Z</time></trkpt><trkpt lat="46.0317947" lon="11.8959244"><ele>300.0</ele><time>2026-04-15T12:56:22.537Z</time></trkpt><trkpt lat="46.0317422" lon="11.896036"><ele>299.8333333333333</ele><time>2026-04-15T12:56:24.538Z</time></trkpt><trkpt lat="46.0316946" lon="11.8961431"><ele>299.6666666666667</ele><time>2026-04-15T12:56:26.54Z</time></trkpt><trkpt lat="46.0316536" lon="11.8962507"><ele>299.5</ele><time>2026-04-15T12:56:28.538Z</time></trkpt><trkpt lat="46.0316305" lon="11.8963629"><ele>299.33333333333337</ele><time>2026-04-15T12:56:30.538Z</time></trkpt><trkpt lat="46.0315872" lon="11.8964634"><ele>299.1666666666667</ele><time>2026-04-15T12:56:32.539Z</time></trkpt><trkpt lat="46.0315362" lon="11.8965618"><ele>299.0</ele><time>2026-04-15T12:56:34.538Z</time></trkpt><trkpt lat="46.0314723" lon="11.8966593"><ele>297.8</ele><time>2026-04-15T12:56:36.536Z</time></trkpt><trkpt lat="46.031404" lon="11.8967688"><ele>296.59999999999997</ele><time>2026-04-15T12:56:38.538Z</time></trkpt><trkpt lat="46.0313349" lon="11.8968866"><ele>295.4</ele><time>2026-04-15T12:56:40.539Z</time></trkpt><trkpt lat="46.0312692" lon="11.8970131"><ele>294.2</ele><time>2026-04-15T12:56:42.539Z</time></trkpt><trkpt lat="46.0312142" lon="11.8971436"><ele>293.0</ele><time>2026-04-15T12:56:44.537Z</time></trkpt><trkpt lat="46.0311618" lon="11.8972707"><ele>293.0</ele><time>2026-04-15T12:56:46.539Z</time></trkpt><trkpt lat="46.0311036" lon="11.8973999"><ele>293.0</ele><time>2026-04-15T12:56:48.537Z</time></trkpt><trkpt lat="46.0310281" lon="11.8975104"><ele>293.0</ele><time>2026-04-15T12:56:50.539Z</time></trkpt><trkpt lat="46.0309584" lon="11.8976319"><ele>293.0</ele><time>2026-04-15T12:56:52.538Z</time></trkpt><trkpt lat="46.0308851" lon="11.8977388"><ele>293.0</ele><time>2026-04-15T12:56:54.538Z</time></trkpt><trkpt lat="46.030798" lon="11.8978164"><ele>292.6</ele><time>2026-04-15T12:56:56.539Z</time></trkpt><trkpt lat="46.0307153" lon="11.89788"><ele>292.20000000000005</ele><time>2026-04-15T12:56:58.539Z</time></trkpt><trkpt lat="46.0306339" lon="11.8979414"><ele>291.8</ele><time>2026-04-15T12:57:00.536Z</time></trkpt><trkpt lat="46.0305527" lon="11.8980039"><ele>291.40000000000003</ele><time>2026-04-15T12:57:02.537Z</time></trkpt><trkpt lat="46.0304654" lon="11.8980727"><ele>291.0</ele><time>2026-04-15T12:57:04.539Z</time></trkpt><trkpt lat="46.0303747" lon="11.8981377"><ele>291.0</ele><time>2026-04-15T12:57:06.537Z</time></trkpt><trkpt lat="46.0302809" lon="11.8982"><ele>291.0</ele><time>2026-04-15T12:57:08.538Z</time></trkpt><trkpt lat="46.0301885" lon="11.8982553"><ele>291.0</ele><time>2026-04-15T12:57:10.538Z</time></trkpt><trkpt lat="46.0300989" lon="11.8983032"><ele>291.0</ele><time>2026-04-15T12:57:12.538Z</time></trkpt><trkpt lat="46.0300119" lon="11.8983452"><ele>291.0</ele><time>2026-04-15T12:57:14.539Z</time></trkpt><trkpt lat="46.0299257" lon="11.8983889"><ele>291.1666666666667</ele><time>2026-04-15T12:57:16.537Z</time></trkpt><trkpt lat="46.0298444" lon="11.8984372"><ele>291.3333333333333</ele><time>2026-04-15T12:57:18.538Z</time></trkpt><trkpt lat="46.0297677" lon="11.8984811"><ele>291.5</ele><time>2026-04-15T12:57:20.538Z</time></trkpt><trkpt lat="46.0296946" lon="11.8985168"><ele>291.66666666666663</ele><time>2026-04-15T12:57:22.538Z</time></trkpt><trkpt lat="46.0296454" lon="11.8985747"><ele>291.8333333333333</ele><time>2026-04-15T12:57:24.538Z</time></trkpt><trkpt lat="46.0296725" lon="11.8986713"><ele>292.0</ele><time>2026-04-15T12:57:27.538Z</time></trkpt><trkpt lat="46.0297141" lon="11.8987954"><ele>292.0</ele><time>2026-04-15T12:57:30.538Z</time></trkpt><trkpt lat="46.0297429" lon="11.8989034"><ele>292.0</ele><time>2026-04-15T12:57:32.538Z</time></trkpt><trkpt lat="46.0297754" lon="11.8990169"><ele>292.0</ele><time>2026-04-15T12:57:34.539Z</time></trkpt><trkpt lat="46.0297995" lon="11.8991397"><ele>292.0</ele><time>2026-04-15T12:57:36.539Z</time></trkpt><trkpt lat="46.0298341" lon="11.8992599"><ele>292.0</ele><time>2026-04-15T12:57:38.539Z</time></trkpt><trkpt lat="46.0298748" lon="11.8993793"><ele>292.0</ele><time>2026-04-15T12:57:40.539Z</time></trkpt><trkpt lat="46.0299273" lon="11.8994926"><ele>291.8333333333333</ele><time>2026-04-15T12:57:42.538Z</time></trkpt><trkpt lat="46.029977" lon="11.8996095"><ele>291.66666666666663</ele><time>2026-04-15T12:57:44.538Z</time></trkpt><trkpt lat="46.0300291" lon="11.899717"><ele>291.5</ele><time>2026-04-15T12:57:46.538Z</time></trkpt><trkpt lat="46.0300683" lon="11.8998107"><ele>291.3333333333333</ele><time>2026-04-15T12:57:48.537Z</time></trkpt><trkpt lat="46.0300557" lon="11.8999134"><ele>291.1666666666667</ele><time>2026-04-15T12:57:50.538Z</time></trkpt><trkpt lat="46.0299922" lon="11.8999893"><ele>291.0</ele><time>2026-04-15T12:57:52.538Z</time></trkpt><trkpt lat="46.0299208" lon="11.9000794"><ele>290.8</ele><time>2026-04-15T12:57:54.537Z</time></trkpt><trkpt lat="46.0298491" lon="11.9001766"><ele>290.6</ele><time>2026-04-15T12:57:56.539Z</time></trkpt><trkpt lat="46.0298087" lon="11.9002975"><ele>290.4</ele><time>2026-04-15T12:57:58.537Z</time></trkpt><trkpt lat="46.0298223" lon="11.9004346"><ele>290.2</ele><time>2026-04-15T12:58:00.537Z</time></trkpt><trkpt lat="46.029881" lon="11.9005575"><ele>290.0</ele><time>2026-04-15T12:58:02.537Z</time></trkpt><trkpt lat="46.0299426" lon="11.9006752"><ele>289.8</ele><time>2026-04-15T12:58:04.537Z</time></trkpt><trkpt lat="46.0300011" lon="11.9007956"><ele>289.6</ele><time>2026-04-15T12:58:06.535Z</time></trkpt><trkpt lat="46.030057" lon="11.9009211"><ele>289.4</ele><time>2026-04-15T12:58:08.538Z</time></trkpt><trkpt lat="46.0300961" lon="11.9010598"><ele>289.2</ele><time>2026-04-15T12:58:10.539Z</time></trkpt><trkpt lat="46.0301359" lon="11.9012022"><ele>289.0</ele><time>2026-04-15T12:58:12.536Z</time></trkpt><trkpt lat="46.0301717" lon="11.9013482"><ele>289.0</ele><time>2026-04-15T12:58:14.538Z</time></trkpt><trkpt lat="46.0302027" lon="11.9015019"><ele>289.0</ele><time>2026-04-15T12:58:16.537Z</time></trkpt><trkpt lat="46.0302234" lon="11.9016562"><ele>289.0</ele><time>2026-04-15T12:58:18.539Z</time></trkpt><trkpt lat="46.0302326" lon="11.9018114"><ele>289.0</ele><time>2026-04-15T12:58:20.538Z</time></trkpt><trkpt lat="46.0302367" lon="11.9019743"><ele>289.0</ele><time>2026-04-15T12:58:22.539Z</time></trkpt><trkpt lat="46.0302356" lon="11.9021351"><ele>289.0</ele><time>2026-04-15T12:58:24.538Z</time></trkpt><trkpt lat="46.0302328" lon="11.9022908"><ele>289.0</ele><time>2026-04-15T12:58:26.539Z</time></trkpt><trkpt lat="46.0302142" lon="11.9024345"><ele>289.0</ele><time>2026-04-15T12:58:28.538Z</time></trkpt><trkpt lat="46.0301889" lon="11.9025764"><ele>289.0</ele><time>2026-04-15T12:58:30.539Z</time></trkpt><trkpt lat="46.0301649" lon="11.9027171"><ele>289.0</ele><time>2026-04-15T12:58:32.539Z</time></trkpt><trkpt lat="46.030136" lon="11.9028572"><ele>289.0</ele><time>2026-04-15T12:58:34.539Z</time></trkpt><trkpt lat="46.0301021" lon="11.9029941"><ele>289.0</ele><time>2026-04-15T12:58:36.536Z</time></trkpt><trkpt lat="46.0300621" lon="11.9031279"><ele>289.0</ele><time>2026-04-15T12:58:38.539Z</time></trkpt><trkpt lat="46.0300175" lon="11.9032611"><ele>289.0</ele><time>2026-04-15T12:58:40.538Z</time></trkpt><trkpt lat="46.0299657" lon="11.9033883"><ele>289.0</ele><time>2026-04-15T12:58:42.538Z</time></trkpt><trkpt lat="46.0299028" lon="11.9035128"><ele>289.2</ele><time>2026-04-15T12:58:44.539Z</time></trkpt><trkpt lat="46.0298282" lon="11.9036295"><ele>289.4</ele><time>2026-04-15T12:58:46.537Z</time></trkpt><trkpt lat="46.0297532" lon="11.9037408"><ele>289.6</ele><time>2026-04-15T12:58:48.539Z</time></trkpt><trkpt lat="46.0296762" lon="11.9038439"><ele>289.8</ele><time>2026-04-15T12:58:50.539Z</time></trkpt><trkpt lat="46.0295965" lon="11.9039403"><ele>290.0</ele><time>2026-04-15T12:58:52.539Z</time></trkpt><trkpt lat="46.0295123" lon="11.9040237"><ele>290.0</ele><time>2026-04-15T12:58:54.539Z</time></trkpt><trkpt lat="46.0294247" lon="11.9040999"><ele>290.0</ele><time>2026-04-15T12:58:56.538Z</time></trkpt><trkpt lat="46.0293244" lon="11.9041654"><ele>290.0</ele><time>2026-04-15T12:58:58.538Z</time></trkpt><trkpt lat="46.0292245" lon="11.9042214"><ele>290.0</ele><time>2026-04-15T12:59:00.537Z</time></trkpt><trkpt lat="46.0291269" lon="11.904277"><ele>290.0</ele><time>2026-04-15T12:59:02.538Z</time></trkpt><trkpt lat="46.0290408" lon="11.904319"><ele>289.0</ele><time>2026-04-15T12:59:04.538Z</time></trkpt><trkpt lat="46.0289535" lon="11.9043535"><ele>288.0</ele><time>2026-04-15T12:59:06.538Z</time></trkpt><trkpt lat="46.0288602" lon="11.9043888"><ele>287.0</ele><time>2026-04-15T12:59:08.539Z</time></trkpt><trkpt lat="46.0287653" lon="11.9044093"><ele>286.0</ele><time>2026-04-15T12:59:10.538Z</time></trkpt><trkpt lat="46.028666" lon="11.904423"><ele>285.0</ele><time>2026-04-15T12:59:12.538Z</time></trkpt><trkpt lat="46.0285687" lon="11.9044276"><ele>285.0</ele><time>2026-04-15T12:59:14.539Z</time></trkpt><trkpt lat="46.0284741" lon="11.9044403"><ele>285.0</ele><time>2026-04-15T12:59:16.539Z</time></trkpt><trkpt lat="46.0283806" lon="11.9044524"><ele>285.0</ele><time>2026-04-15T12:59:18.538Z</time></trkpt><trkpt lat="46.0282982" lon="11.9044911"><ele>285.0</ele><time>2026-04-15T12:59:20.539Z</time></trkpt><trkpt lat="46.0282919" lon="11.9045871"><ele>285.0</ele><time>2026-04-15T12:59:22.534Z</time></trkpt><trkpt lat="46.0283583" lon="11.9046463"><ele>285.0</ele><time>2026-04-15T12:59:24.539Z</time></trkpt><trkpt lat="46.0284409" lon="11.9046786"><ele>285.0</ele><time>2026-04-15T12:59:26.539Z</time></trkpt><trkpt lat="46.0285301" lon="11.904715"><ele>285.0</ele><time>2026-04-15T12:59:28.538Z</time></trkpt><trkpt lat="46.028618" lon="11.9047471"><ele>285.0</ele><time>2026-04-15T12:59:30.537Z</time></trkpt><trkpt lat="46.0286984" lon="11.9047861"><ele>285.0</ele><time>2026-04-15T12:59:32.538Z</time></trkpt><trkpt lat="46.0287496" lon="11.904877"><ele>285.0</ele><time>2026-04-15T12:59:34.537Z</time></trkpt><trkpt lat="46.0287506" lon="11.9049973"><ele>285.0</ele><time>2026-04-15T12:59:36.539Z</time></trkpt><trkpt lat="46.0287406" lon="11.9051272"><ele>285.4</ele><time>2026-04-15T12:59:38.539Z</time></trkpt><trkpt lat="46.0287199" lon="11.9052606"><ele>285.8</ele><time>2026-04-15T12:59:40.536Z</time></trkpt><trkpt lat="46.0286873" lon="11.9053944"><ele>286.2</ele><time>2026-04-15T12:59:42.539Z</time></trkpt><trkpt lat="46.0286585" lon="11.9055254"><ele>286.6</ele><time>2026-04-15T12:59:44.537Z</time></trkpt><trkpt lat="46.0286271" lon="11.9056516"><ele>287.0</ele><time>2026-04-15T12:59:46.538Z</time></trkpt><trkpt lat="46.0285976" lon="11.9057688"><ele>287.0</ele><time>2026-04-15T12:59:48.537Z</time></trkpt><trkpt lat="46.0285639" lon="11.9058855"><ele>287.0</ele><time>2026-04-15T12:59:50.539Z</time></trkpt><trkpt lat="46.0285208" lon="11.9060085"><ele>287.0</ele><time>2026-04-15T12:59:52.538Z</time></trkpt><trkpt lat="46.0284718" lon="11.9061335"><ele>287.0</ele><time>2026-04-15T12:59:54.538Z</time></trkpt><trkpt lat="46.0284398" lon="11.9062726"><ele>287.0</ele><time>2026-04-15T12:59:56.539Z</time></trkpt><trkpt lat="46.0284207" lon="11.9064179"><ele>286.8</ele><time>2026-04-15T12:59:58.538Z</time></trkpt><trkpt lat="46.0284166" lon="11.9065612"><ele>286.6</ele><time>2026-04-15T13:00:00.537Z</time></trkpt><trkpt lat="46.0284201" lon="11.9067036"><ele>286.40000000000003</ele><time>2026-04-15T13:00:02.539Z</time></trkpt><trkpt lat="46.0284265" lon="11.906849"><ele>286.2</ele><time>2026-04-15T13:00:04.538Z</time></trkpt><trkpt lat="46.0284212" lon="11.9069967"><ele>286.0</ele><time>2026-04-15T13:00:06.538Z</time></trkpt><trkpt lat="46.0284079" lon="11.9071376"><ele>286.0</ele><time>2026-04-15T13:00:08.538Z</time></trkpt><trkpt lat="46.0283795" lon="11.9072716"><ele>286.0</ele><time>2026-04-15T13:00:10.539Z</time></trkpt><trkpt lat="46.028345" lon="11.9074019"><ele>286.0</ele><time>2026-04-15T13:00:12.538Z</time></trkpt><trkpt lat="46.0283033" lon="11.907527"><ele>286.0</ele><time>2026-04-15T13:00:14.538Z</time></trkpt><trkpt lat="46.0282659" lon="11.9076583"><ele>286.0</ele><time>2026-04-15T13:00:16.538Z</time></trkpt><trkpt lat="46.0282507" lon="11.9078041"><ele>286.0</ele><time>2026-04-15T13:00:18.536Z</time></trkpt><trkpt lat="46.0282498" lon="11.9079566"><ele>286.0</ele><time>2026-04-15T13:00:20.538Z</time></trkpt><trkpt lat="46.0282693" lon="11.9081064"><ele>286.0</ele><time>2026-04-15T13:00:22.538Z</time></trkpt><trkpt lat="46.0282928" lon="11.9082505"><ele>286.0</ele><time>2026-04-15T13:00:24.539Z</time></trkpt><trkpt lat="46.0283144" lon="11.9083886"><ele>286.0</ele><time>2026-04-15T13:00:26.537Z</time></trkpt><trkpt lat="46.0283411" lon="11.9085206"><ele>286.0</ele><time>2026-04-15T13:00:28.538Z</time></trkpt><trkpt lat="46.0283697" lon="11.9086567"><ele>286.0</ele><time>2026-04-15T13:00:30.535Z</time></trkpt><trkpt lat="46.0283871" lon="11.9087917"><ele>286.0</ele><time>2026-04-15T13:00:32.538Z</time></trkpt><trkpt lat="46.0283937" lon="11.9089242"><ele>286.0</ele><time>2026-04-15T13:00:34.536Z</time></trkpt><trkpt lat="46.0284086" lon="11.9090562"><ele>286.0</ele><time>2026-04-15T13:00:36.539Z</time></trkpt><trkpt lat="46.0284216" lon="11.9091959"><ele>286.0</ele><time>2026-04-15T13:00:38.539Z</time></trkpt><trkpt lat="46.0284358" lon="11.909344"><ele>286.0</ele><time>2026-04-15T13:00:40.537Z</time></trkpt><trkpt lat="46.0284451" lon="11.9094892"><ele>286.0</ele><time>2026-04-15T13:00:42.537Z</time></trkpt><trkpt lat="46.0284548" lon="11.9096293"><ele>286.0</ele><time>2026-04-15T13:00:44.537Z</time></trkpt><trkpt lat="46.0284639" lon="11.9097675"><ele>286.0</ele><time>2026-04-15T13:00:46.536Z</time></trkpt><trkpt lat="46.0284729" lon="11.9099119"><ele>286.0</ele><time>2026-04-15T13:00:48.538Z</time></trkpt><trkpt lat="46.0284794" lon="11.9100597"><ele>286.0</ele><time>2026-04-15T13:00:50.538Z</time></trkpt><trkpt lat="46.0284801" lon="11.9102031"><ele>286.0</ele><time>2026-04-15T13:00:52.538Z</time></trkpt><trkpt lat="46.0284815" lon="11.9103474"><ele>286.0</ele><time>2026-04-15T13:00:54.538Z</time></trkpt><trkpt lat="46.0284836" lon="11.910489"><ele>286.0</ele><time>2026-04-15T13:00:56.54Z</time></trkpt><trkpt lat="46.0284831" lon="11.9106283"><ele>286.2</ele><time>2026-04-15T13:00:58.539Z</time></trkpt><trkpt lat="46.0284835" lon="11.9107715"><ele>286.40000000000003</ele><time>2026-04-15T13:01:00.539Z</time></trkpt><trkpt lat="46.0284874" lon="11.9109152"><ele>286.6</ele><time>2026-04-15T13:01:02.539Z</time></trkpt><trkpt lat="46.0284973" lon="11.9110538"><ele>286.8</ele><time>2026-04-15T13:01:04.539Z</time></trkpt><trkpt lat="46.028511" lon="11.9111881"><ele>287.0</ele><time>2026-04-15T13:01:06.539Z</time></trkpt><trkpt lat="46.0285324" lon="11.9113222"><ele>287.0</ele><time>2026-04-15T13:01:08.54Z</time></trkpt><trkpt lat="46.0285486" lon="11.9114567"><ele>287.0</ele><time>2026-04-15T13:01:10.538Z</time></trkpt><trkpt lat="46.0285685" lon="11.9115906"><ele>287.0</ele><time>2026-04-15T13:01:12.538Z</time></trkpt><trkpt lat="46.0285886" lon="11.9117229"><ele>287.0</ele><time>2026-04-15T13:01:14.539Z</time></trkpt><trkpt lat="46.0286112" lon="11.9118564"><ele>287.0</ele><time>2026-04-15T13:01:16.539Z</time></trkpt><trkpt lat="46.0286323" lon="11.9119784"><ele>287.0</ele><time>2026-04-15T13:01:18.538Z</time></trkpt><trkpt lat="46.0286524" lon="11.9120868"><ele>287.0</ele><time>2026-04-15T13:01:20.538Z</time></trkpt><trkpt lat="46.0286732" lon="11.9121892"><ele>287.0</ele><time>2026-04-15T13:01:22.537Z</time></trkpt><trkpt lat="46.0286899" lon="11.9122841"><ele>287.0</ele><time>2026-04-15T13:01:24.536Z</time></trkpt><trkpt lat="46.0286931" lon="11.9123748"><ele>287.0</ele><time>2026-04-15T13:01:27.536Z</time></trkpt><trkpt lat="46.0286164" lon="11.9124239"><ele>287.0</ele><time>2026-04-15T13:01:31.539Z</time></trkpt><trkpt lat="46.0285445" lon="11.9124232"><ele>287.0</ele><time>2026-04-15T13:01:33.538Z</time></trkpt><trkpt lat="46.0284578" lon="11.9124312"><ele>287.0</ele><time>2026-04-15T13:01:35.539Z</time></trkpt><trkpt lat="46.0283684" lon="11.9124381"><ele>287.0</ele><time>2026-04-15T13:01:37.538Z</time></trkpt><trkpt lat="46.0282783" lon="11.9124426"><ele>287.0</ele><time>2026-04-15T13:01:39.539Z</time></trkpt><trkpt lat="46.0281818" lon="11.9124483"><ele>287.0</ele><time>2026-04-15T13:01:41.539Z</time></trkpt><trkpt lat="46.0280821" lon="11.9124555"><ele>287.0</ele><time>2026-04-15T13:01:43.538Z</time></trkpt><trkpt lat="46.0279837" lon="11.912462"><ele>287.0</ele><time>2026-04-15T13:01:45.537Z</time></trkpt><trkpt lat="46.0278891" lon="11.9124759"><ele>287.0</ele><time>2026-04-15T13:01:47.538Z</time></trkpt><trkpt lat="46.0277961" lon="11.9124858"><ele>287.0</ele><time>2026-04-15T13:01:49.539Z</time></trkpt><trkpt lat="46.0277041" lon="11.9125142"><ele>287.0</ele><time>2026-04-15T13:01:51.535Z</time></trkpt><trkpt lat="46.0276117" lon="11.9125443"><ele>287.0</ele><time>2026-04-15T13:01:53.537Z</time></trkpt><trkpt lat="46.0275244" lon="11.912576"><ele>286.83333333333337</ele><time>2026-04-15T13:01:55.538Z</time></trkpt><trkpt lat="46.0274466" lon="11.9125814"><ele>286.6666666666667</ele><time>2026-04-15T13:01:57.537Z</time></trkpt><trkpt lat="46.0273794" lon="11.91264"><ele>286.5</ele><time>2026-04-15T13:02:00.538Z</time></trkpt><trkpt lat="46.0273852" lon="11.9127459"><ele>286.3333333333333</ele><time>2026-04-15T13:02:03.539Z</time></trkpt><trkpt lat="46.0274013" lon="11.9128464"><ele>286.16666666666663</ele><time>2026-04-15T13:02:06.538Z</time></trkpt><trkpt lat="46.0274005" lon="11.9129397"><ele>286.0</ele><time>2026-04-15T13:02:09.539Z</time></trkpt><trkpt lat="46.0273841" lon="11.9131335"><ele>286.0</ele><time>2026-04-15T13:02:46.538Z</time></trkpt></trkseg></trk></gpx>